<?xml version="1.0" encoding="UTF-8" standalone="no" ?>
<gpx xmlns="http://www.topografix.com/GPX/1/1" xmlns:xsi="http://www.w3.org/2001/XMLSchema-instance" xsi:schemaLocation="http://www.topografix.com/GPX/1/1 http://www.topografix.com/GPX/1/1/gpx.xsd" version="1.1" creator="VisuGPX - https://www.visugpx.com">
  <metadata>
    <name>Vosges - Pyrénées 10. De l'abri de l'Ungersberg est à l'abri Schaentzel</name>
    <desc><![CDATA[Trace AlpineQuest 18/03/2026 07:33:56]]></desc>
  </metadata>
  <trk>
    <name><![CDATA[visugpx_1F8Z2FwmhF_1]]></name>
    <extensions>
      <line xmlns="http://www.topografix.com/GPX/gpx_style/0/2">
        <color>0000FF</color>
        <width>4</width>
      </line>
    </extensions>
    <trkseg>
      <trkpt lat="48.3631" lon="7.37344">
        <ele>530.7</ele>
        <time>2026-03-18T06:33:56Z</time>
      </trkpt>
      <trkpt lat="48.36346" lon="7.37321">
        <ele>544.1</ele>
        <time>2026-03-18T06:34:02Z</time>
      </trkpt>
      <trkpt lat="48.36353" lon="7.37341">
        <ele>543</ele>
        <time>2026-03-18T06:34:07Z</time>
      </trkpt>
      <trkpt lat="48.36353" lon="7.37341">
        <ele>543</ele>
        <time>2026-03-18T06:34:12Z</time>
      </trkpt>
      <trkpt lat="48.36353" lon="7.37341">
        <ele>543</ele>
        <time>2026-03-18T06:34:17Z</time>
      </trkpt>
      <trkpt lat="48.36353" lon="7.37341">
        <ele>543</ele>
        <time>2026-03-18T06:34:22Z</time>
      </trkpt>
      <trkpt lat="48.36353" lon="7.37341">
        <ele>543</ele>
        <time>2026-03-18T06:34:27Z</time>
      </trkpt>
      <trkpt lat="48.3635" lon="7.37342">
        <ele>542.2</ele>
        <time>2026-03-18T06:34:32Z</time>
      </trkpt>
      <trkpt lat="48.3635" lon="7.37342">
        <ele>542.2</ele>
        <time>2026-03-18T06:34:37Z</time>
      </trkpt>
      <trkpt lat="48.3635" lon="7.37342">
        <ele>542.2</ele>
        <time>2026-03-18T06:34:42Z</time>
      </trkpt>
      <trkpt lat="48.36341" lon="7.37338">
        <ele>540.9</ele>
        <time>2026-03-18T06:34:47Z</time>
      </trkpt>
      <trkpt lat="48.36341" lon="7.37332">
        <ele>541.8</ele>
        <time>2026-03-18T06:34:52Z</time>
      </trkpt>
      <trkpt lat="48.36335" lon="7.37317">
        <ele>542.1</ele>
        <time>2026-03-18T06:34:57Z</time>
      </trkpt>
      <trkpt lat="48.36335" lon="7.37316">
        <ele>542.2</ele>
        <time>2026-03-18T06:35:02Z</time>
      </trkpt>
      <trkpt lat="48.36335" lon="7.37316">
        <ele>542.2</ele>
        <time>2026-03-18T06:35:07Z</time>
      </trkpt>
      <trkpt lat="48.36327" lon="7.37298">
        <ele>541.9</ele>
        <time>2026-03-18T06:35:12Z</time>
      </trkpt>
      <trkpt lat="48.36324" lon="7.37289">
        <ele>541.9</ele>
        <time>2026-03-18T06:35:17Z</time>
      </trkpt>
      <trkpt lat="48.36323" lon="7.37287">
        <ele>541.9</ele>
        <time>2026-03-18T06:35:22Z</time>
      </trkpt>
      <trkpt lat="48.36318" lon="7.37274">
        <ele>541.8</ele>
        <time>2026-03-18T06:35:27Z</time>
      </trkpt>
      <trkpt lat="48.36317" lon="7.37269">
        <ele>542.1</ele>
        <time>2026-03-18T06:35:32Z</time>
      </trkpt>
      <trkpt lat="48.36317" lon="7.37269">
        <ele>542.1</ele>
        <time>2026-03-18T06:35:37Z</time>
      </trkpt>
      <trkpt lat="48.36311" lon="7.37249">
        <ele>542.7</ele>
        <time>2026-03-18T06:35:42Z</time>
      </trkpt>
      <trkpt lat="48.36308" lon="7.37241">
        <ele>542.8</ele>
        <time>2026-03-18T06:35:47Z</time>
      </trkpt>
      <trkpt lat="48.36305" lon="7.37232">
        <ele>543</ele>
        <time>2026-03-18T06:35:52Z</time>
      </trkpt>
      <trkpt lat="48.36303" lon="7.37229">
        <ele>542.8</ele>
        <time>2026-03-18T06:35:57Z</time>
      </trkpt>
      <trkpt lat="48.36303" lon="7.37229">
        <ele>542.8</ele>
        <time>2026-03-18T06:36:02Z</time>
      </trkpt>
      <trkpt lat="48.36304" lon="7.37212">
        <ele>545.1</ele>
        <time>2026-03-18T06:36:07Z</time>
      </trkpt>
      <trkpt lat="48.36304" lon="7.37212">
        <ele>545.1</ele>
        <time>2026-03-18T06:36:12Z</time>
      </trkpt>
      <trkpt lat="48.36303" lon="7.37196">
        <ele>546.8</ele>
        <time>2026-03-18T06:36:17Z</time>
      </trkpt>
      <trkpt lat="48.36304" lon="7.37193">
        <ele>547.4</ele>
        <time>2026-03-18T06:36:22Z</time>
      </trkpt>
      <trkpt lat="48.36306" lon="7.37178">
        <ele>549.8</ele>
        <time>2026-03-18T06:36:27Z</time>
      </trkpt>
      <trkpt lat="48.36306" lon="7.37166">
        <ele>551.2</ele>
        <time>2026-03-18T06:36:32Z</time>
      </trkpt>
      <trkpt lat="48.36306" lon="7.37162">
        <ele>551.9</ele>
        <time>2026-03-18T06:36:37Z</time>
      </trkpt>
      <trkpt lat="48.36308" lon="7.37143">
        <ele>555.8</ele>
        <time>2026-03-18T06:36:42Z</time>
      </trkpt>
      <trkpt lat="48.36308" lon="7.37141">
        <ele>556.1</ele>
        <time>2026-03-18T06:36:47Z</time>
      </trkpt>
      <trkpt lat="48.36311" lon="7.37127">
        <ele>559.3</ele>
        <time>2026-03-18T06:36:52Z</time>
      </trkpt>
      <trkpt lat="48.3631" lon="7.37121">
        <ele>560.1</ele>
        <time>2026-03-18T06:36:57Z</time>
      </trkpt>
      <trkpt lat="48.3631" lon="7.37121">
        <ele>560.1</ele>
        <time>2026-03-18T06:37:02Z</time>
      </trkpt>
      <trkpt lat="48.36311" lon="7.37102">
        <ele>563.7</ele>
        <time>2026-03-18T06:37:07Z</time>
      </trkpt>
      <trkpt lat="48.36311" lon="7.37102">
        <ele>563.7</ele>
        <time>2026-03-18T06:37:12Z</time>
      </trkpt>
      <trkpt lat="48.36311" lon="7.37084">
        <ele>566.8</ele>
        <time>2026-03-18T06:37:17Z</time>
      </trkpt>
      <trkpt lat="48.36311" lon="7.37084">
        <ele>566.8</ele>
        <time>2026-03-18T06:37:22Z</time>
      </trkpt>
      <trkpt lat="48.3631" lon="7.37065">
        <ele>569</ele>
        <time>2026-03-18T06:37:27Z</time>
      </trkpt>
      <trkpt lat="48.36309" lon="7.37064">
        <ele>568.9</ele>
        <time>2026-03-18T06:37:32Z</time>
      </trkpt>
      <trkpt lat="48.36305" lon="7.37051">
        <ele>569.7</ele>
        <time>2026-03-18T06:37:37Z</time>
      </trkpt>
      <trkpt lat="48.36304" lon="7.37047">
        <ele>570</ele>
        <time>2026-03-18T06:37:42Z</time>
      </trkpt>
      <trkpt lat="48.36304" lon="7.37047">
        <ele>570</ele>
        <time>2026-03-18T06:37:47Z</time>
      </trkpt>
      <trkpt lat="48.36297" lon="7.3703">
        <ele>570.9</ele>
        <time>2026-03-18T06:37:52Z</time>
      </trkpt>
      <trkpt lat="48.36297" lon="7.3703">
        <ele>570.9</ele>
        <time>2026-03-18T06:37:57Z</time>
      </trkpt>
      <trkpt lat="48.3629" lon="7.37016">
        <ele>571.5</ele>
        <time>2026-03-18T06:38:02Z</time>
      </trkpt>
      <trkpt lat="48.3629" lon="7.37015">
        <ele>571.6</ele>
        <time>2026-03-18T06:38:07Z</time>
      </trkpt>
      <trkpt lat="48.3628" lon="7.37004">
        <ele>571.5</ele>
        <time>2026-03-18T06:38:12Z</time>
      </trkpt>
      <trkpt lat="48.3628" lon="7.37004">
        <ele>571.5</ele>
        <time>2026-03-18T06:38:17Z</time>
      </trkpt>
      <trkpt lat="48.36269" lon="7.36991">
        <ele>572.1</ele>
        <time>2026-03-18T06:38:22Z</time>
      </trkpt>
      <trkpt lat="48.36269" lon="7.36991">
        <ele>572.1</ele>
        <time>2026-03-18T06:38:27Z</time>
      </trkpt>
      <trkpt lat="48.3626" lon="7.36981">
        <ele>572.6</ele>
        <time>2026-03-18T06:38:32Z</time>
      </trkpt>
      <trkpt lat="48.36258" lon="7.36979">
        <ele>572.7</ele>
        <time>2026-03-18T06:38:37Z</time>
      </trkpt>
      <trkpt lat="48.3625" lon="7.36971">
        <ele>572.9</ele>
        <time>2026-03-18T06:38:42Z</time>
      </trkpt>
      <trkpt lat="48.36246" lon="7.36965">
        <ele>573.9</ele>
        <time>2026-03-18T06:38:47Z</time>
      </trkpt>
      <trkpt lat="48.3624" lon="7.36958">
        <ele>575.1</ele>
        <time>2026-03-18T06:38:52Z</time>
      </trkpt>
      <trkpt lat="48.36235" lon="7.36954">
        <ele>575.7</ele>
        <time>2026-03-18T06:38:57Z</time>
      </trkpt>
      <trkpt lat="48.36233" lon="7.3695">
        <ele>576.4</ele>
        <time>2026-03-18T06:39:02Z</time>
      </trkpt>
      <trkpt lat="48.36225" lon="7.36943">
        <ele>577.4</ele>
        <time>2026-03-18T06:39:07Z</time>
      </trkpt>
      <trkpt lat="48.3622" lon="7.36936">
        <ele>578.6</ele>
        <time>2026-03-18T06:39:12Z</time>
      </trkpt>
      <trkpt lat="48.3622" lon="7.36936">
        <ele>578.6</ele>
        <time>2026-03-18T06:39:17Z</time>
      </trkpt>
      <trkpt lat="48.36212" lon="7.36923">
        <ele>580.9</ele>
        <time>2026-03-18T06:39:22Z</time>
      </trkpt>
      <trkpt lat="48.36209" lon="7.36919">
        <ele>581.6</ele>
        <time>2026-03-18T06:39:27Z</time>
      </trkpt>
      <trkpt lat="48.36209" lon="7.36918">
        <ele>581.8</ele>
        <time>2026-03-18T06:39:32Z</time>
      </trkpt>
      <trkpt lat="48.36209" lon="7.36918">
        <ele>581.8</ele>
        <time>2026-03-18T06:39:37Z</time>
      </trkpt>
      <trkpt lat="48.36197" lon="7.36908">
        <ele>582.8</ele>
        <time>2026-03-18T06:39:42Z</time>
      </trkpt>
      <trkpt lat="48.36197" lon="7.36907">
        <ele>583</ele>
        <time>2026-03-18T06:39:47Z</time>
      </trkpt>
      <trkpt lat="48.36188" lon="7.36894">
        <ele>584.6</ele>
        <time>2026-03-18T06:39:52Z</time>
      </trkpt>
      <trkpt lat="48.36188" lon="7.36894">
        <ele>584.6</ele>
        <time>2026-03-18T06:39:57Z</time>
      </trkpt>
      <trkpt lat="48.3618" lon="7.3688">
        <ele>586.4</ele>
        <time>2026-03-18T06:40:02Z</time>
      </trkpt>
      <trkpt lat="48.36172" lon="7.3687">
        <ele>587.5</ele>
        <time>2026-03-18T06:40:07Z</time>
      </trkpt>
      <trkpt lat="48.36167" lon="7.36867">
        <ele>587.8</ele>
        <time>2026-03-18T06:40:12Z</time>
      </trkpt>
      <trkpt lat="48.36167" lon="7.36867">
        <ele>587.8</ele>
        <time>2026-03-18T06:40:17Z</time>
      </trkpt>
      <trkpt lat="48.36159" lon="7.36851">
        <ele>591.9</ele>
        <time>2026-03-18T06:40:22Z</time>
      </trkpt>
      <trkpt lat="48.36159" lon="7.36851">
        <ele>591.9</ele>
        <time>2026-03-18T06:40:27Z</time>
      </trkpt>
      <trkpt lat="48.36159" lon="7.36851">
        <ele>591.9</ele>
        <time>2026-03-18T06:40:32Z</time>
      </trkpt>
      <trkpt lat="48.36159" lon="7.36851">
        <ele>591.9</ele>
        <time>2026-03-18T06:40:37Z</time>
      </trkpt>
      <trkpt lat="48.3615" lon="7.36837">
        <ele>596.2</ele>
        <time>2026-03-18T06:40:42Z</time>
      </trkpt>
      <trkpt lat="48.36144" lon="7.36827">
        <ele>599.4</ele>
        <time>2026-03-18T06:40:47Z</time>
      </trkpt>
      <trkpt lat="48.36137" lon="7.36817">
        <ele>602.8</ele>
        <time>2026-03-18T06:40:52Z</time>
      </trkpt>
      <trkpt lat="48.36137" lon="7.36815">
        <ele>603.2</ele>
        <time>2026-03-18T06:40:57Z</time>
      </trkpt>
      <trkpt lat="48.36137" lon="7.36815">
        <ele>603.2</ele>
        <time>2026-03-18T06:41:02Z</time>
      </trkpt>
      <trkpt lat="48.36128" lon="7.368">
        <ele>607.9</ele>
        <time>2026-03-18T06:41:07Z</time>
      </trkpt>
      <trkpt lat="48.36128" lon="7.368">
        <ele>607.9</ele>
        <time>2026-03-18T06:41:12Z</time>
      </trkpt>
      <trkpt lat="48.3612" lon="7.36783">
        <ele>612.6</ele>
        <time>2026-03-18T06:41:17Z</time>
      </trkpt>
      <trkpt lat="48.36118" lon="7.3678">
        <ele>613.5</ele>
        <time>2026-03-18T06:41:22Z</time>
      </trkpt>
      <trkpt lat="48.36106" lon="7.36781">
        <ele>615.7</ele>
        <time>2026-03-18T06:41:27Z</time>
      </trkpt>
      <trkpt lat="48.36104" lon="7.36783">
        <ele>615.7</ele>
        <time>2026-03-18T06:41:32Z</time>
      </trkpt>
      <trkpt lat="48.36095" lon="7.36788">
        <ele>616.7</ele>
        <time>2026-03-18T06:41:37Z</time>
      </trkpt>
      <trkpt lat="48.3609" lon="7.36791">
        <ele>617.2</ele>
        <time>2026-03-18T06:41:42Z</time>
      </trkpt>
      <trkpt lat="48.36079" lon="7.36802">
        <ele>618</ele>
        <time>2026-03-18T06:41:47Z</time>
      </trkpt>
      <trkpt lat="48.36071" lon="7.36812">
        <ele>618.4</ele>
        <time>2026-03-18T06:41:52Z</time>
      </trkpt>
      <trkpt lat="48.36068" lon="7.36825">
        <ele>616.9</ele>
        <time>2026-03-18T06:41:57Z</time>
      </trkpt>
      <trkpt lat="48.36066" lon="7.3684">
        <ele>614.5</ele>
        <time>2026-03-18T06:42:02Z</time>
      </trkpt>
      <trkpt lat="48.36063" lon="7.36849">
        <ele>613.3</ele>
        <time>2026-03-18T06:42:07Z</time>
      </trkpt>
      <trkpt lat="48.36062" lon="7.3685">
        <ele>613.3</ele>
        <time>2026-03-18T06:42:12Z</time>
      </trkpt>
      <trkpt lat="48.36055" lon="7.36864">
        <ele>611.8</ele>
        <time>2026-03-18T06:42:17Z</time>
      </trkpt>
      <trkpt lat="48.36053" lon="7.36867">
        <ele>611.6</ele>
        <time>2026-03-18T06:42:22Z</time>
      </trkpt>
      <trkpt lat="48.36047" lon="7.36881">
        <ele>610</ele>
        <time>2026-03-18T06:42:27Z</time>
      </trkpt>
      <trkpt lat="48.36047" lon="7.36884">
        <ele>609.3</ele>
        <time>2026-03-18T06:42:32Z</time>
      </trkpt>
      <trkpt lat="48.36047" lon="7.36884">
        <ele>609.3</ele>
        <time>2026-03-18T06:42:37Z</time>
      </trkpt>
      <trkpt lat="48.36041" lon="7.36903">
        <ele>606.6</ele>
        <time>2026-03-18T06:42:42Z</time>
      </trkpt>
      <trkpt lat="48.36041" lon="7.36903">
        <ele>606.6</ele>
        <time>2026-03-18T06:42:47Z</time>
      </trkpt>
      <trkpt lat="48.36041" lon="7.36903">
        <ele>606.6</ele>
        <time>2026-03-18T06:42:52Z</time>
      </trkpt>
      <trkpt lat="48.36041" lon="7.36903">
        <ele>606.6</ele>
        <time>2026-03-18T06:42:57Z</time>
      </trkpt>
      <trkpt lat="48.36041" lon="7.36903">
        <ele>606.6</ele>
        <time>2026-03-18T06:43:02Z</time>
      </trkpt>
      <trkpt lat="48.36041" lon="7.36903">
        <ele>606.6</ele>
        <time>2026-03-18T06:43:07Z</time>
      </trkpt>
      <trkpt lat="48.36037" lon="7.36922">
        <ele>603.4</ele>
        <time>2026-03-18T06:43:12Z</time>
      </trkpt>
      <trkpt lat="48.36032" lon="7.36934">
        <ele>601.9</ele>
        <time>2026-03-18T06:43:17Z</time>
      </trkpt>
      <trkpt lat="48.36026" lon="7.3694">
        <ele>601.9</ele>
        <time>2026-03-18T06:43:22Z</time>
      </trkpt>
      <trkpt lat="48.36024" lon="7.36943">
        <ele>601.7</ele>
        <time>2026-03-18T06:43:27Z</time>
      </trkpt>
      <trkpt lat="48.36013" lon="7.36952">
        <ele>602.3</ele>
        <time>2026-03-18T06:43:32Z</time>
      </trkpt>
      <trkpt lat="48.36007" lon="7.36958">
        <ele>602.4</ele>
        <time>2026-03-18T06:43:37Z</time>
      </trkpt>
      <trkpt lat="48.36005" lon="7.3696">
        <ele>602.5</ele>
        <time>2026-03-18T06:43:42Z</time>
      </trkpt>
      <trkpt lat="48.35999" lon="7.36973">
        <ele>601.1</ele>
        <time>2026-03-18T06:43:47Z</time>
      </trkpt>
      <trkpt lat="48.35996" lon="7.36977">
        <ele>601.2</ele>
        <time>2026-03-18T06:43:52Z</time>
      </trkpt>
      <trkpt lat="48.35988" lon="7.36989">
        <ele>601.1</ele>
        <time>2026-03-18T06:43:57Z</time>
      </trkpt>
      <trkpt lat="48.35981" lon="7.36998">
        <ele>601.4</ele>
        <time>2026-03-18T06:44:02Z</time>
      </trkpt>
      <trkpt lat="48.35976" lon="7.37006">
        <ele>601</ele>
        <time>2026-03-18T06:44:07Z</time>
      </trkpt>
      <trkpt lat="48.3597" lon="7.37014">
        <ele>600.9</ele>
        <time>2026-03-18T06:44:12Z</time>
      </trkpt>
      <trkpt lat="48.35969" lon="7.37017">
        <ele>600.5</ele>
        <time>2026-03-18T06:44:17Z</time>
      </trkpt>
      <trkpt lat="48.35963" lon="7.37032">
        <ele>598.6</ele>
        <time>2026-03-18T06:44:22Z</time>
      </trkpt>
      <trkpt lat="48.35962" lon="7.37034">
        <ele>598.4</ele>
        <time>2026-03-18T06:44:27Z</time>
      </trkpt>
      <trkpt lat="48.35962" lon="7.37034">
        <ele>598.4</ele>
        <time>2026-03-18T06:44:32Z</time>
      </trkpt>
      <trkpt lat="48.35962" lon="7.37034">
        <ele>598.4</ele>
        <time>2026-03-18T06:44:37Z</time>
      </trkpt>
      <trkpt lat="48.35971" lon="7.37044">
        <ele>593.3</ele>
        <time>2026-03-18T06:44:42Z</time>
      </trkpt>
      <trkpt lat="48.35971" lon="7.37044">
        <ele>593.3</ele>
        <time>2026-03-18T06:44:47Z</time>
      </trkpt>
      <trkpt lat="48.35961" lon="7.37055">
        <ele>593.4</ele>
        <time>2026-03-18T06:44:52Z</time>
      </trkpt>
      <trkpt lat="48.35958" lon="7.37058">
        <ele>593.5</ele>
        <time>2026-03-18T06:44:57Z</time>
      </trkpt>
      <trkpt lat="48.35946" lon="7.3707">
        <ele>593.7</ele>
        <time>2026-03-18T06:45:02Z</time>
      </trkpt>
      <trkpt lat="48.35946" lon="7.3707">
        <ele>593.7</ele>
        <time>2026-03-18T06:45:07Z</time>
      </trkpt>
      <trkpt lat="48.35934" lon="7.37086">
        <ele>592.4</ele>
        <time>2026-03-18T06:45:12Z</time>
      </trkpt>
      <trkpt lat="48.35927" lon="7.37097">
        <ele>590.1</ele>
        <time>2026-03-18T06:45:17Z</time>
      </trkpt>
      <trkpt lat="48.35925" lon="7.37102">
        <ele>588.7</ele>
        <time>2026-03-18T06:45:22Z</time>
      </trkpt>
      <trkpt lat="48.35919" lon="7.37113">
        <ele>585.8</ele>
        <time>2026-03-18T06:45:27Z</time>
      </trkpt>
      <trkpt lat="48.35917" lon="7.37118">
        <ele>584.2</ele>
        <time>2026-03-18T06:45:32Z</time>
      </trkpt>
      <trkpt lat="48.35911" lon="7.37129">
        <ele>580.6</ele>
        <time>2026-03-18T06:45:37Z</time>
      </trkpt>
      <trkpt lat="48.3591" lon="7.37133">
        <ele>579.1</ele>
        <time>2026-03-18T06:45:42Z</time>
      </trkpt>
      <trkpt lat="48.35902" lon="7.37146">
        <ele>574.6</ele>
        <time>2026-03-18T06:45:47Z</time>
      </trkpt>
      <trkpt lat="48.35901" lon="7.37148">
        <ele>573.9</ele>
        <time>2026-03-18T06:45:52Z</time>
      </trkpt>
      <trkpt lat="48.35901" lon="7.37148">
        <ele>573.9</ele>
        <time>2026-03-18T06:45:57Z</time>
      </trkpt>
      <trkpt lat="48.35889" lon="7.37164">
        <ele>568.1</ele>
        <time>2026-03-18T06:46:02Z</time>
      </trkpt>
      <trkpt lat="48.35881" lon="7.37177">
        <ele>564.7</ele>
        <time>2026-03-18T06:46:07Z</time>
      </trkpt>
      <trkpt lat="48.3588" lon="7.37179">
        <ele>564.3</ele>
        <time>2026-03-18T06:46:12Z</time>
      </trkpt>
      <trkpt lat="48.35874" lon="7.3719">
        <ele>561.8</ele>
        <time>2026-03-18T06:46:17Z</time>
      </trkpt>
      <trkpt lat="48.35871" lon="7.37193">
        <ele>561.3</ele>
        <time>2026-03-18T06:46:22Z</time>
      </trkpt>
      <trkpt lat="48.35864" lon="7.37204">
        <ele>559</ele>
        <time>2026-03-18T06:46:27Z</time>
      </trkpt>
      <trkpt lat="48.35861" lon="7.37208">
        <ele>558.3</ele>
        <time>2026-03-18T06:46:32Z</time>
      </trkpt>
      <trkpt lat="48.35853" lon="7.37217">
        <ele>556.8</ele>
        <time>2026-03-18T06:46:37Z</time>
      </trkpt>
      <trkpt lat="48.3585" lon="7.3722">
        <ele>556.4</ele>
        <time>2026-03-18T06:46:42Z</time>
      </trkpt>
      <trkpt lat="48.35842" lon="7.37232">
        <ele>554.3</ele>
        <time>2026-03-18T06:46:47Z</time>
      </trkpt>
      <trkpt lat="48.35839" lon="7.37236">
        <ele>553.7</ele>
        <time>2026-03-18T06:46:52Z</time>
      </trkpt>
      <trkpt lat="48.35831" lon="7.37249">
        <ele>551.3</ele>
        <time>2026-03-18T06:46:57Z</time>
      </trkpt>
      <trkpt lat="48.3583" lon="7.3725">
        <ele>551</ele>
        <time>2026-03-18T06:47:02Z</time>
      </trkpt>
      <trkpt lat="48.35822" lon="7.37263">
        <ele>548.2</ele>
        <time>2026-03-18T06:47:07Z</time>
      </trkpt>
      <trkpt lat="48.35821" lon="7.37265">
        <ele>547.7</ele>
        <time>2026-03-18T06:47:12Z</time>
      </trkpt>
      <trkpt lat="48.35811" lon="7.37279">
        <ele>544.6</ele>
        <time>2026-03-18T06:47:17Z</time>
      </trkpt>
      <trkpt lat="48.35811" lon="7.37279">
        <ele>544.6</ele>
        <time>2026-03-18T06:47:22Z</time>
      </trkpt>
      <trkpt lat="48.35798" lon="7.37293">
        <ele>541.4</ele>
        <time>2026-03-18T06:47:27Z</time>
      </trkpt>
      <trkpt lat="48.35792" lon="7.37302">
        <ele>539.3</ele>
        <time>2026-03-18T06:47:32Z</time>
      </trkpt>
      <trkpt lat="48.35789" lon="7.37309">
        <ele>537.7</ele>
        <time>2026-03-18T06:47:37Z</time>
      </trkpt>
      <trkpt lat="48.35783" lon="7.3732">
        <ele>535.1</ele>
        <time>2026-03-18T06:47:42Z</time>
      </trkpt>
      <trkpt lat="48.35775" lon="7.37337">
        <ele>531.3</ele>
        <time>2026-03-18T06:47:47Z</time>
      </trkpt>
      <trkpt lat="48.35771" lon="7.37343">
        <ele>530.3</ele>
        <time>2026-03-18T06:47:52Z</time>
      </trkpt>
      <trkpt lat="48.35771" lon="7.37343">
        <ele>530.3</ele>
        <time>2026-03-18T06:47:57Z</time>
      </trkpt>
      <trkpt lat="48.35759" lon="7.37363">
        <ele>526.7</ele>
        <time>2026-03-18T06:48:02Z</time>
      </trkpt>
      <trkpt lat="48.35754" lon="7.37368">
        <ele>525.8</ele>
        <time>2026-03-18T06:48:07Z</time>
      </trkpt>
      <trkpt lat="48.35754" lon="7.37368">
        <ele>525.8</ele>
        <time>2026-03-18T06:48:12Z</time>
      </trkpt>
      <trkpt lat="48.3574" lon="7.37375">
        <ele>524.4</ele>
        <time>2026-03-18T06:48:17Z</time>
      </trkpt>
      <trkpt lat="48.35739" lon="7.37376">
        <ele>524.3</ele>
        <time>2026-03-18T06:48:22Z</time>
      </trkpt>
      <trkpt lat="48.35739" lon="7.37376">
        <ele>524.3</ele>
        <time>2026-03-18T06:48:27Z</time>
      </trkpt>
      <trkpt lat="48.35725" lon="7.37378">
        <ele>523.8</ele>
        <time>2026-03-18T06:48:32Z</time>
      </trkpt>
      <trkpt lat="48.35715" lon="7.37379">
        <ele>523.5</ele>
        <time>2026-03-18T06:48:37Z</time>
      </trkpt>
      <trkpt lat="48.35708" lon="7.37379">
        <ele>523.5</ele>
        <time>2026-03-18T06:48:42Z</time>
      </trkpt>
      <trkpt lat="48.35698" lon="7.37379">
        <ele>523.4</ele>
        <time>2026-03-18T06:48:47Z</time>
      </trkpt>
      <trkpt lat="48.35698" lon="7.37379">
        <ele>523.4</ele>
        <time>2026-03-18T06:48:52Z</time>
      </trkpt>
      <trkpt lat="48.35687" lon="7.37378">
        <ele>523.6</ele>
        <time>2026-03-18T06:48:57Z</time>
      </trkpt>
      <trkpt lat="48.35686" lon="7.37377">
        <ele>523.7</ele>
        <time>2026-03-18T06:49:02Z</time>
      </trkpt>
      <trkpt lat="48.35669" lon="7.37377">
        <ele>523.6</ele>
        <time>2026-03-18T06:49:07Z</time>
      </trkpt>
      <trkpt lat="48.35662" lon="7.37378">
        <ele>523</ele>
        <time>2026-03-18T06:49:12Z</time>
      </trkpt>
      <trkpt lat="48.35662" lon="7.37378">
        <ele>523</ele>
        <time>2026-03-18T06:49:17Z</time>
      </trkpt>
      <trkpt lat="48.35646" lon="7.37378">
        <ele>521.4</ele>
        <time>2026-03-18T06:49:22Z</time>
      </trkpt>
      <trkpt lat="48.35635" lon="7.37379">
        <ele>520.1</ele>
        <time>2026-03-18T06:49:27Z</time>
      </trkpt>
      <trkpt lat="48.35624" lon="7.37379">
        <ele>519.1</ele>
        <time>2026-03-18T06:49:32Z</time>
      </trkpt>
      <trkpt lat="48.35616" lon="7.3738">
        <ele>518.1</ele>
        <time>2026-03-18T06:49:37Z</time>
      </trkpt>
      <trkpt lat="48.35608" lon="7.37382">
        <ele>517.1</ele>
        <time>2026-03-18T06:49:42Z</time>
      </trkpt>
      <trkpt lat="48.356" lon="7.37382">
        <ele>516.3</ele>
        <time>2026-03-18T06:49:47Z</time>
      </trkpt>
      <trkpt lat="48.35596" lon="7.37382">
        <ele>515.9</ele>
        <time>2026-03-18T06:49:52Z</time>
      </trkpt>
      <trkpt lat="48.35587" lon="7.37384">
        <ele>514.9</ele>
        <time>2026-03-18T06:49:57Z</time>
      </trkpt>
      <trkpt lat="48.35579" lon="7.37385">
        <ele>513.6</ele>
        <time>2026-03-18T06:50:02Z</time>
      </trkpt>
      <trkpt lat="48.3557" lon="7.37387">
        <ele>511.8</ele>
        <time>2026-03-18T06:50:07Z</time>
      </trkpt>
      <trkpt lat="48.35567" lon="7.37387">
        <ele>511.3</ele>
        <time>2026-03-18T06:50:12Z</time>
      </trkpt>
      <trkpt lat="48.35558" lon="7.37388">
        <ele>509.6</ele>
        <time>2026-03-18T06:50:17Z</time>
      </trkpt>
      <trkpt lat="48.35548" lon="7.3739">
        <ele>507.7</ele>
        <time>2026-03-18T06:50:22Z</time>
      </trkpt>
      <trkpt lat="48.35539" lon="7.37391">
        <ele>506</ele>
        <time>2026-03-18T06:50:27Z</time>
      </trkpt>
      <trkpt lat="48.35534" lon="7.3739">
        <ele>505.2</ele>
        <time>2026-03-18T06:50:32Z</time>
      </trkpt>
      <trkpt lat="48.35526" lon="7.37392">
        <ele>503.7</ele>
        <time>2026-03-18T06:50:37Z</time>
      </trkpt>
      <trkpt lat="48.35521" lon="7.37394">
        <ele>502.7</ele>
        <time>2026-03-18T06:50:42Z</time>
      </trkpt>
      <trkpt lat="48.3551" lon="7.37397">
        <ele>500.6</ele>
        <time>2026-03-18T06:50:47Z</time>
      </trkpt>
      <trkpt lat="48.35503" lon="7.37399">
        <ele>499.4</ele>
        <time>2026-03-18T06:50:52Z</time>
      </trkpt>
      <trkpt lat="48.35494" lon="7.37402">
        <ele>497.4</ele>
        <time>2026-03-18T06:50:57Z</time>
      </trkpt>
      <trkpt lat="48.35485" lon="7.37404">
        <ele>495.2</ele>
        <time>2026-03-18T06:51:02Z</time>
      </trkpt>
      <trkpt lat="48.35484" lon="7.37403">
        <ele>495.1</ele>
        <time>2026-03-18T06:51:07Z</time>
      </trkpt>
      <trkpt lat="48.35473" lon="7.37403">
        <ele>492.6</ele>
        <time>2026-03-18T06:51:12Z</time>
      </trkpt>
      <trkpt lat="48.35465" lon="7.37405">
        <ele>490.7</ele>
        <time>2026-03-18T06:51:17Z</time>
      </trkpt>
      <trkpt lat="48.35458" lon="7.37408">
        <ele>488.9</ele>
        <time>2026-03-18T06:51:22Z</time>
      </trkpt>
      <trkpt lat="48.35456" lon="7.37409">
        <ele>488.4</ele>
        <time>2026-03-18T06:51:27Z</time>
      </trkpt>
      <trkpt lat="48.35456" lon="7.37409">
        <ele>488.4</ele>
        <time>2026-03-18T06:51:32Z</time>
      </trkpt>
      <trkpt lat="48.35456" lon="7.37409">
        <ele>488.4</ele>
        <time>2026-03-18T06:51:37Z</time>
      </trkpt>
      <trkpt lat="48.35456" lon="7.37409">
        <ele>488.4</ele>
        <time>2026-03-18T06:51:42Z</time>
      </trkpt>
      <trkpt lat="48.35456" lon="7.37409">
        <ele>488.4</ele>
        <time>2026-03-18T06:51:47Z</time>
      </trkpt>
      <trkpt lat="48.35456" lon="7.37409">
        <ele>488.4</ele>
        <time>2026-03-18T06:51:52Z</time>
      </trkpt>
      <trkpt lat="48.35456" lon="7.37409">
        <ele>488.4</ele>
        <time>2026-03-18T06:51:57Z</time>
      </trkpt>
      <trkpt lat="48.35456" lon="7.37409">
        <ele>488.4</ele>
        <time>2026-03-18T06:52:02Z</time>
      </trkpt>
      <trkpt lat="48.35456" lon="7.37409">
        <ele>488.4</ele>
        <time>2026-03-18T06:52:07Z</time>
      </trkpt>
      <trkpt lat="48.35456" lon="7.37409">
        <ele>488.4</ele>
        <time>2026-03-18T06:52:12Z</time>
      </trkpt>
      <trkpt lat="48.35456" lon="7.37409">
        <ele>488.4</ele>
        <time>2026-03-18T06:52:17Z</time>
      </trkpt>
      <trkpt lat="48.35456" lon="7.37409">
        <ele>488.4</ele>
        <time>2026-03-18T06:52:22Z</time>
      </trkpt>
      <trkpt lat="48.35456" lon="7.37409">
        <ele>488.4</ele>
        <time>2026-03-18T06:52:27Z</time>
      </trkpt>
      <trkpt lat="48.35456" lon="7.37409">
        <ele>488.4</ele>
        <time>2026-03-18T06:52:32Z</time>
      </trkpt>
      <trkpt lat="48.35456" lon="7.37409">
        <ele>488.4</ele>
        <time>2026-03-18T06:52:37Z</time>
      </trkpt>
      <trkpt lat="48.35456" lon="7.37409">
        <ele>488.4</ele>
        <time>2026-03-18T06:52:42Z</time>
      </trkpt>
      <trkpt lat="48.35456" lon="7.37409">
        <ele>488.4</ele>
        <time>2026-03-18T06:52:47Z</time>
      </trkpt>
      <trkpt lat="48.35445" lon="7.37409">
        <ele>485.9</ele>
        <time>2026-03-18T06:52:52Z</time>
      </trkpt>
      <trkpt lat="48.35445" lon="7.37409">
        <ele>485.9</ele>
        <time>2026-03-18T06:52:57Z</time>
      </trkpt>
      <trkpt lat="48.35445" lon="7.37409">
        <ele>485.9</ele>
        <time>2026-03-18T06:53:02Z</time>
      </trkpt>
      <trkpt lat="48.35444" lon="7.37427">
        <ele>483.3</ele>
        <time>2026-03-18T06:53:07Z</time>
      </trkpt>
      <trkpt lat="48.35444" lon="7.37427">
        <ele>483.3</ele>
        <time>2026-03-18T06:53:12Z</time>
      </trkpt>
      <trkpt lat="48.35444" lon="7.37427">
        <ele>483.3</ele>
        <time>2026-03-18T06:53:17Z</time>
      </trkpt>
      <trkpt lat="48.35439" lon="7.37445">
        <ele>478.8</ele>
        <time>2026-03-18T06:53:22Z</time>
      </trkpt>
      <trkpt lat="48.35439" lon="7.37445">
        <ele>478.8</ele>
        <time>2026-03-18T06:53:27Z</time>
      </trkpt>
      <trkpt lat="48.35438" lon="7.37466">
        <ele>474.6</ele>
        <time>2026-03-18T06:53:32Z</time>
      </trkpt>
      <trkpt lat="48.35441" lon="7.37476">
        <ele>473.5</ele>
        <time>2026-03-18T06:53:37Z</time>
      </trkpt>
      <trkpt lat="48.35442" lon="7.37482">
        <ele>472.6</ele>
        <time>2026-03-18T06:53:42Z</time>
      </trkpt>
      <trkpt lat="48.35447" lon="7.3749">
        <ele>472.6</ele>
        <time>2026-03-18T06:53:47Z</time>
      </trkpt>
      <trkpt lat="48.35451" lon="7.37501">
        <ele>471.6</ele>
        <time>2026-03-18T06:53:52Z</time>
      </trkpt>
      <trkpt lat="48.35456" lon="7.3751">
        <ele>471</ele>
        <time>2026-03-18T06:53:57Z</time>
      </trkpt>
      <trkpt lat="48.3546" lon="7.37519">
        <ele>470.1</ele>
        <time>2026-03-18T06:54:02Z</time>
      </trkpt>
      <trkpt lat="48.35462" lon="7.37524">
        <ele>469.5</ele>
        <time>2026-03-18T06:54:07Z</time>
      </trkpt>
      <trkpt lat="48.35462" lon="7.37524">
        <ele>469.5</ele>
        <time>2026-03-18T06:54:12Z</time>
      </trkpt>
      <trkpt lat="48.35469" lon="7.37542">
        <ele>467.6</ele>
        <time>2026-03-18T06:54:17Z</time>
      </trkpt>
      <trkpt lat="48.35472" lon="7.37556">
        <ele>465.4</ele>
        <time>2026-03-18T06:54:22Z</time>
      </trkpt>
      <trkpt lat="48.35474" lon="7.37566">
        <ele>463.8</ele>
        <time>2026-03-18T06:54:27Z</time>
      </trkpt>
      <trkpt lat="48.35476" lon="7.37578">
        <ele>461.8</ele>
        <time>2026-03-18T06:54:32Z</time>
      </trkpt>
      <trkpt lat="48.3548" lon="7.37587">
        <ele>461.5</ele>
        <time>2026-03-18T06:54:37Z</time>
      </trkpt>
      <trkpt lat="48.35481" lon="7.37589">
        <ele>461.5</ele>
        <time>2026-03-18T06:54:42Z</time>
      </trkpt>
      <trkpt lat="48.35485" lon="7.37602">
        <ele>460.9</ele>
        <time>2026-03-18T06:54:47Z</time>
      </trkpt>
      <trkpt lat="48.35486" lon="7.37606">
        <ele>460.6</ele>
        <time>2026-03-18T06:54:52Z</time>
      </trkpt>
      <trkpt lat="48.35487" lon="7.37624">
        <ele>458.1</ele>
        <time>2026-03-18T06:54:57Z</time>
      </trkpt>
      <trkpt lat="48.35489" lon="7.3763">
        <ele>457.8</ele>
        <time>2026-03-18T06:55:02Z</time>
      </trkpt>
      <trkpt lat="48.35489" lon="7.3763">
        <ele>457.8</ele>
        <time>2026-03-18T06:55:07Z</time>
      </trkpt>
      <trkpt lat="48.35495" lon="7.37647">
        <ele>456.8</ele>
        <time>2026-03-18T06:55:12Z</time>
      </trkpt>
      <trkpt lat="48.35496" lon="7.37649">
        <ele>456.8</ele>
        <time>2026-03-18T06:55:17Z</time>
      </trkpt>
      <trkpt lat="48.35499" lon="7.37665">
        <ele>455</ele>
        <time>2026-03-18T06:55:22Z</time>
      </trkpt>
      <trkpt lat="48.355" lon="7.37667">
        <ele>455</ele>
        <time>2026-03-18T06:55:27Z</time>
      </trkpt>
      <trkpt lat="48.355" lon="7.37667">
        <ele>455</ele>
        <time>2026-03-18T06:55:32Z</time>
      </trkpt>
      <trkpt lat="48.35509" lon="7.3768">
        <ele>454.8</ele>
        <time>2026-03-18T06:55:37Z</time>
      </trkpt>
      <trkpt lat="48.35509" lon="7.3768">
        <ele>454.8</ele>
        <time>2026-03-18T06:55:42Z</time>
      </trkpt>
      <trkpt lat="48.35509" lon="7.3768">
        <ele>454.8</ele>
        <time>2026-03-18T06:55:47Z</time>
      </trkpt>
      <trkpt lat="48.35509" lon="7.3768">
        <ele>454.8</ele>
        <time>2026-03-18T06:55:52Z</time>
      </trkpt>
      <trkpt lat="48.35509" lon="7.3768">
        <ele>454.8</ele>
        <time>2026-03-18T06:55:57Z</time>
      </trkpt>
      <trkpt lat="48.35509" lon="7.3768">
        <ele>454.8</ele>
        <time>2026-03-18T06:56:02Z</time>
      </trkpt>
      <trkpt lat="48.35509" lon="7.3768">
        <ele>454.8</ele>
        <time>2026-03-18T06:56:07Z</time>
      </trkpt>
      <trkpt lat="48.35509" lon="7.3768">
        <ele>454.8</ele>
        <time>2026-03-18T06:56:12Z</time>
      </trkpt>
      <trkpt lat="48.35509" lon="7.3768">
        <ele>454.8</ele>
        <time>2026-03-18T06:56:17Z</time>
      </trkpt>
      <trkpt lat="48.35509" lon="7.3768">
        <ele>454.8</ele>
        <time>2026-03-18T06:56:22Z</time>
      </trkpt>
      <trkpt lat="48.355" lon="7.37702">
        <ele>451.2</ele>
        <time>2026-03-18T06:56:27Z</time>
      </trkpt>
      <trkpt lat="48.35499" lon="7.37706">
        <ele>450.6</ele>
        <time>2026-03-18T06:56:32Z</time>
      </trkpt>
      <trkpt lat="48.35499" lon="7.37706">
        <ele>450.6</ele>
        <time>2026-03-18T06:56:37Z</time>
      </trkpt>
      <trkpt lat="48.35499" lon="7.37706">
        <ele>450.6</ele>
        <time>2026-03-18T06:56:42Z</time>
      </trkpt>
      <trkpt lat="48.35493" lon="7.37722">
        <ele>447.9</ele>
        <time>2026-03-18T06:56:47Z</time>
      </trkpt>
      <trkpt lat="48.35493" lon="7.37722">
        <ele>447.9</ele>
        <time>2026-03-18T06:56:52Z</time>
      </trkpt>
      <trkpt lat="48.35484" lon="7.37739">
        <ele>445.3</ele>
        <time>2026-03-18T06:56:57Z</time>
      </trkpt>
      <trkpt lat="48.35484" lon="7.3774">
        <ele>445.2</ele>
        <time>2026-03-18T06:57:02Z</time>
      </trkpt>
      <trkpt lat="48.3548" lon="7.37755">
        <ele>443.7</ele>
        <time>2026-03-18T06:57:07Z</time>
      </trkpt>
      <trkpt lat="48.35479" lon="7.37758">
        <ele>443.4</ele>
        <time>2026-03-18T06:57:12Z</time>
      </trkpt>
      <trkpt lat="48.35473" lon="7.37769">
        <ele>442.2</ele>
        <time>2026-03-18T06:57:17Z</time>
      </trkpt>
      <trkpt lat="48.35471" lon="7.37774">
        <ele>441.7</ele>
        <time>2026-03-18T06:57:22Z</time>
      </trkpt>
      <trkpt lat="48.35471" lon="7.37774">
        <ele>441.7</ele>
        <time>2026-03-18T06:57:27Z</time>
      </trkpt>
      <trkpt lat="48.35471" lon="7.37791">
        <ele>440.6</ele>
        <time>2026-03-18T06:57:32Z</time>
      </trkpt>
      <trkpt lat="48.3547" lon="7.37793">
        <ele>440.5</ele>
        <time>2026-03-18T06:57:37Z</time>
      </trkpt>
      <trkpt lat="48.35468" lon="7.37816">
        <ele>439</ele>
        <time>2026-03-18T06:57:42Z</time>
      </trkpt>
      <trkpt lat="48.35468" lon="7.37816">
        <ele>439</ele>
        <time>2026-03-18T06:57:47Z</time>
      </trkpt>
      <trkpt lat="48.35468" lon="7.37816">
        <ele>439</ele>
        <time>2026-03-18T06:57:52Z</time>
      </trkpt>
      <trkpt lat="48.35468" lon="7.37816">
        <ele>439</ele>
        <time>2026-03-18T06:57:57Z</time>
      </trkpt>
      <trkpt lat="48.35468" lon="7.37816">
        <ele>439</ele>
        <time>2026-03-18T06:58:02Z</time>
      </trkpt>
      <trkpt lat="48.35476" lon="7.37823">
        <ele>438.7</ele>
        <time>2026-03-18T06:58:07Z</time>
      </trkpt>
      <trkpt lat="48.35476" lon="7.37823">
        <ele>438.7</ele>
        <time>2026-03-18T06:58:12Z</time>
      </trkpt>
      <trkpt lat="48.35476" lon="7.37823">
        <ele>438.7</ele>
        <time>2026-03-18T06:58:17Z</time>
      </trkpt>
      <trkpt lat="48.35461" lon="7.37828">
        <ele>438.3</ele>
        <time>2026-03-18T06:58:22Z</time>
      </trkpt>
      <trkpt lat="48.3545" lon="7.37829">
        <ele>438.2</ele>
        <time>2026-03-18T06:58:27Z</time>
      </trkpt>
      <trkpt lat="48.35443" lon="7.37837">
        <ele>437.9</ele>
        <time>2026-03-18T06:58:32Z</time>
      </trkpt>
      <trkpt lat="48.35442" lon="7.37846">
        <ele>437.6</ele>
        <time>2026-03-18T06:58:37Z</time>
      </trkpt>
      <trkpt lat="48.35437" lon="7.37855">
        <ele>437.3</ele>
        <time>2026-03-18T06:58:42Z</time>
      </trkpt>
      <trkpt lat="48.35434" lon="7.37864">
        <ele>437</ele>
        <time>2026-03-18T06:58:47Z</time>
      </trkpt>
      <trkpt lat="48.35426" lon="7.37874">
        <ele>436.9</ele>
        <time>2026-03-18T06:58:52Z</time>
      </trkpt>
      <trkpt lat="48.35419" lon="7.37881">
        <ele>436.8</ele>
        <time>2026-03-18T06:58:57Z</time>
      </trkpt>
      <trkpt lat="48.35414" lon="7.37885">
        <ele>437.2</ele>
        <time>2026-03-18T06:59:02Z</time>
      </trkpt>
      <trkpt lat="48.35406" lon="7.37891">
        <ele>438.4</ele>
        <time>2026-03-18T06:59:07Z</time>
      </trkpt>
      <trkpt lat="48.35402" lon="7.37896">
        <ele>439</ele>
        <time>2026-03-18T06:59:12Z</time>
      </trkpt>
      <trkpt lat="48.35402" lon="7.37896">
        <ele>439</ele>
        <time>2026-03-18T06:59:17Z</time>
      </trkpt>
      <trkpt lat="48.35391" lon="7.37903">
        <ele>440.9</ele>
        <time>2026-03-18T06:59:22Z</time>
      </trkpt>
      <trkpt lat="48.3539" lon="7.37904">
        <ele>441.1</ele>
        <time>2026-03-18T06:59:27Z</time>
      </trkpt>
      <trkpt lat="48.35374" lon="7.37913">
        <ele>444.1</ele>
        <time>2026-03-18T06:59:32Z</time>
      </trkpt>
      <trkpt lat="48.35365" lon="7.37919">
        <ele>445.8</ele>
        <time>2026-03-18T06:59:37Z</time>
      </trkpt>
      <trkpt lat="48.35359" lon="7.37918">
        <ele>447</ele>
        <time>2026-03-18T06:59:42Z</time>
      </trkpt>
      <trkpt lat="48.35359" lon="7.37918">
        <ele>447</ele>
        <time>2026-03-18T06:59:47Z</time>
      </trkpt>
      <trkpt lat="48.35357" lon="7.37902">
        <ele>446.9</ele>
        <time>2026-03-18T06:59:52Z</time>
      </trkpt>
      <trkpt lat="48.35357" lon="7.37898">
        <ele>446.8</ele>
        <time>2026-03-18T06:59:57Z</time>
      </trkpt>
      <trkpt lat="48.35356" lon="7.37881">
        <ele>446.3</ele>
        <time>2026-03-18T07:00:02Z</time>
      </trkpt>
      <trkpt lat="48.35356" lon="7.37876">
        <ele>446.1</ele>
        <time>2026-03-18T07:00:07Z</time>
      </trkpt>
      <trkpt lat="48.35355" lon="7.3785">
        <ele>445.3</ele>
        <time>2026-03-18T07:00:12Z</time>
      </trkpt>
      <trkpt lat="48.35353" lon="7.37839">
        <ele>445.1</ele>
        <time>2026-03-18T07:00:17Z</time>
      </trkpt>
      <trkpt lat="48.35351" lon="7.37829">
        <ele>444.6</ele>
        <time>2026-03-18T07:00:22Z</time>
      </trkpt>
      <trkpt lat="48.35351" lon="7.37829">
        <ele>444.6</ele>
        <time>2026-03-18T07:00:27Z</time>
      </trkpt>
      <trkpt lat="48.35343" lon="7.37818">
        <ele>443.8</ele>
        <time>2026-03-18T07:00:32Z</time>
      </trkpt>
      <trkpt lat="48.35334" lon="7.37815">
        <ele>444.1</ele>
        <time>2026-03-18T07:00:37Z</time>
      </trkpt>
      <trkpt lat="48.35331" lon="7.37814">
        <ele>444.2</ele>
        <time>2026-03-18T07:00:42Z</time>
      </trkpt>
      <trkpt lat="48.35322" lon="7.37807">
        <ele>443.6</ele>
        <time>2026-03-18T07:00:47Z</time>
      </trkpt>
      <trkpt lat="48.35316" lon="7.37802">
        <ele>443</ele>
        <time>2026-03-18T07:00:52Z</time>
      </trkpt>
      <trkpt lat="48.35316" lon="7.37802">
        <ele>443</ele>
        <time>2026-03-18T07:00:57Z</time>
      </trkpt>
      <trkpt lat="48.35301" lon="7.378">
        <ele>443.4</ele>
        <time>2026-03-18T07:01:02Z</time>
      </trkpt>
      <trkpt lat="48.35301" lon="7.378">
        <ele>443.4</ele>
        <time>2026-03-18T07:01:07Z</time>
      </trkpt>
      <trkpt lat="48.35289" lon="7.378">
        <ele>444</ele>
        <time>2026-03-18T07:01:12Z</time>
      </trkpt>
      <trkpt lat="48.35289" lon="7.378">
        <ele>444</ele>
        <time>2026-03-18T07:01:17Z</time>
      </trkpt>
      <trkpt lat="48.35277" lon="7.37801">
        <ele>444.9</ele>
        <time>2026-03-18T07:01:22Z</time>
      </trkpt>
      <trkpt lat="48.35277" lon="7.37801">
        <ele>444.9</ele>
        <time>2026-03-18T07:01:27Z</time>
      </trkpt>
      <trkpt lat="48.35277" lon="7.37801">
        <ele>444.9</ele>
        <time>2026-03-18T07:01:32Z</time>
      </trkpt>
      <trkpt lat="48.35264" lon="7.37802">
        <ele>445.8</ele>
        <time>2026-03-18T07:01:37Z</time>
      </trkpt>
      <trkpt lat="48.35264" lon="7.37802">
        <ele>445.8</ele>
        <time>2026-03-18T07:01:42Z</time>
      </trkpt>
      <trkpt lat="48.35253" lon="7.37803">
        <ele>446.7</ele>
        <time>2026-03-18T07:01:47Z</time>
      </trkpt>
      <trkpt lat="48.3525" lon="7.37803">
        <ele>446.9</ele>
        <time>2026-03-18T07:01:52Z</time>
      </trkpt>
      <trkpt lat="48.3525" lon="7.37803">
        <ele>446.9</ele>
        <time>2026-03-18T07:01:57Z</time>
      </trkpt>
      <trkpt lat="48.3525" lon="7.37803">
        <ele>446.9</ele>
        <time>2026-03-18T07:02:02Z</time>
      </trkpt>
      <trkpt lat="48.35236" lon="7.37801">
        <ele>445.3</ele>
        <time>2026-03-18T07:02:07Z</time>
      </trkpt>
      <trkpt lat="48.35236" lon="7.37801">
        <ele>445.3</ele>
        <time>2026-03-18T07:02:12Z</time>
      </trkpt>
      <trkpt lat="48.35236" lon="7.37801">
        <ele>445.3</ele>
        <time>2026-03-18T07:02:17Z</time>
      </trkpt>
      <trkpt lat="48.35225" lon="7.378">
        <ele>444.1</ele>
        <time>2026-03-18T07:02:22Z</time>
      </trkpt>
      <trkpt lat="48.35225" lon="7.378">
        <ele>444.1</ele>
        <time>2026-03-18T07:02:27Z</time>
      </trkpt>
      <trkpt lat="48.35225" lon="7.378">
        <ele>444.1</ele>
        <time>2026-03-18T07:02:32Z</time>
      </trkpt>
      <trkpt lat="48.35214" lon="7.37801">
        <ele>443.6</ele>
        <time>2026-03-18T07:02:37Z</time>
      </trkpt>
      <trkpt lat="48.35214" lon="7.37801">
        <ele>443.6</ele>
        <time>2026-03-18T07:02:42Z</time>
      </trkpt>
      <trkpt lat="48.35214" lon="7.37801">
        <ele>443.6</ele>
        <time>2026-03-18T07:02:47Z</time>
      </trkpt>
      <trkpt lat="48.35214" lon="7.37801">
        <ele>443.6</ele>
        <time>2026-03-18T07:02:52Z</time>
      </trkpt>
      <trkpt lat="48.35204" lon="7.37804">
        <ele>443.7</ele>
        <time>2026-03-18T07:02:57Z</time>
      </trkpt>
      <trkpt lat="48.35202" lon="7.37803">
        <ele>443.3</ele>
        <time>2026-03-18T07:03:02Z</time>
      </trkpt>
      <trkpt lat="48.35202" lon="7.37803">
        <ele>443.3</ele>
        <time>2026-03-18T07:03:07Z</time>
      </trkpt>
      <trkpt lat="48.35192" lon="7.37802">
        <ele>442.3</ele>
        <time>2026-03-18T07:03:12Z</time>
      </trkpt>
      <trkpt lat="48.35192" lon="7.37802">
        <ele>442.3</ele>
        <time>2026-03-18T07:03:17Z</time>
      </trkpt>
      <trkpt lat="48.35192" lon="7.37802">
        <ele>442.3</ele>
        <time>2026-03-18T07:03:22Z</time>
      </trkpt>
      <trkpt lat="48.35181" lon="7.37802">
        <ele>441.4</ele>
        <time>2026-03-18T07:03:27Z</time>
      </trkpt>
      <trkpt lat="48.3518" lon="7.37802">
        <ele>441.4</ele>
        <time>2026-03-18T07:03:32Z</time>
      </trkpt>
      <trkpt lat="48.35169" lon="7.37806">
        <ele>441.6</ele>
        <time>2026-03-18T07:03:37Z</time>
      </trkpt>
      <trkpt lat="48.35167" lon="7.37806">
        <ele>441.5</ele>
        <time>2026-03-18T07:03:42Z</time>
      </trkpt>
      <trkpt lat="48.35167" lon="7.37806">
        <ele>441.5</ele>
        <time>2026-03-18T07:03:47Z</time>
      </trkpt>
      <trkpt lat="48.35157" lon="7.37808">
        <ele>440.4</ele>
        <time>2026-03-18T07:03:52Z</time>
      </trkpt>
      <trkpt lat="48.35156" lon="7.37809">
        <ele>440.5</ele>
        <time>2026-03-18T07:03:57Z</time>
      </trkpt>
      <trkpt lat="48.35156" lon="7.37809">
        <ele>440.5</ele>
        <time>2026-03-18T07:04:02Z</time>
      </trkpt>
      <trkpt lat="48.35144" lon="7.37816">
        <ele>440.3</ele>
        <time>2026-03-18T07:04:07Z</time>
      </trkpt>
      <trkpt lat="48.35144" lon="7.37816">
        <ele>440.3</ele>
        <time>2026-03-18T07:04:12Z</time>
      </trkpt>
      <trkpt lat="48.35137" lon="7.37828">
        <ele>442</ele>
        <time>2026-03-18T07:04:17Z</time>
      </trkpt>
      <trkpt lat="48.35136" lon="7.37831">
        <ele>442.5</ele>
        <time>2026-03-18T07:04:22Z</time>
      </trkpt>
      <trkpt lat="48.35136" lon="7.37831">
        <ele>442.5</ele>
        <time>2026-03-18T07:04:27Z</time>
      </trkpt>
      <trkpt lat="48.3513" lon="7.37847">
        <ele>444.2</ele>
        <time>2026-03-18T07:04:32Z</time>
      </trkpt>
      <trkpt lat="48.3513" lon="7.37847">
        <ele>444.2</ele>
        <time>2026-03-18T07:04:37Z</time>
      </trkpt>
      <trkpt lat="48.35126" lon="7.3786">
        <ele>445.4</ele>
        <time>2026-03-18T07:04:42Z</time>
      </trkpt>
      <trkpt lat="48.35124" lon="7.37864">
        <ele>445.6</ele>
        <time>2026-03-18T07:04:47Z</time>
      </trkpt>
      <trkpt lat="48.35121" lon="7.37877">
        <ele>446.8</ele>
        <time>2026-03-18T07:04:52Z</time>
      </trkpt>
      <trkpt lat="48.3512" lon="7.37883">
        <ele>447.5</ele>
        <time>2026-03-18T07:04:57Z</time>
      </trkpt>
      <trkpt lat="48.35113" lon="7.37893">
        <ele>447.2</ele>
        <time>2026-03-18T07:05:02Z</time>
      </trkpt>
      <trkpt lat="48.35111" lon="7.37896">
        <ele>447.1</ele>
        <time>2026-03-18T07:05:07Z</time>
      </trkpt>
      <trkpt lat="48.35111" lon="7.37896">
        <ele>447.1</ele>
        <time>2026-03-18T07:05:12Z</time>
      </trkpt>
      <trkpt lat="48.351" lon="7.37908">
        <ele>445.7</ele>
        <time>2026-03-18T07:05:17Z</time>
      </trkpt>
      <trkpt lat="48.35091" lon="7.37912">
        <ele>443.7</ele>
        <time>2026-03-18T07:05:22Z</time>
      </trkpt>
      <trkpt lat="48.35091" lon="7.37912">
        <ele>443.7</ele>
        <time>2026-03-18T07:05:27Z</time>
      </trkpt>
      <trkpt lat="48.3508" lon="7.37913">
        <ele>440.4</ele>
        <time>2026-03-18T07:05:32Z</time>
      </trkpt>
      <trkpt lat="48.35071" lon="7.37915">
        <ele>437.3</ele>
        <time>2026-03-18T07:05:37Z</time>
      </trkpt>
      <trkpt lat="48.3507" lon="7.37916">
        <ele>437</ele>
        <time>2026-03-18T07:05:42Z</time>
      </trkpt>
      <trkpt lat="48.3507" lon="7.37916">
        <ele>437</ele>
        <time>2026-03-18T07:05:47Z</time>
      </trkpt>
      <trkpt lat="48.35058" lon="7.37931">
        <ele>432.6</ele>
        <time>2026-03-18T07:05:52Z</time>
      </trkpt>
      <trkpt lat="48.35058" lon="7.37931">
        <ele>432.6</ele>
        <time>2026-03-18T07:05:57Z</time>
      </trkpt>
      <trkpt lat="48.35052" lon="7.37944">
        <ele>430.5</ele>
        <time>2026-03-18T07:06:02Z</time>
      </trkpt>
      <trkpt lat="48.35051" lon="7.37947">
        <ele>430.1</ele>
        <time>2026-03-18T07:06:07Z</time>
      </trkpt>
      <trkpt lat="48.35051" lon="7.37947">
        <ele>430.1</ele>
        <time>2026-03-18T07:06:12Z</time>
      </trkpt>
      <trkpt lat="48.35047" lon="7.37963">
        <ele>428.7</ele>
        <time>2026-03-18T07:06:17Z</time>
      </trkpt>
      <trkpt lat="48.35045" lon="7.37965">
        <ele>428</ele>
        <time>2026-03-18T07:06:22Z</time>
      </trkpt>
      <trkpt lat="48.35045" lon="7.37965">
        <ele>428</ele>
        <time>2026-03-18T07:06:27Z</time>
      </trkpt>
      <trkpt lat="48.35045" lon="7.37965">
        <ele>428</ele>
        <time>2026-03-18T07:06:32Z</time>
      </trkpt>
      <trkpt lat="48.35045" lon="7.37965">
        <ele>428</ele>
        <time>2026-03-18T07:06:37Z</time>
      </trkpt>
      <trkpt lat="48.35045" lon="7.37965">
        <ele>428</ele>
        <time>2026-03-18T07:06:42Z</time>
      </trkpt>
      <trkpt lat="48.35045" lon="7.37965">
        <ele>428</ele>
        <time>2026-03-18T07:06:47Z</time>
      </trkpt>
      <trkpt lat="48.35045" lon="7.37965">
        <ele>428</ele>
        <time>2026-03-18T07:06:52Z</time>
      </trkpt>
      <trkpt lat="48.35045" lon="7.37965">
        <ele>428</ele>
        <time>2026-03-18T07:06:57Z</time>
      </trkpt>
      <trkpt lat="48.35045" lon="7.37965">
        <ele>428</ele>
        <time>2026-03-18T07:07:02Z</time>
      </trkpt>
      <trkpt lat="48.35045" lon="7.37965">
        <ele>428</ele>
        <time>2026-03-18T07:07:07Z</time>
      </trkpt>
      <trkpt lat="48.35045" lon="7.37965">
        <ele>428</ele>
        <time>2026-03-18T07:07:12Z</time>
      </trkpt>
      <trkpt lat="48.35045" lon="7.37965">
        <ele>428</ele>
        <time>2026-03-18T07:07:17Z</time>
      </trkpt>
      <trkpt lat="48.35045" lon="7.37965">
        <ele>428</ele>
        <time>2026-03-18T07:07:22Z</time>
      </trkpt>
      <trkpt lat="48.35045" lon="7.37965">
        <ele>428</ele>
        <time>2026-03-18T07:07:27Z</time>
      </trkpt>
      <trkpt lat="48.35045" lon="7.37965">
        <ele>428</ele>
        <time>2026-03-18T07:07:32Z</time>
      </trkpt>
      <trkpt lat="48.35045" lon="7.37965">
        <ele>428</ele>
        <time>2026-03-18T07:07:37Z</time>
      </trkpt>
      <trkpt lat="48.35045" lon="7.37965">
        <ele>428</ele>
        <time>2026-03-18T07:07:42Z</time>
      </trkpt>
      <trkpt lat="48.35045" lon="7.37965">
        <ele>428</ele>
        <time>2026-03-18T07:07:47Z</time>
      </trkpt>
      <trkpt lat="48.35045" lon="7.37965">
        <ele>428</ele>
        <time>2026-03-18T07:07:52Z</time>
      </trkpt>
      <trkpt lat="48.35045" lon="7.37965">
        <ele>428</ele>
        <time>2026-03-18T07:07:57Z</time>
      </trkpt>
      <trkpt lat="48.35045" lon="7.37965">
        <ele>428</ele>
        <time>2026-03-18T07:08:02Z</time>
      </trkpt>
      <trkpt lat="48.35045" lon="7.37965">
        <ele>428</ele>
        <time>2026-03-18T07:08:07Z</time>
      </trkpt>
      <trkpt lat="48.35045" lon="7.37965">
        <ele>428</ele>
        <time>2026-03-18T07:08:12Z</time>
      </trkpt>
      <trkpt lat="48.35045" lon="7.37965">
        <ele>428</ele>
        <time>2026-03-18T07:08:17Z</time>
      </trkpt>
      <trkpt lat="48.35045" lon="7.37965">
        <ele>428</ele>
        <time>2026-03-18T07:08:22Z</time>
      </trkpt>
      <trkpt lat="48.35045" lon="7.37965">
        <ele>428</ele>
        <time>2026-03-18T07:08:27Z</time>
      </trkpt>
      <trkpt lat="48.35045" lon="7.37965">
        <ele>428</ele>
        <time>2026-03-18T07:08:32Z</time>
      </trkpt>
      <trkpt lat="48.35045" lon="7.37965">
        <ele>428</ele>
        <time>2026-03-18T07:08:37Z</time>
      </trkpt>
      <trkpt lat="48.35045" lon="7.37965">
        <ele>428</ele>
        <time>2026-03-18T07:08:42Z</time>
      </trkpt>
      <trkpt lat="48.35045" lon="7.37965">
        <ele>428</ele>
        <time>2026-03-18T07:08:47Z</time>
      </trkpt>
      <trkpt lat="48.35045" lon="7.37965">
        <ele>428</ele>
        <time>2026-03-18T07:08:52Z</time>
      </trkpt>
      <trkpt lat="48.35043" lon="7.37981">
        <ele>427.4</ele>
        <time>2026-03-18T07:08:57Z</time>
      </trkpt>
      <trkpt lat="48.35044" lon="7.37984">
        <ele>427.7</ele>
        <time>2026-03-18T07:09:02Z</time>
      </trkpt>
      <trkpt lat="48.35044" lon="7.37984">
        <ele>427.7</ele>
        <time>2026-03-18T07:09:07Z</time>
      </trkpt>
      <trkpt lat="48.35043" lon="7.38005">
        <ele>427.4</ele>
        <time>2026-03-18T07:09:12Z</time>
      </trkpt>
      <trkpt lat="48.35043" lon="7.38005">
        <ele>427.4</ele>
        <time>2026-03-18T07:09:17Z</time>
      </trkpt>
      <trkpt lat="48.35043" lon="7.38025">
        <ele>427.2</ele>
        <time>2026-03-18T07:09:22Z</time>
      </trkpt>
      <trkpt lat="48.35045" lon="7.38042">
        <ele>427.6</ele>
        <time>2026-03-18T07:09:27Z</time>
      </trkpt>
      <trkpt lat="48.35044" lon="7.38049">
        <ele>427.2</ele>
        <time>2026-03-18T07:09:32Z</time>
      </trkpt>
      <trkpt lat="48.35044" lon="7.38063">
        <ele>427</ele>
        <time>2026-03-18T07:09:37Z</time>
      </trkpt>
      <trkpt lat="48.35042" lon="7.38078">
        <ele>426.2</ele>
        <time>2026-03-18T07:09:42Z</time>
      </trkpt>
      <trkpt lat="48.35041" lon="7.38088">
        <ele>425.4</ele>
        <time>2026-03-18T07:09:47Z</time>
      </trkpt>
      <trkpt lat="48.35041" lon="7.3809">
        <ele>425.3</ele>
        <time>2026-03-18T07:09:52Z</time>
      </trkpt>
      <trkpt lat="48.35042" lon="7.38109">
        <ele>424.1</ele>
        <time>2026-03-18T07:09:57Z</time>
      </trkpt>
      <trkpt lat="48.35043" lon="7.38111">
        <ele>424.2</ele>
        <time>2026-03-18T07:10:02Z</time>
      </trkpt>
      <trkpt lat="48.35047" lon="7.38127">
        <ele>424.1</ele>
        <time>2026-03-18T07:10:07Z</time>
      </trkpt>
      <trkpt lat="48.3505" lon="7.38143">
        <ele>423.6</ele>
        <time>2026-03-18T07:10:12Z</time>
      </trkpt>
      <trkpt lat="48.35054" lon="7.38154">
        <ele>423.7</ele>
        <time>2026-03-18T07:10:17Z</time>
      </trkpt>
      <trkpt lat="48.35055" lon="7.38156">
        <ele>423.8</ele>
        <time>2026-03-18T07:10:22Z</time>
      </trkpt>
      <trkpt lat="48.35067" lon="7.3817">
        <ele>425.6</ele>
        <time>2026-03-18T07:10:27Z</time>
      </trkpt>
      <trkpt lat="48.35069" lon="7.38173">
        <ele>425.9</ele>
        <time>2026-03-18T07:10:32Z</time>
      </trkpt>
      <trkpt lat="48.35069" lon="7.38173">
        <ele>425.9</ele>
        <time>2026-03-18T07:10:37Z</time>
      </trkpt>
      <trkpt lat="48.3508" lon="7.38181">
        <ele>428</ele>
        <time>2026-03-18T07:10:42Z</time>
      </trkpt>
      <trkpt lat="48.35089" lon="7.38189">
        <ele>429.9</ele>
        <time>2026-03-18T07:10:47Z</time>
      </trkpt>
      <trkpt lat="48.35092" lon="7.38191">
        <ele>430.6</ele>
        <time>2026-03-18T07:10:52Z</time>
      </trkpt>
      <trkpt lat="48.35104" lon="7.38204">
        <ele>433.1</ele>
        <time>2026-03-18T07:10:57Z</time>
      </trkpt>
      <trkpt lat="48.35111" lon="7.38214">
        <ele>434.2</ele>
        <time>2026-03-18T07:11:02Z</time>
      </trkpt>
      <trkpt lat="48.35111" lon="7.38214">
        <ele>434.2</ele>
        <time>2026-03-18T07:11:07Z</time>
      </trkpt>
      <trkpt lat="48.35117" lon="7.38233">
        <ele>434</ele>
        <time>2026-03-18T07:11:12Z</time>
      </trkpt>
      <trkpt lat="48.35117" lon="7.38233">
        <ele>434</ele>
        <time>2026-03-18T07:11:17Z</time>
      </trkpt>
      <trkpt lat="48.35121" lon="7.38254">
        <ele>433.6</ele>
        <time>2026-03-18T07:11:22Z</time>
      </trkpt>
      <trkpt lat="48.35121" lon="7.38254">
        <ele>433.6</ele>
        <time>2026-03-18T07:11:27Z</time>
      </trkpt>
      <trkpt lat="48.35121" lon="7.3827">
        <ele>434.5</ele>
        <time>2026-03-18T07:11:32Z</time>
      </trkpt>
      <trkpt lat="48.35121" lon="7.38272">
        <ele>434.6</ele>
        <time>2026-03-18T07:11:37Z</time>
      </trkpt>
      <trkpt lat="48.3512" lon="7.38287">
        <ele>435.2</ele>
        <time>2026-03-18T07:11:42Z</time>
      </trkpt>
      <trkpt lat="48.35119" lon="7.38292">
        <ele>435.2</ele>
        <time>2026-03-18T07:11:47Z</time>
      </trkpt>
      <trkpt lat="48.35121" lon="7.38309">
        <ele>436.7</ele>
        <time>2026-03-18T07:11:52Z</time>
      </trkpt>
      <trkpt lat="48.35122" lon="7.38311">
        <ele>437</ele>
        <time>2026-03-18T07:11:57Z</time>
      </trkpt>
      <trkpt lat="48.35124" lon="7.38333">
        <ele>438.7</ele>
        <time>2026-03-18T07:12:02Z</time>
      </trkpt>
      <trkpt lat="48.35124" lon="7.38333">
        <ele>438.7</ele>
        <time>2026-03-18T07:12:07Z</time>
      </trkpt>
      <trkpt lat="48.35126" lon="7.38351">
        <ele>439.7</ele>
        <time>2026-03-18T07:12:12Z</time>
      </trkpt>
      <trkpt lat="48.35127" lon="7.38355">
        <ele>440</ele>
        <time>2026-03-18T07:12:17Z</time>
      </trkpt>
      <trkpt lat="48.35127" lon="7.38355">
        <ele>440</ele>
        <time>2026-03-18T07:12:22Z</time>
      </trkpt>
      <trkpt lat="48.3513" lon="7.38375">
        <ele>441.1</ele>
        <time>2026-03-18T07:12:27Z</time>
      </trkpt>
      <trkpt lat="48.3513" lon="7.38375">
        <ele>441.1</ele>
        <time>2026-03-18T07:12:32Z</time>
      </trkpt>
      <trkpt lat="48.35131" lon="7.38391">
        <ele>441.6</ele>
        <time>2026-03-18T07:12:37Z</time>
      </trkpt>
      <trkpt lat="48.35131" lon="7.38392">
        <ele>441.6</ele>
        <time>2026-03-18T07:12:42Z</time>
      </trkpt>
      <trkpt lat="48.35131" lon="7.38392">
        <ele>441.6</ele>
        <time>2026-03-18T07:12:47Z</time>
      </trkpt>
      <trkpt lat="48.35131" lon="7.38412">
        <ele>442.1</ele>
        <time>2026-03-18T07:12:52Z</time>
      </trkpt>
      <trkpt lat="48.35131" lon="7.38412">
        <ele>442.1</ele>
        <time>2026-03-18T07:12:57Z</time>
      </trkpt>
      <trkpt lat="48.35132" lon="7.38429">
        <ele>442</ele>
        <time>2026-03-18T07:13:02Z</time>
      </trkpt>
      <trkpt lat="48.35132" lon="7.38429">
        <ele>442</ele>
        <time>2026-03-18T07:13:07Z</time>
      </trkpt>
      <trkpt lat="48.35135" lon="7.38449">
        <ele>441.9</ele>
        <time>2026-03-18T07:13:12Z</time>
      </trkpt>
      <trkpt lat="48.35135" lon="7.38449">
        <ele>441.9</ele>
        <time>2026-03-18T07:13:17Z</time>
      </trkpt>
      <trkpt lat="48.35138" lon="7.38467">
        <ele>441.9</ele>
        <time>2026-03-18T07:13:22Z</time>
      </trkpt>
      <trkpt lat="48.35138" lon="7.38467">
        <ele>441.9</ele>
        <time>2026-03-18T07:13:27Z</time>
      </trkpt>
      <trkpt lat="48.3514" lon="7.38489">
        <ele>441.6</ele>
        <time>2026-03-18T07:13:32Z</time>
      </trkpt>
      <trkpt lat="48.3514" lon="7.38489">
        <ele>441.6</ele>
        <time>2026-03-18T07:13:37Z</time>
      </trkpt>
      <trkpt lat="48.35141" lon="7.38508">
        <ele>440.8</ele>
        <time>2026-03-18T07:13:42Z</time>
      </trkpt>
      <trkpt lat="48.35142" lon="7.38522">
        <ele>440.1</ele>
        <time>2026-03-18T07:13:47Z</time>
      </trkpt>
      <trkpt lat="48.35142" lon="7.38526">
        <ele>439.8</ele>
        <time>2026-03-18T07:13:52Z</time>
      </trkpt>
      <trkpt lat="48.35142" lon="7.38526">
        <ele>439.8</ele>
        <time>2026-03-18T07:13:57Z</time>
      </trkpt>
      <trkpt lat="48.35146" lon="7.38546">
        <ele>439.1</ele>
        <time>2026-03-18T07:14:02Z</time>
      </trkpt>
      <trkpt lat="48.35146" lon="7.38546">
        <ele>439.1</ele>
        <time>2026-03-18T07:14:07Z</time>
      </trkpt>
      <trkpt lat="48.35148" lon="7.38568">
        <ele>437.9</ele>
        <time>2026-03-18T07:14:12Z</time>
      </trkpt>
      <trkpt lat="48.35149" lon="7.38582">
        <ele>437.1</ele>
        <time>2026-03-18T07:14:17Z</time>
      </trkpt>
      <trkpt lat="48.35149" lon="7.38589">
        <ele>436.7</ele>
        <time>2026-03-18T07:14:22Z</time>
      </trkpt>
      <trkpt lat="48.35151" lon="7.38605">
        <ele>436.2</ele>
        <time>2026-03-18T07:14:27Z</time>
      </trkpt>
      <trkpt lat="48.35151" lon="7.38609">
        <ele>435.9</ele>
        <time>2026-03-18T07:14:32Z</time>
      </trkpt>
      <trkpt lat="48.35153" lon="7.38624">
        <ele>435.4</ele>
        <time>2026-03-18T07:14:37Z</time>
      </trkpt>
      <trkpt lat="48.35155" lon="7.38637">
        <ele>435</ele>
        <time>2026-03-18T07:14:42Z</time>
      </trkpt>
      <trkpt lat="48.35156" lon="7.38643">
        <ele>434.8</ele>
        <time>2026-03-18T07:14:47Z</time>
      </trkpt>
      <trkpt lat="48.35158" lon="7.38656">
        <ele>434.4</ele>
        <time>2026-03-18T07:14:52Z</time>
      </trkpt>
      <trkpt lat="48.35159" lon="7.38662">
        <ele>434.2</ele>
        <time>2026-03-18T07:14:57Z</time>
      </trkpt>
      <trkpt lat="48.3516" lon="7.38681">
        <ele>432.9</ele>
        <time>2026-03-18T07:15:02Z</time>
      </trkpt>
      <trkpt lat="48.3516" lon="7.38685">
        <ele>432.6</ele>
        <time>2026-03-18T07:15:07Z</time>
      </trkpt>
      <trkpt lat="48.35159" lon="7.38701">
        <ele>431.2</ele>
        <time>2026-03-18T07:15:12Z</time>
      </trkpt>
      <trkpt lat="48.35159" lon="7.38705">
        <ele>430.9</ele>
        <time>2026-03-18T07:15:17Z</time>
      </trkpt>
      <trkpt lat="48.35159" lon="7.38705">
        <ele>430.9</ele>
        <time>2026-03-18T07:15:22Z</time>
      </trkpt>
      <trkpt lat="48.35158" lon="7.3872">
        <ele>429.6</ele>
        <time>2026-03-18T07:15:27Z</time>
      </trkpt>
      <trkpt lat="48.35158" lon="7.38722">
        <ele>429.4</ele>
        <time>2026-03-18T07:15:32Z</time>
      </trkpt>
      <trkpt lat="48.35158" lon="7.38722">
        <ele>429.4</ele>
        <time>2026-03-18T07:15:37Z</time>
      </trkpt>
      <trkpt lat="48.35153" lon="7.3874">
        <ele>427.6</ele>
        <time>2026-03-18T07:15:42Z</time>
      </trkpt>
      <trkpt lat="48.35153" lon="7.3874">
        <ele>427.6</ele>
        <time>2026-03-18T07:15:47Z</time>
      </trkpt>
      <trkpt lat="48.35148" lon="7.38754">
        <ele>426.2</ele>
        <time>2026-03-18T07:15:52Z</time>
      </trkpt>
      <trkpt lat="48.35146" lon="7.38757">
        <ele>425.9</ele>
        <time>2026-03-18T07:15:57Z</time>
      </trkpt>
      <trkpt lat="48.35139" lon="7.38767">
        <ele>424.9</ele>
        <time>2026-03-18T07:16:02Z</time>
      </trkpt>
      <trkpt lat="48.35137" lon="7.38769">
        <ele>424.6</ele>
        <time>2026-03-18T07:16:07Z</time>
      </trkpt>
      <trkpt lat="48.35137" lon="7.38769">
        <ele>424.6</ele>
        <time>2026-03-18T07:16:12Z</time>
      </trkpt>
      <trkpt lat="48.35134" lon="7.38786">
        <ele>423.5</ele>
        <time>2026-03-18T07:16:17Z</time>
      </trkpt>
      <trkpt lat="48.35134" lon="7.38787">
        <ele>423.5</ele>
        <time>2026-03-18T07:16:22Z</time>
      </trkpt>
      <trkpt lat="48.35138" lon="7.38808">
        <ele>422.8</ele>
        <time>2026-03-18T07:16:27Z</time>
      </trkpt>
      <trkpt lat="48.35138" lon="7.38808">
        <ele>422.8</ele>
        <time>2026-03-18T07:16:32Z</time>
      </trkpt>
      <trkpt lat="48.35133" lon="7.38827">
        <ele>421.5</ele>
        <time>2026-03-18T07:16:37Z</time>
      </trkpt>
      <trkpt lat="48.35133" lon="7.38827">
        <ele>421.5</ele>
        <time>2026-03-18T07:16:42Z</time>
      </trkpt>
      <trkpt lat="48.35128" lon="7.38845">
        <ele>419.8</ele>
        <time>2026-03-18T07:16:47Z</time>
      </trkpt>
      <trkpt lat="48.35128" lon="7.38845">
        <ele>419.8</ele>
        <time>2026-03-18T07:16:52Z</time>
      </trkpt>
      <trkpt lat="48.35119" lon="7.38864">
        <ele>417.7</ele>
        <time>2026-03-18T07:16:57Z</time>
      </trkpt>
      <trkpt lat="48.35119" lon="7.38864">
        <ele>417.7</ele>
        <time>2026-03-18T07:17:02Z</time>
      </trkpt>
      <trkpt lat="48.35113" lon="7.38883">
        <ele>415.9</ele>
        <time>2026-03-18T07:17:07Z</time>
      </trkpt>
      <trkpt lat="48.35113" lon="7.38883">
        <ele>415.9</ele>
        <time>2026-03-18T07:17:12Z</time>
      </trkpt>
      <trkpt lat="48.35103" lon="7.38896">
        <ele>414.4</ele>
        <time>2026-03-18T07:17:17Z</time>
      </trkpt>
      <trkpt lat="48.35103" lon="7.38896">
        <ele>414.4</ele>
        <time>2026-03-18T07:17:22Z</time>
      </trkpt>
      <trkpt lat="48.35094" lon="7.38901">
        <ele>413.5</ele>
        <time>2026-03-18T07:17:27Z</time>
      </trkpt>
      <trkpt lat="48.35091" lon="7.38898">
        <ele>413.5</ele>
        <time>2026-03-18T07:17:32Z</time>
      </trkpt>
      <trkpt lat="48.35091" lon="7.38898">
        <ele>413.5</ele>
        <time>2026-03-18T07:17:37Z</time>
      </trkpt>
      <trkpt lat="48.35091" lon="7.38898">
        <ele>413.5</ele>
        <time>2026-03-18T07:17:42Z</time>
      </trkpt>
      <trkpt lat="48.35091" lon="7.38898">
        <ele>413.5</ele>
        <time>2026-03-18T07:17:47Z</time>
      </trkpt>
      <trkpt lat="48.35091" lon="7.38898">
        <ele>413.5</ele>
        <time>2026-03-18T07:17:52Z</time>
      </trkpt>
      <trkpt lat="48.35091" lon="7.38898">
        <ele>413.5</ele>
        <time>2026-03-18T07:17:57Z</time>
      </trkpt>
      <trkpt lat="48.35079" lon="7.38895">
        <ele>412.8</ele>
        <time>2026-03-18T07:18:02Z</time>
      </trkpt>
      <trkpt lat="48.35079" lon="7.38895">
        <ele>412.8</ele>
        <time>2026-03-18T07:18:07Z</time>
      </trkpt>
      <trkpt lat="48.35074" lon="7.38909">
        <ele>411.5</ele>
        <time>2026-03-18T07:18:12Z</time>
      </trkpt>
      <trkpt lat="48.35075" lon="7.38912">
        <ele>411.4</ele>
        <time>2026-03-18T07:18:17Z</time>
      </trkpt>
      <trkpt lat="48.35075" lon="7.38925">
        <ele>410.5</ele>
        <time>2026-03-18T07:18:22Z</time>
      </trkpt>
      <trkpt lat="48.35071" lon="7.38927">
        <ele>409.9</ele>
        <time>2026-03-18T07:18:27Z</time>
      </trkpt>
      <trkpt lat="48.35062" lon="7.38935">
        <ele>408.4</ele>
        <time>2026-03-18T07:18:32Z</time>
      </trkpt>
      <trkpt lat="48.35061" lon="7.38938">
        <ele>408.1</ele>
        <time>2026-03-18T07:18:37Z</time>
      </trkpt>
      <trkpt lat="48.35061" lon="7.38938">
        <ele>408.1</ele>
        <time>2026-03-18T07:18:42Z</time>
      </trkpt>
      <trkpt lat="48.35061" lon="7.38938">
        <ele>408.1</ele>
        <time>2026-03-18T07:18:47Z</time>
      </trkpt>
      <trkpt lat="48.35051" lon="7.38927">
        <ele>407.8</ele>
        <time>2026-03-18T07:18:52Z</time>
      </trkpt>
      <trkpt lat="48.3505" lon="7.38927">
        <ele>407.7</ele>
        <time>2026-03-18T07:18:57Z</time>
      </trkpt>
      <trkpt lat="48.35041" lon="7.38925">
        <ele>406.8</ele>
        <time>2026-03-18T07:19:02Z</time>
      </trkpt>
      <trkpt lat="48.35038" lon="7.38924">
        <ele>406.6</ele>
        <time>2026-03-18T07:19:07Z</time>
      </trkpt>
      <trkpt lat="48.35038" lon="7.38924">
        <ele>406.6</ele>
        <time>2026-03-18T07:19:12Z</time>
      </trkpt>
      <trkpt lat="48.35027" lon="7.38928">
        <ele>405.1</ele>
        <time>2026-03-18T07:19:17Z</time>
      </trkpt>
      <trkpt lat="48.35025" lon="7.38928">
        <ele>404.9</ele>
        <time>2026-03-18T07:19:22Z</time>
      </trkpt>
      <trkpt lat="48.35013" lon="7.38932">
        <ele>403.3</ele>
        <time>2026-03-18T07:19:27Z</time>
      </trkpt>
      <trkpt lat="48.35012" lon="7.38932">
        <ele>403.2</ele>
        <time>2026-03-18T07:19:32Z</time>
      </trkpt>
      <trkpt lat="48.34998" lon="7.38939">
        <ele>401.1</ele>
        <time>2026-03-18T07:19:37Z</time>
      </trkpt>
      <trkpt lat="48.34998" lon="7.38939">
        <ele>401.1</ele>
        <time>2026-03-18T07:19:42Z</time>
      </trkpt>
      <trkpt lat="48.34986" lon="7.38941">
        <ele>399</ele>
        <time>2026-03-18T07:19:47Z</time>
      </trkpt>
      <trkpt lat="48.34986" lon="7.38941">
        <ele>399</ele>
        <time>2026-03-18T07:19:52Z</time>
      </trkpt>
      <trkpt lat="48.34986" lon="7.38941">
        <ele>399</ele>
        <time>2026-03-18T07:19:57Z</time>
      </trkpt>
      <trkpt lat="48.34972" lon="7.38942">
        <ele>396.7</ele>
        <time>2026-03-18T07:20:02Z</time>
      </trkpt>
      <trkpt lat="48.34961" lon="7.38944">
        <ele>394.8</ele>
        <time>2026-03-18T07:20:07Z</time>
      </trkpt>
      <trkpt lat="48.3496" lon="7.38944">
        <ele>394.6</ele>
        <time>2026-03-18T07:20:12Z</time>
      </trkpt>
      <trkpt lat="48.3496" lon="7.38944">
        <ele>394.6</ele>
        <time>2026-03-18T07:20:17Z</time>
      </trkpt>
      <trkpt lat="48.34946" lon="7.38943">
        <ele>392.5</ele>
        <time>2026-03-18T07:20:22Z</time>
      </trkpt>
      <trkpt lat="48.34946" lon="7.38943">
        <ele>392.5</ele>
        <time>2026-03-18T07:20:27Z</time>
      </trkpt>
      <trkpt lat="48.34933" lon="7.38941">
        <ele>390.7</ele>
        <time>2026-03-18T07:20:32Z</time>
      </trkpt>
      <trkpt lat="48.34933" lon="7.38941">
        <ele>390.7</ele>
        <time>2026-03-18T07:20:37Z</time>
      </trkpt>
      <trkpt lat="48.34925" lon="7.38932">
        <ele>390.4</ele>
        <time>2026-03-18T07:20:42Z</time>
      </trkpt>
      <trkpt lat="48.34922" lon="7.3893">
        <ele>390.2</ele>
        <time>2026-03-18T07:20:47Z</time>
      </trkpt>
      <trkpt lat="48.34922" lon="7.3893">
        <ele>390.2</ele>
        <time>2026-03-18T07:20:52Z</time>
      </trkpt>
      <trkpt lat="48.34911" lon="7.38928">
        <ele>388.4</ele>
        <time>2026-03-18T07:20:57Z</time>
      </trkpt>
      <trkpt lat="48.3491" lon="7.38928">
        <ele>388.2</ele>
        <time>2026-03-18T07:21:02Z</time>
      </trkpt>
      <trkpt lat="48.3491" lon="7.38928">
        <ele>388.2</ele>
        <time>2026-03-18T07:21:07Z</time>
      </trkpt>
      <trkpt lat="48.34902" lon="7.38915">
        <ele>387.8</ele>
        <time>2026-03-18T07:21:12Z</time>
      </trkpt>
      <trkpt lat="48.34902" lon="7.38915">
        <ele>387.8</ele>
        <time>2026-03-18T07:21:17Z</time>
      </trkpt>
      <trkpt lat="48.34893" lon="7.38908">
        <ele>386.4</ele>
        <time>2026-03-18T07:21:22Z</time>
      </trkpt>
      <trkpt lat="48.34891" lon="7.38907">
        <ele>386</ele>
        <time>2026-03-18T07:21:27Z</time>
      </trkpt>
      <trkpt lat="48.34881" lon="7.38901">
        <ele>384.3</ele>
        <time>2026-03-18T07:21:32Z</time>
      </trkpt>
      <trkpt lat="48.34877" lon="7.38901">
        <ele>383.5</ele>
        <time>2026-03-18T07:21:37Z</time>
      </trkpt>
      <trkpt lat="48.34877" lon="7.38901">
        <ele>383.5</ele>
        <time>2026-03-18T07:21:42Z</time>
      </trkpt>
      <trkpt lat="48.34865" lon="7.38896">
        <ele>381.3</ele>
        <time>2026-03-18T07:21:47Z</time>
      </trkpt>
      <trkpt lat="48.34865" lon="7.38896">
        <ele>381.3</ele>
        <time>2026-03-18T07:21:52Z</time>
      </trkpt>
      <trkpt lat="48.34855" lon="7.38901">
        <ele>378.5</ele>
        <time>2026-03-18T07:21:57Z</time>
      </trkpt>
      <trkpt lat="48.34853" lon="7.38902">
        <ele>378</ele>
        <time>2026-03-18T07:22:02Z</time>
      </trkpt>
      <trkpt lat="48.34853" lon="7.38902">
        <ele>378</ele>
        <time>2026-03-18T07:22:07Z</time>
      </trkpt>
      <trkpt lat="48.3484" lon="7.38903">
        <ele>375</ele>
        <time>2026-03-18T07:22:12Z</time>
      </trkpt>
      <trkpt lat="48.3484" lon="7.38903">
        <ele>375</ele>
        <time>2026-03-18T07:22:17Z</time>
      </trkpt>
      <trkpt lat="48.34828" lon="7.38902">
        <ele>372.9</ele>
        <time>2026-03-18T07:22:22Z</time>
      </trkpt>
      <trkpt lat="48.34823" lon="7.38902">
        <ele>372.2</ele>
        <time>2026-03-18T07:22:27Z</time>
      </trkpt>
      <trkpt lat="48.34823" lon="7.38902">
        <ele>372.2</ele>
        <time>2026-03-18T07:22:32Z</time>
      </trkpt>
      <trkpt lat="48.34812" lon="7.38898">
        <ele>371.1</ele>
        <time>2026-03-18T07:22:37Z</time>
      </trkpt>
      <trkpt lat="48.34812" lon="7.38898">
        <ele>371.1</ele>
        <time>2026-03-18T07:22:42Z</time>
      </trkpt>
      <trkpt lat="48.34802" lon="7.38894">
        <ele>370.1</ele>
        <time>2026-03-18T07:22:47Z</time>
      </trkpt>
      <trkpt lat="48.34799" lon="7.38892">
        <ele>369.8</ele>
        <time>2026-03-18T07:22:52Z</time>
      </trkpt>
      <trkpt lat="48.34791" lon="7.38885">
        <ele>369.2</ele>
        <time>2026-03-18T07:22:57Z</time>
      </trkpt>
      <trkpt lat="48.34788" lon="7.38883">
        <ele>368.9</ele>
        <time>2026-03-18T07:23:02Z</time>
      </trkpt>
      <trkpt lat="48.34779" lon="7.38875">
        <ele>368</ele>
        <time>2026-03-18T07:23:07Z</time>
      </trkpt>
      <trkpt lat="48.34777" lon="7.38871">
        <ele>367.9</ele>
        <time>2026-03-18T07:23:12Z</time>
      </trkpt>
      <trkpt lat="48.34766" lon="7.38861">
        <ele>366.7</ele>
        <time>2026-03-18T07:23:17Z</time>
      </trkpt>
      <trkpt lat="48.34764" lon="7.3886">
        <ele>366.4</ele>
        <time>2026-03-18T07:23:22Z</time>
      </trkpt>
      <trkpt lat="48.34753" lon="7.38856">
        <ele>364.7</ele>
        <time>2026-03-18T07:23:27Z</time>
      </trkpt>
      <trkpt lat="48.34751" lon="7.38855">
        <ele>364.4</ele>
        <time>2026-03-18T07:23:32Z</time>
      </trkpt>
      <trkpt lat="48.34751" lon="7.38855">
        <ele>364.4</ele>
        <time>2026-03-18T07:23:37Z</time>
      </trkpt>
      <trkpt lat="48.34741" lon="7.38844">
        <ele>364</ele>
        <time>2026-03-18T07:23:42Z</time>
      </trkpt>
      <trkpt lat="48.3474" lon="7.38842">
        <ele>363.9</ele>
        <time>2026-03-18T07:23:47Z</time>
      </trkpt>
      <trkpt lat="48.34735" lon="7.3883">
        <ele>363.7</ele>
        <time>2026-03-18T07:23:52Z</time>
      </trkpt>
      <trkpt lat="48.34734" lon="7.38826">
        <ele>363.5</ele>
        <time>2026-03-18T07:23:57Z</time>
      </trkpt>
      <trkpt lat="48.34734" lon="7.38826">
        <ele>363.5</ele>
        <time>2026-03-18T07:24:02Z</time>
      </trkpt>
      <trkpt lat="48.34727" lon="7.3881">
        <ele>362.6</ele>
        <time>2026-03-18T07:24:07Z</time>
      </trkpt>
      <trkpt lat="48.34727" lon="7.3881">
        <ele>362.6</ele>
        <time>2026-03-18T07:24:12Z</time>
      </trkpt>
      <trkpt lat="48.34715" lon="7.38796">
        <ele>361</ele>
        <time>2026-03-18T07:24:17Z</time>
      </trkpt>
      <trkpt lat="48.34706" lon="7.38783">
        <ele>359.7</ele>
        <time>2026-03-18T07:24:22Z</time>
      </trkpt>
      <trkpt lat="48.34704" lon="7.38779">
        <ele>359.4</ele>
        <time>2026-03-18T07:24:27Z</time>
      </trkpt>
      <trkpt lat="48.34704" lon="7.38779">
        <ele>359.4</ele>
        <time>2026-03-18T07:24:32Z</time>
      </trkpt>
      <trkpt lat="48.34701" lon="7.38761">
        <ele>358.5</ele>
        <time>2026-03-18T07:24:37Z</time>
      </trkpt>
      <trkpt lat="48.34701" lon="7.38761">
        <ele>358.5</ele>
        <time>2026-03-18T07:24:42Z</time>
      </trkpt>
      <trkpt lat="48.34698" lon="7.38745">
        <ele>357.9</ele>
        <time>2026-03-18T07:24:47Z</time>
      </trkpt>
      <trkpt lat="48.34698" lon="7.38743">
        <ele>357.9</ele>
        <time>2026-03-18T07:24:52Z</time>
      </trkpt>
      <trkpt lat="48.34698" lon="7.38743">
        <ele>357.9</ele>
        <time>2026-03-18T07:24:57Z</time>
      </trkpt>
      <trkpt lat="48.34688" lon="7.38729">
        <ele>356.9</ele>
        <time>2026-03-18T07:25:02Z</time>
      </trkpt>
      <trkpt lat="48.34688" lon="7.38729">
        <ele>356.9</ele>
        <time>2026-03-18T07:25:07Z</time>
      </trkpt>
      <trkpt lat="48.34677" lon="7.38732">
        <ele>355.5</ele>
        <time>2026-03-18T07:25:12Z</time>
      </trkpt>
      <trkpt lat="48.34677" lon="7.38732">
        <ele>355.5</ele>
        <time>2026-03-18T07:25:17Z</time>
      </trkpt>
      <trkpt lat="48.34676" lon="7.38747">
        <ele>355.2</ele>
        <time>2026-03-18T07:25:22Z</time>
      </trkpt>
      <trkpt lat="48.34674" lon="7.38759">
        <ele>355.3</ele>
        <time>2026-03-18T07:25:27Z</time>
      </trkpt>
      <trkpt lat="48.34674" lon="7.38769">
        <ele>355.7</ele>
        <time>2026-03-18T07:25:32Z</time>
      </trkpt>
      <trkpt lat="48.34672" lon="7.38779">
        <ele>356</ele>
        <time>2026-03-18T07:25:37Z</time>
      </trkpt>
      <trkpt lat="48.3467" lon="7.3879">
        <ele>356.3</ele>
        <time>2026-03-18T07:25:42Z</time>
      </trkpt>
      <trkpt lat="48.34667" lon="7.38801">
        <ele>356.5</ele>
        <time>2026-03-18T07:25:47Z</time>
      </trkpt>
      <trkpt lat="48.34665" lon="7.3881">
        <ele>357</ele>
        <time>2026-03-18T07:25:52Z</time>
      </trkpt>
      <trkpt lat="48.34663" lon="7.38823">
        <ele>357.7</ele>
        <time>2026-03-18T07:25:57Z</time>
      </trkpt>
      <trkpt lat="48.3466" lon="7.38833">
        <ele>358.3</ele>
        <time>2026-03-18T07:26:02Z</time>
      </trkpt>
      <trkpt lat="48.34657" lon="7.38843">
        <ele>358.9</ele>
        <time>2026-03-18T07:26:07Z</time>
      </trkpt>
      <trkpt lat="48.34654" lon="7.38848">
        <ele>359.2</ele>
        <time>2026-03-18T07:26:12Z</time>
      </trkpt>
      <trkpt lat="48.3465" lon="7.38859">
        <ele>359.8</ele>
        <time>2026-03-18T07:26:17Z</time>
      </trkpt>
      <trkpt lat="48.34647" lon="7.3887">
        <ele>360.4</ele>
        <time>2026-03-18T07:26:22Z</time>
      </trkpt>
      <trkpt lat="48.34645" lon="7.3888">
        <ele>360.8</ele>
        <time>2026-03-18T07:26:27Z</time>
      </trkpt>
      <trkpt lat="48.34644" lon="7.3889">
        <ele>361.3</ele>
        <time>2026-03-18T07:26:32Z</time>
      </trkpt>
      <trkpt lat="48.34644" lon="7.38899">
        <ele>361.6</ele>
        <time>2026-03-18T07:26:37Z</time>
      </trkpt>
      <trkpt lat="48.34644" lon="7.38899">
        <ele>361.6</ele>
        <time>2026-03-18T07:26:42Z</time>
      </trkpt>
      <trkpt lat="48.34641" lon="7.38916">
        <ele>362.3</ele>
        <time>2026-03-18T07:26:47Z</time>
      </trkpt>
      <trkpt lat="48.34641" lon="7.38918">
        <ele>362.3</ele>
        <time>2026-03-18T07:26:52Z</time>
      </trkpt>
      <trkpt lat="48.3464" lon="7.38938">
        <ele>362.8</ele>
        <time>2026-03-18T07:26:57Z</time>
      </trkpt>
      <trkpt lat="48.3464" lon="7.38938">
        <ele>362.8</ele>
        <time>2026-03-18T07:27:02Z</time>
      </trkpt>
      <trkpt lat="48.34639" lon="7.38962">
        <ele>363.4</ele>
        <time>2026-03-18T07:27:07Z</time>
      </trkpt>
      <trkpt lat="48.34638" lon="7.38969">
        <ele>363.6</ele>
        <time>2026-03-18T07:27:12Z</time>
      </trkpt>
      <trkpt lat="48.3463" lon="7.38982">
        <ele>364</ele>
        <time>2026-03-18T07:27:17Z</time>
      </trkpt>
      <trkpt lat="48.34626" lon="7.38992">
        <ele>364.3</ele>
        <time>2026-03-18T07:27:22Z</time>
      </trkpt>
      <trkpt lat="48.34626" lon="7.38993">
        <ele>364.3</ele>
        <time>2026-03-18T07:27:27Z</time>
      </trkpt>
      <trkpt lat="48.34626" lon="7.38993">
        <ele>364.3</ele>
        <time>2026-03-18T07:27:32Z</time>
      </trkpt>
      <trkpt lat="48.34614" lon="7.38999">
        <ele>364.6</ele>
        <time>2026-03-18T07:27:37Z</time>
      </trkpt>
      <trkpt lat="48.34612" lon="7.38999">
        <ele>364.6</ele>
        <time>2026-03-18T07:27:42Z</time>
      </trkpt>
      <trkpt lat="48.34598" lon="7.39007">
        <ele>364.9</ele>
        <time>2026-03-18T07:27:47Z</time>
      </trkpt>
      <trkpt lat="48.34597" lon="7.39007">
        <ele>364.9</ele>
        <time>2026-03-18T07:27:52Z</time>
      </trkpt>
      <trkpt lat="48.34597" lon="7.39007">
        <ele>364.9</ele>
        <time>2026-03-18T07:27:57Z</time>
      </trkpt>
      <trkpt lat="48.34583" lon="7.39017">
        <ele>365.4</ele>
        <time>2026-03-18T07:28:02Z</time>
      </trkpt>
      <trkpt lat="48.34583" lon="7.39017">
        <ele>365.4</ele>
        <time>2026-03-18T07:28:07Z</time>
      </trkpt>
      <trkpt lat="48.34583" lon="7.39017">
        <ele>365.4</ele>
        <time>2026-03-18T07:28:12Z</time>
      </trkpt>
      <trkpt lat="48.34571" lon="7.39026">
        <ele>367.2</ele>
        <time>2026-03-18T07:28:17Z</time>
      </trkpt>
      <trkpt lat="48.34571" lon="7.39026">
        <ele>367.2</ele>
        <time>2026-03-18T07:28:22Z</time>
      </trkpt>
      <trkpt lat="48.34555" lon="7.39031">
        <ele>369.4</ele>
        <time>2026-03-18T07:28:27Z</time>
      </trkpt>
      <trkpt lat="48.34555" lon="7.39031">
        <ele>369.4</ele>
        <time>2026-03-18T07:28:32Z</time>
      </trkpt>
      <trkpt lat="48.34543" lon="7.39039">
        <ele>371.2</ele>
        <time>2026-03-18T07:28:37Z</time>
      </trkpt>
      <trkpt lat="48.34543" lon="7.39039">
        <ele>371.2</ele>
        <time>2026-03-18T07:28:42Z</time>
      </trkpt>
      <trkpt lat="48.34533" lon="7.39046">
        <ele>372.8</ele>
        <time>2026-03-18T07:28:47Z</time>
      </trkpt>
      <trkpt lat="48.3453" lon="7.39048">
        <ele>373.3</ele>
        <time>2026-03-18T07:28:52Z</time>
      </trkpt>
      <trkpt lat="48.34522" lon="7.39056">
        <ele>374.7</ele>
        <time>2026-03-18T07:28:57Z</time>
      </trkpt>
      <trkpt lat="48.34521" lon="7.39059">
        <ele>375</ele>
        <time>2026-03-18T07:29:02Z</time>
      </trkpt>
      <trkpt lat="48.34512" lon="7.39074">
        <ele>376.9</ele>
        <time>2026-03-18T07:29:07Z</time>
      </trkpt>
      <trkpt lat="48.3451" lon="7.39074">
        <ele>377.1</ele>
        <time>2026-03-18T07:29:12Z</time>
      </trkpt>
      <trkpt lat="48.34505" lon="7.3906">
        <ele>377.2</ele>
        <time>2026-03-18T07:29:17Z</time>
      </trkpt>
      <trkpt lat="48.34504" lon="7.39058">
        <ele>377.2</ele>
        <time>2026-03-18T07:29:22Z</time>
      </trkpt>
      <trkpt lat="48.34504" lon="7.39058">
        <ele>377.2</ele>
        <time>2026-03-18T07:29:27Z</time>
      </trkpt>
      <trkpt lat="48.34494" lon="7.39045">
        <ele>378.3</ele>
        <time>2026-03-18T07:29:32Z</time>
      </trkpt>
      <trkpt lat="48.34494" lon="7.39045">
        <ele>378.3</ele>
        <time>2026-03-18T07:29:37Z</time>
      </trkpt>
      <trkpt lat="48.34483" lon="7.39045">
        <ele>380.3</ele>
        <time>2026-03-18T07:29:42Z</time>
      </trkpt>
      <trkpt lat="48.34482" lon="7.39046">
        <ele>380.5</ele>
        <time>2026-03-18T07:29:47Z</time>
      </trkpt>
      <trkpt lat="48.34482" lon="7.39046">
        <ele>380.5</ele>
        <time>2026-03-18T07:29:52Z</time>
      </trkpt>
      <trkpt lat="48.34482" lon="7.39046">
        <ele>380.5</ele>
        <time>2026-03-18T07:29:57Z</time>
      </trkpt>
      <trkpt lat="48.34482" lon="7.39046">
        <ele>380.5</ele>
        <time>2026-03-18T07:30:02Z</time>
      </trkpt>
      <trkpt lat="48.34474" lon="7.39055">
        <ele>382.3</ele>
        <time>2026-03-18T07:30:07Z</time>
      </trkpt>
      <trkpt lat="48.34472" lon="7.39056">
        <ele>382.7</ele>
        <time>2026-03-18T07:30:12Z</time>
      </trkpt>
      <trkpt lat="48.34472" lon="7.39056">
        <ele>382.7</ele>
        <time>2026-03-18T07:30:17Z</time>
      </trkpt>
      <trkpt lat="48.34461" lon="7.39064">
        <ele>384.9</ele>
        <time>2026-03-18T07:30:22Z</time>
      </trkpt>
      <trkpt lat="48.34461" lon="7.39064">
        <ele>384.9</ele>
        <time>2026-03-18T07:30:27Z</time>
      </trkpt>
      <trkpt lat="48.34451" lon="7.39064">
        <ele>386.7</ele>
        <time>2026-03-18T07:30:32Z</time>
      </trkpt>
      <trkpt lat="48.34449" lon="7.39064">
        <ele>387.1</ele>
        <time>2026-03-18T07:30:37Z</time>
      </trkpt>
      <trkpt lat="48.3444" lon="7.39068">
        <ele>388.7</ele>
        <time>2026-03-18T07:30:42Z</time>
      </trkpt>
      <trkpt lat="48.34438" lon="7.39068">
        <ele>389.1</ele>
        <time>2026-03-18T07:30:47Z</time>
      </trkpt>
      <trkpt lat="48.34438" lon="7.39068">
        <ele>389.1</ele>
        <time>2026-03-18T07:30:52Z</time>
      </trkpt>
      <trkpt lat="48.34431" lon="7.39078">
        <ele>390.5</ele>
        <time>2026-03-18T07:30:57Z</time>
      </trkpt>
      <trkpt lat="48.34428" lon="7.3908">
        <ele>391</ele>
        <time>2026-03-18T07:31:02Z</time>
      </trkpt>
      <trkpt lat="48.34428" lon="7.3908">
        <ele>391</ele>
        <time>2026-03-18T07:31:07Z</time>
      </trkpt>
      <trkpt lat="48.34428" lon="7.3908">
        <ele>391</ele>
        <time>2026-03-18T07:31:12Z</time>
      </trkpt>
      <trkpt lat="48.34428" lon="7.3908">
        <ele>391</ele>
        <time>2026-03-18T07:31:17Z</time>
      </trkpt>
      <trkpt lat="48.34428" lon="7.3908">
        <ele>391</ele>
        <time>2026-03-18T07:31:22Z</time>
      </trkpt>
      <trkpt lat="48.34428" lon="7.3908">
        <ele>391</ele>
        <time>2026-03-18T07:31:27Z</time>
      </trkpt>
      <trkpt lat="48.34428" lon="7.3908">
        <ele>391</ele>
        <time>2026-03-18T07:31:32Z</time>
      </trkpt>
      <trkpt lat="48.34428" lon="7.3908">
        <ele>391</ele>
        <time>2026-03-18T07:31:37Z</time>
      </trkpt>
      <trkpt lat="48.34428" lon="7.3908">
        <ele>391</ele>
        <time>2026-03-18T07:31:42Z</time>
      </trkpt>
      <trkpt lat="48.34428" lon="7.3908">
        <ele>391</ele>
        <time>2026-03-18T07:31:47Z</time>
      </trkpt>
      <trkpt lat="48.34428" lon="7.3908">
        <ele>391</ele>
        <time>2026-03-18T07:31:52Z</time>
      </trkpt>
      <trkpt lat="48.34428" lon="7.3908">
        <ele>391</ele>
        <time>2026-03-18T07:31:57Z</time>
      </trkpt>
      <trkpt lat="48.34426" lon="7.39099">
        <ele>391.5</ele>
        <time>2026-03-18T07:32:02Z</time>
      </trkpt>
      <trkpt lat="48.34421" lon="7.39109">
        <ele>392.3</ele>
        <time>2026-03-18T07:32:07Z</time>
      </trkpt>
      <trkpt lat="48.34419" lon="7.39116">
        <ele>392.6</ele>
        <time>2026-03-18T07:32:12Z</time>
      </trkpt>
      <trkpt lat="48.34414" lon="7.3912">
        <ele>393.4</ele>
        <time>2026-03-18T07:32:17Z</time>
      </trkpt>
      <trkpt lat="48.34411" lon="7.39123">
        <ele>393.7</ele>
        <time>2026-03-18T07:32:22Z</time>
      </trkpt>
      <trkpt lat="48.34411" lon="7.39123">
        <ele>393.7</ele>
        <time>2026-03-18T07:32:27Z</time>
      </trkpt>
      <trkpt lat="48.34404" lon="7.39132">
        <ele>394.7</ele>
        <time>2026-03-18T07:32:32Z</time>
      </trkpt>
      <trkpt lat="48.34402" lon="7.39135">
        <ele>394.9</ele>
        <time>2026-03-18T07:32:37Z</time>
      </trkpt>
      <trkpt lat="48.34402" lon="7.39135">
        <ele>394.9</ele>
        <time>2026-03-18T07:32:42Z</time>
      </trkpt>
      <trkpt lat="48.3439" lon="7.39145">
        <ele>396.5</ele>
        <time>2026-03-18T07:32:47Z</time>
      </trkpt>
      <trkpt lat="48.3439" lon="7.39145">
        <ele>396.5</ele>
        <time>2026-03-18T07:32:52Z</time>
      </trkpt>
      <trkpt lat="48.34379" lon="7.39155">
        <ele>398</ele>
        <time>2026-03-18T07:32:57Z</time>
      </trkpt>
      <trkpt lat="48.34379" lon="7.39155">
        <ele>398</ele>
        <time>2026-03-18T07:33:02Z</time>
      </trkpt>
      <trkpt lat="48.3437" lon="7.39163">
        <ele>399.2</ele>
        <time>2026-03-18T07:33:07Z</time>
      </trkpt>
      <trkpt lat="48.34369" lon="7.39164">
        <ele>399.3</ele>
        <time>2026-03-18T07:33:12Z</time>
      </trkpt>
      <trkpt lat="48.34369" lon="7.39164">
        <ele>399.3</ele>
        <time>2026-03-18T07:33:17Z</time>
      </trkpt>
      <trkpt lat="48.34356" lon="7.39169">
        <ele>400.8</ele>
        <time>2026-03-18T07:33:22Z</time>
      </trkpt>
      <trkpt lat="48.34356" lon="7.39169">
        <ele>400.8</ele>
        <time>2026-03-18T07:33:27Z</time>
      </trkpt>
      <trkpt lat="48.34346" lon="7.39173">
        <ele>401.8</ele>
        <time>2026-03-18T07:33:32Z</time>
      </trkpt>
      <trkpt lat="48.34344" lon="7.39174">
        <ele>402</ele>
        <time>2026-03-18T07:33:37Z</time>
      </trkpt>
      <trkpt lat="48.34344" lon="7.39174">
        <ele>402</ele>
        <time>2026-03-18T07:33:42Z</time>
      </trkpt>
      <trkpt lat="48.34332" lon="7.3918">
        <ele>403.2</ele>
        <time>2026-03-18T07:33:47Z</time>
      </trkpt>
      <trkpt lat="48.34332" lon="7.3918">
        <ele>403.2</ele>
        <time>2026-03-18T07:33:52Z</time>
      </trkpt>
      <trkpt lat="48.34322" lon="7.39187">
        <ele>403.6</ele>
        <time>2026-03-18T07:33:57Z</time>
      </trkpt>
      <trkpt lat="48.3432" lon="7.39187">
        <ele>403.8</ele>
        <time>2026-03-18T07:34:02Z</time>
      </trkpt>
      <trkpt lat="48.3431" lon="7.39192">
        <ele>404.5</ele>
        <time>2026-03-18T07:34:07Z</time>
      </trkpt>
      <trkpt lat="48.34309" lon="7.39193">
        <ele>404.5</ele>
        <time>2026-03-18T07:34:12Z</time>
      </trkpt>
      <trkpt lat="48.34309" lon="7.39193">
        <ele>404.5</ele>
        <time>2026-03-18T07:34:17Z</time>
      </trkpt>
      <trkpt lat="48.34298" lon="7.39198">
        <ele>405.3</ele>
        <time>2026-03-18T07:34:22Z</time>
      </trkpt>
      <trkpt lat="48.34298" lon="7.39198">
        <ele>405.3</ele>
        <time>2026-03-18T07:34:27Z</time>
      </trkpt>
      <trkpt lat="48.34298" lon="7.39198">
        <ele>405.3</ele>
        <time>2026-03-18T07:34:32Z</time>
      </trkpt>
      <trkpt lat="48.34287" lon="7.39195">
        <ele>406.6</ele>
        <time>2026-03-18T07:34:37Z</time>
      </trkpt>
      <trkpt lat="48.34287" lon="7.39194">
        <ele>406.7</ele>
        <time>2026-03-18T07:34:42Z</time>
      </trkpt>
      <trkpt lat="48.34287" lon="7.39194">
        <ele>406.7</ele>
        <time>2026-03-18T07:34:47Z</time>
      </trkpt>
      <trkpt lat="48.34276" lon="7.39188">
        <ele>408</ele>
        <time>2026-03-18T07:34:52Z</time>
      </trkpt>
      <trkpt lat="48.34276" lon="7.39188">
        <ele>408</ele>
        <time>2026-03-18T07:34:57Z</time>
      </trkpt>
      <trkpt lat="48.34276" lon="7.39188">
        <ele>408</ele>
        <time>2026-03-18T07:35:02Z</time>
      </trkpt>
      <trkpt lat="48.34265" lon="7.39187">
        <ele>409.1</ele>
        <time>2026-03-18T07:35:07Z</time>
      </trkpt>
      <trkpt lat="48.34265" lon="7.39187">
        <ele>409.1</ele>
        <time>2026-03-18T07:35:12Z</time>
      </trkpt>
      <trkpt lat="48.34265" lon="7.39187">
        <ele>409.1</ele>
        <time>2026-03-18T07:35:17Z</time>
      </trkpt>
      <trkpt lat="48.34255" lon="7.39192">
        <ele>409.9</ele>
        <time>2026-03-18T07:35:22Z</time>
      </trkpt>
      <trkpt lat="48.34254" lon="7.39192">
        <ele>410</ele>
        <time>2026-03-18T07:35:27Z</time>
      </trkpt>
      <trkpt lat="48.34254" lon="7.39192">
        <ele>410</ele>
        <time>2026-03-18T07:35:32Z</time>
      </trkpt>
      <trkpt lat="48.34242" lon="7.39193">
        <ele>410.7</ele>
        <time>2026-03-18T07:35:37Z</time>
      </trkpt>
      <trkpt lat="48.34242" lon="7.39193">
        <ele>410.7</ele>
        <time>2026-03-18T07:35:42Z</time>
      </trkpt>
      <trkpt lat="48.34242" lon="7.39193">
        <ele>410.7</ele>
        <time>2026-03-18T07:35:47Z</time>
      </trkpt>
      <trkpt lat="48.34232" lon="7.39194">
        <ele>411.1</ele>
        <time>2026-03-18T07:35:52Z</time>
      </trkpt>
      <trkpt lat="48.34231" lon="7.39195">
        <ele>411.2</ele>
        <time>2026-03-18T07:35:57Z</time>
      </trkpt>
      <trkpt lat="48.34231" lon="7.39195">
        <ele>411.2</ele>
        <time>2026-03-18T07:36:02Z</time>
      </trkpt>
      <trkpt lat="48.34231" lon="7.39195">
        <ele>411.2</ele>
        <time>2026-03-18T07:36:07Z</time>
      </trkpt>
      <trkpt lat="48.34221" lon="7.39198">
        <ele>411.6</ele>
        <time>2026-03-18T07:36:12Z</time>
      </trkpt>
      <trkpt lat="48.34219" lon="7.39198">
        <ele>411.6</ele>
        <time>2026-03-18T07:36:17Z</time>
      </trkpt>
      <trkpt lat="48.34219" lon="7.39198">
        <ele>411.6</ele>
        <time>2026-03-18T07:36:22Z</time>
      </trkpt>
      <trkpt lat="48.34219" lon="7.39198">
        <ele>411.6</ele>
        <time>2026-03-18T07:36:27Z</time>
      </trkpt>
      <trkpt lat="48.34207" lon="7.39196">
        <ele>412.2</ele>
        <time>2026-03-18T07:36:32Z</time>
      </trkpt>
      <trkpt lat="48.34207" lon="7.39196">
        <ele>412.2</ele>
        <time>2026-03-18T07:36:37Z</time>
      </trkpt>
      <trkpt lat="48.34207" lon="7.39196">
        <ele>412.2</ele>
        <time>2026-03-18T07:36:42Z</time>
      </trkpt>
      <trkpt lat="48.34196" lon="7.3919">
        <ele>412.7</ele>
        <time>2026-03-18T07:36:47Z</time>
      </trkpt>
      <trkpt lat="48.34196" lon="7.3919">
        <ele>412.7</ele>
        <time>2026-03-18T07:36:52Z</time>
      </trkpt>
      <trkpt lat="48.34185" lon="7.39188">
        <ele>413.2</ele>
        <time>2026-03-18T07:36:57Z</time>
      </trkpt>
      <trkpt lat="48.34183" lon="7.39186">
        <ele>413.3</ele>
        <time>2026-03-18T07:37:02Z</time>
      </trkpt>
      <trkpt lat="48.34171" lon="7.39183">
        <ele>413.8</ele>
        <time>2026-03-18T07:37:07Z</time>
      </trkpt>
      <trkpt lat="48.34169" lon="7.39183">
        <ele>413.9</ele>
        <time>2026-03-18T07:37:12Z</time>
      </trkpt>
      <trkpt lat="48.34169" lon="7.39183">
        <ele>413.9</ele>
        <time>2026-03-18T07:37:17Z</time>
      </trkpt>
      <trkpt lat="48.34159" lon="7.39182">
        <ele>414.7</ele>
        <time>2026-03-18T07:37:22Z</time>
      </trkpt>
      <trkpt lat="48.34156" lon="7.39182">
        <ele>414.9</ele>
        <time>2026-03-18T07:37:27Z</time>
      </trkpt>
      <trkpt lat="48.34146" lon="7.39182">
        <ele>415.8</ele>
        <time>2026-03-18T07:37:32Z</time>
      </trkpt>
      <trkpt lat="48.34144" lon="7.39181">
        <ele>416</ele>
        <time>2026-03-18T07:37:37Z</time>
      </trkpt>
      <trkpt lat="48.34144" lon="7.39181">
        <ele>416</ele>
        <time>2026-03-18T07:37:42Z</time>
      </trkpt>
      <trkpt lat="48.34133" lon="7.39176">
        <ele>416.9</ele>
        <time>2026-03-18T07:37:47Z</time>
      </trkpt>
      <trkpt lat="48.34133" lon="7.39176">
        <ele>416.9</ele>
        <time>2026-03-18T07:37:52Z</time>
      </trkpt>
      <trkpt lat="48.34124" lon="7.39168">
        <ele>417.6</ele>
        <time>2026-03-18T07:37:57Z</time>
      </trkpt>
      <trkpt lat="48.34122" lon="7.39165">
        <ele>417.6</ele>
        <time>2026-03-18T07:38:02Z</time>
      </trkpt>
      <trkpt lat="48.34112" lon="7.39156">
        <ele>417.7</ele>
        <time>2026-03-18T07:38:07Z</time>
      </trkpt>
      <trkpt lat="48.34103" lon="7.39147">
        <ele>417.6</ele>
        <time>2026-03-18T07:38:12Z</time>
      </trkpt>
      <trkpt lat="48.3409" lon="7.39139">
        <ele>417.6</ele>
        <time>2026-03-18T07:38:17Z</time>
      </trkpt>
      <trkpt lat="48.34088" lon="7.39133">
        <ele>417.1</ele>
        <time>2026-03-18T07:38:22Z</time>
      </trkpt>
      <trkpt lat="48.34088" lon="7.39133">
        <ele>417.1</ele>
        <time>2026-03-18T07:38:27Z</time>
      </trkpt>
      <trkpt lat="48.34088" lon="7.39133">
        <ele>417.1</ele>
        <time>2026-03-18T07:38:32Z</time>
      </trkpt>
      <trkpt lat="48.34088" lon="7.39133">
        <ele>417.1</ele>
        <time>2026-03-18T07:38:37Z</time>
      </trkpt>
      <trkpt lat="48.34088" lon="7.39133">
        <ele>417.1</ele>
        <time>2026-03-18T07:38:42Z</time>
      </trkpt>
      <trkpt lat="48.34088" lon="7.39133">
        <ele>417.1</ele>
        <time>2026-03-18T07:38:47Z</time>
      </trkpt>
      <trkpt lat="48.34088" lon="7.39133">
        <ele>417.1</ele>
        <time>2026-03-18T07:38:52Z</time>
      </trkpt>
      <trkpt lat="48.34088" lon="7.39133">
        <ele>417.1</ele>
        <time>2026-03-18T07:38:57Z</time>
      </trkpt>
      <trkpt lat="48.34088" lon="7.39133">
        <ele>417.1</ele>
        <time>2026-03-18T07:39:02Z</time>
      </trkpt>
      <trkpt lat="48.34088" lon="7.39133">
        <ele>417.1</ele>
        <time>2026-03-18T07:39:07Z</time>
      </trkpt>
      <trkpt lat="48.34087" lon="7.39144">
        <ele>418.3</ele>
        <time>2026-03-18T07:39:12Z</time>
      </trkpt>
      <trkpt lat="48.34087" lon="7.39144">
        <ele>418.3</ele>
        <time>2026-03-18T07:39:17Z</time>
      </trkpt>
      <trkpt lat="48.34085" lon="7.39157">
        <ele>419.8</ele>
        <time>2026-03-18T07:39:22Z</time>
      </trkpt>
      <trkpt lat="48.34084" lon="7.39158">
        <ele>420</ele>
        <time>2026-03-18T07:39:27Z</time>
      </trkpt>
      <trkpt lat="48.34084" lon="7.39158">
        <ele>420</ele>
        <time>2026-03-18T07:39:32Z</time>
      </trkpt>
      <trkpt lat="48.34084" lon="7.39158">
        <ele>420</ele>
        <time>2026-03-18T07:39:37Z</time>
      </trkpt>
      <trkpt lat="48.34084" lon="7.39158">
        <ele>420</ele>
        <time>2026-03-18T07:39:42Z</time>
      </trkpt>
      <trkpt lat="48.34084" lon="7.39158">
        <ele>420</ele>
        <time>2026-03-18T07:39:47Z</time>
      </trkpt>
      <trkpt lat="48.34084" lon="7.39158">
        <ele>420</ele>
        <time>2026-03-18T07:39:52Z</time>
      </trkpt>
      <trkpt lat="48.34084" lon="7.39158">
        <ele>420</ele>
        <time>2026-03-18T07:39:57Z</time>
      </trkpt>
      <trkpt lat="48.34084" lon="7.39158">
        <ele>420</ele>
        <time>2026-03-18T07:40:02Z</time>
      </trkpt>
      <trkpt lat="48.34084" lon="7.39158">
        <ele>420</ele>
        <time>2026-03-18T07:40:07Z</time>
      </trkpt>
      <trkpt lat="48.34084" lon="7.39158">
        <ele>420</ele>
        <time>2026-03-18T07:40:12Z</time>
      </trkpt>
      <trkpt lat="48.34084" lon="7.39158">
        <ele>420</ele>
        <time>2026-03-18T07:40:17Z</time>
      </trkpt>
      <trkpt lat="48.34084" lon="7.39158">
        <ele>420</ele>
        <time>2026-03-18T07:40:22Z</time>
      </trkpt>
      <trkpt lat="48.34084" lon="7.39158">
        <ele>420</ele>
        <time>2026-03-18T07:40:27Z</time>
      </trkpt>
      <trkpt lat="48.34084" lon="7.39158">
        <ele>420</ele>
        <time>2026-03-18T07:40:32Z</time>
      </trkpt>
      <trkpt lat="48.34084" lon="7.39158">
        <ele>420</ele>
        <time>2026-03-18T07:40:37Z</time>
      </trkpt>
      <trkpt lat="48.34084" lon="7.39158">
        <ele>420</ele>
        <time>2026-03-18T07:40:42Z</time>
      </trkpt>
      <trkpt lat="48.34084" lon="7.39158">
        <ele>420</ele>
        <time>2026-03-18T07:40:47Z</time>
      </trkpt>
      <trkpt lat="48.34084" lon="7.39158">
        <ele>420</ele>
        <time>2026-03-18T07:40:52Z</time>
      </trkpt>
      <trkpt lat="48.34084" lon="7.39158">
        <ele>420</ele>
        <time>2026-03-18T07:40:57Z</time>
      </trkpt>
      <trkpt lat="48.34084" lon="7.39158">
        <ele>420</ele>
        <time>2026-03-18T07:41:02Z</time>
      </trkpt>
      <trkpt lat="48.34084" lon="7.39158">
        <ele>420</ele>
        <time>2026-03-18T07:41:07Z</time>
      </trkpt>
      <trkpt lat="48.34084" lon="7.39158">
        <ele>420</ele>
        <time>2026-03-18T07:41:12Z</time>
      </trkpt>
      <trkpt lat="48.34084" lon="7.39158">
        <ele>420</ele>
        <time>2026-03-18T07:41:17Z</time>
      </trkpt>
      <trkpt lat="48.34084" lon="7.39158">
        <ele>420</ele>
        <time>2026-03-18T07:41:22Z</time>
      </trkpt>
      <trkpt lat="48.34084" lon="7.39158">
        <ele>420</ele>
        <time>2026-03-18T07:41:27Z</time>
      </trkpt>
      <trkpt lat="48.34084" lon="7.39158">
        <ele>420</ele>
        <time>2026-03-18T07:41:32Z</time>
      </trkpt>
      <trkpt lat="48.34084" lon="7.39158">
        <ele>420</ele>
        <time>2026-03-18T07:41:37Z</time>
      </trkpt>
      <trkpt lat="48.34084" lon="7.39158">
        <ele>420</ele>
        <time>2026-03-18T07:41:42Z</time>
      </trkpt>
      <trkpt lat="48.34084" lon="7.39158">
        <ele>420</ele>
        <time>2026-03-18T07:41:47Z</time>
      </trkpt>
      <trkpt lat="48.34084" lon="7.39158">
        <ele>420</ele>
        <time>2026-03-18T07:41:52Z</time>
      </trkpt>
      <trkpt lat="48.34084" lon="7.39158">
        <ele>420</ele>
        <time>2026-03-18T07:41:57Z</time>
      </trkpt>
      <trkpt lat="48.34084" lon="7.39158">
        <ele>420</ele>
        <time>2026-03-18T07:42:02Z</time>
      </trkpt>
      <trkpt lat="48.34084" lon="7.39158">
        <ele>420</ele>
        <time>2026-03-18T07:42:07Z</time>
      </trkpt>
      <trkpt lat="48.34084" lon="7.39158">
        <ele>420</ele>
        <time>2026-03-18T07:42:12Z</time>
      </trkpt>
      <trkpt lat="48.34084" lon="7.39158">
        <ele>420</ele>
        <time>2026-03-18T07:42:17Z</time>
      </trkpt>
      <trkpt lat="48.34084" lon="7.39158">
        <ele>420</ele>
        <time>2026-03-18T07:42:22Z</time>
      </trkpt>
      <trkpt lat="48.34084" lon="7.39158">
        <ele>420</ele>
        <time>2026-03-18T07:42:27Z</time>
      </trkpt>
      <trkpt lat="48.34084" lon="7.39158">
        <ele>420</ele>
        <time>2026-03-18T07:42:32Z</time>
      </trkpt>
      <trkpt lat="48.34084" lon="7.39158">
        <ele>420</ele>
        <time>2026-03-18T07:42:37Z</time>
      </trkpt>
      <trkpt lat="48.34084" lon="7.39158">
        <ele>420</ele>
        <time>2026-03-18T07:42:42Z</time>
      </trkpt>
      <trkpt lat="48.34084" lon="7.39158">
        <ele>420</ele>
        <time>2026-03-18T07:42:47Z</time>
      </trkpt>
      <trkpt lat="48.34084" lon="7.39158">
        <ele>420</ele>
        <time>2026-03-18T07:42:52Z</time>
      </trkpt>
      <trkpt lat="48.34084" lon="7.39158">
        <ele>420</ele>
        <time>2026-03-18T07:42:57Z</time>
      </trkpt>
      <trkpt lat="48.34084" lon="7.39158">
        <ele>420</ele>
        <time>2026-03-18T07:43:02Z</time>
      </trkpt>
      <trkpt lat="48.34084" lon="7.39158">
        <ele>420</ele>
        <time>2026-03-18T07:43:07Z</time>
      </trkpt>
      <trkpt lat="48.34084" lon="7.39158">
        <ele>420</ele>
        <time>2026-03-18T07:43:12Z</time>
      </trkpt>
      <trkpt lat="48.34084" lon="7.39158">
        <ele>420</ele>
        <time>2026-03-18T07:43:17Z</time>
      </trkpt>
      <trkpt lat="48.34084" lon="7.39158">
        <ele>420</ele>
        <time>2026-03-18T07:43:22Z</time>
      </trkpt>
      <trkpt lat="48.34084" lon="7.39158">
        <ele>420</ele>
        <time>2026-03-18T07:43:27Z</time>
      </trkpt>
      <trkpt lat="48.34084" lon="7.39158">
        <ele>420</ele>
        <time>2026-03-18T07:43:32Z</time>
      </trkpt>
      <trkpt lat="48.34084" lon="7.39158">
        <ele>420</ele>
        <time>2026-03-18T07:43:37Z</time>
      </trkpt>
      <trkpt lat="48.34084" lon="7.39158">
        <ele>420</ele>
        <time>2026-03-18T07:43:42Z</time>
      </trkpt>
      <trkpt lat="48.34084" lon="7.39158">
        <ele>420</ele>
        <time>2026-03-18T07:43:47Z</time>
      </trkpt>
      <trkpt lat="48.34084" lon="7.39158">
        <ele>420</ele>
        <time>2026-03-18T07:43:52Z</time>
      </trkpt>
      <trkpt lat="48.34084" lon="7.39158">
        <ele>420</ele>
        <time>2026-03-18T07:43:57Z</time>
      </trkpt>
      <trkpt lat="48.34084" lon="7.39158">
        <ele>420</ele>
        <time>2026-03-18T07:44:02Z</time>
      </trkpt>
      <trkpt lat="48.34084" lon="7.39158">
        <ele>420</ele>
        <time>2026-03-18T07:44:07Z</time>
      </trkpt>
      <trkpt lat="48.34084" lon="7.39158">
        <ele>420</ele>
        <time>2026-03-18T07:44:12Z</time>
      </trkpt>
      <trkpt lat="48.34084" lon="7.39158">
        <ele>420</ele>
        <time>2026-03-18T07:44:17Z</time>
      </trkpt>
      <trkpt lat="48.34084" lon="7.39158">
        <ele>420</ele>
        <time>2026-03-18T07:44:22Z</time>
      </trkpt>
      <trkpt lat="48.34084" lon="7.39158">
        <ele>420</ele>
        <time>2026-03-18T07:44:27Z</time>
      </trkpt>
      <trkpt lat="48.34084" lon="7.39158">
        <ele>420</ele>
        <time>2026-03-18T07:44:32Z</time>
      </trkpt>
      <trkpt lat="48.34074" lon="7.39148">
        <ele>420.2</ele>
        <time>2026-03-18T07:44:37Z</time>
      </trkpt>
      <trkpt lat="48.34074" lon="7.39148">
        <ele>420.2</ele>
        <time>2026-03-18T07:44:42Z</time>
      </trkpt>
      <trkpt lat="48.34074" lon="7.39148">
        <ele>420.2</ele>
        <time>2026-03-18T07:44:47Z</time>
      </trkpt>
      <trkpt lat="48.34074" lon="7.39148">
        <ele>420.2</ele>
        <time>2026-03-18T07:44:52Z</time>
      </trkpt>
      <trkpt lat="48.34074" lon="7.39148">
        <ele>420.2</ele>
        <time>2026-03-18T07:44:57Z</time>
      </trkpt>
      <trkpt lat="48.34074" lon="7.39148">
        <ele>420.2</ele>
        <time>2026-03-18T07:45:02Z</time>
      </trkpt>
      <trkpt lat="48.34074" lon="7.39148">
        <ele>420.2</ele>
        <time>2026-03-18T07:45:07Z</time>
      </trkpt>
      <trkpt lat="48.34074" lon="7.39148">
        <ele>420.2</ele>
        <time>2026-03-18T07:45:12Z</time>
      </trkpt>
      <trkpt lat="48.34074" lon="7.39148">
        <ele>420.2</ele>
        <time>2026-03-18T07:45:17Z</time>
      </trkpt>
      <trkpt lat="48.34074" lon="7.39148">
        <ele>420.2</ele>
        <time>2026-03-18T07:45:22Z</time>
      </trkpt>
      <trkpt lat="48.34074" lon="7.39148">
        <ele>420.2</ele>
        <time>2026-03-18T07:45:27Z</time>
      </trkpt>
      <trkpt lat="48.34074" lon="7.39148">
        <ele>420.2</ele>
        <time>2026-03-18T07:45:32Z</time>
      </trkpt>
      <trkpt lat="48.34074" lon="7.39148">
        <ele>420.2</ele>
        <time>2026-03-18T07:45:37Z</time>
      </trkpt>
      <trkpt lat="48.34074" lon="7.39148">
        <ele>420.2</ele>
        <time>2026-03-18T07:45:42Z</time>
      </trkpt>
      <trkpt lat="48.34074" lon="7.39148">
        <ele>420.2</ele>
        <time>2026-03-18T07:45:47Z</time>
      </trkpt>
      <trkpt lat="48.34074" lon="7.39148">
        <ele>420.2</ele>
        <time>2026-03-18T07:45:52Z</time>
      </trkpt>
      <trkpt lat="48.34074" lon="7.39148">
        <ele>420.2</ele>
        <time>2026-03-18T07:45:57Z</time>
      </trkpt>
      <trkpt lat="48.34074" lon="7.39148">
        <ele>420.2</ele>
        <time>2026-03-18T07:46:02Z</time>
      </trkpt>
      <trkpt lat="48.34072" lon="7.39136">
        <ele>419.1</ele>
        <time>2026-03-18T07:46:07Z</time>
      </trkpt>
      <trkpt lat="48.34073" lon="7.39123">
        <ele>417.6</ele>
        <time>2026-03-18T07:46:12Z</time>
      </trkpt>
      <trkpt lat="48.3407" lon="7.3912">
        <ele>417.6</ele>
        <time>2026-03-18T07:46:17Z</time>
      </trkpt>
      <trkpt lat="48.3407" lon="7.3912">
        <ele>417.6</ele>
        <time>2026-03-18T07:46:22Z</time>
      </trkpt>
      <trkpt lat="48.34057" lon="7.39124">
        <ele>419.7</ele>
        <time>2026-03-18T07:46:27Z</time>
      </trkpt>
      <trkpt lat="48.3405" lon="7.39119">
        <ele>420</ele>
        <time>2026-03-18T07:46:32Z</time>
      </trkpt>
      <trkpt lat="48.34044" lon="7.39116">
        <ele>420.4</ele>
        <time>2026-03-18T07:46:37Z</time>
      </trkpt>
      <trkpt lat="48.34042" lon="7.39114">
        <ele>420.5</ele>
        <time>2026-03-18T07:46:42Z</time>
      </trkpt>
      <trkpt lat="48.34031" lon="7.39109">
        <ele>421.2</ele>
        <time>2026-03-18T07:46:47Z</time>
      </trkpt>
      <trkpt lat="48.3403" lon="7.39109">
        <ele>421.4</ele>
        <time>2026-03-18T07:46:52Z</time>
      </trkpt>
      <trkpt lat="48.34021" lon="7.39104">
        <ele>421.9</ele>
        <time>2026-03-18T07:46:57Z</time>
      </trkpt>
      <trkpt lat="48.3401" lon="7.39106">
        <ele>423.5</ele>
        <time>2026-03-18T07:47:02Z</time>
      </trkpt>
      <trkpt lat="48.34008" lon="7.3911">
        <ele>424.2</ele>
        <time>2026-03-18T07:47:07Z</time>
      </trkpt>
      <trkpt lat="48.34008" lon="7.3911">
        <ele>424.2</ele>
        <time>2026-03-18T07:47:12Z</time>
      </trkpt>
      <trkpt lat="48.34008" lon="7.3911">
        <ele>424.2</ele>
        <time>2026-03-18T07:47:17Z</time>
      </trkpt>
      <trkpt lat="48.34008" lon="7.3911">
        <ele>424.2</ele>
        <time>2026-03-18T07:47:22Z</time>
      </trkpt>
      <trkpt lat="48.33997" lon="7.39117">
        <ele>426.3</ele>
        <time>2026-03-18T07:47:27Z</time>
      </trkpt>
      <trkpt lat="48.33997" lon="7.39117">
        <ele>426.3</ele>
        <time>2026-03-18T07:47:32Z</time>
      </trkpt>
      <trkpt lat="48.33987" lon="7.39119">
        <ele>427.4</ele>
        <time>2026-03-18T07:47:37Z</time>
      </trkpt>
      <trkpt lat="48.33986" lon="7.3912">
        <ele>427.6</ele>
        <time>2026-03-18T07:47:42Z</time>
      </trkpt>
      <trkpt lat="48.33986" lon="7.3912">
        <ele>427.6</ele>
        <time>2026-03-18T07:47:47Z</time>
      </trkpt>
      <trkpt lat="48.33986" lon="7.3912">
        <ele>427.6</ele>
        <time>2026-03-18T07:47:52Z</time>
      </trkpt>
      <trkpt lat="48.33975" lon="7.39121">
        <ele>428.7</ele>
        <time>2026-03-18T07:47:57Z</time>
      </trkpt>
      <trkpt lat="48.33974" lon="7.39121">
        <ele>428.8</ele>
        <time>2026-03-18T07:48:02Z</time>
      </trkpt>
      <trkpt lat="48.33974" lon="7.39121">
        <ele>428.8</ele>
        <time>2026-03-18T07:48:07Z</time>
      </trkpt>
      <trkpt lat="48.33965" lon="7.39126">
        <ele>430</ele>
        <time>2026-03-18T07:48:12Z</time>
      </trkpt>
      <trkpt lat="48.33964" lon="7.39127">
        <ele>430.2</ele>
        <time>2026-03-18T07:48:17Z</time>
      </trkpt>
      <trkpt lat="48.33964" lon="7.39127">
        <ele>430.2</ele>
        <time>2026-03-18T07:48:22Z</time>
      </trkpt>
      <trkpt lat="48.33953" lon="7.39134">
        <ele>431.8</ele>
        <time>2026-03-18T07:48:27Z</time>
      </trkpt>
      <trkpt lat="48.33952" lon="7.39135">
        <ele>432</ele>
        <time>2026-03-18T07:48:32Z</time>
      </trkpt>
      <trkpt lat="48.33952" lon="7.39135">
        <ele>432</ele>
        <time>2026-03-18T07:48:37Z</time>
      </trkpt>
      <trkpt lat="48.33952" lon="7.39135">
        <ele>432</ele>
        <time>2026-03-18T07:48:42Z</time>
      </trkpt>
      <trkpt lat="48.33944" lon="7.39141">
        <ele>433.1</ele>
        <time>2026-03-18T07:48:47Z</time>
      </trkpt>
      <trkpt lat="48.33943" lon="7.39143">
        <ele>433.4</ele>
        <time>2026-03-18T07:48:52Z</time>
      </trkpt>
      <trkpt lat="48.33943" lon="7.39143">
        <ele>433.4</ele>
        <time>2026-03-18T07:48:57Z</time>
      </trkpt>
      <trkpt lat="48.33943" lon="7.39143">
        <ele>433.4</ele>
        <time>2026-03-18T07:49:02Z</time>
      </trkpt>
      <trkpt lat="48.33932" lon="7.39149">
        <ele>434.7</ele>
        <time>2026-03-18T07:49:07Z</time>
      </trkpt>
      <trkpt lat="48.33932" lon="7.39149">
        <ele>434.7</ele>
        <time>2026-03-18T07:49:12Z</time>
      </trkpt>
      <trkpt lat="48.33932" lon="7.39149">
        <ele>434.7</ele>
        <time>2026-03-18T07:49:17Z</time>
      </trkpt>
      <trkpt lat="48.33921" lon="7.39152">
        <ele>435.6</ele>
        <time>2026-03-18T07:49:22Z</time>
      </trkpt>
      <trkpt lat="48.3392" lon="7.39153">
        <ele>435.8</ele>
        <time>2026-03-18T07:49:27Z</time>
      </trkpt>
      <trkpt lat="48.3392" lon="7.39153">
        <ele>435.8</ele>
        <time>2026-03-18T07:49:32Z</time>
      </trkpt>
      <trkpt lat="48.33911" lon="7.39159">
        <ele>436.9</ele>
        <time>2026-03-18T07:49:37Z</time>
      </trkpt>
      <trkpt lat="48.3391" lon="7.39159">
        <ele>436.9</ele>
        <time>2026-03-18T07:49:42Z</time>
      </trkpt>
      <trkpt lat="48.3391" lon="7.39159">
        <ele>436.9</ele>
        <time>2026-03-18T07:49:47Z</time>
      </trkpt>
      <trkpt lat="48.3391" lon="7.39159">
        <ele>436.9</ele>
        <time>2026-03-18T07:49:52Z</time>
      </trkpt>
      <trkpt lat="48.33899" lon="7.39156">
        <ele>437.5</ele>
        <time>2026-03-18T07:49:57Z</time>
      </trkpt>
      <trkpt lat="48.33899" lon="7.39156">
        <ele>437.5</ele>
        <time>2026-03-18T07:50:02Z</time>
      </trkpt>
      <trkpt lat="48.33888" lon="7.3915">
        <ele>437.9</ele>
        <time>2026-03-18T07:50:07Z</time>
      </trkpt>
      <trkpt lat="48.33887" lon="7.3915">
        <ele>438</ele>
        <time>2026-03-18T07:50:12Z</time>
      </trkpt>
      <trkpt lat="48.33877" lon="7.39146">
        <ele>438.5</ele>
        <time>2026-03-18T07:50:17Z</time>
      </trkpt>
      <trkpt lat="48.33875" lon="7.39146">
        <ele>438.6</ele>
        <time>2026-03-18T07:50:22Z</time>
      </trkpt>
      <trkpt lat="48.33863" lon="7.39142">
        <ele>439.3</ele>
        <time>2026-03-18T07:50:27Z</time>
      </trkpt>
      <trkpt lat="48.33862" lon="7.39142">
        <ele>439.4</ele>
        <time>2026-03-18T07:50:32Z</time>
      </trkpt>
      <trkpt lat="48.33853" lon="7.39137">
        <ele>439.7</ele>
        <time>2026-03-18T07:50:37Z</time>
      </trkpt>
      <trkpt lat="48.33851" lon="7.39136">
        <ele>439.8</ele>
        <time>2026-03-18T07:50:42Z</time>
      </trkpt>
      <trkpt lat="48.3384" lon="7.39133">
        <ele>440.5</ele>
        <time>2026-03-18T07:50:47Z</time>
      </trkpt>
      <trkpt lat="48.3384" lon="7.39133">
        <ele>440.5</ele>
        <time>2026-03-18T07:50:52Z</time>
      </trkpt>
      <trkpt lat="48.33828" lon="7.39132">
        <ele>441.2</ele>
        <time>2026-03-18T07:50:57Z</time>
      </trkpt>
      <trkpt lat="48.33826" lon="7.39131">
        <ele>441.2</ele>
        <time>2026-03-18T07:51:02Z</time>
      </trkpt>
      <trkpt lat="48.33816" lon="7.39133">
        <ele>441.8</ele>
        <time>2026-03-18T07:51:07Z</time>
      </trkpt>
      <trkpt lat="48.33804" lon="7.39133">
        <ele>442.4</ele>
        <time>2026-03-18T07:51:12Z</time>
      </trkpt>
      <trkpt lat="48.33801" lon="7.39133">
        <ele>442.5</ele>
        <time>2026-03-18T07:51:17Z</time>
      </trkpt>
      <trkpt lat="48.33789" lon="7.3913">
        <ele>442.9</ele>
        <time>2026-03-18T07:51:22Z</time>
      </trkpt>
      <trkpt lat="48.33789" lon="7.3913">
        <ele>442.9</ele>
        <time>2026-03-18T07:51:27Z</time>
      </trkpt>
      <trkpt lat="48.33778" lon="7.39133">
        <ele>443.6</ele>
        <time>2026-03-18T07:51:32Z</time>
      </trkpt>
      <trkpt lat="48.33778" lon="7.39133">
        <ele>443.6</ele>
        <time>2026-03-18T07:51:37Z</time>
      </trkpt>
      <trkpt lat="48.33767" lon="7.3913">
        <ele>444</ele>
        <time>2026-03-18T07:51:42Z</time>
      </trkpt>
      <trkpt lat="48.33765" lon="7.3913">
        <ele>444.1</ele>
        <time>2026-03-18T07:51:47Z</time>
      </trkpt>
      <trkpt lat="48.33752" lon="7.39129">
        <ele>444.6</ele>
        <time>2026-03-18T07:51:52Z</time>
      </trkpt>
      <trkpt lat="48.33752" lon="7.39129">
        <ele>444.6</ele>
        <time>2026-03-18T07:51:57Z</time>
      </trkpt>
      <trkpt lat="48.33742" lon="7.39128">
        <ele>444.4</ele>
        <time>2026-03-18T07:52:02Z</time>
      </trkpt>
      <trkpt lat="48.3374" lon="7.39128">
        <ele>444.3</ele>
        <time>2026-03-18T07:52:07Z</time>
      </trkpt>
      <trkpt lat="48.33729" lon="7.39129">
        <ele>444</ele>
        <time>2026-03-18T07:52:12Z</time>
      </trkpt>
      <trkpt lat="48.33729" lon="7.39129">
        <ele>444</ele>
        <time>2026-03-18T07:52:17Z</time>
      </trkpt>
      <trkpt lat="48.33729" lon="7.39129">
        <ele>444</ele>
        <time>2026-03-18T07:52:22Z</time>
      </trkpt>
      <trkpt lat="48.33717" lon="7.39134">
        <ele>443.8</ele>
        <time>2026-03-18T07:52:27Z</time>
      </trkpt>
      <trkpt lat="48.33709" lon="7.3914">
        <ele>443.7</ele>
        <time>2026-03-18T07:52:32Z</time>
      </trkpt>
      <trkpt lat="48.33705" lon="7.39142">
        <ele>443.7</ele>
        <time>2026-03-18T07:52:37Z</time>
      </trkpt>
      <trkpt lat="48.33705" lon="7.39142">
        <ele>443.7</ele>
        <time>2026-03-18T07:52:42Z</time>
      </trkpt>
      <trkpt lat="48.33694" lon="7.3915">
        <ele>443.6</ele>
        <time>2026-03-18T07:52:47Z</time>
      </trkpt>
      <trkpt lat="48.33693" lon="7.39152">
        <ele>443.6</ele>
        <time>2026-03-18T07:52:52Z</time>
      </trkpt>
      <trkpt lat="48.33684" lon="7.3916">
        <ele>443.6</ele>
        <time>2026-03-18T07:52:57Z</time>
      </trkpt>
      <trkpt lat="48.33682" lon="7.39163">
        <ele>443.6</ele>
        <time>2026-03-18T07:53:02Z</time>
      </trkpt>
      <trkpt lat="48.33682" lon="7.39163">
        <ele>443.6</ele>
        <time>2026-03-18T07:53:07Z</time>
      </trkpt>
      <trkpt lat="48.33673" lon="7.39174">
        <ele>443.4</ele>
        <time>2026-03-18T07:53:12Z</time>
      </trkpt>
      <trkpt lat="48.33672" lon="7.39174">
        <ele>443.4</ele>
        <time>2026-03-18T07:53:17Z</time>
      </trkpt>
      <trkpt lat="48.33661" lon="7.39184">
        <ele>443.4</ele>
        <time>2026-03-18T07:53:22Z</time>
      </trkpt>
      <trkpt lat="48.3366" lon="7.39186">
        <ele>443.4</ele>
        <time>2026-03-18T07:53:27Z</time>
      </trkpt>
      <trkpt lat="48.33647" lon="7.39194">
        <ele>444</ele>
        <time>2026-03-18T07:53:32Z</time>
      </trkpt>
      <trkpt lat="48.33646" lon="7.39195">
        <ele>444.1</ele>
        <time>2026-03-18T07:53:37Z</time>
      </trkpt>
      <trkpt lat="48.33631" lon="7.39209">
        <ele>445.2</ele>
        <time>2026-03-18T07:53:42Z</time>
      </trkpt>
      <trkpt lat="48.33628" lon="7.39212">
        <ele>445.5</ele>
        <time>2026-03-18T07:53:47Z</time>
      </trkpt>
      <trkpt lat="48.33628" lon="7.39212">
        <ele>445.5</ele>
        <time>2026-03-18T07:53:52Z</time>
      </trkpt>
      <trkpt lat="48.33622" lon="7.39226">
        <ele>446.5</ele>
        <time>2026-03-18T07:53:57Z</time>
      </trkpt>
      <trkpt lat="48.33622" lon="7.39226">
        <ele>446.5</ele>
        <time>2026-03-18T07:54:02Z</time>
      </trkpt>
      <trkpt lat="48.3362" lon="7.39244">
        <ele>447.6</ele>
        <time>2026-03-18T07:54:07Z</time>
      </trkpt>
      <trkpt lat="48.3362" lon="7.39246">
        <ele>447.7</ele>
        <time>2026-03-18T07:54:12Z</time>
      </trkpt>
      <trkpt lat="48.33618" lon="7.39263">
        <ele>448.9</ele>
        <time>2026-03-18T07:54:17Z</time>
      </trkpt>
      <trkpt lat="48.33618" lon="7.39264">
        <ele>449</ele>
        <time>2026-03-18T07:54:22Z</time>
      </trkpt>
      <trkpt lat="48.33613" lon="7.39281">
        <ele>450.4</ele>
        <time>2026-03-18T07:54:27Z</time>
      </trkpt>
      <trkpt lat="48.33613" lon="7.39282">
        <ele>450.5</ele>
        <time>2026-03-18T07:54:32Z</time>
      </trkpt>
      <trkpt lat="48.33613" lon="7.39282">
        <ele>450.5</ele>
        <time>2026-03-18T07:54:37Z</time>
      </trkpt>
      <trkpt lat="48.33605" lon="7.39295">
        <ele>451.8</ele>
        <time>2026-03-18T07:54:42Z</time>
      </trkpt>
      <trkpt lat="48.33604" lon="7.39297">
        <ele>451.9</ele>
        <time>2026-03-18T07:54:47Z</time>
      </trkpt>
      <trkpt lat="48.33604" lon="7.39297">
        <ele>451.9</ele>
        <time>2026-03-18T07:54:52Z</time>
      </trkpt>
      <trkpt lat="48.33594" lon="7.39307">
        <ele>453.1</ele>
        <time>2026-03-18T07:54:57Z</time>
      </trkpt>
      <trkpt lat="48.33594" lon="7.39307">
        <ele>453.1</ele>
        <time>2026-03-18T07:55:02Z</time>
      </trkpt>
      <trkpt lat="48.3358" lon="7.39316">
        <ele>454.5</ele>
        <time>2026-03-18T07:55:07Z</time>
      </trkpt>
      <trkpt lat="48.33579" lon="7.39317">
        <ele>454.7</ele>
        <time>2026-03-18T07:55:12Z</time>
      </trkpt>
      <trkpt lat="48.33579" lon="7.39317">
        <ele>454.7</ele>
        <time>2026-03-18T07:55:17Z</time>
      </trkpt>
      <trkpt lat="48.33569" lon="7.39321">
        <ele>455.8</ele>
        <time>2026-03-18T07:55:22Z</time>
      </trkpt>
      <trkpt lat="48.33569" lon="7.39322">
        <ele>455.9</ele>
        <time>2026-03-18T07:55:27Z</time>
      </trkpt>
      <trkpt lat="48.33569" lon="7.39322">
        <ele>455.9</ele>
        <time>2026-03-18T07:55:32Z</time>
      </trkpt>
      <trkpt lat="48.33569" lon="7.39322">
        <ele>455.9</ele>
        <time>2026-03-18T07:55:37Z</time>
      </trkpt>
      <trkpt lat="48.33559" lon="7.39329">
        <ele>457.2</ele>
        <time>2026-03-18T07:55:42Z</time>
      </trkpt>
      <trkpt lat="48.33558" lon="7.3933">
        <ele>457.3</ele>
        <time>2026-03-18T07:55:47Z</time>
      </trkpt>
      <trkpt lat="48.33553" lon="7.3935">
        <ele>457.6</ele>
        <time>2026-03-18T07:55:52Z</time>
      </trkpt>
      <trkpt lat="48.33552" lon="7.39353">
        <ele>457.6</ele>
        <time>2026-03-18T07:55:57Z</time>
      </trkpt>
      <trkpt lat="48.33548" lon="7.3937">
        <ele>457.6</ele>
        <time>2026-03-18T07:56:02Z</time>
      </trkpt>
      <trkpt lat="48.33548" lon="7.39372">
        <ele>457.5</ele>
        <time>2026-03-18T07:56:07Z</time>
      </trkpt>
      <trkpt lat="48.33546" lon="7.39392">
        <ele>457.2</ele>
        <time>2026-03-18T07:56:12Z</time>
      </trkpt>
      <trkpt lat="48.33546" lon="7.39393">
        <ele>457.2</ele>
        <time>2026-03-18T07:56:17Z</time>
      </trkpt>
      <trkpt lat="48.33548" lon="7.39412">
        <ele>456.6</ele>
        <time>2026-03-18T07:56:22Z</time>
      </trkpt>
      <trkpt lat="48.33548" lon="7.39417">
        <ele>456.5</ele>
        <time>2026-03-18T07:56:27Z</time>
      </trkpt>
      <trkpt lat="48.33546" lon="7.39442">
        <ele>454.5</ele>
        <time>2026-03-18T07:56:32Z</time>
      </trkpt>
      <trkpt lat="48.33546" lon="7.39442">
        <ele>454.5</ele>
        <time>2026-03-18T07:56:37Z</time>
      </trkpt>
      <trkpt lat="48.33546" lon="7.39442">
        <ele>454.5</ele>
        <time>2026-03-18T07:56:42Z</time>
      </trkpt>
      <trkpt lat="48.33546" lon="7.39442">
        <ele>454.5</ele>
        <time>2026-03-18T07:56:47Z</time>
      </trkpt>
      <trkpt lat="48.33546" lon="7.39442">
        <ele>454.5</ele>
        <time>2026-03-18T07:56:52Z</time>
      </trkpt>
      <trkpt lat="48.33546" lon="7.39442">
        <ele>454.5</ele>
        <time>2026-03-18T07:56:57Z</time>
      </trkpt>
      <trkpt lat="48.33546" lon="7.39442">
        <ele>454.5</ele>
        <time>2026-03-18T07:57:02Z</time>
      </trkpt>
      <trkpt lat="48.33546" lon="7.39442">
        <ele>454.5</ele>
        <time>2026-03-18T07:57:07Z</time>
      </trkpt>
      <trkpt lat="48.33546" lon="7.39442">
        <ele>454.5</ele>
        <time>2026-03-18T07:57:12Z</time>
      </trkpt>
      <trkpt lat="48.33546" lon="7.39442">
        <ele>454.5</ele>
        <time>2026-03-18T07:57:17Z</time>
      </trkpt>
      <trkpt lat="48.33534" lon="7.39443">
        <ele>455</ele>
        <time>2026-03-18T07:57:22Z</time>
      </trkpt>
      <trkpt lat="48.33534" lon="7.39443">
        <ele>455</ele>
        <time>2026-03-18T07:57:27Z</time>
      </trkpt>
      <trkpt lat="48.33534" lon="7.39443">
        <ele>455</ele>
        <time>2026-03-18T07:57:32Z</time>
      </trkpt>
      <trkpt lat="48.33534" lon="7.39443">
        <ele>455</ele>
        <time>2026-03-18T07:57:37Z</time>
      </trkpt>
      <trkpt lat="48.33534" lon="7.39443">
        <ele>455</ele>
        <time>2026-03-18T07:57:42Z</time>
      </trkpt>
      <trkpt lat="48.33523" lon="7.39442">
        <ele>455.7</ele>
        <time>2026-03-18T07:57:47Z</time>
      </trkpt>
      <trkpt lat="48.33522" lon="7.39442">
        <ele>455.8</ele>
        <time>2026-03-18T07:57:52Z</time>
      </trkpt>
      <trkpt lat="48.33522" lon="7.39442">
        <ele>455.8</ele>
        <time>2026-03-18T07:57:57Z</time>
      </trkpt>
      <trkpt lat="48.33509" lon="7.39449">
        <ele>455.7</ele>
        <time>2026-03-18T07:58:02Z</time>
      </trkpt>
      <trkpt lat="48.33509" lon="7.39449">
        <ele>455.7</ele>
        <time>2026-03-18T07:58:07Z</time>
      </trkpt>
      <trkpt lat="48.33499" lon="7.39454">
        <ele>455.5</ele>
        <time>2026-03-18T07:58:12Z</time>
      </trkpt>
      <trkpt lat="48.33498" lon="7.39454">
        <ele>455.5</ele>
        <time>2026-03-18T07:58:17Z</time>
      </trkpt>
      <trkpt lat="48.33486" lon="7.39458">
        <ele>455</ele>
        <time>2026-03-18T07:58:22Z</time>
      </trkpt>
      <trkpt lat="48.33484" lon="7.3946">
        <ele>454.7</ele>
        <time>2026-03-18T07:58:27Z</time>
      </trkpt>
      <trkpt lat="48.33476" lon="7.39472">
        <ele>453</ele>
        <time>2026-03-18T07:58:32Z</time>
      </trkpt>
      <trkpt lat="48.33475" lon="7.39475">
        <ele>452.5</ele>
        <time>2026-03-18T07:58:37Z</time>
      </trkpt>
      <trkpt lat="48.33472" lon="7.39495">
        <ele>449.7</ele>
        <time>2026-03-18T07:58:42Z</time>
      </trkpt>
      <trkpt lat="48.33472" lon="7.39508">
        <ele>447.2</ele>
        <time>2026-03-18T07:58:47Z</time>
      </trkpt>
      <trkpt lat="48.3347" lon="7.39516">
        <ele>445.4</ele>
        <time>2026-03-18T07:58:52Z</time>
      </trkpt>
      <trkpt lat="48.3347" lon="7.39516">
        <ele>445.4</ele>
        <time>2026-03-18T07:58:57Z</time>
      </trkpt>
      <trkpt lat="48.3346" lon="7.39523">
        <ele>443.6</ele>
        <time>2026-03-18T07:59:02Z</time>
      </trkpt>
      <trkpt lat="48.33458" lon="7.39523">
        <ele>443.5</ele>
        <time>2026-03-18T07:59:07Z</time>
      </trkpt>
      <trkpt lat="48.3345" lon="7.39512">
        <ele>445.6</ele>
        <time>2026-03-18T07:59:12Z</time>
      </trkpt>
      <trkpt lat="48.33449" lon="7.39509">
        <ele>446.2</ele>
        <time>2026-03-18T07:59:17Z</time>
      </trkpt>
      <trkpt lat="48.33443" lon="7.39498">
        <ele>448.3</ele>
        <time>2026-03-18T07:59:22Z</time>
      </trkpt>
      <trkpt lat="48.3344" lon="7.39496">
        <ele>448.5</ele>
        <time>2026-03-18T07:59:27Z</time>
      </trkpt>
      <trkpt lat="48.33431" lon="7.3949">
        <ele>449.2</ele>
        <time>2026-03-18T07:59:32Z</time>
      </trkpt>
      <trkpt lat="48.33429" lon="7.39488">
        <ele>449.5</ele>
        <time>2026-03-18T07:59:37Z</time>
      </trkpt>
      <trkpt lat="48.33429" lon="7.39488">
        <ele>449.5</ele>
        <time>2026-03-18T07:59:42Z</time>
      </trkpt>
      <trkpt lat="48.33421" lon="7.39477">
        <ele>451.2</ele>
        <time>2026-03-18T07:59:47Z</time>
      </trkpt>
      <trkpt lat="48.3342" lon="7.39474">
        <ele>451.7</ele>
        <time>2026-03-18T07:59:52Z</time>
      </trkpt>
      <trkpt lat="48.3342" lon="7.39474">
        <ele>451.7</ele>
        <time>2026-03-18T07:59:57Z</time>
      </trkpt>
      <trkpt lat="48.33418" lon="7.39456">
        <ele>454.9</ele>
        <time>2026-03-18T08:00:02Z</time>
      </trkpt>
      <trkpt lat="48.33418" lon="7.39456">
        <ele>454.9</ele>
        <time>2026-03-18T08:00:07Z</time>
      </trkpt>
      <trkpt lat="48.33418" lon="7.39456">
        <ele>454.9</ele>
        <time>2026-03-18T08:00:12Z</time>
      </trkpt>
      <trkpt lat="48.33417" lon="7.39439">
        <ele>458</ele>
        <time>2026-03-18T08:00:17Z</time>
      </trkpt>
      <trkpt lat="48.33417" lon="7.39439">
        <ele>458</ele>
        <time>2026-03-18T08:00:22Z</time>
      </trkpt>
      <trkpt lat="48.33417" lon="7.39423">
        <ele>460.9</ele>
        <time>2026-03-18T08:00:27Z</time>
      </trkpt>
      <trkpt lat="48.33417" lon="7.3942">
        <ele>461.4</ele>
        <time>2026-03-18T08:00:32Z</time>
      </trkpt>
      <trkpt lat="48.33417" lon="7.3942">
        <ele>461.4</ele>
        <time>2026-03-18T08:00:37Z</time>
      </trkpt>
      <trkpt lat="48.33417" lon="7.39403">
        <ele>462.6</ele>
        <time>2026-03-18T08:00:42Z</time>
      </trkpt>
      <trkpt lat="48.33417" lon="7.39403">
        <ele>462.6</ele>
        <time>2026-03-18T08:00:47Z</time>
      </trkpt>
      <trkpt lat="48.33414" lon="7.39388">
        <ele>463.4</ele>
        <time>2026-03-18T08:00:52Z</time>
      </trkpt>
      <trkpt lat="48.33413" lon="7.39384">
        <ele>463.7</ele>
        <time>2026-03-18T08:00:57Z</time>
      </trkpt>
      <trkpt lat="48.33413" lon="7.39384">
        <ele>463.7</ele>
        <time>2026-03-18T08:01:02Z</time>
      </trkpt>
      <trkpt lat="48.33406" lon="7.3937">
        <ele>464.6</ele>
        <time>2026-03-18T08:01:07Z</time>
      </trkpt>
      <trkpt lat="48.33406" lon="7.3937">
        <ele>464.6</ele>
        <time>2026-03-18T08:01:12Z</time>
      </trkpt>
      <trkpt lat="48.33399" lon="7.39363">
        <ele>465.3</ele>
        <time>2026-03-18T08:01:17Z</time>
      </trkpt>
      <trkpt lat="48.33395" lon="7.39361">
        <ele>465.5</ele>
        <time>2026-03-18T08:01:22Z</time>
      </trkpt>
      <trkpt lat="48.33386" lon="7.39358">
        <ele>466.1</ele>
        <time>2026-03-18T08:01:27Z</time>
      </trkpt>
      <trkpt lat="48.3338" lon="7.39359">
        <ele>466.3</ele>
        <time>2026-03-18T08:01:32Z</time>
      </trkpt>
      <trkpt lat="48.33377" lon="7.39358">
        <ele>466.5</ele>
        <time>2026-03-18T08:01:37Z</time>
      </trkpt>
      <trkpt lat="48.33377" lon="7.39358">
        <ele>466.5</ele>
        <time>2026-03-18T08:01:42Z</time>
      </trkpt>
      <trkpt lat="48.33371" lon="7.3934">
        <ele>468.2</ele>
        <time>2026-03-18T08:01:47Z</time>
      </trkpt>
      <trkpt lat="48.33371" lon="7.3934">
        <ele>468.2</ele>
        <time>2026-03-18T08:01:52Z</time>
      </trkpt>
      <trkpt lat="48.33366" lon="7.39325">
        <ele>469</ele>
        <time>2026-03-18T08:01:57Z</time>
      </trkpt>
      <trkpt lat="48.33366" lon="7.39324">
        <ele>469</ele>
        <time>2026-03-18T08:02:02Z</time>
      </trkpt>
      <trkpt lat="48.33366" lon="7.39324">
        <ele>469</ele>
        <time>2026-03-18T08:02:07Z</time>
      </trkpt>
      <trkpt lat="48.33357" lon="7.39313">
        <ele>469.4</ele>
        <time>2026-03-18T08:02:12Z</time>
      </trkpt>
      <trkpt lat="48.33357" lon="7.39313">
        <ele>469.4</ele>
        <time>2026-03-18T08:02:17Z</time>
      </trkpt>
      <trkpt lat="48.3335" lon="7.393">
        <ele>469.7</ele>
        <time>2026-03-18T08:02:22Z</time>
      </trkpt>
      <trkpt lat="48.3335" lon="7.39297">
        <ele>469.7</ele>
        <time>2026-03-18T08:02:27Z</time>
      </trkpt>
      <trkpt lat="48.3335" lon="7.39297">
        <ele>469.7</ele>
        <time>2026-03-18T08:02:32Z</time>
      </trkpt>
      <trkpt lat="48.33346" lon="7.3928">
        <ele>469.7</ele>
        <time>2026-03-18T08:02:37Z</time>
      </trkpt>
      <trkpt lat="48.33346" lon="7.3928">
        <ele>469.7</ele>
        <time>2026-03-18T08:02:42Z</time>
      </trkpt>
      <trkpt lat="48.3334" lon="7.39263">
        <ele>469.8</ele>
        <time>2026-03-18T08:02:47Z</time>
      </trkpt>
      <trkpt lat="48.33337" lon="7.39257">
        <ele>469.9</ele>
        <time>2026-03-18T08:02:52Z</time>
      </trkpt>
      <trkpt lat="48.33337" lon="7.39257">
        <ele>469.9</ele>
        <time>2026-03-18T08:02:57Z</time>
      </trkpt>
      <trkpt lat="48.33321" lon="7.39253">
        <ele>471.1</ele>
        <time>2026-03-18T08:03:02Z</time>
      </trkpt>
      <trkpt lat="48.33314" lon="7.39255">
        <ele>471.7</ele>
        <time>2026-03-18T08:03:07Z</time>
      </trkpt>
      <trkpt lat="48.33308" lon="7.39262">
        <ele>472.3</ele>
        <time>2026-03-18T08:03:12Z</time>
      </trkpt>
      <trkpt lat="48.33306" lon="7.39265">
        <ele>472.5</ele>
        <time>2026-03-18T08:03:17Z</time>
      </trkpt>
      <trkpt lat="48.33297" lon="7.39272">
        <ele>473.3</ele>
        <time>2026-03-18T08:03:22Z</time>
      </trkpt>
      <trkpt lat="48.33295" lon="7.39272">
        <ele>473.5</ele>
        <time>2026-03-18T08:03:27Z</time>
      </trkpt>
      <trkpt lat="48.3329" lon="7.39284">
        <ele>474</ele>
        <time>2026-03-18T08:03:32Z</time>
      </trkpt>
      <trkpt lat="48.33287" lon="7.39297">
        <ele>474.5</ele>
        <time>2026-03-18T08:03:37Z</time>
      </trkpt>
      <trkpt lat="48.33282" lon="7.39307">
        <ele>475</ele>
        <time>2026-03-18T08:03:42Z</time>
      </trkpt>
      <trkpt lat="48.3328" lon="7.3931">
        <ele>475.2</ele>
        <time>2026-03-18T08:03:47Z</time>
      </trkpt>
      <trkpt lat="48.3327" lon="7.39316">
        <ele>476.1</ele>
        <time>2026-03-18T08:03:52Z</time>
      </trkpt>
      <trkpt lat="48.3326" lon="7.39318">
        <ele>477</ele>
        <time>2026-03-18T08:03:57Z</time>
      </trkpt>
      <trkpt lat="48.33257" lon="7.39321">
        <ele>477.3</ele>
        <time>2026-03-18T08:04:02Z</time>
      </trkpt>
      <trkpt lat="48.3325" lon="7.39331">
        <ele>478</ele>
        <time>2026-03-18T08:04:07Z</time>
      </trkpt>
      <trkpt lat="48.33248" lon="7.39334">
        <ele>477.8</ele>
        <time>2026-03-18T08:04:12Z</time>
      </trkpt>
      <trkpt lat="48.33248" lon="7.39334">
        <ele>477.8</ele>
        <time>2026-03-18T08:04:17Z</time>
      </trkpt>
      <trkpt lat="48.33239" lon="7.39345">
        <ele>475.8</ele>
        <time>2026-03-18T08:04:22Z</time>
      </trkpt>
      <trkpt lat="48.33239" lon="7.39345">
        <ele>475.8</ele>
        <time>2026-03-18T08:04:27Z</time>
      </trkpt>
      <trkpt lat="48.33228" lon="7.39344">
        <ele>475.2</ele>
        <time>2026-03-18T08:04:32Z</time>
      </trkpt>
      <trkpt lat="48.33228" lon="7.39345">
        <ele>475.1</ele>
        <time>2026-03-18T08:04:37Z</time>
      </trkpt>
      <trkpt lat="48.33228" lon="7.39345">
        <ele>475.1</ele>
        <time>2026-03-18T08:04:42Z</time>
      </trkpt>
      <trkpt lat="48.33228" lon="7.39345">
        <ele>475.1</ele>
        <time>2026-03-18T08:04:47Z</time>
      </trkpt>
      <trkpt lat="48.33216" lon="7.39347">
        <ele>474.1</ele>
        <time>2026-03-18T08:04:52Z</time>
      </trkpt>
      <trkpt lat="48.33216" lon="7.39348">
        <ele>474</ele>
        <time>2026-03-18T08:04:57Z</time>
      </trkpt>
      <trkpt lat="48.33216" lon="7.39348">
        <ele>474</ele>
        <time>2026-03-18T08:05:02Z</time>
      </trkpt>
      <trkpt lat="48.33205" lon="7.39354">
        <ele>472.9</ele>
        <time>2026-03-18T08:05:07Z</time>
      </trkpt>
      <trkpt lat="48.33205" lon="7.39354">
        <ele>472.9</ele>
        <time>2026-03-18T08:05:12Z</time>
      </trkpt>
      <trkpt lat="48.33205" lon="7.39354">
        <ele>472.9</ele>
        <time>2026-03-18T08:05:17Z</time>
      </trkpt>
      <trkpt lat="48.33205" lon="7.39354">
        <ele>472.9</ele>
        <time>2026-03-18T08:05:22Z</time>
      </trkpt>
      <trkpt lat="48.33194" lon="7.39354">
        <ele>472.3</ele>
        <time>2026-03-18T08:05:27Z</time>
      </trkpt>
      <trkpt lat="48.33194" lon="7.39354">
        <ele>472.3</ele>
        <time>2026-03-18T08:05:32Z</time>
      </trkpt>
      <trkpt lat="48.33194" lon="7.39354">
        <ele>472.3</ele>
        <time>2026-03-18T08:05:37Z</time>
      </trkpt>
      <trkpt lat="48.33185" lon="7.3936">
        <ele>471.6</ele>
        <time>2026-03-18T08:05:42Z</time>
      </trkpt>
      <trkpt lat="48.33183" lon="7.3936">
        <ele>471.5</ele>
        <time>2026-03-18T08:05:47Z</time>
      </trkpt>
      <trkpt lat="48.33183" lon="7.3936">
        <ele>471.5</ele>
        <time>2026-03-18T08:05:52Z</time>
      </trkpt>
      <trkpt lat="48.33171" lon="7.39363">
        <ele>470.8</ele>
        <time>2026-03-18T08:05:57Z</time>
      </trkpt>
      <trkpt lat="48.3317" lon="7.39363">
        <ele>470.8</ele>
        <time>2026-03-18T08:06:02Z</time>
      </trkpt>
      <trkpt lat="48.3317" lon="7.39363">
        <ele>470.8</ele>
        <time>2026-03-18T08:06:07Z</time>
      </trkpt>
      <trkpt lat="48.3317" lon="7.39363">
        <ele>470.8</ele>
        <time>2026-03-18T08:06:12Z</time>
      </trkpt>
      <trkpt lat="48.33162" lon="7.39359">
        <ele>471.3</ele>
        <time>2026-03-18T08:06:17Z</time>
      </trkpt>
      <trkpt lat="48.33161" lon="7.39362">
        <ele>471.3</ele>
        <time>2026-03-18T08:06:22Z</time>
      </trkpt>
      <trkpt lat="48.33161" lon="7.39362">
        <ele>471.3</ele>
        <time>2026-03-18T08:06:27Z</time>
      </trkpt>
      <trkpt lat="48.33161" lon="7.39362">
        <ele>471.3</ele>
        <time>2026-03-18T08:06:32Z</time>
      </trkpt>
      <trkpt lat="48.33161" lon="7.39362">
        <ele>471.3</ele>
        <time>2026-03-18T08:06:37Z</time>
      </trkpt>
      <trkpt lat="48.33161" lon="7.39362">
        <ele>471.3</ele>
        <time>2026-03-18T08:06:42Z</time>
      </trkpt>
      <trkpt lat="48.33161" lon="7.39362">
        <ele>471.3</ele>
        <time>2026-03-18T08:06:47Z</time>
      </trkpt>
      <trkpt lat="48.33161" lon="7.39362">
        <ele>471.3</ele>
        <time>2026-03-18T08:06:52Z</time>
      </trkpt>
      <trkpt lat="48.33149" lon="7.39361">
        <ele>472.8</ele>
        <time>2026-03-18T08:06:57Z</time>
      </trkpt>
      <trkpt lat="48.33143" lon="7.39359">
        <ele>473.5</ele>
        <time>2026-03-18T08:07:02Z</time>
      </trkpt>
      <trkpt lat="48.33142" lon="7.39359">
        <ele>473.7</ele>
        <time>2026-03-18T08:07:07Z</time>
      </trkpt>
      <trkpt lat="48.33142" lon="7.39359">
        <ele>473.7</ele>
        <time>2026-03-18T08:07:12Z</time>
      </trkpt>
      <trkpt lat="48.33142" lon="7.39359">
        <ele>473.7</ele>
        <time>2026-03-18T08:07:17Z</time>
      </trkpt>
      <trkpt lat="48.33142" lon="7.39359">
        <ele>473.7</ele>
        <time>2026-03-18T08:07:22Z</time>
      </trkpt>
      <trkpt lat="48.33142" lon="7.39359">
        <ele>473.7</ele>
        <time>2026-03-18T08:07:27Z</time>
      </trkpt>
      <trkpt lat="48.33142" lon="7.39359">
        <ele>473.7</ele>
        <time>2026-03-18T08:07:32Z</time>
      </trkpt>
      <trkpt lat="48.33142" lon="7.39359">
        <ele>473.7</ele>
        <time>2026-03-18T08:07:37Z</time>
      </trkpt>
      <trkpt lat="48.33131" lon="7.39356">
        <ele>475</ele>
        <time>2026-03-18T08:07:42Z</time>
      </trkpt>
      <trkpt lat="48.33125" lon="7.39357">
        <ele>475.7</ele>
        <time>2026-03-18T08:07:47Z</time>
      </trkpt>
      <trkpt lat="48.33119" lon="7.39356">
        <ele>476.4</ele>
        <time>2026-03-18T08:07:52Z</time>
      </trkpt>
      <trkpt lat="48.33116" lon="7.39355">
        <ele>476.8</ele>
        <time>2026-03-18T08:07:57Z</time>
      </trkpt>
      <trkpt lat="48.33116" lon="7.39355">
        <ele>476.8</ele>
        <time>2026-03-18T08:08:02Z</time>
      </trkpt>
      <trkpt lat="48.33104" lon="7.39354">
        <ele>478.3</ele>
        <time>2026-03-18T08:08:07Z</time>
      </trkpt>
      <trkpt lat="48.33103" lon="7.39355">
        <ele>478.4</ele>
        <time>2026-03-18T08:08:12Z</time>
      </trkpt>
      <trkpt lat="48.33092" lon="7.39355">
        <ele>479.7</ele>
        <time>2026-03-18T08:08:17Z</time>
      </trkpt>
      <trkpt lat="48.3309" lon="7.39354">
        <ele>480</ele>
        <time>2026-03-18T08:08:22Z</time>
      </trkpt>
      <trkpt lat="48.3308" lon="7.39365">
        <ele>480.9</ele>
        <time>2026-03-18T08:08:27Z</time>
      </trkpt>
      <trkpt lat="48.3308" lon="7.39368">
        <ele>480.8</ele>
        <time>2026-03-18T08:08:32Z</time>
      </trkpt>
      <trkpt lat="48.33071" lon="7.39379">
        <ele>481.4</ele>
        <time>2026-03-18T08:08:37Z</time>
      </trkpt>
      <trkpt lat="48.3307" lon="7.3938">
        <ele>481.5</ele>
        <time>2026-03-18T08:08:42Z</time>
      </trkpt>
      <trkpt lat="48.3307" lon="7.3938">
        <ele>481.5</ele>
        <time>2026-03-18T08:08:47Z</time>
      </trkpt>
      <trkpt lat="48.33058" lon="7.39382">
        <ele>482.5</ele>
        <time>2026-03-18T08:08:52Z</time>
      </trkpt>
      <trkpt lat="48.33058" lon="7.39382">
        <ele>482.5</ele>
        <time>2026-03-18T08:08:57Z</time>
      </trkpt>
      <trkpt lat="48.33055" lon="7.39395">
        <ele>482.7</ele>
        <time>2026-03-18T08:09:02Z</time>
      </trkpt>
      <trkpt lat="48.33053" lon="7.394">
        <ele>482.9</ele>
        <time>2026-03-18T08:09:07Z</time>
      </trkpt>
      <trkpt lat="48.33053" lon="7.394">
        <ele>482.9</ele>
        <time>2026-03-18T08:09:12Z</time>
      </trkpt>
      <trkpt lat="48.33053" lon="7.394">
        <ele>482.9</ele>
        <time>2026-03-18T08:09:17Z</time>
      </trkpt>
      <trkpt lat="48.33043" lon="7.39407">
        <ele>483.8</ele>
        <time>2026-03-18T08:09:22Z</time>
      </trkpt>
      <trkpt lat="48.33043" lon="7.39407">
        <ele>483.8</ele>
        <time>2026-03-18T08:09:27Z</time>
      </trkpt>
      <trkpt lat="48.33034" lon="7.39411">
        <ele>484.7</ele>
        <time>2026-03-18T08:09:32Z</time>
      </trkpt>
      <trkpt lat="48.33028" lon="7.39415">
        <ele>485.3</ele>
        <time>2026-03-18T08:09:37Z</time>
      </trkpt>
      <trkpt lat="48.33027" lon="7.39415">
        <ele>485.4</ele>
        <time>2026-03-18T08:09:42Z</time>
      </trkpt>
      <trkpt lat="48.33027" lon="7.39415">
        <ele>485.4</ele>
        <time>2026-03-18T08:09:47Z</time>
      </trkpt>
      <trkpt lat="48.33027" lon="7.39415">
        <ele>485.4</ele>
        <time>2026-03-18T08:09:52Z</time>
      </trkpt>
      <trkpt lat="48.33027" lon="7.39415">
        <ele>485.4</ele>
        <time>2026-03-18T08:09:57Z</time>
      </trkpt>
      <trkpt lat="48.33027" lon="7.39415">
        <ele>485.4</ele>
        <time>2026-03-18T08:10:02Z</time>
      </trkpt>
      <trkpt lat="48.33021" lon="7.39429">
        <ele>486.1</ele>
        <time>2026-03-18T08:10:07Z</time>
      </trkpt>
      <trkpt lat="48.33021" lon="7.39429">
        <ele>486.1</ele>
        <time>2026-03-18T08:10:12Z</time>
      </trkpt>
      <trkpt lat="48.3302" lon="7.39444">
        <ele>486.3</ele>
        <time>2026-03-18T08:10:17Z</time>
      </trkpt>
      <trkpt lat="48.33021" lon="7.39447">
        <ele>486.3</ele>
        <time>2026-03-18T08:10:22Z</time>
      </trkpt>
      <trkpt lat="48.33021" lon="7.39447">
        <ele>486.3</ele>
        <time>2026-03-18T08:10:27Z</time>
      </trkpt>
      <trkpt lat="48.33015" lon="7.39458">
        <ele>487</ele>
        <time>2026-03-18T08:10:32Z</time>
      </trkpt>
      <trkpt lat="48.33013" lon="7.39461">
        <ele>487.2</ele>
        <time>2026-03-18T08:10:37Z</time>
      </trkpt>
      <trkpt lat="48.33013" lon="7.39461">
        <ele>487.2</ele>
        <time>2026-03-18T08:10:42Z</time>
      </trkpt>
      <trkpt lat="48.33012" lon="7.39476">
        <ele>487.5</ele>
        <time>2026-03-18T08:10:47Z</time>
      </trkpt>
      <trkpt lat="48.33013" lon="7.39478">
        <ele>487.4</ele>
        <time>2026-03-18T08:10:52Z</time>
      </trkpt>
      <trkpt lat="48.33013" lon="7.39478">
        <ele>487.4</ele>
        <time>2026-03-18T08:10:57Z</time>
      </trkpt>
      <trkpt lat="48.33013" lon="7.39496">
        <ele>487.6</ele>
        <time>2026-03-18T08:11:02Z</time>
      </trkpt>
      <trkpt lat="48.33013" lon="7.39496">
        <ele>487.6</ele>
        <time>2026-03-18T08:11:07Z</time>
      </trkpt>
      <trkpt lat="48.33007" lon="7.39507">
        <ele>488.6</ele>
        <time>2026-03-18T08:11:12Z</time>
      </trkpt>
      <trkpt lat="48.33007" lon="7.39508">
        <ele>488.6</ele>
        <time>2026-03-18T08:11:17Z</time>
      </trkpt>
      <trkpt lat="48.33007" lon="7.39508">
        <ele>488.6</ele>
        <time>2026-03-18T08:11:22Z</time>
      </trkpt>
      <trkpt lat="48.33006" lon="7.39525">
        <ele>489.6</ele>
        <time>2026-03-18T08:11:27Z</time>
      </trkpt>
      <trkpt lat="48.33006" lon="7.39525">
        <ele>489.6</ele>
        <time>2026-03-18T08:11:32Z</time>
      </trkpt>
      <trkpt lat="48.33006" lon="7.39525">
        <ele>489.6</ele>
        <time>2026-03-18T08:11:37Z</time>
      </trkpt>
      <trkpt lat="48.32999" lon="7.39539">
        <ele>491.1</ele>
        <time>2026-03-18T08:11:42Z</time>
      </trkpt>
      <trkpt lat="48.32999" lon="7.39539">
        <ele>491.1</ele>
        <time>2026-03-18T08:11:47Z</time>
      </trkpt>
      <trkpt lat="48.32987" lon="7.39553">
        <ele>494.6</ele>
        <time>2026-03-18T08:11:52Z</time>
      </trkpt>
      <trkpt lat="48.32987" lon="7.39553">
        <ele>494.6</ele>
        <time>2026-03-18T08:11:57Z</time>
      </trkpt>
      <trkpt lat="48.32977" lon="7.39558">
        <ele>497.1</ele>
        <time>2026-03-18T08:12:02Z</time>
      </trkpt>
      <trkpt lat="48.32975" lon="7.39557">
        <ele>497.5</ele>
        <time>2026-03-18T08:12:07Z</time>
      </trkpt>
      <trkpt lat="48.32975" lon="7.39557">
        <ele>497.5</ele>
        <time>2026-03-18T08:12:12Z</time>
      </trkpt>
      <trkpt lat="48.32966" lon="7.39567">
        <ele>500.2</ele>
        <time>2026-03-18T08:12:17Z</time>
      </trkpt>
      <trkpt lat="48.32966" lon="7.39567">
        <ele>500.2</ele>
        <time>2026-03-18T08:12:22Z</time>
      </trkpt>
      <trkpt lat="48.32954" lon="7.39573">
        <ele>503.4</ele>
        <time>2026-03-18T08:12:27Z</time>
      </trkpt>
      <trkpt lat="48.32953" lon="7.39574">
        <ele>503.7</ele>
        <time>2026-03-18T08:12:32Z</time>
      </trkpt>
      <trkpt lat="48.32953" lon="7.39574">
        <ele>503.7</ele>
        <time>2026-03-18T08:12:37Z</time>
      </trkpt>
      <trkpt lat="48.32946" lon="7.39588">
        <ele>506.5</ele>
        <time>2026-03-18T08:12:42Z</time>
      </trkpt>
      <trkpt lat="48.32946" lon="7.39588">
        <ele>506.5</ele>
        <time>2026-03-18T08:12:47Z</time>
      </trkpt>
      <trkpt lat="48.3295" lon="7.39577">
        <ele>504.6</ele>
        <time>2026-03-18T08:12:52Z</time>
      </trkpt>
      <trkpt lat="48.3295" lon="7.39568">
        <ele>504</ele>
        <time>2026-03-18T08:12:57Z</time>
      </trkpt>
      <trkpt lat="48.32947" lon="7.39561">
        <ele>504.3</ele>
        <time>2026-03-18T08:13:02Z</time>
      </trkpt>
      <trkpt lat="48.32947" lon="7.39561">
        <ele>504.3</ele>
        <time>2026-03-18T08:13:07Z</time>
      </trkpt>
      <trkpt lat="48.32947" lon="7.39561">
        <ele>504.3</ele>
        <time>2026-03-18T08:13:12Z</time>
      </trkpt>
      <trkpt lat="48.32953" lon="7.39569">
        <ele>503.4</ele>
        <time>2026-03-18T08:13:17Z</time>
      </trkpt>
      <trkpt lat="48.32956" lon="7.39578">
        <ele>503.2</ele>
        <time>2026-03-18T08:13:22Z</time>
      </trkpt>
      <trkpt lat="48.32958" lon="7.39588">
        <ele>503.6</ele>
        <time>2026-03-18T08:13:27Z</time>
      </trkpt>
      <trkpt lat="48.3296" lon="7.39596">
        <ele>504</ele>
        <time>2026-03-18T08:13:32Z</time>
      </trkpt>
      <trkpt lat="48.3296" lon="7.39598">
        <ele>504.3</ele>
        <time>2026-03-18T08:13:37Z</time>
      </trkpt>
      <trkpt lat="48.3296" lon="7.39598">
        <ele>504.3</ele>
        <time>2026-03-18T08:13:42Z</time>
      </trkpt>
      <trkpt lat="48.3296" lon="7.39598">
        <ele>504.3</ele>
        <time>2026-03-18T08:13:47Z</time>
      </trkpt>
      <trkpt lat="48.32957" lon="7.39596">
        <ele>504.8</ele>
        <time>2026-03-18T08:13:52Z</time>
      </trkpt>
      <trkpt lat="48.32956" lon="7.39585">
        <ele>503.7</ele>
        <time>2026-03-18T08:13:57Z</time>
      </trkpt>
      <trkpt lat="48.32953" lon="7.39575">
        <ele>503.8</ele>
        <time>2026-03-18T08:14:02Z</time>
      </trkpt>
      <trkpt lat="48.32952" lon="7.39567">
        <ele>503.5</ele>
        <time>2026-03-18T08:14:07Z</time>
      </trkpt>
      <trkpt lat="48.32947" lon="7.39565">
        <ele>504.6</ele>
        <time>2026-03-18T08:14:12Z</time>
      </trkpt>
      <trkpt lat="48.32938" lon="7.39563">
        <ele>506.5</ele>
        <time>2026-03-18T08:14:17Z</time>
      </trkpt>
      <trkpt lat="48.32938" lon="7.39563">
        <ele>506.5</ele>
        <time>2026-03-18T08:14:22Z</time>
      </trkpt>
      <trkpt lat="48.32938" lon="7.39563">
        <ele>506.5</ele>
        <time>2026-03-18T08:14:27Z</time>
      </trkpt>
      <trkpt lat="48.32938" lon="7.39563">
        <ele>506.5</ele>
        <time>2026-03-18T08:14:32Z</time>
      </trkpt>
      <trkpt lat="48.32938" lon="7.39563">
        <ele>506.5</ele>
        <time>2026-03-18T08:14:37Z</time>
      </trkpt>
      <trkpt lat="48.32938" lon="7.39563">
        <ele>506.5</ele>
        <time>2026-03-18T08:14:42Z</time>
      </trkpt>
      <trkpt lat="48.32938" lon="7.39563">
        <ele>506.5</ele>
        <time>2026-03-18T08:14:47Z</time>
      </trkpt>
      <trkpt lat="48.32938" lon="7.39563">
        <ele>506.5</ele>
        <time>2026-03-18T08:14:52Z</time>
      </trkpt>
      <trkpt lat="48.32938" lon="7.39563">
        <ele>506.5</ele>
        <time>2026-03-18T08:14:57Z</time>
      </trkpt>
      <trkpt lat="48.32938" lon="7.39563">
        <ele>506.5</ele>
        <time>2026-03-18T08:15:02Z</time>
      </trkpt>
      <trkpt lat="48.32938" lon="7.39563">
        <ele>506.5</ele>
        <time>2026-03-18T08:15:07Z</time>
      </trkpt>
      <trkpt lat="48.32938" lon="7.39563">
        <ele>506.5</ele>
        <time>2026-03-18T08:15:12Z</time>
      </trkpt>
      <trkpt lat="48.32938" lon="7.39563">
        <ele>506.5</ele>
        <time>2026-03-18T08:15:17Z</time>
      </trkpt>
      <trkpt lat="48.32929" lon="7.39557">
        <ele>508.2</ele>
        <time>2026-03-18T08:15:22Z</time>
      </trkpt>
      <trkpt lat="48.32923" lon="7.39557">
        <ele>509.6</ele>
        <time>2026-03-18T08:15:27Z</time>
      </trkpt>
      <trkpt lat="48.32919" lon="7.39558">
        <ele>510.6</ele>
        <time>2026-03-18T08:15:32Z</time>
      </trkpt>
      <trkpt lat="48.32916" lon="7.39551">
        <ele>510.8</ele>
        <time>2026-03-18T08:15:37Z</time>
      </trkpt>
      <trkpt lat="48.32916" lon="7.39546">
        <ele>510.5</ele>
        <time>2026-03-18T08:15:42Z</time>
      </trkpt>
      <trkpt lat="48.32911" lon="7.39537">
        <ele>511.2</ele>
        <time>2026-03-18T08:15:47Z</time>
      </trkpt>
      <trkpt lat="48.32911" lon="7.39533">
        <ele>510.9</ele>
        <time>2026-03-18T08:15:52Z</time>
      </trkpt>
      <trkpt lat="48.32911" lon="7.39547">
        <ele>511.9</ele>
        <time>2026-03-18T08:15:57Z</time>
      </trkpt>
      <trkpt lat="48.32906" lon="7.3956">
        <ele>514.1</ele>
        <time>2026-03-18T08:16:02Z</time>
      </trkpt>
      <trkpt lat="48.32901" lon="7.39561">
        <ele>515.4</ele>
        <time>2026-03-18T08:16:07Z</time>
      </trkpt>
      <trkpt lat="48.32901" lon="7.39561">
        <ele>515.4</ele>
        <time>2026-03-18T08:16:12Z</time>
      </trkpt>
      <trkpt lat="48.32892" lon="7.39552">
        <ele>517.2</ele>
        <time>2026-03-18T08:16:17Z</time>
      </trkpt>
      <trkpt lat="48.3289" lon="7.39551">
        <ele>517.6</ele>
        <time>2026-03-18T08:16:22Z</time>
      </trkpt>
      <trkpt lat="48.32882" lon="7.39544">
        <ele>519.3</ele>
        <time>2026-03-18T08:16:27Z</time>
      </trkpt>
      <trkpt lat="48.3288" lon="7.39541">
        <ele>519.6</ele>
        <time>2026-03-18T08:16:32Z</time>
      </trkpt>
      <trkpt lat="48.3288" lon="7.39541">
        <ele>519.6</ele>
        <time>2026-03-18T08:16:37Z</time>
      </trkpt>
      <trkpt lat="48.32869" lon="7.39531">
        <ele>522</ele>
        <time>2026-03-18T08:16:42Z</time>
      </trkpt>
      <trkpt lat="48.32869" lon="7.39531">
        <ele>522</ele>
        <time>2026-03-18T08:16:47Z</time>
      </trkpt>
      <trkpt lat="48.3286" lon="7.39524">
        <ele>524</ele>
        <time>2026-03-18T08:16:52Z</time>
      </trkpt>
      <trkpt lat="48.32858" lon="7.39522">
        <ele>524.4</ele>
        <time>2026-03-18T08:16:57Z</time>
      </trkpt>
      <trkpt lat="48.32858" lon="7.39522">
        <ele>524.4</ele>
        <time>2026-03-18T08:17:02Z</time>
      </trkpt>
      <trkpt lat="48.32848" lon="7.39511">
        <ele>526.5</ele>
        <time>2026-03-18T08:17:07Z</time>
      </trkpt>
      <trkpt lat="48.32848" lon="7.39511">
        <ele>526.5</ele>
        <time>2026-03-18T08:17:12Z</time>
      </trkpt>
      <trkpt lat="48.32839" lon="7.39502">
        <ele>528.5</ele>
        <time>2026-03-18T08:17:17Z</time>
      </trkpt>
      <trkpt lat="48.32838" lon="7.39501">
        <ele>528.8</ele>
        <time>2026-03-18T08:17:22Z</time>
      </trkpt>
      <trkpt lat="48.32838" lon="7.39501">
        <ele>528.8</ele>
        <time>2026-03-18T08:17:27Z</time>
      </trkpt>
      <trkpt lat="48.32829" lon="7.3949">
        <ele>529.1</ele>
        <time>2026-03-18T08:17:32Z</time>
      </trkpt>
      <trkpt lat="48.32829" lon="7.3949">
        <ele>529.1</ele>
        <time>2026-03-18T08:17:37Z</time>
      </trkpt>
      <trkpt lat="48.32829" lon="7.3949">
        <ele>529.1</ele>
        <time>2026-03-18T08:17:42Z</time>
      </trkpt>
      <trkpt lat="48.32822" lon="7.39479">
        <ele>528.3</ele>
        <time>2026-03-18T08:17:47Z</time>
      </trkpt>
      <trkpt lat="48.32821" lon="7.39478">
        <ele>528.3</ele>
        <time>2026-03-18T08:17:52Z</time>
      </trkpt>
      <trkpt lat="48.32811" lon="7.3947">
        <ele>528.3</ele>
        <time>2026-03-18T08:17:57Z</time>
      </trkpt>
      <trkpt lat="48.32809" lon="7.39468">
        <ele>528.3</ele>
        <time>2026-03-18T08:18:02Z</time>
      </trkpt>
      <trkpt lat="48.32809" lon="7.39468">
        <ele>528.3</ele>
        <time>2026-03-18T08:18:07Z</time>
      </trkpt>
      <trkpt lat="48.32803" lon="7.39454">
        <ele>527.7</ele>
        <time>2026-03-18T08:18:12Z</time>
      </trkpt>
      <trkpt lat="48.32803" lon="7.39453">
        <ele>527.7</ele>
        <time>2026-03-18T08:18:17Z</time>
      </trkpt>
      <trkpt lat="48.32803" lon="7.39453">
        <ele>527.7</ele>
        <time>2026-03-18T08:18:22Z</time>
      </trkpt>
      <trkpt lat="48.32794" lon="7.39441">
        <ele>527.8</ele>
        <time>2026-03-18T08:18:27Z</time>
      </trkpt>
      <trkpt lat="48.32794" lon="7.39441">
        <ele>527.8</ele>
        <time>2026-03-18T08:18:32Z</time>
      </trkpt>
      <trkpt lat="48.32794" lon="7.39441">
        <ele>527.8</ele>
        <time>2026-03-18T08:18:37Z</time>
      </trkpt>
      <trkpt lat="48.32784" lon="7.39435">
        <ele>528.7</ele>
        <time>2026-03-18T08:18:42Z</time>
      </trkpt>
      <trkpt lat="48.32784" lon="7.39435">
        <ele>528.7</ele>
        <time>2026-03-18T08:18:47Z</time>
      </trkpt>
      <trkpt lat="48.32784" lon="7.39435">
        <ele>528.7</ele>
        <time>2026-03-18T08:18:52Z</time>
      </trkpt>
      <trkpt lat="48.32774" lon="7.39425">
        <ele>529.6</ele>
        <time>2026-03-18T08:18:57Z</time>
      </trkpt>
      <trkpt lat="48.32774" lon="7.39425">
        <ele>529.6</ele>
        <time>2026-03-18T08:19:02Z</time>
      </trkpt>
      <trkpt lat="48.32774" lon="7.39425">
        <ele>529.6</ele>
        <time>2026-03-18T08:19:07Z</time>
      </trkpt>
      <trkpt lat="48.32764" lon="7.39417">
        <ele>530.8</ele>
        <time>2026-03-18T08:19:12Z</time>
      </trkpt>
      <trkpt lat="48.32764" lon="7.39417">
        <ele>530.8</ele>
        <time>2026-03-18T08:19:17Z</time>
      </trkpt>
      <trkpt lat="48.32764" lon="7.39417">
        <ele>530.8</ele>
        <time>2026-03-18T08:19:22Z</time>
      </trkpt>
      <trkpt lat="48.32753" lon="7.39407">
        <ele>531.7</ele>
        <time>2026-03-18T08:19:27Z</time>
      </trkpt>
      <trkpt lat="48.32753" lon="7.39407">
        <ele>531.7</ele>
        <time>2026-03-18T08:19:32Z</time>
      </trkpt>
      <trkpt lat="48.32746" lon="7.39399">
        <ele>532.3</ele>
        <time>2026-03-18T08:19:37Z</time>
      </trkpt>
      <trkpt lat="48.32744" lon="7.39397">
        <ele>532.5</ele>
        <time>2026-03-18T08:19:42Z</time>
      </trkpt>
      <trkpt lat="48.32744" lon="7.39397">
        <ele>532.5</ele>
        <time>2026-03-18T08:19:47Z</time>
      </trkpt>
      <trkpt lat="48.32733" lon="7.39388">
        <ele>534.1</ele>
        <time>2026-03-18T08:19:52Z</time>
      </trkpt>
      <trkpt lat="48.32733" lon="7.39388">
        <ele>534.1</ele>
        <time>2026-03-18T08:19:57Z</time>
      </trkpt>
      <trkpt lat="48.32733" lon="7.39388">
        <ele>534.1</ele>
        <time>2026-03-18T08:20:02Z</time>
      </trkpt>
      <trkpt lat="48.32723" lon="7.3938">
        <ele>535.9</ele>
        <time>2026-03-18T08:20:07Z</time>
      </trkpt>
      <trkpt lat="48.32723" lon="7.3938">
        <ele>535.9</ele>
        <time>2026-03-18T08:20:12Z</time>
      </trkpt>
      <trkpt lat="48.32723" lon="7.3938">
        <ele>535.9</ele>
        <time>2026-03-18T08:20:17Z</time>
      </trkpt>
      <trkpt lat="48.32713" lon="7.39381">
        <ele>538.1</ele>
        <time>2026-03-18T08:20:22Z</time>
      </trkpt>
      <trkpt lat="48.32711" lon="7.39382">
        <ele>538.6</ele>
        <time>2026-03-18T08:20:27Z</time>
      </trkpt>
      <trkpt lat="48.32711" lon="7.39382">
        <ele>538.6</ele>
        <time>2026-03-18T08:20:32Z</time>
      </trkpt>
      <trkpt lat="48.32698" lon="7.39381">
        <ele>541.4</ele>
        <time>2026-03-18T08:20:37Z</time>
      </trkpt>
      <trkpt lat="48.32698" lon="7.39382">
        <ele>541.4</ele>
        <time>2026-03-18T08:20:42Z</time>
      </trkpt>
      <trkpt lat="48.32698" lon="7.39382">
        <ele>541.4</ele>
        <time>2026-03-18T08:20:47Z</time>
      </trkpt>
      <trkpt lat="48.32685" lon="7.39385">
        <ele>544.2</ele>
        <time>2026-03-18T08:20:52Z</time>
      </trkpt>
      <trkpt lat="48.32685" lon="7.39385">
        <ele>544.2</ele>
        <time>2026-03-18T08:20:57Z</time>
      </trkpt>
      <trkpt lat="48.32674" lon="7.3939">
        <ele>546.4</ele>
        <time>2026-03-18T08:21:02Z</time>
      </trkpt>
      <trkpt lat="48.32674" lon="7.3939">
        <ele>546.4</ele>
        <time>2026-03-18T08:21:07Z</time>
      </trkpt>
      <trkpt lat="48.32664" lon="7.39394">
        <ele>548.3</ele>
        <time>2026-03-18T08:21:12Z</time>
      </trkpt>
      <trkpt lat="48.32662" lon="7.39395">
        <ele>548.6</ele>
        <time>2026-03-18T08:21:17Z</time>
      </trkpt>
      <trkpt lat="48.32662" lon="7.39395">
        <ele>548.6</ele>
        <time>2026-03-18T08:21:22Z</time>
      </trkpt>
      <trkpt lat="48.3265" lon="7.39394">
        <ele>550.6</ele>
        <time>2026-03-18T08:21:27Z</time>
      </trkpt>
      <trkpt lat="48.3265" lon="7.39394">
        <ele>550.6</ele>
        <time>2026-03-18T08:21:32Z</time>
      </trkpt>
      <trkpt lat="48.32642" lon="7.39402">
        <ele>551.4</ele>
        <time>2026-03-18T08:21:37Z</time>
      </trkpt>
      <trkpt lat="48.32639" lon="7.39404">
        <ele>551.8</ele>
        <time>2026-03-18T08:21:42Z</time>
      </trkpt>
      <trkpt lat="48.32639" lon="7.39404">
        <ele>551.8</ele>
        <time>2026-03-18T08:21:47Z</time>
      </trkpt>
      <trkpt lat="48.32639" lon="7.39404">
        <ele>551.8</ele>
        <time>2026-03-18T08:21:52Z</time>
      </trkpt>
      <trkpt lat="48.32629" lon="7.39406">
        <ele>553.2</ele>
        <time>2026-03-18T08:21:57Z</time>
      </trkpt>
      <trkpt lat="48.32629" lon="7.39406">
        <ele>553.2</ele>
        <time>2026-03-18T08:22:02Z</time>
      </trkpt>
      <trkpt lat="48.32629" lon="7.39406">
        <ele>553.2</ele>
        <time>2026-03-18T08:22:07Z</time>
      </trkpt>
      <trkpt lat="48.32629" lon="7.39406">
        <ele>553.2</ele>
        <time>2026-03-18T08:22:12Z</time>
      </trkpt>
      <trkpt lat="48.32629" lon="7.39406">
        <ele>553.2</ele>
        <time>2026-03-18T08:22:17Z</time>
      </trkpt>
      <trkpt lat="48.32629" lon="7.39406">
        <ele>553.2</ele>
        <time>2026-03-18T08:22:22Z</time>
      </trkpt>
      <trkpt lat="48.32629" lon="7.39406">
        <ele>553.2</ele>
        <time>2026-03-18T08:22:27Z</time>
      </trkpt>
      <trkpt lat="48.32629" lon="7.39406">
        <ele>553.2</ele>
        <time>2026-03-18T08:22:32Z</time>
      </trkpt>
      <trkpt lat="48.32629" lon="7.39406">
        <ele>553.2</ele>
        <time>2026-03-18T08:22:37Z</time>
      </trkpt>
      <trkpt lat="48.32627" lon="7.39416">
        <ele>552.8</ele>
        <time>2026-03-18T08:22:42Z</time>
      </trkpt>
      <trkpt lat="48.32625" lon="7.39418">
        <ele>552.8</ele>
        <time>2026-03-18T08:22:47Z</time>
      </trkpt>
      <trkpt lat="48.32615" lon="7.39427">
        <ele>553.1</ele>
        <time>2026-03-18T08:22:52Z</time>
      </trkpt>
      <trkpt lat="48.32615" lon="7.39427">
        <ele>553.1</ele>
        <time>2026-03-18T08:22:57Z</time>
      </trkpt>
      <trkpt lat="48.32605" lon="7.39436">
        <ele>553.2</ele>
        <time>2026-03-18T08:23:02Z</time>
      </trkpt>
      <trkpt lat="48.32604" lon="7.39436">
        <ele>553.3</ele>
        <time>2026-03-18T08:23:07Z</time>
      </trkpt>
      <trkpt lat="48.32596" lon="7.39444">
        <ele>553.2</ele>
        <time>2026-03-18T08:23:12Z</time>
      </trkpt>
      <trkpt lat="48.32593" lon="7.39447">
        <ele>553.1</ele>
        <time>2026-03-18T08:23:17Z</time>
      </trkpt>
      <trkpt lat="48.32593" lon="7.39447">
        <ele>553.1</ele>
        <time>2026-03-18T08:23:22Z</time>
      </trkpt>
      <trkpt lat="48.32582" lon="7.39456">
        <ele>553</ele>
        <time>2026-03-18T08:23:27Z</time>
      </trkpt>
      <trkpt lat="48.32582" lon="7.39456">
        <ele>553</ele>
        <time>2026-03-18T08:23:32Z</time>
      </trkpt>
      <trkpt lat="48.32571" lon="7.39467">
        <ele>552.4</ele>
        <time>2026-03-18T08:23:37Z</time>
      </trkpt>
      <trkpt lat="48.32571" lon="7.39467">
        <ele>552.4</ele>
        <time>2026-03-18T08:23:42Z</time>
      </trkpt>
      <trkpt lat="48.32571" lon="7.39467">
        <ele>552.4</ele>
        <time>2026-03-18T08:23:47Z</time>
      </trkpt>
      <trkpt lat="48.32571" lon="7.39467">
        <ele>552.4</ele>
        <time>2026-03-18T08:23:52Z</time>
      </trkpt>
      <trkpt lat="48.32571" lon="7.39467">
        <ele>552.4</ele>
        <time>2026-03-18T08:23:57Z</time>
      </trkpt>
      <trkpt lat="48.32571" lon="7.39467">
        <ele>552.4</ele>
        <time>2026-03-18T08:24:02Z</time>
      </trkpt>
      <trkpt lat="48.32557" lon="7.39477">
        <ele>552.2</ele>
        <time>2026-03-18T08:24:07Z</time>
      </trkpt>
      <trkpt lat="48.32548" lon="7.39481">
        <ele>552.5</ele>
        <time>2026-03-18T08:24:12Z</time>
      </trkpt>
      <trkpt lat="48.32548" lon="7.39481">
        <ele>552.5</ele>
        <time>2026-03-18T08:24:17Z</time>
      </trkpt>
      <trkpt lat="48.32536" lon="7.39483">
        <ele>553.3</ele>
        <time>2026-03-18T08:24:22Z</time>
      </trkpt>
      <trkpt lat="48.32535" lon="7.39482">
        <ele>553.6</ele>
        <time>2026-03-18T08:24:27Z</time>
      </trkpt>
      <trkpt lat="48.32523" lon="7.39482">
        <ele>554.8</ele>
        <time>2026-03-18T08:24:32Z</time>
      </trkpt>
      <trkpt lat="48.32522" lon="7.39482">
        <ele>554.9</ele>
        <time>2026-03-18T08:24:37Z</time>
      </trkpt>
      <trkpt lat="48.32509" lon="7.39478">
        <ele>556.8</ele>
        <time>2026-03-18T08:24:42Z</time>
      </trkpt>
      <trkpt lat="48.32502" lon="7.39474">
        <ele>558.2</ele>
        <time>2026-03-18T08:24:47Z</time>
      </trkpt>
      <trkpt lat="48.32498" lon="7.39472">
        <ele>559.1</ele>
        <time>2026-03-18T08:24:52Z</time>
      </trkpt>
      <trkpt lat="48.32489" lon="7.39474">
        <ele>560.7</ele>
        <time>2026-03-18T08:24:57Z</time>
      </trkpt>
      <trkpt lat="48.32485" lon="7.39475">
        <ele>561.4</ele>
        <time>2026-03-18T08:25:02Z</time>
      </trkpt>
      <trkpt lat="48.32485" lon="7.39475">
        <ele>561.4</ele>
        <time>2026-03-18T08:25:07Z</time>
      </trkpt>
      <trkpt lat="48.32473" lon="7.39472">
        <ele>564.4</ele>
        <time>2026-03-18T08:25:12Z</time>
      </trkpt>
      <trkpt lat="48.32473" lon="7.39472">
        <ele>564.4</ele>
        <time>2026-03-18T08:25:17Z</time>
      </trkpt>
      <trkpt lat="48.32462" lon="7.39476">
        <ele>566.1</ele>
        <time>2026-03-18T08:25:22Z</time>
      </trkpt>
      <trkpt lat="48.3246" lon="7.39476">
        <ele>566.5</ele>
        <time>2026-03-18T08:25:27Z</time>
      </trkpt>
      <trkpt lat="48.32447" lon="7.39479">
        <ele>568.8</ele>
        <time>2026-03-18T08:25:32Z</time>
      </trkpt>
      <trkpt lat="48.3244" lon="7.39483">
        <ele>569.7</ele>
        <time>2026-03-18T08:25:37Z</time>
      </trkpt>
      <trkpt lat="48.32432" lon="7.39487">
        <ele>570.7</ele>
        <time>2026-03-18T08:25:42Z</time>
      </trkpt>
      <trkpt lat="48.32429" lon="7.39488">
        <ele>571.2</ele>
        <time>2026-03-18T08:25:47Z</time>
      </trkpt>
      <trkpt lat="48.32429" lon="7.39488">
        <ele>571.2</ele>
        <time>2026-03-18T08:25:52Z</time>
      </trkpt>
      <trkpt lat="48.32419" lon="7.39494">
        <ele>572.4</ele>
        <time>2026-03-18T08:25:57Z</time>
      </trkpt>
      <trkpt lat="48.32417" lon="7.39495">
        <ele>572.7</ele>
        <time>2026-03-18T08:26:02Z</time>
      </trkpt>
      <trkpt lat="48.32406" lon="7.39497">
        <ele>576.9</ele>
        <time>2026-03-18T08:26:07Z</time>
      </trkpt>
      <trkpt lat="48.32405" lon="7.39497">
        <ele>577.4</ele>
        <time>2026-03-18T08:26:12Z</time>
      </trkpt>
      <trkpt lat="48.32396" lon="7.39501">
        <ele>580.4</ele>
        <time>2026-03-18T08:26:17Z</time>
      </trkpt>
      <trkpt lat="48.32393" lon="7.39505">
        <ele>580.6</ele>
        <time>2026-03-18T08:26:22Z</time>
      </trkpt>
      <trkpt lat="48.32393" lon="7.39505">
        <ele>580.6</ele>
        <time>2026-03-18T08:26:27Z</time>
      </trkpt>
      <trkpt lat="48.3238" lon="7.39508">
        <ele>585.3</ele>
        <time>2026-03-18T08:26:32Z</time>
      </trkpt>
      <trkpt lat="48.3238" lon="7.39508">
        <ele>585.3</ele>
        <time>2026-03-18T08:26:37Z</time>
      </trkpt>
      <trkpt lat="48.32369" lon="7.39505">
        <ele>590.7</ele>
        <time>2026-03-18T08:26:42Z</time>
      </trkpt>
      <trkpt lat="48.32367" lon="7.39506">
        <ele>591.3</ele>
        <time>2026-03-18T08:26:47Z</time>
      </trkpt>
      <trkpt lat="48.32355" lon="7.39508">
        <ele>595.7</ele>
        <time>2026-03-18T08:26:52Z</time>
      </trkpt>
      <trkpt lat="48.32352" lon="7.39509">
        <ele>596.7</ele>
        <time>2026-03-18T08:26:57Z</time>
      </trkpt>
      <trkpt lat="48.3234" lon="7.39526">
        <ele>597.1</ele>
        <time>2026-03-18T08:27:02Z</time>
      </trkpt>
      <trkpt lat="48.32336" lon="7.39541">
        <ele>594.6</ele>
        <time>2026-03-18T08:27:07Z</time>
      </trkpt>
      <trkpt lat="48.32333" lon="7.3955">
        <ele>593.3</ele>
        <time>2026-03-18T08:27:12Z</time>
      </trkpt>
      <trkpt lat="48.32332" lon="7.39555">
        <ele>592.3</ele>
        <time>2026-03-18T08:27:17Z</time>
      </trkpt>
      <trkpt lat="48.32332" lon="7.39555">
        <ele>592.3</ele>
        <time>2026-03-18T08:27:22Z</time>
      </trkpt>
      <trkpt lat="48.32319" lon="7.39561">
        <ele>595</ele>
        <time>2026-03-18T08:27:27Z</time>
      </trkpt>
      <trkpt lat="48.32319" lon="7.39561">
        <ele>595</ele>
        <time>2026-03-18T08:27:32Z</time>
      </trkpt>
      <trkpt lat="48.32306" lon="7.3957">
        <ele>596.7</ele>
        <time>2026-03-18T08:27:37Z</time>
      </trkpt>
      <trkpt lat="48.32306" lon="7.3957">
        <ele>596.7</ele>
        <time>2026-03-18T08:27:42Z</time>
      </trkpt>
      <trkpt lat="48.32296" lon="7.39585">
        <ele>595.6</ele>
        <time>2026-03-18T08:27:47Z</time>
      </trkpt>
      <trkpt lat="48.32292" lon="7.39596">
        <ele>593.8</ele>
        <time>2026-03-18T08:27:52Z</time>
      </trkpt>
      <trkpt lat="48.32289" lon="7.39611">
        <ele>590.6</ele>
        <time>2026-03-18T08:27:57Z</time>
      </trkpt>
      <trkpt lat="48.32284" lon="7.39623">
        <ele>588.8</ele>
        <time>2026-03-18T08:28:02Z</time>
      </trkpt>
      <trkpt lat="48.32283" lon="7.39633">
        <ele>586.4</ele>
        <time>2026-03-18T08:28:07Z</time>
      </trkpt>
      <trkpt lat="48.32282" lon="7.39634">
        <ele>586.4</ele>
        <time>2026-03-18T08:28:12Z</time>
      </trkpt>
      <trkpt lat="48.32276" lon="7.39652">
        <ele>583.4</ele>
        <time>2026-03-18T08:28:17Z</time>
      </trkpt>
      <trkpt lat="48.32275" lon="7.39654">
        <ele>583.1</ele>
        <time>2026-03-18T08:28:22Z</time>
      </trkpt>
      <trkpt lat="48.32268" lon="7.39671">
        <ele>580.8</ele>
        <time>2026-03-18T08:28:27Z</time>
      </trkpt>
      <trkpt lat="48.32265" lon="7.39678">
        <ele>579.9</ele>
        <time>2026-03-18T08:28:32Z</time>
      </trkpt>
      <trkpt lat="48.32265" lon="7.39678">
        <ele>579.9</ele>
        <time>2026-03-18T08:28:37Z</time>
      </trkpt>
      <trkpt lat="48.32254" lon="7.39692">
        <ele>579.7</ele>
        <time>2026-03-18T08:28:42Z</time>
      </trkpt>
      <trkpt lat="48.32254" lon="7.39692">
        <ele>579.7</ele>
        <time>2026-03-18T08:28:47Z</time>
      </trkpt>
      <trkpt lat="48.32243" lon="7.39705">
        <ele>579.3</ele>
        <time>2026-03-18T08:28:52Z</time>
      </trkpt>
      <trkpt lat="48.32242" lon="7.39706">
        <ele>579.3</ele>
        <time>2026-03-18T08:28:57Z</time>
      </trkpt>
      <trkpt lat="48.3223" lon="7.39719">
        <ele>579.4</ele>
        <time>2026-03-18T08:29:02Z</time>
      </trkpt>
      <trkpt lat="48.3223" lon="7.39719">
        <ele>579.4</ele>
        <time>2026-03-18T08:29:07Z</time>
      </trkpt>
      <trkpt lat="48.3222" lon="7.39736">
        <ele>578.3</ele>
        <time>2026-03-18T08:29:12Z</time>
      </trkpt>
      <trkpt lat="48.32216" lon="7.39749">
        <ele>576.7</ele>
        <time>2026-03-18T08:29:17Z</time>
      </trkpt>
      <trkpt lat="48.32214" lon="7.39754">
        <ele>576.5</ele>
        <time>2026-03-18T08:29:22Z</time>
      </trkpt>
      <trkpt lat="48.32214" lon="7.39754">
        <ele>576.5</ele>
        <time>2026-03-18T08:29:27Z</time>
      </trkpt>
      <trkpt lat="48.32208" lon="7.39772">
        <ele>575.5</ele>
        <time>2026-03-18T08:29:32Z</time>
      </trkpt>
      <trkpt lat="48.32208" lon="7.39772">
        <ele>575.5</ele>
        <time>2026-03-18T08:29:37Z</time>
      </trkpt>
      <trkpt lat="48.32202" lon="7.39798">
        <ele>573.1</ele>
        <time>2026-03-18T08:29:42Z</time>
      </trkpt>
      <trkpt lat="48.322" lon="7.39808">
        <ele>572.1</ele>
        <time>2026-03-18T08:29:47Z</time>
      </trkpt>
      <trkpt lat="48.32196" lon="7.39823">
        <ele>570.7</ele>
        <time>2026-03-18T08:29:52Z</time>
      </trkpt>
      <trkpt lat="48.32194" lon="7.39832">
        <ele>569.7</ele>
        <time>2026-03-18T08:29:57Z</time>
      </trkpt>
      <trkpt lat="48.32194" lon="7.39832">
        <ele>569.7</ele>
        <time>2026-03-18T08:30:02Z</time>
      </trkpt>
      <trkpt lat="48.32189" lon="7.39852">
        <ele>567.8</ele>
        <time>2026-03-18T08:30:07Z</time>
      </trkpt>
      <trkpt lat="48.32189" lon="7.39852">
        <ele>567.8</ele>
        <time>2026-03-18T08:30:12Z</time>
      </trkpt>
      <trkpt lat="48.32182" lon="7.39876">
        <ele>565.4</ele>
        <time>2026-03-18T08:30:17Z</time>
      </trkpt>
      <trkpt lat="48.3218" lon="7.39882">
        <ele>564.8</ele>
        <time>2026-03-18T08:30:22Z</time>
      </trkpt>
      <trkpt lat="48.32181" lon="7.39898">
        <ele>561.8</ele>
        <time>2026-03-18T08:30:27Z</time>
      </trkpt>
      <trkpt lat="48.32183" lon="7.399">
        <ele>561.1</ele>
        <time>2026-03-18T08:30:32Z</time>
      </trkpt>
      <trkpt lat="48.32183" lon="7.399">
        <ele>561.1</ele>
        <time>2026-03-18T08:30:37Z</time>
      </trkpt>
      <trkpt lat="48.32178" lon="7.39914">
        <ele>559.6</ele>
        <time>2026-03-18T08:30:42Z</time>
      </trkpt>
      <trkpt lat="48.32178" lon="7.39916">
        <ele>559.2</ele>
        <time>2026-03-18T08:30:47Z</time>
      </trkpt>
      <trkpt lat="48.32178" lon="7.39916">
        <ele>559.2</ele>
        <time>2026-03-18T08:30:52Z</time>
      </trkpt>
      <trkpt lat="48.32178" lon="7.39916">
        <ele>559.2</ele>
        <time>2026-03-18T08:30:57Z</time>
      </trkpt>
      <trkpt lat="48.32178" lon="7.39916">
        <ele>559.2</ele>
        <time>2026-03-18T08:31:02Z</time>
      </trkpt>
      <trkpt lat="48.32178" lon="7.39916">
        <ele>559.2</ele>
        <time>2026-03-18T08:31:07Z</time>
      </trkpt>
      <trkpt lat="48.32178" lon="7.39916">
        <ele>559.2</ele>
        <time>2026-03-18T08:31:12Z</time>
      </trkpt>
      <trkpt lat="48.32178" lon="7.39916">
        <ele>559.2</ele>
        <time>2026-03-18T08:31:17Z</time>
      </trkpt>
      <trkpt lat="48.32185" lon="7.39925">
        <ele>555.8</ele>
        <time>2026-03-18T08:31:22Z</time>
      </trkpt>
      <trkpt lat="48.32185" lon="7.39927">
        <ele>555.3</ele>
        <time>2026-03-18T08:31:27Z</time>
      </trkpt>
      <trkpt lat="48.32185" lon="7.39927">
        <ele>555.3</ele>
        <time>2026-03-18T08:31:32Z</time>
      </trkpt>
      <trkpt lat="48.32185" lon="7.39927">
        <ele>555.3</ele>
        <time>2026-03-18T08:31:37Z</time>
      </trkpt>
      <trkpt lat="48.32185" lon="7.39927">
        <ele>555.3</ele>
        <time>2026-03-18T08:31:42Z</time>
      </trkpt>
      <trkpt lat="48.32179" lon="7.39916">
        <ele>559</ele>
        <time>2026-03-18T08:31:47Z</time>
      </trkpt>
      <trkpt lat="48.32178" lon="7.39908">
        <ele>560.6</ele>
        <time>2026-03-18T08:31:52Z</time>
      </trkpt>
      <trkpt lat="48.32178" lon="7.39908">
        <ele>560.6</ele>
        <time>2026-03-18T08:31:57Z</time>
      </trkpt>
      <trkpt lat="48.32178" lon="7.39908">
        <ele>560.6</ele>
        <time>2026-03-18T08:32:02Z</time>
      </trkpt>
      <trkpt lat="48.32178" lon="7.39908">
        <ele>560.6</ele>
        <time>2026-03-18T08:32:07Z</time>
      </trkpt>
      <trkpt lat="48.32178" lon="7.39908">
        <ele>560.6</ele>
        <time>2026-03-18T08:32:12Z</time>
      </trkpt>
      <trkpt lat="48.32178" lon="7.39908">
        <ele>560.6</ele>
        <time>2026-03-18T08:32:17Z</time>
      </trkpt>
      <trkpt lat="48.32178" lon="7.39908">
        <ele>560.6</ele>
        <time>2026-03-18T08:32:22Z</time>
      </trkpt>
      <trkpt lat="48.32166" lon="7.39888">
        <ele>566.6</ele>
        <time>2026-03-18T08:32:27Z</time>
      </trkpt>
      <trkpt lat="48.32164" lon="7.39887">
        <ele>567.1</ele>
        <time>2026-03-18T08:32:32Z</time>
      </trkpt>
      <trkpt lat="48.32164" lon="7.39887">
        <ele>567.1</ele>
        <time>2026-03-18T08:32:37Z</time>
      </trkpt>
      <trkpt lat="48.32164" lon="7.39887">
        <ele>567.1</ele>
        <time>2026-03-18T08:32:42Z</time>
      </trkpt>
      <trkpt lat="48.32164" lon="7.39887">
        <ele>567.1</ele>
        <time>2026-03-18T08:32:47Z</time>
      </trkpt>
      <trkpt lat="48.32164" lon="7.39902">
        <ele>564.2</ele>
        <time>2026-03-18T08:32:52Z</time>
      </trkpt>
      <trkpt lat="48.32164" lon="7.39902">
        <ele>564.2</ele>
        <time>2026-03-18T08:32:57Z</time>
      </trkpt>
      <trkpt lat="48.32164" lon="7.39902">
        <ele>564.2</ele>
        <time>2026-03-18T08:33:02Z</time>
      </trkpt>
      <trkpt lat="48.32164" lon="7.39902">
        <ele>564.2</ele>
        <time>2026-03-18T08:33:07Z</time>
      </trkpt>
      <trkpt lat="48.32164" lon="7.39902">
        <ele>564.2</ele>
        <time>2026-03-18T08:33:12Z</time>
      </trkpt>
      <trkpt lat="48.32164" lon="7.39902">
        <ele>564.2</ele>
        <time>2026-03-18T08:33:17Z</time>
      </trkpt>
      <trkpt lat="48.3215" lon="7.39898">
        <ele>566.9</ele>
        <time>2026-03-18T08:33:22Z</time>
      </trkpt>
      <trkpt lat="48.32144" lon="7.39903">
        <ele>566.8</ele>
        <time>2026-03-18T08:33:27Z</time>
      </trkpt>
      <trkpt lat="48.3214" lon="7.39909">
        <ele>566.3</ele>
        <time>2026-03-18T08:33:32Z</time>
      </trkpt>
      <trkpt lat="48.3214" lon="7.39909">
        <ele>566.3</ele>
        <time>2026-03-18T08:33:37Z</time>
      </trkpt>
      <trkpt lat="48.3214" lon="7.39909">
        <ele>566.3</ele>
        <time>2026-03-18T08:33:42Z</time>
      </trkpt>
      <trkpt lat="48.32142" lon="7.39925">
        <ele>562.2</ele>
        <time>2026-03-18T08:33:47Z</time>
      </trkpt>
      <trkpt lat="48.32136" lon="7.39925">
        <ele>563.1</ele>
        <time>2026-03-18T08:33:52Z</time>
      </trkpt>
      <trkpt lat="48.32126" lon="7.39927">
        <ele>564</ele>
        <time>2026-03-18T08:33:57Z</time>
      </trkpt>
      <trkpt lat="48.32119" lon="7.3993">
        <ele>564.2</ele>
        <time>2026-03-18T08:34:02Z</time>
      </trkpt>
      <trkpt lat="48.32111" lon="7.39937">
        <ele>563.5</ele>
        <time>2026-03-18T08:34:07Z</time>
      </trkpt>
      <trkpt lat="48.32105" lon="7.39943">
        <ele>562.8</ele>
        <time>2026-03-18T08:34:12Z</time>
      </trkpt>
      <trkpt lat="48.321" lon="7.39951">
        <ele>561.4</ele>
        <time>2026-03-18T08:34:17Z</time>
      </trkpt>
      <trkpt lat="48.32099" lon="7.39953">
        <ele>561</ele>
        <time>2026-03-18T08:34:22Z</time>
      </trkpt>
      <trkpt lat="48.3209" lon="7.39962">
        <ele>560</ele>
        <time>2026-03-18T08:34:27Z</time>
      </trkpt>
      <trkpt lat="48.32084" lon="7.39969">
        <ele>559.1</ele>
        <time>2026-03-18T08:34:32Z</time>
      </trkpt>
      <trkpt lat="48.32077" lon="7.39973">
        <ele>557.2</ele>
        <time>2026-03-18T08:34:37Z</time>
      </trkpt>
      <trkpt lat="48.32072" lon="7.39976">
        <ele>555.7</ele>
        <time>2026-03-18T08:34:42Z</time>
      </trkpt>
      <trkpt lat="48.32065" lon="7.39988">
        <ele>551.6</ele>
        <time>2026-03-18T08:34:47Z</time>
      </trkpt>
      <trkpt lat="48.32061" lon="7.39994">
        <ele>549.4</ele>
        <time>2026-03-18T08:34:52Z</time>
      </trkpt>
      <trkpt lat="48.32061" lon="7.39994">
        <ele>549.4</ele>
        <time>2026-03-18T08:34:57Z</time>
      </trkpt>
      <trkpt lat="48.32049" lon="7.40005">
        <ele>544.4</ele>
        <time>2026-03-18T08:35:02Z</time>
      </trkpt>
      <trkpt lat="48.32042" lon="7.40011">
        <ele>541.4</ele>
        <time>2026-03-18T08:35:07Z</time>
      </trkpt>
      <trkpt lat="48.32038" lon="7.40019">
        <ele>538.1</ele>
        <time>2026-03-18T08:35:12Z</time>
      </trkpt>
      <trkpt lat="48.32031" lon="7.40029">
        <ele>533.8</ele>
        <time>2026-03-18T08:35:17Z</time>
      </trkpt>
      <trkpt lat="48.32024" lon="7.40037">
        <ele>530.2</ele>
        <time>2026-03-18T08:35:22Z</time>
      </trkpt>
      <trkpt lat="48.3202" lon="7.4004">
        <ele>528.7</ele>
        <time>2026-03-18T08:35:27Z</time>
      </trkpt>
      <trkpt lat="48.3202" lon="7.4004">
        <ele>528.7</ele>
        <time>2026-03-18T08:35:32Z</time>
      </trkpt>
      <trkpt lat="48.3202" lon="7.4004">
        <ele>528.7</ele>
        <time>2026-03-18T08:35:37Z</time>
      </trkpt>
      <trkpt lat="48.3201" lon="7.40047">
        <ele>525.1</ele>
        <time>2026-03-18T08:35:42Z</time>
      </trkpt>
      <trkpt lat="48.32009" lon="7.40047">
        <ele>524.9</ele>
        <time>2026-03-18T08:35:47Z</time>
      </trkpt>
      <trkpt lat="48.31998" lon="7.40046">
        <ele>523.8</ele>
        <time>2026-03-18T08:35:52Z</time>
      </trkpt>
      <trkpt lat="48.31997" lon="7.40045">
        <ele>524</ele>
        <time>2026-03-18T08:35:57Z</time>
      </trkpt>
      <trkpt lat="48.31985" lon="7.40038">
        <ele>524.5</ele>
        <time>2026-03-18T08:36:02Z</time>
      </trkpt>
      <trkpt lat="48.31978" lon="7.40035">
        <ele>524.4</ele>
        <time>2026-03-18T08:36:07Z</time>
      </trkpt>
      <trkpt lat="48.31971" lon="7.40031">
        <ele>524.6</ele>
        <time>2026-03-18T08:36:12Z</time>
      </trkpt>
      <trkpt lat="48.31963" lon="7.40027">
        <ele>524.4</ele>
        <time>2026-03-18T08:36:17Z</time>
      </trkpt>
      <trkpt lat="48.31959" lon="7.4002">
        <ele>525.7</ele>
        <time>2026-03-18T08:36:22Z</time>
      </trkpt>
      <trkpt lat="48.31957" lon="7.40019">
        <ele>525.6</ele>
        <time>2026-03-18T08:36:27Z</time>
      </trkpt>
      <trkpt lat="48.31946" lon="7.40011">
        <ele>525.8</ele>
        <time>2026-03-18T08:36:32Z</time>
      </trkpt>
      <trkpt lat="48.31944" lon="7.40009">
        <ele>526</ele>
        <time>2026-03-18T08:36:37Z</time>
      </trkpt>
      <trkpt lat="48.31931" lon="7.4">
        <ele>525.8</ele>
        <time>2026-03-18T08:36:42Z</time>
      </trkpt>
      <trkpt lat="48.31926" lon="7.39998">
        <ele>525.4</ele>
        <time>2026-03-18T08:36:47Z</time>
      </trkpt>
      <trkpt lat="48.31926" lon="7.39998">
        <ele>525.4</ele>
        <time>2026-03-18T08:36:52Z</time>
      </trkpt>
      <trkpt lat="48.31913" lon="7.39995">
        <ele>525.1</ele>
        <time>2026-03-18T08:36:57Z</time>
      </trkpt>
      <trkpt lat="48.31906" lon="7.39989">
        <ele>528.1</ele>
        <time>2026-03-18T08:37:02Z</time>
      </trkpt>
      <trkpt lat="48.31897" lon="7.39988">
        <ele>530</ele>
        <time>2026-03-18T08:37:07Z</time>
      </trkpt>
      <trkpt lat="48.3189" lon="7.39986">
        <ele>531.8</ele>
        <time>2026-03-18T08:37:12Z</time>
      </trkpt>
      <trkpt lat="48.31883" lon="7.39983">
        <ele>533.9</ele>
        <time>2026-03-18T08:37:17Z</time>
      </trkpt>
      <trkpt lat="48.31875" lon="7.39981">
        <ele>535.8</ele>
        <time>2026-03-18T08:37:22Z</time>
      </trkpt>
      <trkpt lat="48.31867" lon="7.39976">
        <ele>538.4</ele>
        <time>2026-03-18T08:37:27Z</time>
      </trkpt>
      <trkpt lat="48.31859" lon="7.39972">
        <ele>540.7</ele>
        <time>2026-03-18T08:37:32Z</time>
      </trkpt>
      <trkpt lat="48.31852" lon="7.39966">
        <ele>543.3</ele>
        <time>2026-03-18T08:37:37Z</time>
      </trkpt>
      <trkpt lat="48.31847" lon="7.39959">
        <ele>545.7</ele>
        <time>2026-03-18T08:37:42Z</time>
      </trkpt>
      <trkpt lat="48.31841" lon="7.39953">
        <ele>548</ele>
        <time>2026-03-18T08:37:47Z</time>
      </trkpt>
      <trkpt lat="48.31838" lon="7.39948">
        <ele>549.5</ele>
        <time>2026-03-18T08:37:52Z</time>
      </trkpt>
      <trkpt lat="48.31829" lon="7.39941">
        <ele>553.3</ele>
        <time>2026-03-18T08:37:57Z</time>
      </trkpt>
      <trkpt lat="48.31822" lon="7.39935">
        <ele>557.2</ele>
        <time>2026-03-18T08:38:02Z</time>
      </trkpt>
      <trkpt lat="48.31816" lon="7.39927">
        <ele>561.1</ele>
        <time>2026-03-18T08:38:07Z</time>
      </trkpt>
      <trkpt lat="48.31812" lon="7.39919">
        <ele>564.4</ele>
        <time>2026-03-18T08:38:12Z</time>
      </trkpt>
      <trkpt lat="48.3181" lon="7.39915">
        <ele>566.1</ele>
        <time>2026-03-18T08:38:17Z</time>
      </trkpt>
      <trkpt lat="48.31803" lon="7.39905">
        <ele>570.9</ele>
        <time>2026-03-18T08:38:22Z</time>
      </trkpt>
      <trkpt lat="48.318" lon="7.399">
        <ele>573.2</ele>
        <time>2026-03-18T08:38:27Z</time>
      </trkpt>
      <trkpt lat="48.3179" lon="7.39891">
        <ele>578.8</ele>
        <time>2026-03-18T08:38:32Z</time>
      </trkpt>
      <trkpt lat="48.31786" lon="7.3989">
        <ele>580.5</ele>
        <time>2026-03-18T08:38:37Z</time>
      </trkpt>
      <trkpt lat="48.31778" lon="7.39899">
        <ele>581.4</ele>
        <time>2026-03-18T08:38:42Z</time>
      </trkpt>
      <trkpt lat="48.31774" lon="7.39911">
        <ele>580.3</ele>
        <time>2026-03-18T08:38:47Z</time>
      </trkpt>
      <trkpt lat="48.31767" lon="7.39917">
        <ele>581.6</ele>
        <time>2026-03-18T08:38:52Z</time>
      </trkpt>
      <trkpt lat="48.3176" lon="7.39925">
        <ele>582.2</ele>
        <time>2026-03-18T08:38:57Z</time>
      </trkpt>
      <trkpt lat="48.31755" lon="7.39935">
        <ele>581.6</ele>
        <time>2026-03-18T08:39:02Z</time>
      </trkpt>
      <trkpt lat="48.31752" lon="7.39943">
        <ele>580.6</ele>
        <time>2026-03-18T08:39:07Z</time>
      </trkpt>
      <trkpt lat="48.31746" lon="7.39953">
        <ele>579.6</ele>
        <time>2026-03-18T08:39:12Z</time>
      </trkpt>
      <trkpt lat="48.31742" lon="7.39961">
        <ele>578.4</ele>
        <time>2026-03-18T08:39:17Z</time>
      </trkpt>
      <trkpt lat="48.31739" lon="7.39968">
        <ele>577.4</ele>
        <time>2026-03-18T08:39:22Z</time>
      </trkpt>
      <trkpt lat="48.31739" lon="7.39968">
        <ele>577.4</ele>
        <time>2026-03-18T08:39:27Z</time>
      </trkpt>
      <trkpt lat="48.31731" lon="7.39977">
        <ele>577.1</ele>
        <time>2026-03-18T08:39:32Z</time>
      </trkpt>
      <trkpt lat="48.31729" lon="7.39981">
        <ele>576.7</ele>
        <time>2026-03-18T08:39:37Z</time>
      </trkpt>
      <trkpt lat="48.31723" lon="7.39993">
        <ele>575.6</ele>
        <time>2026-03-18T08:39:42Z</time>
      </trkpt>
      <trkpt lat="48.31721" lon="7.39997">
        <ele>575.3</ele>
        <time>2026-03-18T08:39:47Z</time>
      </trkpt>
      <trkpt lat="48.31721" lon="7.39997">
        <ele>575.3</ele>
        <time>2026-03-18T08:39:52Z</time>
      </trkpt>
      <trkpt lat="48.3171" lon="7.40007">
        <ele>576.3</ele>
        <time>2026-03-18T08:39:57Z</time>
      </trkpt>
      <trkpt lat="48.3171" lon="7.40007">
        <ele>576.3</ele>
        <time>2026-03-18T08:40:02Z</time>
      </trkpt>
      <trkpt lat="48.317" lon="7.40006">
        <ele>579.1</ele>
        <time>2026-03-18T08:40:07Z</time>
      </trkpt>
      <trkpt lat="48.31696" lon="7.40009">
        <ele>579.6</ele>
        <time>2026-03-18T08:40:12Z</time>
      </trkpt>
      <trkpt lat="48.31696" lon="7.40009">
        <ele>579.6</ele>
        <time>2026-03-18T08:40:17Z</time>
      </trkpt>
      <trkpt lat="48.31684" lon="7.40019">
        <ele>580.9</ele>
        <time>2026-03-18T08:40:22Z</time>
      </trkpt>
      <trkpt lat="48.31684" lon="7.40019">
        <ele>580.9</ele>
        <time>2026-03-18T08:40:27Z</time>
      </trkpt>
      <trkpt lat="48.31674" lon="7.40032">
        <ele>581</ele>
        <time>2026-03-18T08:40:32Z</time>
      </trkpt>
      <trkpt lat="48.31674" lon="7.40036">
        <ele>580.2</ele>
        <time>2026-03-18T08:40:37Z</time>
      </trkpt>
      <trkpt lat="48.31674" lon="7.40036">
        <ele>580.2</ele>
        <time>2026-03-18T08:40:42Z</time>
      </trkpt>
      <trkpt lat="48.31674" lon="7.40036">
        <ele>580.2</ele>
        <time>2026-03-18T08:40:47Z</time>
      </trkpt>
      <trkpt lat="48.31674" lon="7.40036">
        <ele>580.2</ele>
        <time>2026-03-18T08:40:52Z</time>
      </trkpt>
      <trkpt lat="48.31674" lon="7.40036">
        <ele>580.2</ele>
        <time>2026-03-18T08:40:57Z</time>
      </trkpt>
      <trkpt lat="48.31674" lon="7.40036">
        <ele>580.2</ele>
        <time>2026-03-18T08:41:02Z</time>
      </trkpt>
      <trkpt lat="48.31674" lon="7.40036">
        <ele>580.2</ele>
        <time>2026-03-18T08:41:07Z</time>
      </trkpt>
      <trkpt lat="48.31674" lon="7.40036">
        <ele>580.2</ele>
        <time>2026-03-18T08:41:12Z</time>
      </trkpt>
      <trkpt lat="48.31677" lon="7.40048">
        <ele>577.2</ele>
        <time>2026-03-18T08:41:17Z</time>
      </trkpt>
      <trkpt lat="48.31677" lon="7.40049">
        <ele>577</ele>
        <time>2026-03-18T08:41:22Z</time>
      </trkpt>
      <trkpt lat="48.31677" lon="7.40049">
        <ele>577</ele>
        <time>2026-03-18T08:41:27Z</time>
      </trkpt>
      <trkpt lat="48.31677" lon="7.40049">
        <ele>577</ele>
        <time>2026-03-18T08:41:32Z</time>
      </trkpt>
      <trkpt lat="48.31672" lon="7.40062">
        <ele>575.8</ele>
        <time>2026-03-18T08:41:37Z</time>
      </trkpt>
      <trkpt lat="48.3167" lon="7.40065">
        <ele>575.7</ele>
        <time>2026-03-18T08:41:42Z</time>
      </trkpt>
      <trkpt lat="48.31668" lon="7.40074">
        <ele>574.5</ele>
        <time>2026-03-18T08:41:47Z</time>
      </trkpt>
      <trkpt lat="48.31664" lon="7.40082">
        <ele>572.8</ele>
        <time>2026-03-18T08:41:52Z</time>
      </trkpt>
      <trkpt lat="48.31665" lon="7.40087">
        <ele>571.8</ele>
        <time>2026-03-18T08:41:57Z</time>
      </trkpt>
      <trkpt lat="48.31661" lon="7.40094">
        <ele>569.5</ele>
        <time>2026-03-18T08:42:02Z</time>
      </trkpt>
      <trkpt lat="48.31654" lon="7.40104">
        <ele>566.1</ele>
        <time>2026-03-18T08:42:07Z</time>
      </trkpt>
      <trkpt lat="48.31647" lon="7.40114">
        <ele>562.9</ele>
        <time>2026-03-18T08:42:12Z</time>
      </trkpt>
      <trkpt lat="48.31642" lon="7.40117">
        <ele>561.5</ele>
        <time>2026-03-18T08:42:17Z</time>
      </trkpt>
      <trkpt lat="48.31637" lon="7.4012">
        <ele>560.2</ele>
        <time>2026-03-18T08:42:22Z</time>
      </trkpt>
      <trkpt lat="48.31632" lon="7.40127">
        <ele>558</ele>
        <time>2026-03-18T08:42:27Z</time>
      </trkpt>
      <trkpt lat="48.31627" lon="7.40131">
        <ele>556.5</ele>
        <time>2026-03-18T08:42:32Z</time>
      </trkpt>
      <trkpt lat="48.31621" lon="7.40138">
        <ele>554.4</ele>
        <time>2026-03-18T08:42:37Z</time>
      </trkpt>
      <trkpt lat="48.31613" lon="7.40144">
        <ele>552.2</ele>
        <time>2026-03-18T08:42:42Z</time>
      </trkpt>
      <trkpt lat="48.3161" lon="7.40145">
        <ele>551.7</ele>
        <time>2026-03-18T08:42:47Z</time>
      </trkpt>
      <trkpt lat="48.31601" lon="7.40149">
        <ele>549.9</ele>
        <time>2026-03-18T08:42:52Z</time>
      </trkpt>
      <trkpt lat="48.31596" lon="7.40154">
        <ele>548.5</ele>
        <time>2026-03-18T08:42:57Z</time>
      </trkpt>
      <trkpt lat="48.31591" lon="7.40157">
        <ele>547.4</ele>
        <time>2026-03-18T08:43:02Z</time>
      </trkpt>
      <trkpt lat="48.31585" lon="7.40163">
        <ele>545.8</ele>
        <time>2026-03-18T08:43:07Z</time>
      </trkpt>
      <trkpt lat="48.3158" lon="7.40169">
        <ele>543.6</ele>
        <time>2026-03-18T08:43:12Z</time>
      </trkpt>
      <trkpt lat="48.31575" lon="7.40176">
        <ele>540.8</ele>
        <time>2026-03-18T08:43:17Z</time>
      </trkpt>
      <trkpt lat="48.31569" lon="7.40179">
        <ele>538.4</ele>
        <time>2026-03-18T08:43:22Z</time>
      </trkpt>
      <trkpt lat="48.31562" lon="7.40185">
        <ele>535</ele>
        <time>2026-03-18T08:43:27Z</time>
      </trkpt>
      <trkpt lat="48.3156" lon="7.40187">
        <ele>534</ele>
        <time>2026-03-18T08:43:32Z</time>
      </trkpt>
      <trkpt lat="48.31549" lon="7.40187">
        <ele>530.4</ele>
        <time>2026-03-18T08:43:37Z</time>
      </trkpt>
      <trkpt lat="48.31544" lon="7.40183">
        <ele>529.6</ele>
        <time>2026-03-18T08:43:42Z</time>
      </trkpt>
      <trkpt lat="48.31544" lon="7.40183">
        <ele>529.6</ele>
        <time>2026-03-18T08:43:47Z</time>
      </trkpt>
      <trkpt lat="48.31533" lon="7.4017">
        <ele>529.1</ele>
        <time>2026-03-18T08:43:52Z</time>
      </trkpt>
      <trkpt lat="48.31527" lon="7.40163">
        <ele>528.8</ele>
        <time>2026-03-18T08:43:57Z</time>
      </trkpt>
      <trkpt lat="48.31527" lon="7.40163">
        <ele>528.8</ele>
        <time>2026-03-18T08:44:02Z</time>
      </trkpt>
      <trkpt lat="48.31515" lon="7.40153">
        <ele>527.1</ele>
        <time>2026-03-18T08:44:07Z</time>
      </trkpt>
      <trkpt lat="48.31508" lon="7.40145">
        <ele>526.5</ele>
        <time>2026-03-18T08:44:12Z</time>
      </trkpt>
      <trkpt lat="48.31508" lon="7.40145">
        <ele>526.5</ele>
        <time>2026-03-18T08:44:17Z</time>
      </trkpt>
      <trkpt lat="48.315" lon="7.4014">
        <ele>525.1</ele>
        <time>2026-03-18T08:44:22Z</time>
      </trkpt>
      <trkpt lat="48.315" lon="7.4014">
        <ele>525.1</ele>
        <time>2026-03-18T08:44:27Z</time>
      </trkpt>
      <trkpt lat="48.315" lon="7.4014">
        <ele>525.1</ele>
        <time>2026-03-18T08:44:32Z</time>
      </trkpt>
      <trkpt lat="48.315" lon="7.4014">
        <ele>525.1</ele>
        <time>2026-03-18T08:44:37Z</time>
      </trkpt>
      <trkpt lat="48.315" lon="7.4014">
        <ele>525.1</ele>
        <time>2026-03-18T08:44:42Z</time>
      </trkpt>
      <trkpt lat="48.315" lon="7.4014">
        <ele>525.1</ele>
        <time>2026-03-18T08:44:47Z</time>
      </trkpt>
      <trkpt lat="48.3149" lon="7.40132">
        <ele>524.6</ele>
        <time>2026-03-18T08:44:52Z</time>
      </trkpt>
      <trkpt lat="48.31483" lon="7.40125">
        <ele>524.6</ele>
        <time>2026-03-18T08:44:57Z</time>
      </trkpt>
      <trkpt lat="48.31482" lon="7.40124">
        <ele>524.6</ele>
        <time>2026-03-18T08:45:02Z</time>
      </trkpt>
      <trkpt lat="48.31472" lon="7.40113">
        <ele>524.9</ele>
        <time>2026-03-18T08:45:07Z</time>
      </trkpt>
      <trkpt lat="48.31462" lon="7.40108">
        <ele>524</ele>
        <time>2026-03-18T08:45:12Z</time>
      </trkpt>
      <trkpt lat="48.31455" lon="7.401">
        <ele>524.4</ele>
        <time>2026-03-18T08:45:17Z</time>
      </trkpt>
      <trkpt lat="48.31447" lon="7.40094">
        <ele>524.2</ele>
        <time>2026-03-18T08:45:22Z</time>
      </trkpt>
      <trkpt lat="48.31443" lon="7.40089">
        <ele>524.5</ele>
        <time>2026-03-18T08:45:27Z</time>
      </trkpt>
      <trkpt lat="48.31436" lon="7.40083">
        <ele>524.5</ele>
        <time>2026-03-18T08:45:32Z</time>
      </trkpt>
      <trkpt lat="48.31431" lon="7.40076">
        <ele>524.1</ele>
        <time>2026-03-18T08:45:37Z</time>
      </trkpt>
      <trkpt lat="48.31425" lon="7.40068">
        <ele>523.5</ele>
        <time>2026-03-18T08:45:42Z</time>
      </trkpt>
      <trkpt lat="48.31424" lon="7.40065">
        <ele>523.5</ele>
        <time>2026-03-18T08:45:47Z</time>
      </trkpt>
      <trkpt lat="48.31414" lon="7.40053">
        <ele>522.7</ele>
        <time>2026-03-18T08:45:52Z</time>
      </trkpt>
      <trkpt lat="48.31408" lon="7.40045">
        <ele>522.9</ele>
        <time>2026-03-18T08:45:57Z</time>
      </trkpt>
      <trkpt lat="48.31403" lon="7.40037">
        <ele>523.2</ele>
        <time>2026-03-18T08:46:02Z</time>
      </trkpt>
      <trkpt lat="48.31398" lon="7.40026">
        <ele>523.6</ele>
        <time>2026-03-18T08:46:07Z</time>
      </trkpt>
      <trkpt lat="48.31393" lon="7.40016">
        <ele>524</ele>
        <time>2026-03-18T08:46:12Z</time>
      </trkpt>
      <trkpt lat="48.31393" lon="7.40005">
        <ele>524.6</ele>
        <time>2026-03-18T08:46:17Z</time>
      </trkpt>
      <trkpt lat="48.3139" lon="7.39994">
        <ele>524.7</ele>
        <time>2026-03-18T08:46:22Z</time>
      </trkpt>
      <trkpt lat="48.31387" lon="7.39985">
        <ele>524.6</ele>
        <time>2026-03-18T08:46:27Z</time>
      </trkpt>
      <trkpt lat="48.31382" lon="7.39976">
        <ele>524.3</ele>
        <time>2026-03-18T08:46:32Z</time>
      </trkpt>
      <trkpt lat="48.31377" lon="7.39968">
        <ele>523.9</ele>
        <time>2026-03-18T08:46:37Z</time>
      </trkpt>
      <trkpt lat="48.31377" lon="7.39968">
        <ele>523.9</ele>
        <time>2026-03-18T08:46:42Z</time>
      </trkpt>
      <trkpt lat="48.31362" lon="7.3996">
        <ele>522.9</ele>
        <time>2026-03-18T08:46:47Z</time>
      </trkpt>
      <trkpt lat="48.3136" lon="7.39954">
        <ele>522.7</ele>
        <time>2026-03-18T08:46:52Z</time>
      </trkpt>
      <trkpt lat="48.3136" lon="7.39954">
        <ele>522.7</ele>
        <time>2026-03-18T08:46:57Z</time>
      </trkpt>
      <trkpt lat="48.31355" lon="7.39944">
        <ele>522.2</ele>
        <time>2026-03-18T08:47:02Z</time>
      </trkpt>
      <trkpt lat="48.31355" lon="7.39944">
        <ele>522.2</ele>
        <time>2026-03-18T08:47:07Z</time>
      </trkpt>
      <trkpt lat="48.31347" lon="7.39935">
        <ele>521.5</ele>
        <time>2026-03-18T08:47:12Z</time>
      </trkpt>
      <trkpt lat="48.31341" lon="7.39927">
        <ele>520.9</ele>
        <time>2026-03-18T08:47:17Z</time>
      </trkpt>
      <trkpt lat="48.31335" lon="7.3992">
        <ele>520.2</ele>
        <time>2026-03-18T08:47:22Z</time>
      </trkpt>
      <trkpt lat="48.31331" lon="7.39915">
        <ele>519.7</ele>
        <time>2026-03-18T08:47:27Z</time>
      </trkpt>
      <trkpt lat="48.3133" lon="7.39914">
        <ele>519.5</ele>
        <time>2026-03-18T08:47:32Z</time>
      </trkpt>
      <trkpt lat="48.31322" lon="7.39904">
        <ele>518.3</ele>
        <time>2026-03-18T08:47:37Z</time>
      </trkpt>
      <trkpt lat="48.31319" lon="7.39903">
        <ele>518</ele>
        <time>2026-03-18T08:47:42Z</time>
      </trkpt>
      <trkpt lat="48.3131" lon="7.39899">
        <ele>517.2</ele>
        <time>2026-03-18T08:47:47Z</time>
      </trkpt>
      <trkpt lat="48.31307" lon="7.39899">
        <ele>517</ele>
        <time>2026-03-18T08:47:52Z</time>
      </trkpt>
      <trkpt lat="48.31307" lon="7.39899">
        <ele>517</ele>
        <time>2026-03-18T08:47:57Z</time>
      </trkpt>
      <trkpt lat="48.31297" lon="7.39887">
        <ele>515.9</ele>
        <time>2026-03-18T08:48:02Z</time>
      </trkpt>
      <trkpt lat="48.31292" lon="7.39881">
        <ele>515.4</ele>
        <time>2026-03-18T08:48:07Z</time>
      </trkpt>
      <trkpt lat="48.31287" lon="7.39875">
        <ele>515.1</ele>
        <time>2026-03-18T08:48:12Z</time>
      </trkpt>
      <trkpt lat="48.31281" lon="7.39867">
        <ele>514.6</ele>
        <time>2026-03-18T08:48:17Z</time>
      </trkpt>
      <trkpt lat="48.31278" lon="7.39864">
        <ele>514.5</ele>
        <time>2026-03-18T08:48:22Z</time>
      </trkpt>
      <trkpt lat="48.31278" lon="7.39864">
        <ele>514.5</ele>
        <time>2026-03-18T08:48:27Z</time>
      </trkpt>
      <trkpt lat="48.31269" lon="7.39851">
        <ele>514.1</ele>
        <time>2026-03-18T08:48:32Z</time>
      </trkpt>
      <trkpt lat="48.31269" lon="7.39851">
        <ele>514.1</ele>
        <time>2026-03-18T08:48:37Z</time>
      </trkpt>
      <trkpt lat="48.31269" lon="7.39831">
        <ele>513.9</ele>
        <time>2026-03-18T08:48:42Z</time>
      </trkpt>
      <trkpt lat="48.31268" lon="7.39821">
        <ele>513.4</ele>
        <time>2026-03-18T08:48:47Z</time>
      </trkpt>
      <trkpt lat="48.31268" lon="7.39821">
        <ele>513.4</ele>
        <time>2026-03-18T08:48:52Z</time>
      </trkpt>
      <trkpt lat="48.31263" lon="7.39801">
        <ele>512.5</ele>
        <time>2026-03-18T08:48:57Z</time>
      </trkpt>
      <trkpt lat="48.31262" lon="7.3979">
        <ele>512.1</ele>
        <time>2026-03-18T08:49:02Z</time>
      </trkpt>
      <trkpt lat="48.31262" lon="7.39788">
        <ele>512</ele>
        <time>2026-03-18T08:49:07Z</time>
      </trkpt>
      <trkpt lat="48.31261" lon="7.39774">
        <ele>511.4</ele>
        <time>2026-03-18T08:49:12Z</time>
      </trkpt>
      <trkpt lat="48.3126" lon="7.39768">
        <ele>511.2</ele>
        <time>2026-03-18T08:49:17Z</time>
      </trkpt>
      <trkpt lat="48.31258" lon="7.39754">
        <ele>510.7</ele>
        <time>2026-03-18T08:49:22Z</time>
      </trkpt>
      <trkpt lat="48.31255" lon="7.39749">
        <ele>510.5</ele>
        <time>2026-03-18T08:49:27Z</time>
      </trkpt>
      <trkpt lat="48.31255" lon="7.39749">
        <ele>510.5</ele>
        <time>2026-03-18T08:49:32Z</time>
      </trkpt>
      <trkpt lat="48.31248" lon="7.39733">
        <ele>508</ele>
        <time>2026-03-18T08:49:37Z</time>
      </trkpt>
      <trkpt lat="48.31248" lon="7.39733">
        <ele>508</ele>
        <time>2026-03-18T08:49:42Z</time>
      </trkpt>
      <trkpt lat="48.31242" lon="7.39719">
        <ele>505.2</ele>
        <time>2026-03-18T08:49:47Z</time>
      </trkpt>
      <trkpt lat="48.31241" lon="7.39717">
        <ele>504.8</ele>
        <time>2026-03-18T08:49:52Z</time>
      </trkpt>
      <trkpt lat="48.31241" lon="7.39717">
        <ele>504.8</ele>
        <time>2026-03-18T08:49:57Z</time>
      </trkpt>
      <trkpt lat="48.31236" lon="7.39701">
        <ele>502</ele>
        <time>2026-03-18T08:50:02Z</time>
      </trkpt>
      <trkpt lat="48.31236" lon="7.39701">
        <ele>502</ele>
        <time>2026-03-18T08:50:07Z</time>
      </trkpt>
      <trkpt lat="48.31232" lon="7.39687">
        <ele>499.8</ele>
        <time>2026-03-18T08:50:12Z</time>
      </trkpt>
      <trkpt lat="48.3123" lon="7.39682">
        <ele>499</ele>
        <time>2026-03-18T08:50:17Z</time>
      </trkpt>
      <trkpt lat="48.3123" lon="7.39682">
        <ele>499</ele>
        <time>2026-03-18T08:50:22Z</time>
      </trkpt>
      <trkpt lat="48.31222" lon="7.39667">
        <ele>496.7</ele>
        <time>2026-03-18T08:50:27Z</time>
      </trkpt>
      <trkpt lat="48.31221" lon="7.39666">
        <ele>496.6</ele>
        <time>2026-03-18T08:50:32Z</time>
      </trkpt>
      <trkpt lat="48.31214" lon="7.39649">
        <ele>494.2</ele>
        <time>2026-03-18T08:50:37Z</time>
      </trkpt>
      <trkpt lat="48.31213" lon="7.39648">
        <ele>494.1</ele>
        <time>2026-03-18T08:50:42Z</time>
      </trkpt>
      <trkpt lat="48.31207" lon="7.39637">
        <ele>492.6</ele>
        <time>2026-03-18T08:50:47Z</time>
      </trkpt>
      <trkpt lat="48.31205" lon="7.39633">
        <ele>492</ele>
        <time>2026-03-18T08:50:52Z</time>
      </trkpt>
      <trkpt lat="48.31205" lon="7.39633">
        <ele>492</ele>
        <time>2026-03-18T08:50:57Z</time>
      </trkpt>
      <trkpt lat="48.31197" lon="7.3962">
        <ele>490.4</ele>
        <time>2026-03-18T08:51:02Z</time>
      </trkpt>
      <trkpt lat="48.31197" lon="7.39619">
        <ele>490.2</ele>
        <time>2026-03-18T08:51:07Z</time>
      </trkpt>
      <trkpt lat="48.31197" lon="7.39619">
        <ele>490.2</ele>
        <time>2026-03-18T08:51:12Z</time>
      </trkpt>
      <trkpt lat="48.31188" lon="7.39604">
        <ele>488.4</ele>
        <time>2026-03-18T08:51:17Z</time>
      </trkpt>
      <trkpt lat="48.31188" lon="7.39604">
        <ele>488.4</ele>
        <time>2026-03-18T08:51:22Z</time>
      </trkpt>
      <trkpt lat="48.31179" lon="7.39589">
        <ele>486.6</ele>
        <time>2026-03-18T08:51:27Z</time>
      </trkpt>
      <trkpt lat="48.31179" lon="7.39589">
        <ele>486.6</ele>
        <time>2026-03-18T08:51:32Z</time>
      </trkpt>
      <trkpt lat="48.31169" lon="7.39576">
        <ele>484.6</ele>
        <time>2026-03-18T08:51:37Z</time>
      </trkpt>
      <trkpt lat="48.31162" lon="7.39567">
        <ele>482.5</ele>
        <time>2026-03-18T08:51:42Z</time>
      </trkpt>
      <trkpt lat="48.31155" lon="7.39562">
        <ele>481</ele>
        <time>2026-03-18T08:51:47Z</time>
      </trkpt>
      <trkpt lat="48.31148" lon="7.39557">
        <ele>479.6</ele>
        <time>2026-03-18T08:51:52Z</time>
      </trkpt>
      <trkpt lat="48.31144" lon="7.39553">
        <ele>478.6</ele>
        <time>2026-03-18T08:51:57Z</time>
      </trkpt>
      <trkpt lat="48.31136" lon="7.39544">
        <ele>476.7</ele>
        <time>2026-03-18T08:52:02Z</time>
      </trkpt>
      <trkpt lat="48.31135" lon="7.39543">
        <ele>476.5</ele>
        <time>2026-03-18T08:52:07Z</time>
      </trkpt>
      <trkpt lat="48.31119" lon="7.39537">
        <ele>474.8</ele>
        <time>2026-03-18T08:52:12Z</time>
      </trkpt>
      <trkpt lat="48.31115" lon="7.39533">
        <ele>474.1</ele>
        <time>2026-03-18T08:52:17Z</time>
      </trkpt>
      <trkpt lat="48.31106" lon="7.39526">
        <ele>472.9</ele>
        <time>2026-03-18T08:52:22Z</time>
      </trkpt>
      <trkpt lat="48.31098" lon="7.39521">
        <ele>472.2</ele>
        <time>2026-03-18T08:52:27Z</time>
      </trkpt>
      <trkpt lat="48.31095" lon="7.3952">
        <ele>472</ele>
        <time>2026-03-18T08:52:32Z</time>
      </trkpt>
      <trkpt lat="48.31086" lon="7.39514">
        <ele>471.2</ele>
        <time>2026-03-18T08:52:37Z</time>
      </trkpt>
      <trkpt lat="48.31084" lon="7.39511">
        <ele>470.9</ele>
        <time>2026-03-18T08:52:42Z</time>
      </trkpt>
      <trkpt lat="48.31077" lon="7.39502">
        <ele>469.2</ele>
        <time>2026-03-18T08:52:47Z</time>
      </trkpt>
      <trkpt lat="48.31076" lon="7.39501">
        <ele>468.9</ele>
        <time>2026-03-18T08:52:52Z</time>
      </trkpt>
      <trkpt lat="48.31066" lon="7.3949">
        <ele>466.4</ele>
        <time>2026-03-18T08:52:57Z</time>
      </trkpt>
      <trkpt lat="48.3106" lon="7.39485">
        <ele>465.1</ele>
        <time>2026-03-18T08:53:02Z</time>
      </trkpt>
      <trkpt lat="48.31057" lon="7.39483">
        <ele>464.5</ele>
        <time>2026-03-18T08:53:07Z</time>
      </trkpt>
      <trkpt lat="48.31051" lon="7.39475">
        <ele>463.1</ele>
        <time>2026-03-18T08:53:12Z</time>
      </trkpt>
      <trkpt lat="48.31046" lon="7.39468">
        <ele>461.9</ele>
        <time>2026-03-18T08:53:17Z</time>
      </trkpt>
      <trkpt lat="48.3104" lon="7.39462">
        <ele>460.8</ele>
        <time>2026-03-18T08:53:22Z</time>
      </trkpt>
      <trkpt lat="48.31033" lon="7.3946">
        <ele>459.9</ele>
        <time>2026-03-18T08:53:27Z</time>
      </trkpt>
      <trkpt lat="48.31025" lon="7.39456">
        <ele>458.7</ele>
        <time>2026-03-18T08:53:32Z</time>
      </trkpt>
      <trkpt lat="48.31018" lon="7.39449">
        <ele>457.7</ele>
        <time>2026-03-18T08:53:37Z</time>
      </trkpt>
      <trkpt lat="48.3101" lon="7.39443">
        <ele>456.6</ele>
        <time>2026-03-18T08:53:42Z</time>
      </trkpt>
      <trkpt lat="48.31005" lon="7.39437">
        <ele>456</ele>
        <time>2026-03-18T08:53:47Z</time>
      </trkpt>
      <trkpt lat="48.30996" lon="7.39431">
        <ele>454.8</ele>
        <time>2026-03-18T08:53:52Z</time>
      </trkpt>
      <trkpt lat="48.30991" lon="7.39429">
        <ele>454</ele>
        <time>2026-03-18T08:53:57Z</time>
      </trkpt>
      <trkpt lat="48.30983" lon="7.39423">
        <ele>452.8</ele>
        <time>2026-03-18T08:54:02Z</time>
      </trkpt>
      <trkpt lat="48.30978" lon="7.39419">
        <ele>452.1</ele>
        <time>2026-03-18T08:54:07Z</time>
      </trkpt>
      <trkpt lat="48.30969" lon="7.39412">
        <ele>451.1</ele>
        <time>2026-03-18T08:54:12Z</time>
      </trkpt>
      <trkpt lat="48.30961" lon="7.39406">
        <ele>450.3</ele>
        <time>2026-03-18T08:54:17Z</time>
      </trkpt>
      <trkpt lat="48.30956" lon="7.39404">
        <ele>449.8</ele>
        <time>2026-03-18T08:54:22Z</time>
      </trkpt>
      <trkpt lat="48.30956" lon="7.39404">
        <ele>449.8</ele>
        <time>2026-03-18T08:54:27Z</time>
      </trkpt>
      <trkpt lat="48.30944" lon="7.39398">
        <ele>448.9</ele>
        <time>2026-03-18T08:54:32Z</time>
      </trkpt>
      <trkpt lat="48.30943" lon="7.39398">
        <ele>448.8</ele>
        <time>2026-03-18T08:54:37Z</time>
      </trkpt>
      <trkpt lat="48.30931" lon="7.39394">
        <ele>447.9</ele>
        <time>2026-03-18T08:54:42Z</time>
      </trkpt>
      <trkpt lat="48.30924" lon="7.39391">
        <ele>447.5</ele>
        <time>2026-03-18T08:54:47Z</time>
      </trkpt>
      <trkpt lat="48.30922" lon="7.3939">
        <ele>447.4</ele>
        <time>2026-03-18T08:54:52Z</time>
      </trkpt>
      <trkpt lat="48.30914" lon="7.39383">
        <ele>447.9</ele>
        <time>2026-03-18T08:54:57Z</time>
      </trkpt>
      <trkpt lat="48.30906" lon="7.39374">
        <ele>449.6</ele>
        <time>2026-03-18T08:55:02Z</time>
      </trkpt>
      <trkpt lat="48.30903" lon="7.39371">
        <ele>450.2</ele>
        <time>2026-03-18T08:55:07Z</time>
      </trkpt>
      <trkpt lat="48.30903" lon="7.39371">
        <ele>450.2</ele>
        <time>2026-03-18T08:55:12Z</time>
      </trkpt>
      <trkpt lat="48.30893" lon="7.39358">
        <ele>452.8</ele>
        <time>2026-03-18T08:55:17Z</time>
      </trkpt>
      <trkpt lat="48.30893" lon="7.39358">
        <ele>452.8</ele>
        <time>2026-03-18T08:55:22Z</time>
      </trkpt>
      <trkpt lat="48.30893" lon="7.39358">
        <ele>452.8</ele>
        <time>2026-03-18T08:55:27Z</time>
      </trkpt>
      <trkpt lat="48.30893" lon="7.39358">
        <ele>452.8</ele>
        <time>2026-03-18T08:55:32Z</time>
      </trkpt>
      <trkpt lat="48.30893" lon="7.39358">
        <ele>452.8</ele>
        <time>2026-03-18T08:55:37Z</time>
      </trkpt>
      <trkpt lat="48.30893" lon="7.39358">
        <ele>452.8</ele>
        <time>2026-03-18T08:55:42Z</time>
      </trkpt>
      <trkpt lat="48.30893" lon="7.39358">
        <ele>452.8</ele>
        <time>2026-03-18T08:55:47Z</time>
      </trkpt>
      <trkpt lat="48.30893" lon="7.39358">
        <ele>452.8</ele>
        <time>2026-03-18T08:55:52Z</time>
      </trkpt>
      <trkpt lat="48.30879" lon="7.39336">
        <ele>457.2</ele>
        <time>2026-03-18T08:55:57Z</time>
      </trkpt>
      <trkpt lat="48.30873" lon="7.39329">
        <ele>458.7</ele>
        <time>2026-03-18T08:56:02Z</time>
      </trkpt>
      <trkpt lat="48.30865" lon="7.39319">
        <ele>460.7</ele>
        <time>2026-03-18T08:56:07Z</time>
      </trkpt>
      <trkpt lat="48.30857" lon="7.39317">
        <ele>461.9</ele>
        <time>2026-03-18T08:56:12Z</time>
      </trkpt>
      <trkpt lat="48.30849" lon="7.39318">
        <ele>462.8</ele>
        <time>2026-03-18T08:56:17Z</time>
      </trkpt>
      <trkpt lat="48.30843" lon="7.3932">
        <ele>463.4</ele>
        <time>2026-03-18T08:56:22Z</time>
      </trkpt>
      <trkpt lat="48.3084" lon="7.3932">
        <ele>463.7</ele>
        <time>2026-03-18T08:56:27Z</time>
      </trkpt>
      <trkpt lat="48.30829" lon="7.39321">
        <ele>464.7</ele>
        <time>2026-03-18T08:56:32Z</time>
      </trkpt>
      <trkpt lat="48.30821" lon="7.39321">
        <ele>465</ele>
        <time>2026-03-18T08:56:37Z</time>
      </trkpt>
      <trkpt lat="48.30812" lon="7.39321">
        <ele>465.4</ele>
        <time>2026-03-18T08:56:42Z</time>
      </trkpt>
      <trkpt lat="48.3081" lon="7.39322">
        <ele>465.4</ele>
        <time>2026-03-18T08:56:47Z</time>
      </trkpt>
      <trkpt lat="48.30799" lon="7.39329">
        <ele>465.1</ele>
        <time>2026-03-18T08:56:52Z</time>
      </trkpt>
      <trkpt lat="48.30797" lon="7.3933">
        <ele>465.1</ele>
        <time>2026-03-18T08:56:57Z</time>
      </trkpt>
      <trkpt lat="48.30785" lon="7.39338">
        <ele>464.7</ele>
        <time>2026-03-18T08:57:02Z</time>
      </trkpt>
      <trkpt lat="48.30779" lon="7.39344">
        <ele>464.3</ele>
        <time>2026-03-18T08:57:07Z</time>
      </trkpt>
      <trkpt lat="48.30772" lon="7.39351">
        <ele>463.9</ele>
        <time>2026-03-18T08:57:12Z</time>
      </trkpt>
      <trkpt lat="48.30767" lon="7.39355">
        <ele>463.8</ele>
        <time>2026-03-18T08:57:17Z</time>
      </trkpt>
      <trkpt lat="48.30767" lon="7.39355">
        <ele>463.8</ele>
        <time>2026-03-18T08:57:22Z</time>
      </trkpt>
      <trkpt lat="48.30755" lon="7.39365">
        <ele>463.6</ele>
        <time>2026-03-18T08:57:27Z</time>
      </trkpt>
      <trkpt lat="48.3075" lon="7.3937">
        <ele>463.5</ele>
        <time>2026-03-18T08:57:32Z</time>
      </trkpt>
      <trkpt lat="48.3075" lon="7.3937">
        <ele>463.5</ele>
        <time>2026-03-18T08:57:37Z</time>
      </trkpt>
      <trkpt lat="48.30741" lon="7.39379">
        <ele>464.5</ele>
        <time>2026-03-18T08:57:42Z</time>
      </trkpt>
      <trkpt lat="48.30739" lon="7.39381">
        <ele>464.7</ele>
        <time>2026-03-18T08:57:47Z</time>
      </trkpt>
      <trkpt lat="48.3073" lon="7.39391">
        <ele>465.9</ele>
        <time>2026-03-18T08:57:52Z</time>
      </trkpt>
      <trkpt lat="48.30728" lon="7.39393">
        <ele>466.3</ele>
        <time>2026-03-18T08:57:57Z</time>
      </trkpt>
      <trkpt lat="48.30728" lon="7.39393">
        <ele>466.3</ele>
        <time>2026-03-18T08:58:02Z</time>
      </trkpt>
      <trkpt lat="48.30714" lon="7.39394">
        <ele>469.4</ele>
        <time>2026-03-18T08:58:07Z</time>
      </trkpt>
      <trkpt lat="48.30714" lon="7.39394">
        <ele>469.4</ele>
        <time>2026-03-18T08:58:12Z</time>
      </trkpt>
      <trkpt lat="48.30701" lon="7.39398">
        <ele>472.3</ele>
        <time>2026-03-18T08:58:17Z</time>
      </trkpt>
      <trkpt lat="48.307" lon="7.39398">
        <ele>472.5</ele>
        <time>2026-03-18T08:58:22Z</time>
      </trkpt>
      <trkpt lat="48.30689" lon="7.39395">
        <ele>475.1</ele>
        <time>2026-03-18T08:58:27Z</time>
      </trkpt>
      <trkpt lat="48.30685" lon="7.39392">
        <ele>476</ele>
        <time>2026-03-18T08:58:32Z</time>
      </trkpt>
      <trkpt lat="48.30685" lon="7.39392">
        <ele>476</ele>
        <time>2026-03-18T08:58:37Z</time>
      </trkpt>
      <trkpt lat="48.30675" lon="7.39387">
        <ele>478.1</ele>
        <time>2026-03-18T08:58:42Z</time>
      </trkpt>
      <trkpt lat="48.30675" lon="7.39387">
        <ele>478.1</ele>
        <time>2026-03-18T08:58:47Z</time>
      </trkpt>
      <trkpt lat="48.30665" lon="7.39375">
        <ele>479.8</ele>
        <time>2026-03-18T08:58:52Z</time>
      </trkpt>
      <trkpt lat="48.30665" lon="7.39374">
        <ele>479.8</ele>
        <time>2026-03-18T08:58:57Z</time>
      </trkpt>
      <trkpt lat="48.30657" lon="7.39362">
        <ele>481.1</ele>
        <time>2026-03-18T08:59:02Z</time>
      </trkpt>
      <trkpt lat="48.30655" lon="7.39359">
        <ele>481.4</ele>
        <time>2026-03-18T08:59:07Z</time>
      </trkpt>
      <trkpt lat="48.30648" lon="7.39347">
        <ele>482.6</ele>
        <time>2026-03-18T08:59:12Z</time>
      </trkpt>
      <trkpt lat="48.30646" lon="7.39344">
        <ele>483</ele>
        <time>2026-03-18T08:59:17Z</time>
      </trkpt>
      <trkpt lat="48.30643" lon="7.39329">
        <ele>483</ele>
        <time>2026-03-18T08:59:22Z</time>
      </trkpt>
      <trkpt lat="48.30642" lon="7.39326">
        <ele>483</ele>
        <time>2026-03-18T08:59:27Z</time>
      </trkpt>
      <trkpt lat="48.30642" lon="7.39326">
        <ele>483</ele>
        <time>2026-03-18T08:59:32Z</time>
      </trkpt>
      <trkpt lat="48.30639" lon="7.39306">
        <ele>481.9</ele>
        <time>2026-03-18T08:59:37Z</time>
      </trkpt>
      <trkpt lat="48.30639" lon="7.39306">
        <ele>481.9</ele>
        <time>2026-03-18T08:59:42Z</time>
      </trkpt>
      <trkpt lat="48.30631" lon="7.39285">
        <ele>481.8</ele>
        <time>2026-03-18T08:59:47Z</time>
      </trkpt>
      <trkpt lat="48.30625" lon="7.39274">
        <ele>482.2</ele>
        <time>2026-03-18T08:59:52Z</time>
      </trkpt>
      <trkpt lat="48.30619" lon="7.39263">
        <ele>482.5</ele>
        <time>2026-03-18T08:59:57Z</time>
      </trkpt>
      <trkpt lat="48.30616" lon="7.39255">
        <ele>482.4</ele>
        <time>2026-03-18T09:00:02Z</time>
      </trkpt>
      <trkpt lat="48.30612" lon="7.39248">
        <ele>482.5</ele>
        <time>2026-03-18T09:00:07Z</time>
      </trkpt>
      <trkpt lat="48.30608" lon="7.39237">
        <ele>481.5</ele>
        <time>2026-03-18T09:00:12Z</time>
      </trkpt>
      <trkpt lat="48.30604" lon="7.39227">
        <ele>480.7</ele>
        <time>2026-03-18T09:00:17Z</time>
      </trkpt>
      <trkpt lat="48.30599" lon="7.39217">
        <ele>480</ele>
        <time>2026-03-18T09:00:22Z</time>
      </trkpt>
      <trkpt lat="48.30595" lon="7.39208">
        <ele>479.2</ele>
        <time>2026-03-18T09:00:27Z</time>
      </trkpt>
      <trkpt lat="48.30595" lon="7.39208">
        <ele>479.2</ele>
        <time>2026-03-18T09:00:32Z</time>
      </trkpt>
      <trkpt lat="48.30587" lon="7.39192">
        <ele>477.9</ele>
        <time>2026-03-18T09:00:37Z</time>
      </trkpt>
      <trkpt lat="48.30587" lon="7.39192">
        <ele>477.9</ele>
        <time>2026-03-18T09:00:42Z</time>
      </trkpt>
      <trkpt lat="48.30572" lon="7.3918">
        <ele>478.6</ele>
        <time>2026-03-18T09:00:47Z</time>
      </trkpt>
      <trkpt lat="48.30564" lon="7.39178">
        <ele>479.7</ele>
        <time>2026-03-18T09:00:52Z</time>
      </trkpt>
      <trkpt lat="48.30555" lon="7.39176">
        <ele>481.1</ele>
        <time>2026-03-18T09:00:57Z</time>
      </trkpt>
      <trkpt lat="48.30548" lon="7.39173">
        <ele>481.9</ele>
        <time>2026-03-18T09:01:02Z</time>
      </trkpt>
      <trkpt lat="48.30546" lon="7.39172">
        <ele>482.1</ele>
        <time>2026-03-18T09:01:07Z</time>
      </trkpt>
      <trkpt lat="48.30537" lon="7.39167">
        <ele>483</ele>
        <time>2026-03-18T09:01:12Z</time>
      </trkpt>
      <trkpt lat="48.30528" lon="7.39165">
        <ele>484.2</ele>
        <time>2026-03-18T09:01:17Z</time>
      </trkpt>
      <trkpt lat="48.3052" lon="7.39159">
        <ele>484.3</ele>
        <time>2026-03-18T09:01:22Z</time>
      </trkpt>
      <trkpt lat="48.30515" lon="7.39153">
        <ele>483.8</ele>
        <time>2026-03-18T09:01:27Z</time>
      </trkpt>
      <trkpt lat="48.3051" lon="7.39148">
        <ele>483.5</ele>
        <time>2026-03-18T09:01:32Z</time>
      </trkpt>
      <trkpt lat="48.30504" lon="7.39142">
        <ele>483.3</ele>
        <time>2026-03-18T09:01:37Z</time>
      </trkpt>
      <trkpt lat="48.30503" lon="7.39141">
        <ele>483.2</ele>
        <time>2026-03-18T09:01:42Z</time>
      </trkpt>
      <trkpt lat="48.30497" lon="7.39131">
        <ele>481.6</ele>
        <time>2026-03-18T09:01:47Z</time>
      </trkpt>
      <trkpt lat="48.30493" lon="7.39126">
        <ele>480.6</ele>
        <time>2026-03-18T09:01:52Z</time>
      </trkpt>
      <trkpt lat="48.30493" lon="7.39126">
        <ele>480.6</ele>
        <time>2026-03-18T09:01:57Z</time>
      </trkpt>
      <trkpt lat="48.30482" lon="7.39116">
        <ele>478.9</ele>
        <time>2026-03-18T09:02:02Z</time>
      </trkpt>
      <trkpt lat="48.30477" lon="7.3911">
        <ele>477.9</ele>
        <time>2026-03-18T09:02:07Z</time>
      </trkpt>
      <trkpt lat="48.30474" lon="7.39107">
        <ele>477.4</ele>
        <time>2026-03-18T09:02:12Z</time>
      </trkpt>
      <trkpt lat="48.30467" lon="7.39099">
        <ele>476.2</ele>
        <time>2026-03-18T09:02:17Z</time>
      </trkpt>
      <trkpt lat="48.3046" lon="7.39094">
        <ele>475.6</ele>
        <time>2026-03-18T09:02:22Z</time>
      </trkpt>
      <trkpt lat="48.30454" lon="7.39089">
        <ele>475</ele>
        <time>2026-03-18T09:02:27Z</time>
      </trkpt>
      <trkpt lat="48.30452" lon="7.39086">
        <ele>474.6</ele>
        <time>2026-03-18T09:02:32Z</time>
      </trkpt>
      <trkpt lat="48.30442" lon="7.39078">
        <ele>473.9</ele>
        <time>2026-03-18T09:02:37Z</time>
      </trkpt>
      <trkpt lat="48.30437" lon="7.39073">
        <ele>473.4</ele>
        <time>2026-03-18T09:02:42Z</time>
      </trkpt>
      <trkpt lat="48.30431" lon="7.39066">
        <ele>472.7</ele>
        <time>2026-03-18T09:02:47Z</time>
      </trkpt>
      <trkpt lat="48.30424" lon="7.39058">
        <ele>472</ele>
        <time>2026-03-18T09:02:52Z</time>
      </trkpt>
      <trkpt lat="48.3042" lon="7.39052">
        <ele>471.4</ele>
        <time>2026-03-18T09:02:57Z</time>
      </trkpt>
      <trkpt lat="48.30411" lon="7.39045">
        <ele>469.9</ele>
        <time>2026-03-18T09:03:02Z</time>
      </trkpt>
      <trkpt lat="48.30406" lon="7.39039">
        <ele>468.4</ele>
        <time>2026-03-18T09:03:07Z</time>
      </trkpt>
      <trkpt lat="48.30399" lon="7.39034">
        <ele>466.8</ele>
        <time>2026-03-18T09:03:12Z</time>
      </trkpt>
      <trkpt lat="48.30394" lon="7.39026">
        <ele>465</ele>
        <time>2026-03-18T09:03:17Z</time>
      </trkpt>
      <trkpt lat="48.30388" lon="7.39021">
        <ele>463.7</ele>
        <time>2026-03-18T09:03:22Z</time>
      </trkpt>
      <trkpt lat="48.30382" lon="7.39015">
        <ele>462.2</ele>
        <time>2026-03-18T09:03:27Z</time>
      </trkpt>
      <trkpt lat="48.30375" lon="7.39009">
        <ele>460.7</ele>
        <time>2026-03-18T09:03:32Z</time>
      </trkpt>
      <trkpt lat="48.3037" lon="7.39005">
        <ele>459.8</ele>
        <time>2026-03-18T09:03:37Z</time>
      </trkpt>
      <trkpt lat="48.30363" lon="7.38999">
        <ele>458.4</ele>
        <time>2026-03-18T09:03:42Z</time>
      </trkpt>
      <trkpt lat="48.30356" lon="7.38993">
        <ele>457.2</ele>
        <time>2026-03-18T09:03:47Z</time>
      </trkpt>
      <trkpt lat="48.30349" lon="7.38989">
        <ele>456.3</ele>
        <time>2026-03-18T09:03:52Z</time>
      </trkpt>
      <trkpt lat="48.30341" lon="7.38988">
        <ele>455.6</ele>
        <time>2026-03-18T09:03:57Z</time>
      </trkpt>
      <trkpt lat="48.30332" lon="7.38987">
        <ele>454.9</ele>
        <time>2026-03-18T09:04:02Z</time>
      </trkpt>
      <trkpt lat="48.30327" lon="7.38985">
        <ele>454.3</ele>
        <time>2026-03-18T09:04:07Z</time>
      </trkpt>
      <trkpt lat="48.30318" lon="7.38981">
        <ele>453</ele>
        <time>2026-03-18T09:04:12Z</time>
      </trkpt>
      <trkpt lat="48.30312" lon="7.38974">
        <ele>451.8</ele>
        <time>2026-03-18T09:04:17Z</time>
      </trkpt>
      <trkpt lat="48.30305" lon="7.38971">
        <ele>450.7</ele>
        <time>2026-03-18T09:04:22Z</time>
      </trkpt>
      <trkpt lat="48.30304" lon="7.38971">
        <ele>450.6</ele>
        <time>2026-03-18T09:04:27Z</time>
      </trkpt>
      <trkpt lat="48.30292" lon="7.38973">
        <ele>449.4</ele>
        <time>2026-03-18T09:04:32Z</time>
      </trkpt>
      <trkpt lat="48.30282" lon="7.38976">
        <ele>448.6</ele>
        <time>2026-03-18T09:04:37Z</time>
      </trkpt>
      <trkpt lat="48.30275" lon="7.38983">
        <ele>448.6</ele>
        <time>2026-03-18T09:04:42Z</time>
      </trkpt>
      <trkpt lat="48.30274" lon="7.38983">
        <ele>448.5</ele>
        <time>2026-03-18T09:04:47Z</time>
      </trkpt>
      <trkpt lat="48.30267" lon="7.39001">
        <ele>449.7</ele>
        <time>2026-03-18T09:04:52Z</time>
      </trkpt>
      <trkpt lat="48.30267" lon="7.39003">
        <ele>450</ele>
        <time>2026-03-18T09:04:57Z</time>
      </trkpt>
      <trkpt lat="48.30265" lon="7.39024">
        <ele>452</ele>
        <time>2026-03-18T09:05:02Z</time>
      </trkpt>
      <trkpt lat="48.30265" lon="7.39024">
        <ele>452</ele>
        <time>2026-03-18T09:05:07Z</time>
      </trkpt>
      <trkpt lat="48.30261" lon="7.39044">
        <ele>453.8</ele>
        <time>2026-03-18T09:05:12Z</time>
      </trkpt>
      <trkpt lat="48.30261" lon="7.39044">
        <ele>453.8</ele>
        <time>2026-03-18T09:05:17Z</time>
      </trkpt>
      <trkpt lat="48.30256" lon="7.39062">
        <ele>455.3</ele>
        <time>2026-03-18T09:05:22Z</time>
      </trkpt>
      <trkpt lat="48.30256" lon="7.39062">
        <ele>455.3</ele>
        <time>2026-03-18T09:05:27Z</time>
      </trkpt>
      <trkpt lat="48.30251" lon="7.39079">
        <ele>456.6</ele>
        <time>2026-03-18T09:05:32Z</time>
      </trkpt>
      <trkpt lat="48.30251" lon="7.39079">
        <ele>456.6</ele>
        <time>2026-03-18T09:05:37Z</time>
      </trkpt>
      <trkpt lat="48.30244" lon="7.39101">
        <ele>459.1</ele>
        <time>2026-03-18T09:05:42Z</time>
      </trkpt>
      <trkpt lat="48.3024" lon="7.39112">
        <ele>460.3</ele>
        <time>2026-03-18T09:05:47Z</time>
      </trkpt>
      <trkpt lat="48.30236" lon="7.39121">
        <ele>461.2</ele>
        <time>2026-03-18T09:05:52Z</time>
      </trkpt>
      <trkpt lat="48.30235" lon="7.39122">
        <ele>461.2</ele>
        <time>2026-03-18T09:05:57Z</time>
      </trkpt>
      <trkpt lat="48.30219" lon="7.39124">
        <ele>459.6</ele>
        <time>2026-03-18T09:06:02Z</time>
      </trkpt>
      <trkpt lat="48.30214" lon="7.39124">
        <ele>459</ele>
        <time>2026-03-18T09:06:07Z</time>
      </trkpt>
      <trkpt lat="48.30204" lon="7.3912">
        <ele>457.3</ele>
        <time>2026-03-18T09:06:12Z</time>
      </trkpt>
      <trkpt lat="48.30202" lon="7.3912">
        <ele>457</ele>
        <time>2026-03-18T09:06:17Z</time>
      </trkpt>
      <trkpt lat="48.30194" lon="7.39112">
        <ele>455</ele>
        <time>2026-03-18T09:06:22Z</time>
      </trkpt>
      <trkpt lat="48.30192" lon="7.39109">
        <ele>454.3</ele>
        <time>2026-03-18T09:06:27Z</time>
      </trkpt>
      <trkpt lat="48.30185" lon="7.39098">
        <ele>452</ele>
        <time>2026-03-18T09:06:32Z</time>
      </trkpt>
      <trkpt lat="48.3018" lon="7.39091">
        <ele>450.5</ele>
        <time>2026-03-18T09:06:37Z</time>
      </trkpt>
      <trkpt lat="48.3018" lon="7.39087">
        <ele>449.9</ele>
        <time>2026-03-18T09:06:42Z</time>
      </trkpt>
      <trkpt lat="48.3018" lon="7.39087">
        <ele>449.9</ele>
        <time>2026-03-18T09:06:47Z</time>
      </trkpt>
      <trkpt lat="48.3017" lon="7.39074">
        <ele>447.2</ele>
        <time>2026-03-18T09:06:52Z</time>
      </trkpt>
      <trkpt lat="48.3017" lon="7.39074">
        <ele>447.2</ele>
        <time>2026-03-18T09:06:57Z</time>
      </trkpt>
      <trkpt lat="48.3016" lon="7.39084">
        <ele>448.4</ele>
        <time>2026-03-18T09:07:02Z</time>
      </trkpt>
      <trkpt lat="48.30154" lon="7.39093">
        <ele>449.9</ele>
        <time>2026-03-18T09:07:07Z</time>
      </trkpt>
      <trkpt lat="48.30151" lon="7.39098">
        <ele>450.7</ele>
        <time>2026-03-18T09:07:12Z</time>
      </trkpt>
      <trkpt lat="48.30151" lon="7.39098">
        <ele>450.7</ele>
        <time>2026-03-18T09:07:17Z</time>
      </trkpt>
      <trkpt lat="48.30151" lon="7.39098">
        <ele>450.7</ele>
        <time>2026-03-18T09:07:22Z</time>
      </trkpt>
      <trkpt lat="48.30142" lon="7.3911">
        <ele>452.8</ele>
        <time>2026-03-18T09:07:27Z</time>
      </trkpt>
      <trkpt lat="48.30133" lon="7.39114">
        <ele>453.8</ele>
        <time>2026-03-18T09:07:32Z</time>
      </trkpt>
      <trkpt lat="48.30128" lon="7.39115">
        <ele>454.2</ele>
        <time>2026-03-18T09:07:37Z</time>
      </trkpt>
      <trkpt lat="48.30127" lon="7.39119">
        <ele>454.8</ele>
        <time>2026-03-18T09:07:42Z</time>
      </trkpt>
      <trkpt lat="48.30127" lon="7.39119">
        <ele>454.8</ele>
        <time>2026-03-18T09:07:47Z</time>
      </trkpt>
      <trkpt lat="48.30127" lon="7.39119">
        <ele>454.8</ele>
        <time>2026-03-18T09:07:52Z</time>
      </trkpt>
      <trkpt lat="48.30118" lon="7.39129">
        <ele>456.7</ele>
        <time>2026-03-18T09:07:57Z</time>
      </trkpt>
      <trkpt lat="48.30107" lon="7.39139">
        <ele>458.7</ele>
        <time>2026-03-18T09:08:02Z</time>
      </trkpt>
      <trkpt lat="48.301" lon="7.39142">
        <ele>459.5</ele>
        <time>2026-03-18T09:08:07Z</time>
      </trkpt>
      <trkpt lat="48.30094" lon="7.3914">
        <ele>459.6</ele>
        <time>2026-03-18T09:08:12Z</time>
      </trkpt>
      <trkpt lat="48.30086" lon="7.39142">
        <ele>460.3</ele>
        <time>2026-03-18T09:08:17Z</time>
      </trkpt>
      <trkpt lat="48.30078" lon="7.39144">
        <ele>460.8</ele>
        <time>2026-03-18T09:08:22Z</time>
      </trkpt>
      <trkpt lat="48.3007" lon="7.39141">
        <ele>460.4</ele>
        <time>2026-03-18T09:08:27Z</time>
      </trkpt>
      <trkpt lat="48.30065" lon="7.39134">
        <ele>459.6</ele>
        <time>2026-03-18T09:08:32Z</time>
      </trkpt>
      <trkpt lat="48.30059" lon="7.39129">
        <ele>459.2</ele>
        <time>2026-03-18T09:08:37Z</time>
      </trkpt>
      <trkpt lat="48.30053" lon="7.39124">
        <ele>458.8</ele>
        <time>2026-03-18T09:08:42Z</time>
      </trkpt>
      <trkpt lat="48.30049" lon="7.39118">
        <ele>458.3</ele>
        <time>2026-03-18T09:08:47Z</time>
      </trkpt>
      <trkpt lat="48.30044" lon="7.39113">
        <ele>458.1</ele>
        <time>2026-03-18T09:08:52Z</time>
      </trkpt>
      <trkpt lat="48.30035" lon="7.3911">
        <ele>458.2</ele>
        <time>2026-03-18T09:08:57Z</time>
      </trkpt>
      <trkpt lat="48.30027" lon="7.39105">
        <ele>458.3</ele>
        <time>2026-03-18T09:09:02Z</time>
      </trkpt>
      <trkpt lat="48.3002" lon="7.39101">
        <ele>458.4</ele>
        <time>2026-03-18T09:09:07Z</time>
      </trkpt>
      <trkpt lat="48.30014" lon="7.39097">
        <ele>458.6</ele>
        <time>2026-03-18T09:09:12Z</time>
      </trkpt>
      <trkpt lat="48.30014" lon="7.39097">
        <ele>458.6</ele>
        <time>2026-03-18T09:09:17Z</time>
      </trkpt>
      <trkpt lat="48.30004" lon="7.39087">
        <ele>458.8</ele>
        <time>2026-03-18T09:09:22Z</time>
      </trkpt>
      <trkpt lat="48.29997" lon="7.39081">
        <ele>458.5</ele>
        <time>2026-03-18T09:09:27Z</time>
      </trkpt>
      <trkpt lat="48.29991" lon="7.39073">
        <ele>457.2</ele>
        <time>2026-03-18T09:09:32Z</time>
      </trkpt>
      <trkpt lat="48.29987" lon="7.39066">
        <ele>456.2</ele>
        <time>2026-03-18T09:09:37Z</time>
      </trkpt>
      <trkpt lat="48.29982" lon="7.39058">
        <ele>455.1</ele>
        <time>2026-03-18T09:09:42Z</time>
      </trkpt>
      <trkpt lat="48.29978" lon="7.39049">
        <ele>453.9</ele>
        <time>2026-03-18T09:09:47Z</time>
      </trkpt>
      <trkpt lat="48.29972" lon="7.39041">
        <ele>452.9</ele>
        <time>2026-03-18T09:09:52Z</time>
      </trkpt>
      <trkpt lat="48.29967" lon="7.39033">
        <ele>452</ele>
        <time>2026-03-18T09:09:57Z</time>
      </trkpt>
      <trkpt lat="48.29961" lon="7.39029">
        <ele>451.5</ele>
        <time>2026-03-18T09:10:02Z</time>
      </trkpt>
      <trkpt lat="48.29954" lon="7.39028">
        <ele>451.2</ele>
        <time>2026-03-18T09:10:07Z</time>
      </trkpt>
      <trkpt lat="48.29946" lon="7.39026">
        <ele>450.9</ele>
        <time>2026-03-18T09:10:12Z</time>
      </trkpt>
      <trkpt lat="48.29939" lon="7.39021">
        <ele>450.4</ele>
        <time>2026-03-18T09:10:17Z</time>
      </trkpt>
      <trkpt lat="48.29933" lon="7.39017">
        <ele>450.1</ele>
        <time>2026-03-18T09:10:22Z</time>
      </trkpt>
      <trkpt lat="48.29928" lon="7.39013">
        <ele>449.8</ele>
        <time>2026-03-18T09:10:27Z</time>
      </trkpt>
      <trkpt lat="48.29923" lon="7.39007">
        <ele>449.4</ele>
        <time>2026-03-18T09:10:32Z</time>
      </trkpt>
      <trkpt lat="48.29918" lon="7.39002">
        <ele>449.1</ele>
        <time>2026-03-18T09:10:37Z</time>
      </trkpt>
      <trkpt lat="48.29913" lon="7.39">
        <ele>448.6</ele>
        <time>2026-03-18T09:10:42Z</time>
      </trkpt>
      <trkpt lat="48.29906" lon="7.39">
        <ele>448</ele>
        <time>2026-03-18T09:10:47Z</time>
      </trkpt>
      <trkpt lat="48.299" lon="7.38999">
        <ele>447.3</ele>
        <time>2026-03-18T09:10:52Z</time>
      </trkpt>
      <trkpt lat="48.29893" lon="7.39">
        <ele>446.7</ele>
        <time>2026-03-18T09:10:57Z</time>
      </trkpt>
      <trkpt lat="48.29886" lon="7.39">
        <ele>446.1</ele>
        <time>2026-03-18T09:11:02Z</time>
      </trkpt>
      <trkpt lat="48.29879" lon="7.38998">
        <ele>445.2</ele>
        <time>2026-03-18T09:11:07Z</time>
      </trkpt>
      <trkpt lat="48.29871" lon="7.38996">
        <ele>444.3</ele>
        <time>2026-03-18T09:11:12Z</time>
      </trkpt>
      <trkpt lat="48.29866" lon="7.38995">
        <ele>443.7</ele>
        <time>2026-03-18T09:11:17Z</time>
      </trkpt>
      <trkpt lat="48.29859" lon="7.38993">
        <ele>442.9</ele>
        <time>2026-03-18T09:11:22Z</time>
      </trkpt>
      <trkpt lat="48.29854" lon="7.38991">
        <ele>442.3</ele>
        <time>2026-03-18T09:11:27Z</time>
      </trkpt>
      <trkpt lat="48.29847" lon="7.38988">
        <ele>441.3</ele>
        <time>2026-03-18T09:11:32Z</time>
      </trkpt>
      <trkpt lat="48.2984" lon="7.3899">
        <ele>440.8</ele>
        <time>2026-03-18T09:11:37Z</time>
      </trkpt>
      <trkpt lat="48.29835" lon="7.38996">
        <ele>440.8</ele>
        <time>2026-03-18T09:11:42Z</time>
      </trkpt>
      <trkpt lat="48.29834" lon="7.39004">
        <ele>441.3</ele>
        <time>2026-03-18T09:11:47Z</time>
      </trkpt>
      <trkpt lat="48.29834" lon="7.39015">
        <ele>441.8</ele>
        <time>2026-03-18T09:11:52Z</time>
      </trkpt>
      <trkpt lat="48.29835" lon="7.39025">
        <ele>442.4</ele>
        <time>2026-03-18T09:11:57Z</time>
      </trkpt>
      <trkpt lat="48.29835" lon="7.39029">
        <ele>442.6</ele>
        <time>2026-03-18T09:12:02Z</time>
      </trkpt>
      <trkpt lat="48.29824" lon="7.39044">
        <ele>442</ele>
        <time>2026-03-18T09:12:07Z</time>
      </trkpt>
      <trkpt lat="48.29821" lon="7.39049">
        <ele>441.9</ele>
        <time>2026-03-18T09:12:12Z</time>
      </trkpt>
      <trkpt lat="48.29813" lon="7.39056">
        <ele>441.5</ele>
        <time>2026-03-18T09:12:17Z</time>
      </trkpt>
      <trkpt lat="48.29806" lon="7.39063">
        <ele>441.3</ele>
        <time>2026-03-18T09:12:22Z</time>
      </trkpt>
      <trkpt lat="48.29798" lon="7.39068">
        <ele>441</ele>
        <time>2026-03-18T09:12:27Z</time>
      </trkpt>
      <trkpt lat="48.2979" lon="7.39071">
        <ele>440.6</ele>
        <time>2026-03-18T09:12:32Z</time>
      </trkpt>
      <trkpt lat="48.29783" lon="7.39072">
        <ele>440.1</ele>
        <time>2026-03-18T09:12:37Z</time>
      </trkpt>
      <trkpt lat="48.29776" lon="7.39075">
        <ele>439.9</ele>
        <time>2026-03-18T09:12:42Z</time>
      </trkpt>
      <trkpt lat="48.29771" lon="7.39074">
        <ele>439.3</ele>
        <time>2026-03-18T09:12:47Z</time>
      </trkpt>
      <trkpt lat="48.2977" lon="7.39073">
        <ele>439.1</ele>
        <time>2026-03-18T09:12:52Z</time>
      </trkpt>
      <trkpt lat="48.29762" lon="7.39067">
        <ele>437.6</ele>
        <time>2026-03-18T09:12:57Z</time>
      </trkpt>
      <trkpt lat="48.29759" lon="7.39067">
        <ele>437.3</ele>
        <time>2026-03-18T09:13:02Z</time>
      </trkpt>
      <trkpt lat="48.29759" lon="7.39067">
        <ele>437.3</ele>
        <time>2026-03-18T09:13:07Z</time>
      </trkpt>
      <trkpt lat="48.2975" lon="7.39079">
        <ele>438.3</ele>
        <time>2026-03-18T09:13:12Z</time>
      </trkpt>
      <trkpt lat="48.29744" lon="7.39087">
        <ele>437.9</ele>
        <time>2026-03-18T09:13:17Z</time>
      </trkpt>
      <trkpt lat="48.29738" lon="7.39093">
        <ele>436.9</ele>
        <time>2026-03-18T09:13:22Z</time>
      </trkpt>
      <trkpt lat="48.29732" lon="7.39098">
        <ele>435.9</ele>
        <time>2026-03-18T09:13:27Z</time>
      </trkpt>
      <trkpt lat="48.29732" lon="7.39098">
        <ele>435.9</ele>
        <time>2026-03-18T09:13:32Z</time>
      </trkpt>
      <trkpt lat="48.2972" lon="7.39108">
        <ele>433.9</ele>
        <time>2026-03-18T09:13:37Z</time>
      </trkpt>
      <trkpt lat="48.29713" lon="7.39112">
        <ele>432.6</ele>
        <time>2026-03-18T09:13:42Z</time>
      </trkpt>
      <trkpt lat="48.29706" lon="7.39112">
        <ele>431.1</ele>
        <time>2026-03-18T09:13:47Z</time>
      </trkpt>
      <trkpt lat="48.29699" lon="7.39108">
        <ele>429.2</ele>
        <time>2026-03-18T09:13:52Z</time>
      </trkpt>
      <trkpt lat="48.29693" lon="7.39105">
        <ele>427.7</ele>
        <time>2026-03-18T09:13:57Z</time>
      </trkpt>
      <trkpt lat="48.29688" lon="7.39102">
        <ele>426.3</ele>
        <time>2026-03-18T09:14:02Z</time>
      </trkpt>
      <trkpt lat="48.29688" lon="7.39102">
        <ele>426.3</ele>
        <time>2026-03-18T09:14:07Z</time>
      </trkpt>
      <trkpt lat="48.29675" lon="7.39106">
        <ele>423.7</ele>
        <time>2026-03-18T09:14:12Z</time>
      </trkpt>
      <trkpt lat="48.29668" lon="7.39105">
        <ele>422.1</ele>
        <time>2026-03-18T09:14:17Z</time>
      </trkpt>
      <trkpt lat="48.29664" lon="7.39105">
        <ele>420.8</ele>
        <time>2026-03-18T09:14:22Z</time>
      </trkpt>
      <trkpt lat="48.29664" lon="7.39105">
        <ele>420.8</ele>
        <time>2026-03-18T09:14:27Z</time>
      </trkpt>
      <trkpt lat="48.29664" lon="7.39105">
        <ele>420.8</ele>
        <time>2026-03-18T09:14:32Z</time>
      </trkpt>
      <trkpt lat="48.29664" lon="7.39105">
        <ele>420.8</ele>
        <time>2026-03-18T09:14:37Z</time>
      </trkpt>
      <trkpt lat="48.29652" lon="7.391">
        <ele>415.5</ele>
        <time>2026-03-18T09:14:42Z</time>
      </trkpt>
      <trkpt lat="48.29652" lon="7.391">
        <ele>415.5</ele>
        <time>2026-03-18T09:14:47Z</time>
      </trkpt>
      <trkpt lat="48.29641" lon="7.39111">
        <ele>412.4</ele>
        <time>2026-03-18T09:14:52Z</time>
      </trkpt>
      <trkpt lat="48.2964" lon="7.39114">
        <ele>412.3</ele>
        <time>2026-03-18T09:14:57Z</time>
      </trkpt>
      <trkpt lat="48.2964" lon="7.39114">
        <ele>412.3</ele>
        <time>2026-03-18T09:15:02Z</time>
      </trkpt>
      <trkpt lat="48.29634" lon="7.39128">
        <ele>411.7</ele>
        <time>2026-03-18T09:15:07Z</time>
      </trkpt>
      <trkpt lat="48.29628" lon="7.39134">
        <ele>410.3</ele>
        <time>2026-03-18T09:15:12Z</time>
      </trkpt>
      <trkpt lat="48.29624" lon="7.39138">
        <ele>409.4</ele>
        <time>2026-03-18T09:15:17Z</time>
      </trkpt>
      <trkpt lat="48.29624" lon="7.39138">
        <ele>409.4</ele>
        <time>2026-03-18T09:15:22Z</time>
      </trkpt>
      <trkpt lat="48.29622" lon="7.39153">
        <ele>410.7</ele>
        <time>2026-03-18T09:15:27Z</time>
      </trkpt>
      <trkpt lat="48.29623" lon="7.39155">
        <ele>411.3</ele>
        <time>2026-03-18T09:15:32Z</time>
      </trkpt>
      <trkpt lat="48.29623" lon="7.39155">
        <ele>411.3</ele>
        <time>2026-03-18T09:15:37Z</time>
      </trkpt>
      <trkpt lat="48.29623" lon="7.39155">
        <ele>411.3</ele>
        <time>2026-03-18T09:15:42Z</time>
      </trkpt>
      <trkpt lat="48.29623" lon="7.39155">
        <ele>411.3</ele>
        <time>2026-03-18T09:15:47Z</time>
      </trkpt>
      <trkpt lat="48.29623" lon="7.39155">
        <ele>411.3</ele>
        <time>2026-03-18T09:15:52Z</time>
      </trkpt>
      <trkpt lat="48.29623" lon="7.39155">
        <ele>411.3</ele>
        <time>2026-03-18T09:15:57Z</time>
      </trkpt>
      <trkpt lat="48.29623" lon="7.39155">
        <ele>411.3</ele>
        <time>2026-03-18T09:16:02Z</time>
      </trkpt>
      <trkpt lat="48.2962" lon="7.39139">
        <ele>408.1</ele>
        <time>2026-03-18T09:16:07Z</time>
      </trkpt>
      <trkpt lat="48.29624" lon="7.39134">
        <ele>408.8</ele>
        <time>2026-03-18T09:16:12Z</time>
      </trkpt>
      <trkpt lat="48.2963" lon="7.39131">
        <ele>410.6</ele>
        <time>2026-03-18T09:16:17Z</time>
      </trkpt>
      <trkpt lat="48.29634" lon="7.39126">
        <ele>411.5</ele>
        <time>2026-03-18T09:16:22Z</time>
      </trkpt>
      <trkpt lat="48.29637" lon="7.39119">
        <ele>411.8</ele>
        <time>2026-03-18T09:16:27Z</time>
      </trkpt>
      <trkpt lat="48.29641" lon="7.39112">
        <ele>412.5</ele>
        <time>2026-03-18T09:16:32Z</time>
      </trkpt>
      <trkpt lat="48.29645" lon="7.39105">
        <ele>413.3</ele>
        <time>2026-03-18T09:16:37Z</time>
      </trkpt>
      <trkpt lat="48.29646" lon="7.39105">
        <ele>413.7</ele>
        <time>2026-03-18T09:16:42Z</time>
      </trkpt>
      <trkpt lat="48.2964" lon="7.39098">
        <ele>410.5</ele>
        <time>2026-03-18T09:16:47Z</time>
      </trkpt>
      <trkpt lat="48.29635" lon="7.39099">
        <ele>408.6</ele>
        <time>2026-03-18T09:16:52Z</time>
      </trkpt>
      <trkpt lat="48.29635" lon="7.39099">
        <ele>408.6</ele>
        <time>2026-03-18T09:16:57Z</time>
      </trkpt>
      <trkpt lat="48.29624" lon="7.39096">
        <ele>403.8</ele>
        <time>2026-03-18T09:17:02Z</time>
      </trkpt>
      <trkpt lat="48.29624" lon="7.39096">
        <ele>403.8</ele>
        <time>2026-03-18T09:17:07Z</time>
      </trkpt>
      <trkpt lat="48.29624" lon="7.39096">
        <ele>403.8</ele>
        <time>2026-03-18T09:17:12Z</time>
      </trkpt>
      <trkpt lat="48.29614" lon="7.39095">
        <ele>399.6</ele>
        <time>2026-03-18T09:17:17Z</time>
      </trkpt>
      <trkpt lat="48.29613" lon="7.39095">
        <ele>399.2</ele>
        <time>2026-03-18T09:17:22Z</time>
      </trkpt>
      <trkpt lat="48.29613" lon="7.39095">
        <ele>399.2</ele>
        <time>2026-03-18T09:17:27Z</time>
      </trkpt>
      <trkpt lat="48.29613" lon="7.39095">
        <ele>399.2</ele>
        <time>2026-03-18T09:17:32Z</time>
      </trkpt>
      <trkpt lat="48.29603" lon="7.39101">
        <ele>396</ele>
        <time>2026-03-18T09:17:37Z</time>
      </trkpt>
      <trkpt lat="48.29603" lon="7.39101">
        <ele>396</ele>
        <time>2026-03-18T09:17:42Z</time>
      </trkpt>
      <trkpt lat="48.29603" lon="7.39101">
        <ele>396</ele>
        <time>2026-03-18T09:17:47Z</time>
      </trkpt>
      <trkpt lat="48.29603" lon="7.39101">
        <ele>396</ele>
        <time>2026-03-18T09:17:52Z</time>
      </trkpt>
      <trkpt lat="48.29603" lon="7.39101">
        <ele>396</ele>
        <time>2026-03-18T09:17:57Z</time>
      </trkpt>
      <trkpt lat="48.29603" lon="7.39101">
        <ele>396</ele>
        <time>2026-03-18T09:18:02Z</time>
      </trkpt>
      <trkpt lat="48.29603" lon="7.39101">
        <ele>396</ele>
        <time>2026-03-18T09:18:07Z</time>
      </trkpt>
      <trkpt lat="48.29598" lon="7.39116">
        <ele>396.5</ele>
        <time>2026-03-18T09:18:12Z</time>
      </trkpt>
      <trkpt lat="48.29597" lon="7.39117">
        <ele>396.3</ele>
        <time>2026-03-18T09:18:17Z</time>
      </trkpt>
      <trkpt lat="48.29597" lon="7.39117">
        <ele>396.3</ele>
        <time>2026-03-18T09:18:22Z</time>
      </trkpt>
      <trkpt lat="48.29597" lon="7.39117">
        <ele>396.3</ele>
        <time>2026-03-18T09:18:27Z</time>
      </trkpt>
      <trkpt lat="48.29597" lon="7.39117">
        <ele>396.3</ele>
        <time>2026-03-18T09:18:32Z</time>
      </trkpt>
      <trkpt lat="48.29597" lon="7.39117">
        <ele>396.3</ele>
        <time>2026-03-18T09:18:37Z</time>
      </trkpt>
      <trkpt lat="48.29597" lon="7.39117">
        <ele>396.3</ele>
        <time>2026-03-18T09:18:42Z</time>
      </trkpt>
      <trkpt lat="48.29597" lon="7.39117">
        <ele>396.3</ele>
        <time>2026-03-18T09:18:47Z</time>
      </trkpt>
      <trkpt lat="48.29597" lon="7.39117">
        <ele>396.3</ele>
        <time>2026-03-18T09:18:52Z</time>
      </trkpt>
      <trkpt lat="48.29594" lon="7.39127">
        <ele>396.8</ele>
        <time>2026-03-18T09:18:57Z</time>
      </trkpt>
      <trkpt lat="48.29594" lon="7.39127">
        <ele>396.8</ele>
        <time>2026-03-18T09:19:02Z</time>
      </trkpt>
      <trkpt lat="48.29594" lon="7.39127">
        <ele>396.8</ele>
        <time>2026-03-18T09:19:07Z</time>
      </trkpt>
      <trkpt lat="48.29594" lon="7.39127">
        <ele>396.8</ele>
        <time>2026-03-18T09:19:12Z</time>
      </trkpt>
      <trkpt lat="48.29594" lon="7.39127">
        <ele>396.8</ele>
        <time>2026-03-18T09:19:17Z</time>
      </trkpt>
      <trkpt lat="48.29594" lon="7.39127">
        <ele>396.8</ele>
        <time>2026-03-18T09:19:22Z</time>
      </trkpt>
      <trkpt lat="48.29594" lon="7.39127">
        <ele>396.8</ele>
        <time>2026-03-18T09:19:27Z</time>
      </trkpt>
      <trkpt lat="48.29594" lon="7.39127">
        <ele>396.8</ele>
        <time>2026-03-18T09:19:32Z</time>
      </trkpt>
      <trkpt lat="48.29594" lon="7.39127">
        <ele>396.8</ele>
        <time>2026-03-18T09:19:37Z</time>
      </trkpt>
      <trkpt lat="48.29594" lon="7.39127">
        <ele>396.8</ele>
        <time>2026-03-18T09:19:42Z</time>
      </trkpt>
      <trkpt lat="48.29587" lon="7.39143">
        <ele>397</ele>
        <time>2026-03-18T09:19:47Z</time>
      </trkpt>
      <trkpt lat="48.29587" lon="7.39143">
        <ele>397</ele>
        <time>2026-03-18T09:19:52Z</time>
      </trkpt>
      <trkpt lat="48.2958" lon="7.3916">
        <ele>397.8</ele>
        <time>2026-03-18T09:19:57Z</time>
      </trkpt>
      <trkpt lat="48.2958" lon="7.3916">
        <ele>397.8</ele>
        <time>2026-03-18T09:20:02Z</time>
      </trkpt>
      <trkpt lat="48.29578" lon="7.39176">
        <ele>398.9</ele>
        <time>2026-03-18T09:20:07Z</time>
      </trkpt>
      <trkpt lat="48.29578" lon="7.39176">
        <ele>398.9</ele>
        <time>2026-03-18T09:20:12Z</time>
      </trkpt>
      <trkpt lat="48.29568" lon="7.39168">
        <ele>395.5</ele>
        <time>2026-03-18T09:20:17Z</time>
      </trkpt>
      <trkpt lat="48.29568" lon="7.39168">
        <ele>395.5</ele>
        <time>2026-03-18T09:20:22Z</time>
      </trkpt>
      <trkpt lat="48.29566" lon="7.39153">
        <ele>392.2</ele>
        <time>2026-03-18T09:20:27Z</time>
      </trkpt>
      <trkpt lat="48.29565" lon="7.3915">
        <ele>391.3</ele>
        <time>2026-03-18T09:20:32Z</time>
      </trkpt>
      <trkpt lat="48.29565" lon="7.3915">
        <ele>391.3</ele>
        <time>2026-03-18T09:20:37Z</time>
      </trkpt>
      <trkpt lat="48.29565" lon="7.3915">
        <ele>391.3</ele>
        <time>2026-03-18T09:20:42Z</time>
      </trkpt>
      <trkpt lat="48.29565" lon="7.3915">
        <ele>391.3</ele>
        <time>2026-03-18T09:20:47Z</time>
      </trkpt>
      <trkpt lat="48.29565" lon="7.3915">
        <ele>391.3</ele>
        <time>2026-03-18T09:20:52Z</time>
      </trkpt>
      <trkpt lat="48.29564" lon="7.39136">
        <ele>388.3</ele>
        <time>2026-03-18T09:20:57Z</time>
      </trkpt>
      <trkpt lat="48.29564" lon="7.39136">
        <ele>388.3</ele>
        <time>2026-03-18T09:21:02Z</time>
      </trkpt>
      <trkpt lat="48.29564" lon="7.39136">
        <ele>388.3</ele>
        <time>2026-03-18T09:21:07Z</time>
      </trkpt>
      <trkpt lat="48.29564" lon="7.39121">
        <ele>385.3</ele>
        <time>2026-03-18T09:21:12Z</time>
      </trkpt>
      <trkpt lat="48.29563" lon="7.39119">
        <ele>384.6</ele>
        <time>2026-03-18T09:21:17Z</time>
      </trkpt>
      <trkpt lat="48.29563" lon="7.39119">
        <ele>384.6</ele>
        <time>2026-03-18T09:21:22Z</time>
      </trkpt>
      <trkpt lat="48.29561" lon="7.39105">
        <ele>381.2</ele>
        <time>2026-03-18T09:21:27Z</time>
      </trkpt>
      <trkpt lat="48.29561" lon="7.39103">
        <ele>380.8</ele>
        <time>2026-03-18T09:21:32Z</time>
      </trkpt>
      <trkpt lat="48.29561" lon="7.39103">
        <ele>380.8</ele>
        <time>2026-03-18T09:21:37Z</time>
      </trkpt>
      <trkpt lat="48.2956" lon="7.39089">
        <ele>377.7</ele>
        <time>2026-03-18T09:21:42Z</time>
      </trkpt>
      <trkpt lat="48.2956" lon="7.39085">
        <ele>376.9</ele>
        <time>2026-03-18T09:21:47Z</time>
      </trkpt>
      <trkpt lat="48.2956" lon="7.39085">
        <ele>376.9</ele>
        <time>2026-03-18T09:21:52Z</time>
      </trkpt>
      <trkpt lat="48.29561" lon="7.39067">
        <ele>376.3</ele>
        <time>2026-03-18T09:21:57Z</time>
      </trkpt>
      <trkpt lat="48.29561" lon="7.39067">
        <ele>376.3</ele>
        <time>2026-03-18T09:22:02Z</time>
      </trkpt>
      <trkpt lat="48.29562" lon="7.3905">
        <ele>375.9</ele>
        <time>2026-03-18T09:22:07Z</time>
      </trkpt>
      <trkpt lat="48.29562" lon="7.39047">
        <ele>375.8</ele>
        <time>2026-03-18T09:22:12Z</time>
      </trkpt>
      <trkpt lat="48.29562" lon="7.39047">
        <ele>375.8</ele>
        <time>2026-03-18T09:22:17Z</time>
      </trkpt>
      <trkpt lat="48.29561" lon="7.3903">
        <ele>374.7</ele>
        <time>2026-03-18T09:22:22Z</time>
      </trkpt>
      <trkpt lat="48.29561" lon="7.3903">
        <ele>374.7</ele>
        <time>2026-03-18T09:22:27Z</time>
      </trkpt>
      <trkpt lat="48.29561" lon="7.3903">
        <ele>374.7</ele>
        <time>2026-03-18T09:22:32Z</time>
      </trkpt>
      <trkpt lat="48.29553" lon="7.39016">
        <ele>371.1</ele>
        <time>2026-03-18T09:22:37Z</time>
      </trkpt>
      <trkpt lat="48.29553" lon="7.39016">
        <ele>371.1</ele>
        <time>2026-03-18T09:22:42Z</time>
      </trkpt>
      <trkpt lat="48.29553" lon="7.39016">
        <ele>371.1</ele>
        <time>2026-03-18T09:22:47Z</time>
      </trkpt>
      <trkpt lat="48.29546" lon="7.39003">
        <ele>367.8</ele>
        <time>2026-03-18T09:22:52Z</time>
      </trkpt>
      <trkpt lat="48.29546" lon="7.39003">
        <ele>367.8</ele>
        <time>2026-03-18T09:22:57Z</time>
      </trkpt>
      <trkpt lat="48.29546" lon="7.39003">
        <ele>367.8</ele>
        <time>2026-03-18T09:23:02Z</time>
      </trkpt>
      <trkpt lat="48.29546" lon="7.39003">
        <ele>367.8</ele>
        <time>2026-03-18T09:23:07Z</time>
      </trkpt>
      <trkpt lat="48.29546" lon="7.39003">
        <ele>367.8</ele>
        <time>2026-03-18T09:23:12Z</time>
      </trkpt>
      <trkpt lat="48.29546" lon="7.39003">
        <ele>367.8</ele>
        <time>2026-03-18T09:23:17Z</time>
      </trkpt>
      <trkpt lat="48.29546" lon="7.39003">
        <ele>367.8</ele>
        <time>2026-03-18T09:23:22Z</time>
      </trkpt>
      <trkpt lat="48.29546" lon="7.39003">
        <ele>367.8</ele>
        <time>2026-03-18T09:23:27Z</time>
      </trkpt>
      <trkpt lat="48.29546" lon="7.39003">
        <ele>367.8</ele>
        <time>2026-03-18T09:23:32Z</time>
      </trkpt>
      <trkpt lat="48.29546" lon="7.39003">
        <ele>367.8</ele>
        <time>2026-03-18T09:23:37Z</time>
      </trkpt>
      <trkpt lat="48.29544" lon="7.39001">
        <ele>366.9</ele>
        <time>2026-03-18T09:23:42Z</time>
      </trkpt>
      <trkpt lat="48.2954" lon="7.38991">
        <ele>365.9</ele>
        <time>2026-03-18T09:23:47Z</time>
      </trkpt>
      <trkpt lat="48.29536" lon="7.38984">
        <ele>364.8</ele>
        <time>2026-03-18T09:23:52Z</time>
      </trkpt>
      <trkpt lat="48.29535" lon="7.38982">
        <ele>364.6</ele>
        <time>2026-03-18T09:23:57Z</time>
      </trkpt>
      <trkpt lat="48.29535" lon="7.38982">
        <ele>364.6</ele>
        <time>2026-03-18T09:24:02Z</time>
      </trkpt>
      <trkpt lat="48.29524" lon="7.38966">
        <ele>361.6</ele>
        <time>2026-03-18T09:24:07Z</time>
      </trkpt>
      <trkpt lat="48.29524" lon="7.38965">
        <ele>361.7</ele>
        <time>2026-03-18T09:24:12Z</time>
      </trkpt>
      <trkpt lat="48.29524" lon="7.38965">
        <ele>361.7</ele>
        <time>2026-03-18T09:24:17Z</time>
      </trkpt>
      <trkpt lat="48.29517" lon="7.38948">
        <ele>360.4</ele>
        <time>2026-03-18T09:24:22Z</time>
      </trkpt>
      <trkpt lat="48.29512" lon="7.38937">
        <ele>359.5</ele>
        <time>2026-03-18T09:24:27Z</time>
      </trkpt>
      <trkpt lat="48.29514" lon="7.3893">
        <ele>360.7</ele>
        <time>2026-03-18T09:24:32Z</time>
      </trkpt>
      <trkpt lat="48.29519" lon="7.38922">
        <ele>363</ele>
        <time>2026-03-18T09:24:37Z</time>
      </trkpt>
      <trkpt lat="48.29519" lon="7.38922">
        <ele>363</ele>
        <time>2026-03-18T09:24:42Z</time>
      </trkpt>
      <trkpt lat="48.29519" lon="7.38922">
        <ele>363</ele>
        <time>2026-03-18T09:24:47Z</time>
      </trkpt>
      <trkpt lat="48.29519" lon="7.38922">
        <ele>363</ele>
        <time>2026-03-18T09:24:52Z</time>
      </trkpt>
      <trkpt lat="48.29525" lon="7.38909">
        <ele>365.4</ele>
        <time>2026-03-18T09:24:57Z</time>
      </trkpt>
      <trkpt lat="48.29526" lon="7.38908">
        <ele>365.8</ele>
        <time>2026-03-18T09:25:02Z</time>
      </trkpt>
      <trkpt lat="48.29526" lon="7.38908">
        <ele>365.8</ele>
        <time>2026-03-18T09:25:07Z</time>
      </trkpt>
      <trkpt lat="48.29535" lon="7.38895">
        <ele>368.6</ele>
        <time>2026-03-18T09:25:12Z</time>
      </trkpt>
      <trkpt lat="48.29535" lon="7.38895">
        <ele>368.6</ele>
        <time>2026-03-18T09:25:17Z</time>
      </trkpt>
      <trkpt lat="48.29539" lon="7.38882">
        <ele>369.6</ele>
        <time>2026-03-18T09:25:22Z</time>
      </trkpt>
      <trkpt lat="48.2954" lon="7.38879">
        <ele>369.8</ele>
        <time>2026-03-18T09:25:27Z</time>
      </trkpt>
      <trkpt lat="48.2954" lon="7.38879">
        <ele>369.8</ele>
        <time>2026-03-18T09:25:32Z</time>
      </trkpt>
      <trkpt lat="48.2954" lon="7.38879">
        <ele>369.8</ele>
        <time>2026-03-18T09:25:37Z</time>
      </trkpt>
      <trkpt lat="48.29551" lon="7.38874">
        <ele>372.9</ele>
        <time>2026-03-18T09:25:42Z</time>
      </trkpt>
      <trkpt lat="48.29551" lon="7.38874">
        <ele>372.9</ele>
        <time>2026-03-18T09:25:47Z</time>
      </trkpt>
      <trkpt lat="48.29564" lon="7.38875">
        <ele>376.5</ele>
        <time>2026-03-18T09:25:52Z</time>
      </trkpt>
      <trkpt lat="48.29564" lon="7.38875">
        <ele>376.5</ele>
        <time>2026-03-18T09:25:57Z</time>
      </trkpt>
      <trkpt lat="48.29573" lon="7.38875">
        <ele>379.1</ele>
        <time>2026-03-18T09:26:02Z</time>
      </trkpt>
      <trkpt lat="48.29577" lon="7.38875">
        <ele>380.2</ele>
        <time>2026-03-18T09:26:07Z</time>
      </trkpt>
      <trkpt lat="48.29577" lon="7.38875">
        <ele>380.2</ele>
        <time>2026-03-18T09:26:12Z</time>
      </trkpt>
      <trkpt lat="48.29577" lon="7.38875">
        <ele>380.2</ele>
        <time>2026-03-18T09:26:17Z</time>
      </trkpt>
      <trkpt lat="48.29577" lon="7.38875">
        <ele>380.2</ele>
        <time>2026-03-18T09:26:22Z</time>
      </trkpt>
      <trkpt lat="48.29577" lon="7.38875">
        <ele>380.2</ele>
        <time>2026-03-18T09:26:27Z</time>
      </trkpt>
      <trkpt lat="48.29577" lon="7.38875">
        <ele>380.2</ele>
        <time>2026-03-18T09:26:32Z</time>
      </trkpt>
      <trkpt lat="48.29577" lon="7.38875">
        <ele>380.2</ele>
        <time>2026-03-18T09:26:37Z</time>
      </trkpt>
      <trkpt lat="48.29577" lon="7.38875">
        <ele>380.2</ele>
        <time>2026-03-18T09:26:42Z</time>
      </trkpt>
      <trkpt lat="48.29577" lon="7.38875">
        <ele>380.2</ele>
        <time>2026-03-18T09:26:47Z</time>
      </trkpt>
      <trkpt lat="48.29577" lon="7.38875">
        <ele>380.2</ele>
        <time>2026-03-18T09:26:52Z</time>
      </trkpt>
      <trkpt lat="48.29577" lon="7.38875">
        <ele>380.2</ele>
        <time>2026-03-18T09:26:57Z</time>
      </trkpt>
      <trkpt lat="48.29577" lon="7.38875">
        <ele>380.2</ele>
        <time>2026-03-18T09:27:02Z</time>
      </trkpt>
      <trkpt lat="48.29577" lon="7.38875">
        <ele>380.2</ele>
        <time>2026-03-18T09:27:07Z</time>
      </trkpt>
      <trkpt lat="48.29577" lon="7.38875">
        <ele>380.2</ele>
        <time>2026-03-18T09:27:12Z</time>
      </trkpt>
      <trkpt lat="48.29577" lon="7.38875">
        <ele>380.2</ele>
        <time>2026-03-18T09:27:17Z</time>
      </trkpt>
      <trkpt lat="48.29577" lon="7.38875">
        <ele>380.2</ele>
        <time>2026-03-18T09:27:22Z</time>
      </trkpt>
      <trkpt lat="48.29577" lon="7.38875">
        <ele>380.2</ele>
        <time>2026-03-18T09:27:27Z</time>
      </trkpt>
      <trkpt lat="48.29577" lon="7.38875">
        <ele>380.2</ele>
        <time>2026-03-18T09:27:32Z</time>
      </trkpt>
      <trkpt lat="48.29577" lon="7.38875">
        <ele>380.2</ele>
        <time>2026-03-18T09:27:37Z</time>
      </trkpt>
      <trkpt lat="48.29577" lon="7.38875">
        <ele>380.2</ele>
        <time>2026-03-18T09:27:42Z</time>
      </trkpt>
      <trkpt lat="48.29577" lon="7.38875">
        <ele>380.2</ele>
        <time>2026-03-18T09:27:47Z</time>
      </trkpt>
      <trkpt lat="48.29577" lon="7.38875">
        <ele>380.2</ele>
        <time>2026-03-18T09:27:52Z</time>
      </trkpt>
      <trkpt lat="48.29577" lon="7.38875">
        <ele>380.2</ele>
        <time>2026-03-18T09:27:57Z</time>
      </trkpt>
      <trkpt lat="48.29577" lon="7.38875">
        <ele>380.2</ele>
        <time>2026-03-18T09:28:02Z</time>
      </trkpt>
      <trkpt lat="48.29577" lon="7.38875">
        <ele>380.2</ele>
        <time>2026-03-18T09:28:07Z</time>
      </trkpt>
      <trkpt lat="48.29577" lon="7.38875">
        <ele>380.2</ele>
        <time>2026-03-18T09:28:12Z</time>
      </trkpt>
      <trkpt lat="48.29577" lon="7.38875">
        <ele>380.2</ele>
        <time>2026-03-18T09:28:17Z</time>
      </trkpt>
      <trkpt lat="48.29577" lon="7.38875">
        <ele>380.2</ele>
        <time>2026-03-18T09:28:22Z</time>
      </trkpt>
      <trkpt lat="48.29577" lon="7.38875">
        <ele>380.2</ele>
        <time>2026-03-18T09:28:27Z</time>
      </trkpt>
      <trkpt lat="48.29577" lon="7.38875">
        <ele>380.2</ele>
        <time>2026-03-18T09:28:32Z</time>
      </trkpt>
      <trkpt lat="48.29577" lon="7.38875">
        <ele>380.2</ele>
        <time>2026-03-18T09:28:37Z</time>
      </trkpt>
      <trkpt lat="48.29577" lon="7.38875">
        <ele>380.2</ele>
        <time>2026-03-18T09:28:42Z</time>
      </trkpt>
      <trkpt lat="48.29577" lon="7.38875">
        <ele>380.2</ele>
        <time>2026-03-18T09:28:47Z</time>
      </trkpt>
      <trkpt lat="48.29577" lon="7.38875">
        <ele>380.2</ele>
        <time>2026-03-18T09:28:52Z</time>
      </trkpt>
      <trkpt lat="48.29587" lon="7.38869">
        <ele>381.8</ele>
        <time>2026-03-18T09:28:57Z</time>
      </trkpt>
      <trkpt lat="48.29589" lon="7.38868">
        <ele>381.8</ele>
        <time>2026-03-18T09:29:02Z</time>
      </trkpt>
      <trkpt lat="48.29589" lon="7.38868">
        <ele>381.8</ele>
        <time>2026-03-18T09:29:07Z</time>
      </trkpt>
      <trkpt lat="48.2959" lon="7.38852">
        <ele>380.6</ele>
        <time>2026-03-18T09:29:12Z</time>
      </trkpt>
      <trkpt lat="48.2959" lon="7.38851">
        <ele>380.5</ele>
        <time>2026-03-18T09:29:17Z</time>
      </trkpt>
      <trkpt lat="48.29584" lon="7.38841">
        <ele>379.6</ele>
        <time>2026-03-18T09:29:22Z</time>
      </trkpt>
      <trkpt lat="48.29584" lon="7.38841">
        <ele>379.6</ele>
        <time>2026-03-18T09:29:27Z</time>
      </trkpt>
      <trkpt lat="48.29584" lon="7.38841">
        <ele>379.6</ele>
        <time>2026-03-18T09:29:32Z</time>
      </trkpt>
      <trkpt lat="48.29584" lon="7.38841">
        <ele>379.6</ele>
        <time>2026-03-18T09:29:37Z</time>
      </trkpt>
      <trkpt lat="48.29584" lon="7.38841">
        <ele>379.6</ele>
        <time>2026-03-18T09:29:42Z</time>
      </trkpt>
      <trkpt lat="48.29577" lon="7.38841">
        <ele>378</ele>
        <time>2026-03-18T09:29:47Z</time>
      </trkpt>
      <trkpt lat="48.29571" lon="7.38833">
        <ele>376.1</ele>
        <time>2026-03-18T09:29:52Z</time>
      </trkpt>
      <trkpt lat="48.29566" lon="7.38827">
        <ele>373.9</ele>
        <time>2026-03-18T09:29:57Z</time>
      </trkpt>
      <trkpt lat="48.29561" lon="7.38825">
        <ele>372.4</ele>
        <time>2026-03-18T09:30:02Z</time>
      </trkpt>
      <trkpt lat="48.29561" lon="7.38825">
        <ele>372.4</ele>
        <time>2026-03-18T09:30:07Z</time>
      </trkpt>
      <trkpt lat="48.29561" lon="7.38825">
        <ele>372.4</ele>
        <time>2026-03-18T09:30:12Z</time>
      </trkpt>
      <trkpt lat="48.29559" lon="7.38808">
        <ele>368.9</ele>
        <time>2026-03-18T09:30:17Z</time>
      </trkpt>
      <trkpt lat="48.29559" lon="7.38808">
        <ele>368.9</ele>
        <time>2026-03-18T09:30:22Z</time>
      </trkpt>
      <trkpt lat="48.29558" lon="7.38793">
        <ele>366</ele>
        <time>2026-03-18T09:30:27Z</time>
      </trkpt>
      <trkpt lat="48.29558" lon="7.3879">
        <ele>365.5</ele>
        <time>2026-03-18T09:30:32Z</time>
      </trkpt>
      <trkpt lat="48.29554" lon="7.38776">
        <ele>362.3</ele>
        <time>2026-03-18T09:30:37Z</time>
      </trkpt>
      <trkpt lat="48.29553" lon="7.38772">
        <ele>361.4</ele>
        <time>2026-03-18T09:30:42Z</time>
      </trkpt>
      <trkpt lat="48.29553" lon="7.38772">
        <ele>361.4</ele>
        <time>2026-03-18T09:30:47Z</time>
      </trkpt>
      <trkpt lat="48.2955" lon="7.38752">
        <ele>357.5</ele>
        <time>2026-03-18T09:30:52Z</time>
      </trkpt>
      <trkpt lat="48.2955" lon="7.38752">
        <ele>357.5</ele>
        <time>2026-03-18T09:30:57Z</time>
      </trkpt>
      <trkpt lat="48.2954" lon="7.38748">
        <ele>355.3</ele>
        <time>2026-03-18T09:31:02Z</time>
      </trkpt>
      <trkpt lat="48.29537" lon="7.38747">
        <ele>354.7</ele>
        <time>2026-03-18T09:31:07Z</time>
      </trkpt>
      <trkpt lat="48.29537" lon="7.38747">
        <ele>354.7</ele>
        <time>2026-03-18T09:31:12Z</time>
      </trkpt>
      <trkpt lat="48.29537" lon="7.38747">
        <ele>354.7</ele>
        <time>2026-03-18T09:31:17Z</time>
      </trkpt>
      <trkpt lat="48.29529" lon="7.38734">
        <ele>350.8</ele>
        <time>2026-03-18T09:31:22Z</time>
      </trkpt>
      <trkpt lat="48.29529" lon="7.38734">
        <ele>350.8</ele>
        <time>2026-03-18T09:31:27Z</time>
      </trkpt>
      <trkpt lat="48.29524" lon="7.38723">
        <ele>347.8</ele>
        <time>2026-03-18T09:31:32Z</time>
      </trkpt>
      <trkpt lat="48.29524" lon="7.38719">
        <ele>347</ele>
        <time>2026-03-18T09:31:37Z</time>
      </trkpt>
      <trkpt lat="48.29524" lon="7.38719">
        <ele>347</ele>
        <time>2026-03-18T09:31:42Z</time>
      </trkpt>
      <trkpt lat="48.29524" lon="7.38719">
        <ele>347</ele>
        <time>2026-03-18T09:31:47Z</time>
      </trkpt>
      <trkpt lat="48.29519" lon="7.38704">
        <ele>343.3</ele>
        <time>2026-03-18T09:31:52Z</time>
      </trkpt>
      <trkpt lat="48.29519" lon="7.38704">
        <ele>343.3</ele>
        <time>2026-03-18T09:31:57Z</time>
      </trkpt>
      <trkpt lat="48.2951" lon="7.38703">
        <ele>342.1</ele>
        <time>2026-03-18T09:32:02Z</time>
      </trkpt>
      <trkpt lat="48.29508" lon="7.38703">
        <ele>341.9</ele>
        <time>2026-03-18T09:32:07Z</time>
      </trkpt>
      <trkpt lat="48.29508" lon="7.38703">
        <ele>341.9</ele>
        <time>2026-03-18T09:32:12Z</time>
      </trkpt>
      <trkpt lat="48.295" lon="7.38691">
        <ele>338.7</ele>
        <time>2026-03-18T09:32:17Z</time>
      </trkpt>
      <trkpt lat="48.29499" lon="7.38691">
        <ele>338.4</ele>
        <time>2026-03-18T09:32:22Z</time>
      </trkpt>
      <trkpt lat="48.29499" lon="7.38691">
        <ele>338.4</ele>
        <time>2026-03-18T09:32:27Z</time>
      </trkpt>
      <trkpt lat="48.29487" lon="7.38684">
        <ele>333.7</ele>
        <time>2026-03-18T09:32:32Z</time>
      </trkpt>
      <trkpt lat="48.29487" lon="7.38684">
        <ele>333.7</ele>
        <time>2026-03-18T09:32:37Z</time>
      </trkpt>
      <trkpt lat="48.2948" lon="7.38672">
        <ele>330</ele>
        <time>2026-03-18T09:32:42Z</time>
      </trkpt>
      <trkpt lat="48.29479" lon="7.38671">
        <ele>329.6</ele>
        <time>2026-03-18T09:32:47Z</time>
      </trkpt>
      <trkpt lat="48.29479" lon="7.38671">
        <ele>329.6</ele>
        <time>2026-03-18T09:32:52Z</time>
      </trkpt>
      <trkpt lat="48.29473" lon="7.3866">
        <ele>326.3</ele>
        <time>2026-03-18T09:32:57Z</time>
      </trkpt>
      <trkpt lat="48.29471" lon="7.38658">
        <ele>325.5</ele>
        <time>2026-03-18T09:33:02Z</time>
      </trkpt>
      <trkpt lat="48.29471" lon="7.38658">
        <ele>325.5</ele>
        <time>2026-03-18T09:33:07Z</time>
      </trkpt>
      <trkpt lat="48.29461" lon="7.3865">
        <ele>322</ele>
        <time>2026-03-18T09:33:12Z</time>
      </trkpt>
      <trkpt lat="48.2946" lon="7.38649">
        <ele>321.7</ele>
        <time>2026-03-18T09:33:17Z</time>
      </trkpt>
      <trkpt lat="48.2946" lon="7.38649">
        <ele>321.7</ele>
        <time>2026-03-18T09:33:22Z</time>
      </trkpt>
      <trkpt lat="48.2945" lon="7.38639">
        <ele>318.4</ele>
        <time>2026-03-18T09:33:27Z</time>
      </trkpt>
      <trkpt lat="48.2945" lon="7.38639">
        <ele>318.4</ele>
        <time>2026-03-18T09:33:32Z</time>
      </trkpt>
      <trkpt lat="48.29439" lon="7.38634">
        <ele>316</ele>
        <time>2026-03-18T09:33:37Z</time>
      </trkpt>
      <trkpt lat="48.29437" lon="7.38634">
        <ele>315.7</ele>
        <time>2026-03-18T09:33:42Z</time>
      </trkpt>
      <trkpt lat="48.29427" lon="7.38636">
        <ele>314.2</ele>
        <time>2026-03-18T09:33:47Z</time>
      </trkpt>
      <trkpt lat="48.2942" lon="7.38637">
        <ele>313.1</ele>
        <time>2026-03-18T09:33:52Z</time>
      </trkpt>
      <trkpt lat="48.29413" lon="7.38641">
        <ele>311.7</ele>
        <time>2026-03-18T09:33:57Z</time>
      </trkpt>
      <trkpt lat="48.29406" lon="7.38641">
        <ele>309.8</ele>
        <time>2026-03-18T09:34:02Z</time>
      </trkpt>
      <trkpt lat="48.29399" lon="7.38639">
        <ele>307.8</ele>
        <time>2026-03-18T09:34:07Z</time>
      </trkpt>
      <trkpt lat="48.29395" lon="7.38638">
        <ele>306.7</ele>
        <time>2026-03-18T09:34:12Z</time>
      </trkpt>
      <trkpt lat="48.29395" lon="7.38638">
        <ele>306.7</ele>
        <time>2026-03-18T09:34:17Z</time>
      </trkpt>
      <trkpt lat="48.29385" lon="7.38632">
        <ele>304</ele>
        <time>2026-03-18T09:34:22Z</time>
      </trkpt>
      <trkpt lat="48.29383" lon="7.38631">
        <ele>303.5</ele>
        <time>2026-03-18T09:34:27Z</time>
      </trkpt>
      <trkpt lat="48.29374" lon="7.38623">
        <ele>301.3</ele>
        <time>2026-03-18T09:34:32Z</time>
      </trkpt>
      <trkpt lat="48.29371" lon="7.38621">
        <ele>300.6</ele>
        <time>2026-03-18T09:34:37Z</time>
      </trkpt>
      <trkpt lat="48.29363" lon="7.38616">
        <ele>298.9</ele>
        <time>2026-03-18T09:34:42Z</time>
      </trkpt>
      <trkpt lat="48.29359" lon="7.38615">
        <ele>298</ele>
        <time>2026-03-18T09:34:47Z</time>
      </trkpt>
      <trkpt lat="48.29351" lon="7.38608">
        <ele>296.6</ele>
        <time>2026-03-18T09:34:52Z</time>
      </trkpt>
      <trkpt lat="48.29347" lon="7.38606">
        <ele>295.8</ele>
        <time>2026-03-18T09:34:57Z</time>
      </trkpt>
      <trkpt lat="48.29337" lon="7.38608">
        <ele>293.4</ele>
        <time>2026-03-18T09:35:02Z</time>
      </trkpt>
      <trkpt lat="48.29331" lon="7.38613">
        <ele>291.2</ele>
        <time>2026-03-18T09:35:07Z</time>
      </trkpt>
      <trkpt lat="48.29328" lon="7.38623">
        <ele>289.2</ele>
        <time>2026-03-18T09:35:12Z</time>
      </trkpt>
      <trkpt lat="48.29327" lon="7.38628">
        <ele>288.3</ele>
        <time>2026-03-18T09:35:17Z</time>
      </trkpt>
      <trkpt lat="48.29324" lon="7.38645">
        <ele>285.7</ele>
        <time>2026-03-18T09:35:22Z</time>
      </trkpt>
      <trkpt lat="48.29324" lon="7.38647">
        <ele>285.5</ele>
        <time>2026-03-18T09:35:27Z</time>
      </trkpt>
      <trkpt lat="48.29324" lon="7.38662">
        <ele>284.2</ele>
        <time>2026-03-18T09:35:32Z</time>
      </trkpt>
      <trkpt lat="48.29323" lon="7.38664">
        <ele>283.6</ele>
        <time>2026-03-18T09:35:37Z</time>
      </trkpt>
      <trkpt lat="48.29323" lon="7.38664">
        <ele>283.6</ele>
        <time>2026-03-18T09:35:42Z</time>
      </trkpt>
      <trkpt lat="48.29318" lon="7.38681">
        <ele>280.5</ele>
        <time>2026-03-18T09:35:47Z</time>
      </trkpt>
      <trkpt lat="48.29318" lon="7.38683">
        <ele>280.3</ele>
        <time>2026-03-18T09:35:52Z</time>
      </trkpt>
      <trkpt lat="48.29314" lon="7.38697">
        <ele>277.7</ele>
        <time>2026-03-18T09:35:57Z</time>
      </trkpt>
      <trkpt lat="48.29311" lon="7.38707">
        <ele>275.8</ele>
        <time>2026-03-18T09:36:02Z</time>
      </trkpt>
      <trkpt lat="48.29311" lon="7.38712">
        <ele>275.4</ele>
        <time>2026-03-18T09:36:07Z</time>
      </trkpt>
      <trkpt lat="48.29311" lon="7.38712">
        <ele>275.4</ele>
        <time>2026-03-18T09:36:12Z</time>
      </trkpt>
      <trkpt lat="48.29314" lon="7.38732">
        <ele>274.8</ele>
        <time>2026-03-18T09:36:17Z</time>
      </trkpt>
      <trkpt lat="48.29314" lon="7.38732">
        <ele>274.8</ele>
        <time>2026-03-18T09:36:22Z</time>
      </trkpt>
      <trkpt lat="48.29311" lon="7.38746">
        <ele>272.6</ele>
        <time>2026-03-18T09:36:27Z</time>
      </trkpt>
      <trkpt lat="48.29311" lon="7.38752">
        <ele>272.1</ele>
        <time>2026-03-18T09:36:32Z</time>
      </trkpt>
      <trkpt lat="48.2931" lon="7.38768">
        <ele>270.6</ele>
        <time>2026-03-18T09:36:37Z</time>
      </trkpt>
      <trkpt lat="48.29309" lon="7.38771">
        <ele>270</ele>
        <time>2026-03-18T09:36:42Z</time>
      </trkpt>
      <trkpt lat="48.29305" lon="7.38786">
        <ele>267.5</ele>
        <time>2026-03-18T09:36:47Z</time>
      </trkpt>
      <trkpt lat="48.29305" lon="7.3879">
        <ele>267.3</ele>
        <time>2026-03-18T09:36:52Z</time>
      </trkpt>
      <trkpt lat="48.293" lon="7.38802">
        <ele>264.7</ele>
        <time>2026-03-18T09:36:57Z</time>
      </trkpt>
      <trkpt lat="48.29301" lon="7.38807">
        <ele>264.6</ele>
        <time>2026-03-18T09:37:02Z</time>
      </trkpt>
      <trkpt lat="48.29301" lon="7.38807">
        <ele>264.6</ele>
        <time>2026-03-18T09:37:07Z</time>
      </trkpt>
      <trkpt lat="48.29297" lon="7.38824">
        <ele>262</ele>
        <time>2026-03-18T09:37:12Z</time>
      </trkpt>
      <trkpt lat="48.29295" lon="7.38834">
        <ele>260.7</ele>
        <time>2026-03-18T09:37:17Z</time>
      </trkpt>
      <trkpt lat="48.29295" lon="7.38834">
        <ele>260.7</ele>
        <time>2026-03-18T09:37:22Z</time>
      </trkpt>
      <trkpt lat="48.2929" lon="7.38849">
        <ele>258.9</ele>
        <time>2026-03-18T09:37:27Z</time>
      </trkpt>
      <trkpt lat="48.29286" lon="7.38856">
        <ele>257.6</ele>
        <time>2026-03-18T09:37:32Z</time>
      </trkpt>
      <trkpt lat="48.29286" lon="7.38858">
        <ele>257.6</ele>
        <time>2026-03-18T09:37:37Z</time>
      </trkpt>
      <trkpt lat="48.29278" lon="7.38869">
        <ele>254.9</ele>
        <time>2026-03-18T09:37:42Z</time>
      </trkpt>
      <trkpt lat="48.29277" lon="7.3887">
        <ele>254.6</ele>
        <time>2026-03-18T09:37:47Z</time>
      </trkpt>
      <trkpt lat="48.29277" lon="7.3887">
        <ele>254.6</ele>
        <time>2026-03-18T09:37:52Z</time>
      </trkpt>
      <trkpt lat="48.29277" lon="7.3887">
        <ele>254.6</ele>
        <time>2026-03-18T09:37:57Z</time>
      </trkpt>
      <trkpt lat="48.29274" lon="7.38885">
        <ele>253.6</ele>
        <time>2026-03-18T09:38:02Z</time>
      </trkpt>
      <trkpt lat="48.29273" lon="7.38885">
        <ele>253.3</ele>
        <time>2026-03-18T09:38:07Z</time>
      </trkpt>
      <trkpt lat="48.29273" lon="7.38885">
        <ele>253.3</ele>
        <time>2026-03-18T09:38:12Z</time>
      </trkpt>
      <trkpt lat="48.29273" lon="7.38885">
        <ele>253.3</ele>
        <time>2026-03-18T09:38:17Z</time>
      </trkpt>
      <trkpt lat="48.29273" lon="7.38885">
        <ele>253.3</ele>
        <time>2026-03-18T09:38:22Z</time>
      </trkpt>
      <trkpt lat="48.29273" lon="7.38885">
        <ele>253.3</ele>
        <time>2026-03-18T09:38:27Z</time>
      </trkpt>
      <trkpt lat="48.29261" lon="7.38887">
        <ele>249.3</ele>
        <time>2026-03-18T09:38:32Z</time>
      </trkpt>
      <trkpt lat="48.29261" lon="7.38887">
        <ele>249.3</ele>
        <time>2026-03-18T09:38:37Z</time>
      </trkpt>
      <trkpt lat="48.29256" lon="7.38871">
        <ele>247.5</ele>
        <time>2026-03-18T09:38:42Z</time>
      </trkpt>
      <trkpt lat="48.29256" lon="7.38871">
        <ele>247.5</ele>
        <time>2026-03-18T09:38:47Z</time>
      </trkpt>
      <trkpt lat="48.2925" lon="7.38861">
        <ele>245.3</ele>
        <time>2026-03-18T09:38:52Z</time>
      </trkpt>
      <trkpt lat="48.29248" lon="7.38857">
        <ele>244.8</ele>
        <time>2026-03-18T09:38:57Z</time>
      </trkpt>
      <trkpt lat="48.29248" lon="7.38857">
        <ele>244.8</ele>
        <time>2026-03-18T09:39:02Z</time>
      </trkpt>
      <trkpt lat="48.2924" lon="7.38836">
        <ele>242.3</ele>
        <time>2026-03-18T09:39:07Z</time>
      </trkpt>
      <trkpt lat="48.29237" lon="7.38826">
        <ele>241.8</ele>
        <time>2026-03-18T09:39:12Z</time>
      </trkpt>
      <trkpt lat="48.29235" lon="7.38817">
        <ele>241.8</ele>
        <time>2026-03-18T09:39:17Z</time>
      </trkpt>
      <trkpt lat="48.29235" lon="7.38815">
        <ele>241.9</ele>
        <time>2026-03-18T09:39:22Z</time>
      </trkpt>
      <trkpt lat="48.29234" lon="7.38799">
        <ele>242.4</ele>
        <time>2026-03-18T09:39:27Z</time>
      </trkpt>
      <trkpt lat="48.29233" lon="7.38796">
        <ele>242.3</ele>
        <time>2026-03-18T09:39:32Z</time>
      </trkpt>
      <trkpt lat="48.29233" lon="7.38796">
        <ele>242.3</ele>
        <time>2026-03-18T09:39:37Z</time>
      </trkpt>
      <trkpt lat="48.29231" lon="7.38778">
        <ele>242.5</ele>
        <time>2026-03-18T09:39:42Z</time>
      </trkpt>
      <trkpt lat="48.29231" lon="7.38778">
        <ele>242.5</ele>
        <time>2026-03-18T09:39:47Z</time>
      </trkpt>
      <trkpt lat="48.29231" lon="7.38778">
        <ele>242.5</ele>
        <time>2026-03-18T09:39:52Z</time>
      </trkpt>
      <trkpt lat="48.29231" lon="7.38778">
        <ele>242.5</ele>
        <time>2026-03-18T09:39:57Z</time>
      </trkpt>
      <trkpt lat="48.29231" lon="7.38778">
        <ele>242.5</ele>
        <time>2026-03-18T09:40:02Z</time>
      </trkpt>
      <trkpt lat="48.29231" lon="7.38778">
        <ele>242.5</ele>
        <time>2026-03-18T09:40:07Z</time>
      </trkpt>
      <trkpt lat="48.29231" lon="7.38778">
        <ele>242.5</ele>
        <time>2026-03-18T09:40:12Z</time>
      </trkpt>
      <trkpt lat="48.29226" lon="7.38762">
        <ele>241.5</ele>
        <time>2026-03-18T09:40:17Z</time>
      </trkpt>
      <trkpt lat="48.29225" lon="7.3876">
        <ele>241.3</ele>
        <time>2026-03-18T09:40:22Z</time>
      </trkpt>
      <trkpt lat="48.29216" lon="7.38764">
        <ele>237.9</ele>
        <time>2026-03-18T09:40:27Z</time>
      </trkpt>
      <trkpt lat="48.29214" lon="7.3877">
        <ele>237</ele>
        <time>2026-03-18T09:40:32Z</time>
      </trkpt>
      <trkpt lat="48.29214" lon="7.3877">
        <ele>237</ele>
        <time>2026-03-18T09:40:37Z</time>
      </trkpt>
      <trkpt lat="48.2921" lon="7.38785">
        <ele>235.2</ele>
        <time>2026-03-18T09:40:42Z</time>
      </trkpt>
      <trkpt lat="48.2921" lon="7.38788">
        <ele>235.1</ele>
        <time>2026-03-18T09:40:47Z</time>
      </trkpt>
      <trkpt lat="48.29207" lon="7.38802">
        <ele>233.8</ele>
        <time>2026-03-18T09:40:52Z</time>
      </trkpt>
      <trkpt lat="48.29206" lon="7.38807">
        <ele>233.4</ele>
        <time>2026-03-18T09:40:57Z</time>
      </trkpt>
      <trkpt lat="48.292" lon="7.38822">
        <ele>231.4</ele>
        <time>2026-03-18T09:41:02Z</time>
      </trkpt>
      <trkpt lat="48.29199" lon="7.38825">
        <ele>231</ele>
        <time>2026-03-18T09:41:07Z</time>
      </trkpt>
      <trkpt lat="48.29199" lon="7.38825">
        <ele>231</ele>
        <time>2026-03-18T09:41:12Z</time>
      </trkpt>
      <trkpt lat="48.29194" lon="7.38844">
        <ele>230.2</ele>
        <time>2026-03-18T09:41:17Z</time>
      </trkpt>
      <trkpt lat="48.2919" lon="7.38857">
        <ele>230</ele>
        <time>2026-03-18T09:41:22Z</time>
      </trkpt>
      <trkpt lat="48.2919" lon="7.38863">
        <ele>230.3</ele>
        <time>2026-03-18T09:41:27Z</time>
      </trkpt>
      <trkpt lat="48.2919" lon="7.38863">
        <ele>230.3</ele>
        <time>2026-03-18T09:41:32Z</time>
      </trkpt>
      <trkpt lat="48.29182" lon="7.38868">
        <ele>228.7</ele>
        <time>2026-03-18T09:41:37Z</time>
      </trkpt>
      <trkpt lat="48.2918" lon="7.38865">
        <ele>228</ele>
        <time>2026-03-18T09:41:42Z</time>
      </trkpt>
      <trkpt lat="48.2918" lon="7.38865">
        <ele>228</ele>
        <time>2026-03-18T09:41:47Z</time>
      </trkpt>
      <trkpt lat="48.29175" lon="7.38844">
        <ele>225.1</ele>
        <time>2026-03-18T09:41:52Z</time>
      </trkpt>
      <trkpt lat="48.29174" lon="7.3884">
        <ele>224.5</ele>
        <time>2026-03-18T09:41:57Z</time>
      </trkpt>
      <trkpt lat="48.29172" lon="7.38824">
        <ele>223.3</ele>
        <time>2026-03-18T09:42:02Z</time>
      </trkpt>
      <trkpt lat="48.29171" lon="7.38813">
        <ele>222.8</ele>
        <time>2026-03-18T09:42:07Z</time>
      </trkpt>
      <trkpt lat="48.2917" lon="7.38808">
        <ele>222.4</ele>
        <time>2026-03-18T09:42:12Z</time>
      </trkpt>
      <trkpt lat="48.2917" lon="7.38808">
        <ele>222.4</ele>
        <time>2026-03-18T09:42:17Z</time>
      </trkpt>
      <trkpt lat="48.29168" lon="7.38789">
        <ele>221.4</ele>
        <time>2026-03-18T09:42:22Z</time>
      </trkpt>
      <trkpt lat="48.29168" lon="7.38789">
        <ele>221.4</ele>
        <time>2026-03-18T09:42:27Z</time>
      </trkpt>
      <trkpt lat="48.29163" lon="7.38768">
        <ele>219.6</ele>
        <time>2026-03-18T09:42:32Z</time>
      </trkpt>
      <trkpt lat="48.29163" lon="7.38768">
        <ele>219.6</ele>
        <time>2026-03-18T09:42:37Z</time>
      </trkpt>
      <trkpt lat="48.29163" lon="7.38768">
        <ele>219.6</ele>
        <time>2026-03-18T09:42:42Z</time>
      </trkpt>
      <trkpt lat="48.29163" lon="7.38768">
        <ele>219.6</ele>
        <time>2026-03-18T09:42:47Z</time>
      </trkpt>
      <trkpt lat="48.29154" lon="7.38774">
        <ele>217.9</ele>
        <time>2026-03-18T09:42:52Z</time>
      </trkpt>
      <trkpt lat="48.29154" lon="7.38774">
        <ele>217.9</ele>
        <time>2026-03-18T09:42:57Z</time>
      </trkpt>
      <trkpt lat="48.29154" lon="7.38793">
        <ele>218.4</ele>
        <time>2026-03-18T09:43:02Z</time>
      </trkpt>
      <trkpt lat="48.29155" lon="7.38802">
        <ele>218.8</ele>
        <time>2026-03-18T09:43:07Z</time>
      </trkpt>
      <trkpt lat="48.29155" lon="7.38812">
        <ele>219.1</ele>
        <time>2026-03-18T09:43:12Z</time>
      </trkpt>
      <trkpt lat="48.29153" lon="7.38823">
        <ele>218.9</ele>
        <time>2026-03-18T09:43:17Z</time>
      </trkpt>
      <trkpt lat="48.29153" lon="7.38835">
        <ele>219.3</ele>
        <time>2026-03-18T09:43:22Z</time>
      </trkpt>
      <trkpt lat="48.29154" lon="7.38845">
        <ele>220.3</ele>
        <time>2026-03-18T09:43:27Z</time>
      </trkpt>
      <trkpt lat="48.29154" lon="7.3885">
        <ele>220.7</ele>
        <time>2026-03-18T09:43:32Z</time>
      </trkpt>
      <trkpt lat="48.29154" lon="7.38865">
        <ele>221.8</ele>
        <time>2026-03-18T09:43:37Z</time>
      </trkpt>
      <trkpt lat="48.29155" lon="7.38869">
        <ele>222.4</ele>
        <time>2026-03-18T09:43:42Z</time>
      </trkpt>
      <trkpt lat="48.2916" lon="7.38887">
        <ele>224.9</ele>
        <time>2026-03-18T09:43:47Z</time>
      </trkpt>
      <trkpt lat="48.2916" lon="7.3889">
        <ele>225.2</ele>
        <time>2026-03-18T09:43:52Z</time>
      </trkpt>
      <trkpt lat="48.29163" lon="7.38906">
        <ele>227.2</ele>
        <time>2026-03-18T09:43:57Z</time>
      </trkpt>
      <trkpt lat="48.29162" lon="7.38909">
        <ele>227.2</ele>
        <time>2026-03-18T09:44:02Z</time>
      </trkpt>
      <trkpt lat="48.29153" lon="7.38902">
        <ele>224.4</ele>
        <time>2026-03-18T09:44:07Z</time>
      </trkpt>
      <trkpt lat="48.29151" lon="7.38898">
        <ele>223.7</ele>
        <time>2026-03-18T09:44:12Z</time>
      </trkpt>
      <trkpt lat="48.29146" lon="7.38883">
        <ele>221.4</ele>
        <time>2026-03-18T09:44:17Z</time>
      </trkpt>
      <trkpt lat="48.29144" lon="7.3888">
        <ele>220.7</ele>
        <time>2026-03-18T09:44:22Z</time>
      </trkpt>
      <trkpt lat="48.29139" lon="7.38868">
        <ele>218.7</ele>
        <time>2026-03-18T09:44:27Z</time>
      </trkpt>
      <trkpt lat="48.29137" lon="7.38864">
        <ele>218</ele>
        <time>2026-03-18T09:44:32Z</time>
      </trkpt>
      <trkpt lat="48.29137" lon="7.38864">
        <ele>218</ele>
        <time>2026-03-18T09:44:37Z</time>
      </trkpt>
      <trkpt lat="48.29128" lon="7.38848">
        <ele>215</ele>
        <time>2026-03-18T09:44:42Z</time>
      </trkpt>
      <trkpt lat="48.29128" lon="7.38848">
        <ele>215</ele>
        <time>2026-03-18T09:44:47Z</time>
      </trkpt>
      <trkpt lat="48.29114" lon="7.3884">
        <ele>211.6</ele>
        <time>2026-03-18T09:44:52Z</time>
      </trkpt>
      <trkpt lat="48.2911" lon="7.38837">
        <ele>210.6</ele>
        <time>2026-03-18T09:44:57Z</time>
      </trkpt>
      <trkpt lat="48.2911" lon="7.38837">
        <ele>210.6</ele>
        <time>2026-03-18T09:45:02Z</time>
      </trkpt>
      <trkpt lat="48.29102" lon="7.38833">
        <ele>208.8</ele>
        <time>2026-03-18T09:45:07Z</time>
      </trkpt>
      <trkpt lat="48.291" lon="7.38829">
        <ele>208.3</ele>
        <time>2026-03-18T09:45:12Z</time>
      </trkpt>
      <trkpt lat="48.291" lon="7.38829">
        <ele>208.3</ele>
        <time>2026-03-18T09:45:17Z</time>
      </trkpt>
      <trkpt lat="48.29091" lon="7.38819">
        <ele>206.1</ele>
        <time>2026-03-18T09:45:22Z</time>
      </trkpt>
      <trkpt lat="48.2909" lon="7.38818">
        <ele>205.8</ele>
        <time>2026-03-18T09:45:27Z</time>
      </trkpt>
      <trkpt lat="48.29079" lon="7.3881">
        <ele>203.8</ele>
        <time>2026-03-18T09:45:32Z</time>
      </trkpt>
      <trkpt lat="48.29079" lon="7.38808">
        <ele>203.7</ele>
        <time>2026-03-18T09:45:37Z</time>
      </trkpt>
      <trkpt lat="48.29071" lon="7.38796">
        <ele>202.7</ele>
        <time>2026-03-18T09:45:42Z</time>
      </trkpt>
      <trkpt lat="48.29066" lon="7.38788">
        <ele>202</ele>
        <time>2026-03-18T09:45:47Z</time>
      </trkpt>
      <trkpt lat="48.29062" lon="7.38782">
        <ele>201.6</ele>
        <time>2026-03-18T09:45:52Z</time>
      </trkpt>
      <trkpt lat="48.29052" lon="7.38773">
        <ele>200.6</ele>
        <time>2026-03-18T09:45:57Z</time>
      </trkpt>
      <trkpt lat="48.29048" lon="7.38767">
        <ele>200.2</ele>
        <time>2026-03-18T09:46:02Z</time>
      </trkpt>
      <trkpt lat="48.29048" lon="7.38763">
        <ele>200.1</ele>
        <time>2026-03-18T09:46:07Z</time>
      </trkpt>
      <trkpt lat="48.29049" lon="7.38748">
        <ele>200</ele>
        <time>2026-03-18T09:46:12Z</time>
      </trkpt>
      <trkpt lat="48.2905" lon="7.38743">
        <ele>200.1</ele>
        <time>2026-03-18T09:46:17Z</time>
      </trkpt>
      <trkpt lat="48.29053" lon="7.38728">
        <ele>200.6</ele>
        <time>2026-03-18T09:46:22Z</time>
      </trkpt>
      <trkpt lat="48.29053" lon="7.38724">
        <ele>200.7</ele>
        <time>2026-03-18T09:46:27Z</time>
      </trkpt>
      <trkpt lat="48.29056" lon="7.38709">
        <ele>201.2</ele>
        <time>2026-03-18T09:46:32Z</time>
      </trkpt>
      <trkpt lat="48.2906" lon="7.387">
        <ele>201.7</ele>
        <time>2026-03-18T09:46:37Z</time>
      </trkpt>
      <trkpt lat="48.29061" lon="7.38692">
        <ele>202</ele>
        <time>2026-03-18T09:46:42Z</time>
      </trkpt>
      <trkpt lat="48.29061" lon="7.38692">
        <ele>202</ele>
        <time>2026-03-18T09:46:47Z</time>
      </trkpt>
      <trkpt lat="48.2906" lon="7.38672">
        <ele>202.4</ele>
        <time>2026-03-18T09:46:52Z</time>
      </trkpt>
      <trkpt lat="48.2906" lon="7.38672">
        <ele>202.4</ele>
        <time>2026-03-18T09:46:57Z</time>
      </trkpt>
      <trkpt lat="48.29056" lon="7.38652">
        <ele>202.3</ele>
        <time>2026-03-18T09:47:02Z</time>
      </trkpt>
      <trkpt lat="48.29056" lon="7.38652">
        <ele>202.3</ele>
        <time>2026-03-18T09:47:07Z</time>
      </trkpt>
      <trkpt lat="48.29056" lon="7.38634">
        <ele>202.7</ele>
        <time>2026-03-18T09:47:12Z</time>
      </trkpt>
      <trkpt lat="48.29055" lon="7.38626">
        <ele>202.8</ele>
        <time>2026-03-18T09:47:17Z</time>
      </trkpt>
      <trkpt lat="48.29051" lon="7.3861">
        <ele>202.6</ele>
        <time>2026-03-18T09:47:22Z</time>
      </trkpt>
      <trkpt lat="48.29047" lon="7.386">
        <ele>202.3</ele>
        <time>2026-03-18T09:47:27Z</time>
      </trkpt>
      <trkpt lat="48.29045" lon="7.3859">
        <ele>202.3</ele>
        <time>2026-03-18T09:47:32Z</time>
      </trkpt>
      <trkpt lat="48.29045" lon="7.3859">
        <ele>202.3</ele>
        <time>2026-03-18T09:47:37Z</time>
      </trkpt>
      <trkpt lat="48.2904" lon="7.38571">
        <ele>201.6</ele>
        <time>2026-03-18T09:47:42Z</time>
      </trkpt>
      <trkpt lat="48.2904" lon="7.38571">
        <ele>201.6</ele>
        <time>2026-03-18T09:47:47Z</time>
      </trkpt>
      <trkpt lat="48.29036" lon="7.38553">
        <ele>200.8</ele>
        <time>2026-03-18T09:47:52Z</time>
      </trkpt>
      <trkpt lat="48.29036" lon="7.38551">
        <ele>200.8</ele>
        <time>2026-03-18T09:47:57Z</time>
      </trkpt>
      <trkpt lat="48.2903" lon="7.38533">
        <ele>199.9</ele>
        <time>2026-03-18T09:48:02Z</time>
      </trkpt>
      <trkpt lat="48.2903" lon="7.38533">
        <ele>199.9</ele>
        <time>2026-03-18T09:48:07Z</time>
      </trkpt>
      <trkpt lat="48.29026" lon="7.38514">
        <ele>199.3</ele>
        <time>2026-03-18T09:48:12Z</time>
      </trkpt>
      <trkpt lat="48.29024" lon="7.38503">
        <ele>199</ele>
        <time>2026-03-18T09:48:17Z</time>
      </trkpt>
      <trkpt lat="48.29022" lon="7.38491">
        <ele>198.9</ele>
        <time>2026-03-18T09:48:22Z</time>
      </trkpt>
      <trkpt lat="48.2902" lon="7.38481">
        <ele>198.7</ele>
        <time>2026-03-18T09:48:27Z</time>
      </trkpt>
      <trkpt lat="48.29018" lon="7.38472">
        <ele>198.6</ele>
        <time>2026-03-18T09:48:32Z</time>
      </trkpt>
      <trkpt lat="48.29019" lon="7.38468">
        <ele>198.7</ele>
        <time>2026-03-18T09:48:37Z</time>
      </trkpt>
      <trkpt lat="48.2902" lon="7.38453">
        <ele>198.8</ele>
        <time>2026-03-18T09:48:42Z</time>
      </trkpt>
      <trkpt lat="48.29021" lon="7.38448">
        <ele>198.9</ele>
        <time>2026-03-18T09:48:47Z</time>
      </trkpt>
      <trkpt lat="48.29023" lon="7.38435">
        <ele>199.1</ele>
        <time>2026-03-18T09:48:52Z</time>
      </trkpt>
      <trkpt lat="48.29023" lon="7.38429">
        <ele>199.1</ele>
        <time>2026-03-18T09:48:57Z</time>
      </trkpt>
      <trkpt lat="48.29021" lon="7.38414">
        <ele>199</ele>
        <time>2026-03-18T09:49:02Z</time>
      </trkpt>
      <trkpt lat="48.2902" lon="7.38406">
        <ele>199.1</ele>
        <time>2026-03-18T09:49:07Z</time>
      </trkpt>
      <trkpt lat="48.2902" lon="7.38406">
        <ele>199.1</ele>
        <time>2026-03-18T09:49:12Z</time>
      </trkpt>
      <trkpt lat="48.29023" lon="7.38389">
        <ele>199.4</ele>
        <time>2026-03-18T09:49:17Z</time>
      </trkpt>
      <trkpt lat="48.29025" lon="7.38386">
        <ele>199.6</ele>
        <time>2026-03-18T09:49:22Z</time>
      </trkpt>
      <trkpt lat="48.29025" lon="7.3837">
        <ele>199.8</ele>
        <time>2026-03-18T09:49:27Z</time>
      </trkpt>
      <trkpt lat="48.29025" lon="7.38365">
        <ele>199.8</ele>
        <time>2026-03-18T09:49:32Z</time>
      </trkpt>
      <trkpt lat="48.29024" lon="7.38344">
        <ele>200</ele>
        <time>2026-03-18T09:49:37Z</time>
      </trkpt>
      <trkpt lat="48.29024" lon="7.38342">
        <ele>200</ele>
        <time>2026-03-18T09:49:42Z</time>
      </trkpt>
      <trkpt lat="48.29016" lon="7.3833">
        <ele>199.8</ele>
        <time>2026-03-18T09:49:47Z</time>
      </trkpt>
      <trkpt lat="48.29014" lon="7.38329">
        <ele>199.7</ele>
        <time>2026-03-18T09:49:52Z</time>
      </trkpt>
      <trkpt lat="48.29005" lon="7.38325">
        <ele>199.3</ele>
        <time>2026-03-18T09:49:57Z</time>
      </trkpt>
      <trkpt lat="48.29001" lon="7.38327">
        <ele>199</ele>
        <time>2026-03-18T09:50:02Z</time>
      </trkpt>
      <trkpt lat="48.28997" lon="7.3834">
        <ele>198.9</ele>
        <time>2026-03-18T09:50:07Z</time>
      </trkpt>
      <trkpt lat="48.28996" lon="7.38342">
        <ele>198.9</ele>
        <time>2026-03-18T09:50:12Z</time>
      </trkpt>
      <trkpt lat="48.2899" lon="7.38357">
        <ele>198.8</ele>
        <time>2026-03-18T09:50:17Z</time>
      </trkpt>
      <trkpt lat="48.28989" lon="7.38358">
        <ele>198.7</ele>
        <time>2026-03-18T09:50:22Z</time>
      </trkpt>
      <trkpt lat="48.28989" lon="7.38358">
        <ele>198.7</ele>
        <time>2026-03-18T09:50:27Z</time>
      </trkpt>
      <trkpt lat="48.2898" lon="7.38364">
        <ele>198.7</ele>
        <time>2026-03-18T09:50:32Z</time>
      </trkpt>
      <trkpt lat="48.2898" lon="7.38364">
        <ele>198.7</ele>
        <time>2026-03-18T09:50:37Z</time>
      </trkpt>
      <trkpt lat="48.2898" lon="7.38364">
        <ele>198.7</ele>
        <time>2026-03-18T09:50:42Z</time>
      </trkpt>
      <trkpt lat="48.2898" lon="7.38364">
        <ele>198.7</ele>
        <time>2026-03-18T09:50:47Z</time>
      </trkpt>
      <trkpt lat="48.2898" lon="7.38364">
        <ele>198.7</ele>
        <time>2026-03-18T09:50:52Z</time>
      </trkpt>
      <trkpt lat="48.2898" lon="7.38364">
        <ele>198.7</ele>
        <time>2026-03-18T09:50:57Z</time>
      </trkpt>
      <trkpt lat="48.2898" lon="7.38364">
        <ele>198.7</ele>
        <time>2026-03-18T09:51:02Z</time>
      </trkpt>
      <trkpt lat="48.2898" lon="7.38364">
        <ele>198.7</ele>
        <time>2026-03-18T09:51:07Z</time>
      </trkpt>
      <trkpt lat="48.28973" lon="7.38374">
        <ele>198.7</ele>
        <time>2026-03-18T09:51:12Z</time>
      </trkpt>
      <trkpt lat="48.28973" lon="7.38374">
        <ele>198.7</ele>
        <time>2026-03-18T09:51:17Z</time>
      </trkpt>
      <trkpt lat="48.28964" lon="7.38391">
        <ele>198.6</ele>
        <time>2026-03-18T09:51:22Z</time>
      </trkpt>
      <trkpt lat="48.28958" lon="7.384">
        <ele>198.6</ele>
        <time>2026-03-18T09:51:27Z</time>
      </trkpt>
      <trkpt lat="48.28951" lon="7.38407">
        <ele>198.6</ele>
        <time>2026-03-18T09:51:32Z</time>
      </trkpt>
      <trkpt lat="48.2895" lon="7.38407">
        <ele>198.6</ele>
        <time>2026-03-18T09:51:37Z</time>
      </trkpt>
      <trkpt lat="48.2894" lon="7.38412">
        <ele>198.7</ele>
        <time>2026-03-18T09:51:42Z</time>
      </trkpt>
      <trkpt lat="48.28934" lon="7.3842">
        <ele>198.8</ele>
        <time>2026-03-18T09:51:47Z</time>
      </trkpt>
      <trkpt lat="48.28931" lon="7.38429">
        <ele>198.8</ele>
        <time>2026-03-18T09:51:52Z</time>
      </trkpt>
      <trkpt lat="48.28927" lon="7.38436">
        <ele>198.8</ele>
        <time>2026-03-18T09:51:57Z</time>
      </trkpt>
      <trkpt lat="48.28923" lon="7.38445">
        <ele>198.9</ele>
        <time>2026-03-18T09:52:02Z</time>
      </trkpt>
      <trkpt lat="48.28921" lon="7.38457">
        <ele>198.9</ele>
        <time>2026-03-18T09:52:07Z</time>
      </trkpt>
      <trkpt lat="48.28919" lon="7.38468">
        <ele>199</ele>
        <time>2026-03-18T09:52:12Z</time>
      </trkpt>
      <trkpt lat="48.28916" lon="7.38473">
        <ele>199</ele>
        <time>2026-03-18T09:52:17Z</time>
      </trkpt>
      <trkpt lat="48.28916" lon="7.38473">
        <ele>199</ele>
        <time>2026-03-18T09:52:22Z</time>
      </trkpt>
      <trkpt lat="48.28906" lon="7.38485">
        <ele>198.9</ele>
        <time>2026-03-18T09:52:27Z</time>
      </trkpt>
      <trkpt lat="48.289" lon="7.38493">
        <ele>198.8</ele>
        <time>2026-03-18T09:52:32Z</time>
      </trkpt>
      <trkpt lat="48.28895" lon="7.38499">
        <ele>198.7</ele>
        <time>2026-03-18T09:52:37Z</time>
      </trkpt>
      <trkpt lat="48.28894" lon="7.38501">
        <ele>198.7</ele>
        <time>2026-03-18T09:52:42Z</time>
      </trkpt>
      <trkpt lat="48.28889" lon="7.38513">
        <ele>198.5</ele>
        <time>2026-03-18T09:52:47Z</time>
      </trkpt>
      <trkpt lat="48.28886" lon="7.38516">
        <ele>198.4</ele>
        <time>2026-03-18T09:52:52Z</time>
      </trkpt>
      <trkpt lat="48.28879" lon="7.38528">
        <ele>198.2</ele>
        <time>2026-03-18T09:52:57Z</time>
      </trkpt>
      <trkpt lat="48.28875" lon="7.38533">
        <ele>198.1</ele>
        <time>2026-03-18T09:53:02Z</time>
      </trkpt>
      <trkpt lat="48.28875" lon="7.38533">
        <ele>198.1</ele>
        <time>2026-03-18T09:53:07Z</time>
      </trkpt>
      <trkpt lat="48.28866" lon="7.38546">
        <ele>198</ele>
        <time>2026-03-18T09:53:12Z</time>
      </trkpt>
      <trkpt lat="48.28866" lon="7.38546">
        <ele>198</ele>
        <time>2026-03-18T09:53:17Z</time>
      </trkpt>
      <trkpt lat="48.28858" lon="7.38555">
        <ele>197.9</ele>
        <time>2026-03-18T09:53:22Z</time>
      </trkpt>
      <trkpt lat="48.28857" lon="7.38555">
        <ele>197.9</ele>
        <time>2026-03-18T09:53:27Z</time>
      </trkpt>
      <trkpt lat="48.28857" lon="7.38555">
        <ele>197.9</ele>
        <time>2026-03-18T09:53:32Z</time>
      </trkpt>
      <trkpt lat="48.28857" lon="7.38555">
        <ele>197.9</ele>
        <time>2026-03-18T09:53:37Z</time>
      </trkpt>
      <trkpt lat="48.28857" lon="7.38555">
        <ele>197.9</ele>
        <time>2026-03-18T09:53:42Z</time>
      </trkpt>
      <trkpt lat="48.28857" lon="7.38555">
        <ele>197.9</ele>
        <time>2026-03-18T09:53:47Z</time>
      </trkpt>
      <trkpt lat="48.28857" lon="7.38555">
        <ele>197.9</ele>
        <time>2026-03-18T09:53:52Z</time>
      </trkpt>
      <trkpt lat="48.28857" lon="7.38555">
        <ele>197.9</ele>
        <time>2026-03-18T09:53:57Z</time>
      </trkpt>
      <trkpt lat="48.28857" lon="7.38555">
        <ele>197.9</ele>
        <time>2026-03-18T09:54:02Z</time>
      </trkpt>
      <trkpt lat="48.28857" lon="7.38555">
        <ele>197.9</ele>
        <time>2026-03-18T09:54:07Z</time>
      </trkpt>
      <trkpt lat="48.28857" lon="7.38555">
        <ele>197.9</ele>
        <time>2026-03-18T09:54:12Z</time>
      </trkpt>
      <trkpt lat="48.28857" lon="7.38555">
        <ele>197.9</ele>
        <time>2026-03-18T09:54:17Z</time>
      </trkpt>
      <trkpt lat="48.28857" lon="7.38555">
        <ele>197.9</ele>
        <time>2026-03-18T09:54:22Z</time>
      </trkpt>
      <trkpt lat="48.28857" lon="7.38555">
        <ele>197.9</ele>
        <time>2026-03-18T09:54:27Z</time>
      </trkpt>
      <trkpt lat="48.28857" lon="7.38555">
        <ele>197.9</ele>
        <time>2026-03-18T09:54:32Z</time>
      </trkpt>
      <trkpt lat="48.28847" lon="7.38561">
        <ele>197.9</ele>
        <time>2026-03-18T09:54:37Z</time>
      </trkpt>
      <trkpt lat="48.28841" lon="7.38565">
        <ele>197.9</ele>
        <time>2026-03-18T09:54:42Z</time>
      </trkpt>
      <trkpt lat="48.28841" lon="7.38565">
        <ele>197.9</ele>
        <time>2026-03-18T09:54:47Z</time>
      </trkpt>
      <trkpt lat="48.28841" lon="7.38565">
        <ele>197.9</ele>
        <time>2026-03-18T09:54:52Z</time>
      </trkpt>
      <trkpt lat="48.28841" lon="7.38565">
        <ele>197.9</ele>
        <time>2026-03-18T09:54:57Z</time>
      </trkpt>
      <trkpt lat="48.28841" lon="7.38565">
        <ele>197.9</ele>
        <time>2026-03-18T09:55:02Z</time>
      </trkpt>
      <trkpt lat="48.28841" lon="7.38565">
        <ele>197.9</ele>
        <time>2026-03-18T09:55:07Z</time>
      </trkpt>
      <trkpt lat="48.28841" lon="7.38565">
        <ele>197.9</ele>
        <time>2026-03-18T09:55:12Z</time>
      </trkpt>
      <trkpt lat="48.28832" lon="7.38578">
        <ele>198</ele>
        <time>2026-03-18T09:55:17Z</time>
      </trkpt>
      <trkpt lat="48.28827" lon="7.38589">
        <ele>198</ele>
        <time>2026-03-18T09:55:22Z</time>
      </trkpt>
      <trkpt lat="48.28824" lon="7.38601">
        <ele>198</ele>
        <time>2026-03-18T09:55:27Z</time>
      </trkpt>
      <trkpt lat="48.28822" lon="7.38605">
        <ele>198</ele>
        <time>2026-03-18T09:55:32Z</time>
      </trkpt>
      <trkpt lat="48.28822" lon="7.38605">
        <ele>198</ele>
        <time>2026-03-18T09:55:37Z</time>
      </trkpt>
      <trkpt lat="48.28818" lon="7.38626">
        <ele>198.1</ele>
        <time>2026-03-18T09:55:42Z</time>
      </trkpt>
      <trkpt lat="48.28812" lon="7.38635">
        <ele>198.2</ele>
        <time>2026-03-18T09:55:47Z</time>
      </trkpt>
      <trkpt lat="48.28809" lon="7.38637">
        <ele>198.2</ele>
        <time>2026-03-18T09:55:52Z</time>
      </trkpt>
      <trkpt lat="48.288" lon="7.38642">
        <ele>198.3</ele>
        <time>2026-03-18T09:55:57Z</time>
      </trkpt>
      <trkpt lat="48.28794" lon="7.38646">
        <ele>198.4</ele>
        <time>2026-03-18T09:56:02Z</time>
      </trkpt>
      <trkpt lat="48.28788" lon="7.38651">
        <ele>198.4</ele>
        <time>2026-03-18T09:56:07Z</time>
      </trkpt>
      <trkpt lat="48.28784" lon="7.38653">
        <ele>198.5</ele>
        <time>2026-03-18T09:56:12Z</time>
      </trkpt>
      <trkpt lat="48.28775" lon="7.38663">
        <ele>198.7</ele>
        <time>2026-03-18T09:56:17Z</time>
      </trkpt>
      <trkpt lat="48.28769" lon="7.38672">
        <ele>198.7</ele>
        <time>2026-03-18T09:56:22Z</time>
      </trkpt>
      <trkpt lat="48.28763" lon="7.38681">
        <ele>198.6</ele>
        <time>2026-03-18T09:56:27Z</time>
      </trkpt>
      <trkpt lat="48.28759" lon="7.3869">
        <ele>198.4</ele>
        <time>2026-03-18T09:56:32Z</time>
      </trkpt>
      <trkpt lat="48.28754" lon="7.38699">
        <ele>198.2</ele>
        <time>2026-03-18T09:56:37Z</time>
      </trkpt>
      <trkpt lat="48.2875" lon="7.38706">
        <ele>198.1</ele>
        <time>2026-03-18T09:56:42Z</time>
      </trkpt>
      <trkpt lat="48.28745" lon="7.38714">
        <ele>197.8</ele>
        <time>2026-03-18T09:56:47Z</time>
      </trkpt>
      <trkpt lat="48.28743" lon="7.38717">
        <ele>197.8</ele>
        <time>2026-03-18T09:56:52Z</time>
      </trkpt>
      <trkpt lat="48.28737" lon="7.38728">
        <ele>197.5</ele>
        <time>2026-03-18T09:56:57Z</time>
      </trkpt>
      <trkpt lat="48.28733" lon="7.3873">
        <ele>197.4</ele>
        <time>2026-03-18T09:57:02Z</time>
      </trkpt>
      <trkpt lat="48.28725" lon="7.38739">
        <ele>197.2</ele>
        <time>2026-03-18T09:57:07Z</time>
      </trkpt>
      <trkpt lat="48.28719" lon="7.38745">
        <ele>197.1</ele>
        <time>2026-03-18T09:57:12Z</time>
      </trkpt>
      <trkpt lat="48.28717" lon="7.38747">
        <ele>197.1</ele>
        <time>2026-03-18T09:57:17Z</time>
      </trkpt>
      <trkpt lat="48.28708" lon="7.3876">
        <ele>196.9</ele>
        <time>2026-03-18T09:57:22Z</time>
      </trkpt>
      <trkpt lat="48.28706" lon="7.38763">
        <ele>196.9</ele>
        <time>2026-03-18T09:57:27Z</time>
      </trkpt>
      <trkpt lat="48.28699" lon="7.38777">
        <ele>196.8</ele>
        <time>2026-03-18T09:57:32Z</time>
      </trkpt>
      <trkpt lat="48.28694" lon="7.38779">
        <ele>196.8</ele>
        <time>2026-03-18T09:57:37Z</time>
      </trkpt>
      <trkpt lat="48.28694" lon="7.38779">
        <ele>196.8</ele>
        <time>2026-03-18T09:57:42Z</time>
      </trkpt>
      <trkpt lat="48.28681" lon="7.38788">
        <ele>196.6</ele>
        <time>2026-03-18T09:57:47Z</time>
      </trkpt>
      <trkpt lat="48.28676" lon="7.38796">
        <ele>196.5</ele>
        <time>2026-03-18T09:57:52Z</time>
      </trkpt>
      <trkpt lat="48.28671" lon="7.38806">
        <ele>196.4</ele>
        <time>2026-03-18T09:57:57Z</time>
      </trkpt>
      <trkpt lat="48.28669" lon="7.38808">
        <ele>196.3</ele>
        <time>2026-03-18T09:58:02Z</time>
      </trkpt>
      <trkpt lat="48.28668" lon="7.38826">
        <ele>196.1</ele>
        <time>2026-03-18T09:58:07Z</time>
      </trkpt>
      <trkpt lat="48.28665" lon="7.38836">
        <ele>195.9</ele>
        <time>2026-03-18T09:58:12Z</time>
      </trkpt>
      <trkpt lat="48.28661" lon="7.38845">
        <ele>195.7</ele>
        <time>2026-03-18T09:58:17Z</time>
      </trkpt>
      <trkpt lat="48.28656" lon="7.38854">
        <ele>195.5</ele>
        <time>2026-03-18T09:58:22Z</time>
      </trkpt>
      <trkpt lat="48.28654" lon="7.38858">
        <ele>195.4</ele>
        <time>2026-03-18T09:58:27Z</time>
      </trkpt>
      <trkpt lat="48.28649" lon="7.38872">
        <ele>195.2</ele>
        <time>2026-03-18T09:58:32Z</time>
      </trkpt>
      <trkpt lat="48.28646" lon="7.38882">
        <ele>195.1</ele>
        <time>2026-03-18T09:58:37Z</time>
      </trkpt>
      <trkpt lat="48.28643" lon="7.38891">
        <ele>194.9</ele>
        <time>2026-03-18T09:58:42Z</time>
      </trkpt>
      <trkpt lat="48.28638" lon="7.38899">
        <ele>194.8</ele>
        <time>2026-03-18T09:58:47Z</time>
      </trkpt>
      <trkpt lat="48.28634" lon="7.38906">
        <ele>194.7</ele>
        <time>2026-03-18T09:58:52Z</time>
      </trkpt>
      <trkpt lat="48.28633" lon="7.38907">
        <ele>194.7</ele>
        <time>2026-03-18T09:58:57Z</time>
      </trkpt>
      <trkpt lat="48.28631" lon="7.38924">
        <ele>194.5</ele>
        <time>2026-03-18T09:59:02Z</time>
      </trkpt>
      <trkpt lat="48.28632" lon="7.38933">
        <ele>194.4</ele>
        <time>2026-03-18T09:59:07Z</time>
      </trkpt>
      <trkpt lat="48.28632" lon="7.38935">
        <ele>194.4</ele>
        <time>2026-03-18T09:59:12Z</time>
      </trkpt>
      <trkpt lat="48.28631" lon="7.38951">
        <ele>194.3</ele>
        <time>2026-03-18T09:59:17Z</time>
      </trkpt>
      <trkpt lat="48.2863" lon="7.38955">
        <ele>194.2</ele>
        <time>2026-03-18T09:59:22Z</time>
      </trkpt>
      <trkpt lat="48.2863" lon="7.38955">
        <ele>194.2</ele>
        <time>2026-03-18T09:59:27Z</time>
      </trkpt>
      <trkpt lat="48.2863" lon="7.38955">
        <ele>194.2</ele>
        <time>2026-03-18T09:59:32Z</time>
      </trkpt>
      <trkpt lat="48.2863" lon="7.38955">
        <ele>194.2</ele>
        <time>2026-03-18T09:59:37Z</time>
      </trkpt>
      <trkpt lat="48.28633" lon="7.3897">
        <ele>194.1</ele>
        <time>2026-03-18T09:59:42Z</time>
      </trkpt>
      <trkpt lat="48.28631" lon="7.38982">
        <ele>194</ele>
        <time>2026-03-18T09:59:47Z</time>
      </trkpt>
      <trkpt lat="48.28629" lon="7.38992">
        <ele>194</ele>
        <time>2026-03-18T09:59:52Z</time>
      </trkpt>
      <trkpt lat="48.28625" lon="7.39002">
        <ele>194</ele>
        <time>2026-03-18T09:59:57Z</time>
      </trkpt>
      <trkpt lat="48.28624" lon="7.39007">
        <ele>194.1</ele>
        <time>2026-03-18T10:00:02Z</time>
      </trkpt>
      <trkpt lat="48.28626" lon="7.39022">
        <ele>194.2</ele>
        <time>2026-03-18T10:00:07Z</time>
      </trkpt>
      <trkpt lat="48.28629" lon="7.39033">
        <ele>194.3</ele>
        <time>2026-03-18T10:00:12Z</time>
      </trkpt>
      <trkpt lat="48.28632" lon="7.39043">
        <ele>194.4</ele>
        <time>2026-03-18T10:00:17Z</time>
      </trkpt>
      <trkpt lat="48.28632" lon="7.39043">
        <ele>194.4</ele>
        <time>2026-03-18T10:00:22Z</time>
      </trkpt>
      <trkpt lat="48.28639" lon="7.3906">
        <ele>194.6</ele>
        <time>2026-03-18T10:00:27Z</time>
      </trkpt>
      <trkpt lat="48.28643" lon="7.3907">
        <ele>194.8</ele>
        <time>2026-03-18T10:00:32Z</time>
      </trkpt>
      <trkpt lat="48.28646" lon="7.39081">
        <ele>195</ele>
        <time>2026-03-18T10:00:37Z</time>
      </trkpt>
      <trkpt lat="48.2865" lon="7.39092">
        <ele>195.3</ele>
        <time>2026-03-18T10:00:42Z</time>
      </trkpt>
      <trkpt lat="48.28655" lon="7.39099">
        <ele>195.6</ele>
        <time>2026-03-18T10:00:47Z</time>
      </trkpt>
      <trkpt lat="48.28658" lon="7.39105">
        <ele>195.9</ele>
        <time>2026-03-18T10:00:52Z</time>
      </trkpt>
      <trkpt lat="48.28658" lon="7.39105">
        <ele>195.9</ele>
        <time>2026-03-18T10:00:57Z</time>
      </trkpt>
      <trkpt lat="48.28655" lon="7.39124">
        <ele>196.7</ele>
        <time>2026-03-18T10:01:02Z</time>
      </trkpt>
      <trkpt lat="48.28651" lon="7.39138">
        <ele>197.1</ele>
        <time>2026-03-18T10:01:07Z</time>
      </trkpt>
      <trkpt lat="48.2865" lon="7.39139">
        <ele>197.1</ele>
        <time>2026-03-18T10:01:12Z</time>
      </trkpt>
      <trkpt lat="48.28644" lon="7.39157">
        <ele>197.6</ele>
        <time>2026-03-18T10:01:17Z</time>
      </trkpt>
      <trkpt lat="48.28643" lon="7.39169">
        <ele>197.9</ele>
        <time>2026-03-18T10:01:22Z</time>
      </trkpt>
      <trkpt lat="48.28644" lon="7.39178">
        <ele>198.1</ele>
        <time>2026-03-18T10:01:27Z</time>
      </trkpt>
      <trkpt lat="48.28645" lon="7.39183">
        <ele>198.3</ele>
        <time>2026-03-18T10:01:32Z</time>
      </trkpt>
      <trkpt lat="48.28646" lon="7.39197">
        <ele>198.6</ele>
        <time>2026-03-18T10:01:37Z</time>
      </trkpt>
      <trkpt lat="48.28646" lon="7.39202">
        <ele>198.8</ele>
        <time>2026-03-18T10:01:42Z</time>
      </trkpt>
      <trkpt lat="48.28653" lon="7.39214">
        <ele>199.4</ele>
        <time>2026-03-18T10:01:47Z</time>
      </trkpt>
      <trkpt lat="48.28661" lon="7.39223">
        <ele>200</ele>
        <time>2026-03-18T10:01:52Z</time>
      </trkpt>
      <trkpt lat="48.28661" lon="7.39223">
        <ele>200</ele>
        <time>2026-03-18T10:01:57Z</time>
      </trkpt>
      <trkpt lat="48.2867" lon="7.39236">
        <ele>200.5</ele>
        <time>2026-03-18T10:02:02Z</time>
      </trkpt>
      <trkpt lat="48.28672" lon="7.39243">
        <ele>200.6</ele>
        <time>2026-03-18T10:02:07Z</time>
      </trkpt>
      <trkpt lat="48.28672" lon="7.39243">
        <ele>200.6</ele>
        <time>2026-03-18T10:02:12Z</time>
      </trkpt>
      <trkpt lat="48.28669" lon="7.39266">
        <ele>200.9</ele>
        <time>2026-03-18T10:02:17Z</time>
      </trkpt>
      <trkpt lat="48.28667" lon="7.39276">
        <ele>201</ele>
        <time>2026-03-18T10:02:22Z</time>
      </trkpt>
      <trkpt lat="48.28666" lon="7.39283">
        <ele>201</ele>
        <time>2026-03-18T10:02:27Z</time>
      </trkpt>
      <trkpt lat="48.28666" lon="7.39295">
        <ele>201</ele>
        <time>2026-03-18T10:02:32Z</time>
      </trkpt>
      <trkpt lat="48.28663" lon="7.39303">
        <ele>200.8</ele>
        <time>2026-03-18T10:02:37Z</time>
      </trkpt>
      <trkpt lat="48.28661" lon="7.39313">
        <ele>200.7</ele>
        <time>2026-03-18T10:02:42Z</time>
      </trkpt>
      <trkpt lat="48.28658" lon="7.39323">
        <ele>200.5</ele>
        <time>2026-03-18T10:02:47Z</time>
      </trkpt>
      <trkpt lat="48.28655" lon="7.3933">
        <ele>200.3</ele>
        <time>2026-03-18T10:02:52Z</time>
      </trkpt>
      <trkpt lat="48.28655" lon="7.3933">
        <ele>200.3</ele>
        <time>2026-03-18T10:02:57Z</time>
      </trkpt>
      <trkpt lat="48.2865" lon="7.39345">
        <ele>199.6</ele>
        <time>2026-03-18T10:03:02Z</time>
      </trkpt>
      <trkpt lat="48.28648" lon="7.39356">
        <ele>199.2</ele>
        <time>2026-03-18T10:03:07Z</time>
      </trkpt>
      <trkpt lat="48.28648" lon="7.39359">
        <ele>199.1</ele>
        <time>2026-03-18T10:03:12Z</time>
      </trkpt>
      <trkpt lat="48.28647" lon="7.39366">
        <ele>198.8</ele>
        <time>2026-03-18T10:03:17Z</time>
      </trkpt>
      <trkpt lat="48.28644" lon="7.39373">
        <ele>198.5</ele>
        <time>2026-03-18T10:03:22Z</time>
      </trkpt>
      <trkpt lat="48.2864" lon="7.39383">
        <ele>198</ele>
        <time>2026-03-18T10:03:27Z</time>
      </trkpt>
      <trkpt lat="48.28636" lon="7.39395">
        <ele>197.5</ele>
        <time>2026-03-18T10:03:32Z</time>
      </trkpt>
      <trkpt lat="48.28634" lon="7.39406">
        <ele>197.1</ele>
        <time>2026-03-18T10:03:37Z</time>
      </trkpt>
      <trkpt lat="48.28631" lon="7.39416">
        <ele>196.7</ele>
        <time>2026-03-18T10:03:42Z</time>
      </trkpt>
      <trkpt lat="48.28627" lon="7.39427">
        <ele>196.3</ele>
        <time>2026-03-18T10:03:47Z</time>
      </trkpt>
      <trkpt lat="48.28624" lon="7.39436">
        <ele>195.9</ele>
        <time>2026-03-18T10:03:52Z</time>
      </trkpt>
      <trkpt lat="48.2862" lon="7.3945">
        <ele>195.4</ele>
        <time>2026-03-18T10:03:57Z</time>
      </trkpt>
      <trkpt lat="48.28617" lon="7.39459">
        <ele>195.1</ele>
        <time>2026-03-18T10:04:02Z</time>
      </trkpt>
      <trkpt lat="48.28614" lon="7.39466">
        <ele>194.9</ele>
        <time>2026-03-18T10:04:07Z</time>
      </trkpt>
      <trkpt lat="48.28612" lon="7.39476">
        <ele>194.6</ele>
        <time>2026-03-18T10:04:12Z</time>
      </trkpt>
      <trkpt lat="48.28614" lon="7.39486">
        <ele>194.4</ele>
        <time>2026-03-18T10:04:17Z</time>
      </trkpt>
      <trkpt lat="48.28616" lon="7.39498">
        <ele>194.1</ele>
        <time>2026-03-18T10:04:22Z</time>
      </trkpt>
      <trkpt lat="48.28616" lon="7.39499">
        <ele>194</ele>
        <time>2026-03-18T10:04:27Z</time>
      </trkpt>
      <trkpt lat="48.28619" lon="7.39518">
        <ele>194.2</ele>
        <time>2026-03-18T10:04:32Z</time>
      </trkpt>
      <trkpt lat="48.28619" lon="7.3953">
        <ele>194.4</ele>
        <time>2026-03-18T10:04:37Z</time>
      </trkpt>
      <trkpt lat="48.2862" lon="7.39541">
        <ele>194.5</ele>
        <time>2026-03-18T10:04:42Z</time>
      </trkpt>
      <trkpt lat="48.28621" lon="7.3955">
        <ele>194.6</ele>
        <time>2026-03-18T10:04:47Z</time>
      </trkpt>
      <trkpt lat="48.28621" lon="7.39561">
        <ele>194.7</ele>
        <time>2026-03-18T10:04:52Z</time>
      </trkpt>
      <trkpt lat="48.28619" lon="7.39571">
        <ele>194.9</ele>
        <time>2026-03-18T10:04:57Z</time>
      </trkpt>
      <trkpt lat="48.28618" lon="7.39576">
        <ele>194.9</ele>
        <time>2026-03-18T10:05:02Z</time>
      </trkpt>
      <trkpt lat="48.28611" lon="7.39589">
        <ele>195</ele>
        <time>2026-03-18T10:05:07Z</time>
      </trkpt>
      <trkpt lat="48.28606" lon="7.39596">
        <ele>195.1</ele>
        <time>2026-03-18T10:05:12Z</time>
      </trkpt>
      <trkpt lat="48.28604" lon="7.39599">
        <ele>195.1</ele>
        <time>2026-03-18T10:05:17Z</time>
      </trkpt>
      <trkpt lat="48.28596" lon="7.39609">
        <ele>195.2</ele>
        <time>2026-03-18T10:05:22Z</time>
      </trkpt>
      <trkpt lat="48.28593" lon="7.39617">
        <ele>195.3</ele>
        <time>2026-03-18T10:05:27Z</time>
      </trkpt>
      <trkpt lat="48.28589" lon="7.39625">
        <ele>195.4</ele>
        <time>2026-03-18T10:05:32Z</time>
      </trkpt>
      <trkpt lat="48.28586" lon="7.39629">
        <ele>195.5</ele>
        <time>2026-03-18T10:05:37Z</time>
      </trkpt>
      <trkpt lat="48.28586" lon="7.39629">
        <ele>195.5</ele>
        <time>2026-03-18T10:05:42Z</time>
      </trkpt>
      <trkpt lat="48.28577" lon="7.39643">
        <ele>195.5</ele>
        <time>2026-03-18T10:05:47Z</time>
      </trkpt>
      <trkpt lat="48.2857" lon="7.3965">
        <ele>195.4</ele>
        <time>2026-03-18T10:05:52Z</time>
      </trkpt>
      <trkpt lat="48.28565" lon="7.39655">
        <ele>195.2</ele>
        <time>2026-03-18T10:05:57Z</time>
      </trkpt>
      <trkpt lat="48.28559" lon="7.39662">
        <ele>195.1</ele>
        <time>2026-03-18T10:06:02Z</time>
      </trkpt>
      <trkpt lat="48.28554" lon="7.39669">
        <ele>194.9</ele>
        <time>2026-03-18T10:06:07Z</time>
      </trkpt>
      <trkpt lat="48.28548" lon="7.39678">
        <ele>194.6</ele>
        <time>2026-03-18T10:06:12Z</time>
      </trkpt>
      <trkpt lat="48.28544" lon="7.39687">
        <ele>194.3</ele>
        <time>2026-03-18T10:06:17Z</time>
      </trkpt>
      <trkpt lat="48.28542" lon="7.39696">
        <ele>194.2</ele>
        <time>2026-03-18T10:06:22Z</time>
      </trkpt>
      <trkpt lat="48.28539" lon="7.39706">
        <ele>194</ele>
        <time>2026-03-18T10:06:27Z</time>
      </trkpt>
      <trkpt lat="48.28536" lon="7.39716">
        <ele>193.9</ele>
        <time>2026-03-18T10:06:32Z</time>
      </trkpt>
      <trkpt lat="48.28536" lon="7.39722">
        <ele>193.8</ele>
        <time>2026-03-18T10:06:37Z</time>
      </trkpt>
      <trkpt lat="48.28531" lon="7.39736">
        <ele>193.7</ele>
        <time>2026-03-18T10:06:42Z</time>
      </trkpt>
      <trkpt lat="48.28528" lon="7.39747">
        <ele>193.7</ele>
        <time>2026-03-18T10:06:47Z</time>
      </trkpt>
      <trkpt lat="48.28525" lon="7.39758">
        <ele>193.4</ele>
        <time>2026-03-18T10:06:52Z</time>
      </trkpt>
      <trkpt lat="48.28523" lon="7.39763">
        <ele>193.2</ele>
        <time>2026-03-18T10:06:57Z</time>
      </trkpt>
      <trkpt lat="48.28519" lon="7.39777">
        <ele>192.6</ele>
        <time>2026-03-18T10:07:02Z</time>
      </trkpt>
      <trkpt lat="48.28514" lon="7.39787">
        <ele>192.2</ele>
        <time>2026-03-18T10:07:07Z</time>
      </trkpt>
      <trkpt lat="48.28508" lon="7.39796">
        <ele>191.8</ele>
        <time>2026-03-18T10:07:12Z</time>
      </trkpt>
      <trkpt lat="48.28501" lon="7.39803">
        <ele>191.5</ele>
        <time>2026-03-18T10:07:17Z</time>
      </trkpt>
      <trkpt lat="48.28496" lon="7.39806">
        <ele>191.3</ele>
        <time>2026-03-18T10:07:22Z</time>
      </trkpt>
      <trkpt lat="48.2849" lon="7.39811">
        <ele>191.2</ele>
        <time>2026-03-18T10:07:27Z</time>
      </trkpt>
      <trkpt lat="48.28488" lon="7.39815">
        <ele>191</ele>
        <time>2026-03-18T10:07:32Z</time>
      </trkpt>
      <trkpt lat="48.2848" lon="7.39819">
        <ele>191</ele>
        <time>2026-03-18T10:07:37Z</time>
      </trkpt>
      <trkpt lat="48.28478" lon="7.39819">
        <ele>191</ele>
        <time>2026-03-18T10:07:42Z</time>
      </trkpt>
      <trkpt lat="48.28473" lon="7.39804">
        <ele>191.6</ele>
        <time>2026-03-18T10:07:47Z</time>
      </trkpt>
      <trkpt lat="48.28472" lon="7.39802">
        <ele>191.7</ele>
        <time>2026-03-18T10:07:52Z</time>
      </trkpt>
      <trkpt lat="48.28472" lon="7.39802">
        <ele>191.7</ele>
        <time>2026-03-18T10:07:57Z</time>
      </trkpt>
      <trkpt lat="48.28472" lon="7.39802">
        <ele>191.7</ele>
        <time>2026-03-18T10:08:02Z</time>
      </trkpt>
      <trkpt lat="48.28463" lon="7.39796">
        <ele>191.9</ele>
        <time>2026-03-18T10:08:07Z</time>
      </trkpt>
      <trkpt lat="48.28463" lon="7.39796">
        <ele>191.9</ele>
        <time>2026-03-18T10:08:12Z</time>
      </trkpt>
      <trkpt lat="48.28463" lon="7.39796">
        <ele>191.9</ele>
        <time>2026-03-18T10:08:17Z</time>
      </trkpt>
      <trkpt lat="48.28463" lon="7.39796">
        <ele>191.9</ele>
        <time>2026-03-18T10:08:22Z</time>
      </trkpt>
      <trkpt lat="48.28471" lon="7.39806">
        <ele>191.6</ele>
        <time>2026-03-18T10:08:27Z</time>
      </trkpt>
      <trkpt lat="48.28477" lon="7.39812">
        <ele>191.3</ele>
        <time>2026-03-18T10:08:32Z</time>
      </trkpt>
      <trkpt lat="48.28479" lon="7.39822">
        <ele>190.9</ele>
        <time>2026-03-18T10:08:37Z</time>
      </trkpt>
      <trkpt lat="48.28475" lon="7.39832">
        <ele>190.6</ele>
        <time>2026-03-18T10:08:42Z</time>
      </trkpt>
      <trkpt lat="48.28467" lon="7.39839">
        <ele>190.7</ele>
        <time>2026-03-18T10:08:47Z</time>
      </trkpt>
      <trkpt lat="48.2846" lon="7.39844">
        <ele>190.8</ele>
        <time>2026-03-18T10:08:52Z</time>
      </trkpt>
      <trkpt lat="48.28454" lon="7.3985">
        <ele>190.9</ele>
        <time>2026-03-18T10:08:57Z</time>
      </trkpt>
      <trkpt lat="48.28451" lon="7.39854">
        <ele>190.9</ele>
        <time>2026-03-18T10:09:02Z</time>
      </trkpt>
      <trkpt lat="48.28447" lon="7.39857">
        <ele>191</ele>
        <time>2026-03-18T10:09:07Z</time>
      </trkpt>
      <trkpt lat="48.28443" lon="7.39862">
        <ele>191</ele>
        <time>2026-03-18T10:09:12Z</time>
      </trkpt>
      <trkpt lat="48.28439" lon="7.39865">
        <ele>191.1</ele>
        <time>2026-03-18T10:09:17Z</time>
      </trkpt>
      <trkpt lat="48.28432" lon="7.39872">
        <ele>191.2</ele>
        <time>2026-03-18T10:09:22Z</time>
      </trkpt>
      <trkpt lat="48.28425" lon="7.39881">
        <ele>191.2</ele>
        <time>2026-03-18T10:09:27Z</time>
      </trkpt>
      <trkpt lat="48.28419" lon="7.39887">
        <ele>191.3</ele>
        <time>2026-03-18T10:09:32Z</time>
      </trkpt>
      <trkpt lat="48.28414" lon="7.39892">
        <ele>191.4</ele>
        <time>2026-03-18T10:09:37Z</time>
      </trkpt>
      <trkpt lat="48.28413" lon="7.39898">
        <ele>191.3</ele>
        <time>2026-03-18T10:09:42Z</time>
      </trkpt>
      <trkpt lat="48.28408" lon="7.39908">
        <ele>191.3</ele>
        <time>2026-03-18T10:09:47Z</time>
      </trkpt>
      <trkpt lat="48.28403" lon="7.39917">
        <ele>191.3</ele>
        <time>2026-03-18T10:09:52Z</time>
      </trkpt>
      <trkpt lat="48.28401" lon="7.39921">
        <ele>191.3</ele>
        <time>2026-03-18T10:09:57Z</time>
      </trkpt>
      <trkpt lat="48.28396" lon="7.39934">
        <ele>191</ele>
        <time>2026-03-18T10:10:02Z</time>
      </trkpt>
      <trkpt lat="48.28396" lon="7.39934">
        <ele>191</ele>
        <time>2026-03-18T10:10:07Z</time>
      </trkpt>
      <trkpt lat="48.28396" lon="7.39934">
        <ele>191</ele>
        <time>2026-03-18T10:10:12Z</time>
      </trkpt>
      <trkpt lat="48.28396" lon="7.39934">
        <ele>191</ele>
        <time>2026-03-18T10:10:17Z</time>
      </trkpt>
      <trkpt lat="48.28396" lon="7.39934">
        <ele>191</ele>
        <time>2026-03-18T10:10:22Z</time>
      </trkpt>
      <trkpt lat="48.28396" lon="7.39934">
        <ele>191</ele>
        <time>2026-03-18T10:10:27Z</time>
      </trkpt>
      <trkpt lat="48.28396" lon="7.39949">
        <ele>190.6</ele>
        <time>2026-03-18T10:10:32Z</time>
      </trkpt>
      <trkpt lat="48.28391" lon="7.39959">
        <ele>190.4</ele>
        <time>2026-03-18T10:10:37Z</time>
      </trkpt>
      <trkpt lat="48.28387" lon="7.39968">
        <ele>190.3</ele>
        <time>2026-03-18T10:10:42Z</time>
      </trkpt>
      <trkpt lat="48.28384" lon="7.39977">
        <ele>190.1</ele>
        <time>2026-03-18T10:10:47Z</time>
      </trkpt>
      <trkpt lat="48.2838" lon="7.39987">
        <ele>189.8</ele>
        <time>2026-03-18T10:10:52Z</time>
      </trkpt>
      <trkpt lat="48.28377" lon="7.39996">
        <ele>189.6</ele>
        <time>2026-03-18T10:10:57Z</time>
      </trkpt>
      <trkpt lat="48.28372" lon="7.40007">
        <ele>189.4</ele>
        <time>2026-03-18T10:11:02Z</time>
      </trkpt>
      <trkpt lat="48.28367" lon="7.40018">
        <ele>189.3</ele>
        <time>2026-03-18T10:11:07Z</time>
      </trkpt>
      <trkpt lat="48.28361" lon="7.40024">
        <ele>189.3</ele>
        <time>2026-03-18T10:11:12Z</time>
      </trkpt>
      <trkpt lat="48.28355" lon="7.40031">
        <ele>189.2</ele>
        <time>2026-03-18T10:11:17Z</time>
      </trkpt>
      <trkpt lat="48.2835" lon="7.40038">
        <ele>189.1</ele>
        <time>2026-03-18T10:11:22Z</time>
      </trkpt>
      <trkpt lat="48.28344" lon="7.40042">
        <ele>189</ele>
        <time>2026-03-18T10:11:27Z</time>
      </trkpt>
      <trkpt lat="48.28337" lon="7.40047">
        <ele>188.9</ele>
        <time>2026-03-18T10:11:32Z</time>
      </trkpt>
      <trkpt lat="48.2833" lon="7.40051">
        <ele>188.9</ele>
        <time>2026-03-18T10:11:37Z</time>
      </trkpt>
      <trkpt lat="48.28323" lon="7.40055">
        <ele>189.1</ele>
        <time>2026-03-18T10:11:42Z</time>
      </trkpt>
      <trkpt lat="48.28317" lon="7.40057">
        <ele>189.4</ele>
        <time>2026-03-18T10:11:47Z</time>
      </trkpt>
      <trkpt lat="48.28311" lon="7.40059">
        <ele>189.6</ele>
        <time>2026-03-18T10:11:52Z</time>
      </trkpt>
      <trkpt lat="48.28303" lon="7.40062">
        <ele>189.9</ele>
        <time>2026-03-18T10:11:57Z</time>
      </trkpt>
      <trkpt lat="48.28296" lon="7.40064">
        <ele>190.2</ele>
        <time>2026-03-18T10:12:02Z</time>
      </trkpt>
      <trkpt lat="48.28289" lon="7.40068">
        <ele>190.4</ele>
        <time>2026-03-18T10:12:07Z</time>
      </trkpt>
      <trkpt lat="48.28281" lon="7.40071">
        <ele>190.7</ele>
        <time>2026-03-18T10:12:12Z</time>
      </trkpt>
      <trkpt lat="48.28276" lon="7.40075">
        <ele>190.9</ele>
        <time>2026-03-18T10:12:17Z</time>
      </trkpt>
      <trkpt lat="48.2827" lon="7.40082">
        <ele>191.1</ele>
        <time>2026-03-18T10:12:22Z</time>
      </trkpt>
      <trkpt lat="48.28267" lon="7.40086">
        <ele>191.2</ele>
        <time>2026-03-18T10:12:27Z</time>
      </trkpt>
      <trkpt lat="48.28267" lon="7.40086">
        <ele>191.2</ele>
        <time>2026-03-18T10:12:32Z</time>
      </trkpt>
      <trkpt lat="48.28257" lon="7.40098">
        <ele>191.5</ele>
        <time>2026-03-18T10:12:37Z</time>
      </trkpt>
      <trkpt lat="48.28252" lon="7.40107">
        <ele>191.6</ele>
        <time>2026-03-18T10:12:42Z</time>
      </trkpt>
      <trkpt lat="48.28247" lon="7.40118">
        <ele>191.6</ele>
        <time>2026-03-18T10:12:47Z</time>
      </trkpt>
      <trkpt lat="48.28241" lon="7.40124">
        <ele>191.5</ele>
        <time>2026-03-18T10:12:52Z</time>
      </trkpt>
      <trkpt lat="48.28235" lon="7.4013">
        <ele>191.5</ele>
        <time>2026-03-18T10:12:57Z</time>
      </trkpt>
      <trkpt lat="48.28231" lon="7.40136">
        <ele>191.4</ele>
        <time>2026-03-18T10:13:02Z</time>
      </trkpt>
      <trkpt lat="48.28227" lon="7.40142">
        <ele>191.4</ele>
        <time>2026-03-18T10:13:07Z</time>
      </trkpt>
      <trkpt lat="48.28221" lon="7.40147">
        <ele>191.4</ele>
        <time>2026-03-18T10:13:12Z</time>
      </trkpt>
      <trkpt lat="48.28216" lon="7.40152">
        <ele>191.4</ele>
        <time>2026-03-18T10:13:17Z</time>
      </trkpt>
      <trkpt lat="48.28209" lon="7.40158">
        <ele>191.5</ele>
        <time>2026-03-18T10:13:22Z</time>
      </trkpt>
      <trkpt lat="48.28203" lon="7.40165">
        <ele>191.6</ele>
        <time>2026-03-18T10:13:27Z</time>
      </trkpt>
      <trkpt lat="48.28201" lon="7.40174">
        <ele>191.6</ele>
        <time>2026-03-18T10:13:32Z</time>
      </trkpt>
      <trkpt lat="48.28207" lon="7.40182">
        <ele>191.5</ele>
        <time>2026-03-18T10:13:37Z</time>
      </trkpt>
      <trkpt lat="48.28215" lon="7.40187">
        <ele>191.5</ele>
        <time>2026-03-18T10:13:42Z</time>
      </trkpt>
      <trkpt lat="48.28222" lon="7.40191">
        <ele>191.4</ele>
        <time>2026-03-18T10:13:47Z</time>
      </trkpt>
      <trkpt lat="48.28228" lon="7.40197">
        <ele>191.4</ele>
        <time>2026-03-18T10:13:52Z</time>
      </trkpt>
      <trkpt lat="48.28234" lon="7.40203">
        <ele>191.5</ele>
        <time>2026-03-18T10:13:57Z</time>
      </trkpt>
      <trkpt lat="48.28239" lon="7.40208">
        <ele>191.5</ele>
        <time>2026-03-18T10:14:02Z</time>
      </trkpt>
      <trkpt lat="48.28243" lon="7.40214">
        <ele>191.6</ele>
        <time>2026-03-18T10:14:07Z</time>
      </trkpt>
      <trkpt lat="48.28243" lon="7.40221">
        <ele>191.6</ele>
        <time>2026-03-18T10:14:12Z</time>
      </trkpt>
      <trkpt lat="48.28243" lon="7.40221">
        <ele>191.6</ele>
        <time>2026-03-18T10:14:17Z</time>
      </trkpt>
      <trkpt lat="48.28243" lon="7.40221">
        <ele>191.6</ele>
        <time>2026-03-18T10:14:22Z</time>
      </trkpt>
      <trkpt lat="48.28243" lon="7.40221">
        <ele>191.6</ele>
        <time>2026-03-18T10:14:27Z</time>
      </trkpt>
      <trkpt lat="48.28253" lon="7.40228">
        <ele>191.7</ele>
        <time>2026-03-18T10:14:32Z</time>
      </trkpt>
      <trkpt lat="48.28259" lon="7.40232">
        <ele>191.7</ele>
        <time>2026-03-18T10:14:37Z</time>
      </trkpt>
      <trkpt lat="48.2826" lon="7.4024">
        <ele>191.9</ele>
        <time>2026-03-18T10:14:42Z</time>
      </trkpt>
      <trkpt lat="48.28261" lon="7.40243">
        <ele>191.9</ele>
        <time>2026-03-18T10:14:47Z</time>
      </trkpt>
      <trkpt lat="48.28261" lon="7.40243">
        <ele>191.9</ele>
        <time>2026-03-18T10:14:52Z</time>
      </trkpt>
      <trkpt lat="48.28261" lon="7.40243">
        <ele>191.9</ele>
        <time>2026-03-18T10:14:57Z</time>
      </trkpt>
      <trkpt lat="48.28261" lon="7.40243">
        <ele>191.9</ele>
        <time>2026-03-18T10:15:02Z</time>
      </trkpt>
      <trkpt lat="48.28261" lon="7.40243">
        <ele>191.9</ele>
        <time>2026-03-18T10:15:07Z</time>
      </trkpt>
      <trkpt lat="48.28261" lon="7.40243">
        <ele>191.9</ele>
        <time>2026-03-18T10:15:12Z</time>
      </trkpt>
      <trkpt lat="48.28261" lon="7.40243">
        <ele>191.9</ele>
        <time>2026-03-18T10:15:17Z</time>
      </trkpt>
      <trkpt lat="48.28261" lon="7.40243">
        <ele>191.9</ele>
        <time>2026-03-18T10:15:22Z</time>
      </trkpt>
      <trkpt lat="48.28258" lon="7.40248">
        <ele>192</ele>
        <time>2026-03-18T10:15:27Z</time>
      </trkpt>
      <trkpt lat="48.28253" lon="7.40245">
        <ele>191.9</ele>
        <time>2026-03-18T10:15:32Z</time>
      </trkpt>
      <trkpt lat="48.28248" lon="7.40244">
        <ele>191.9</ele>
        <time>2026-03-18T10:15:37Z</time>
      </trkpt>
      <trkpt lat="48.28243" lon="7.40243">
        <ele>191.8</ele>
        <time>2026-03-18T10:15:42Z</time>
      </trkpt>
      <trkpt lat="48.28237" lon="7.40241">
        <ele>191.8</ele>
        <time>2026-03-18T10:15:47Z</time>
      </trkpt>
      <trkpt lat="48.28233" lon="7.40236">
        <ele>191.7</ele>
        <time>2026-03-18T10:15:52Z</time>
      </trkpt>
      <trkpt lat="48.28229" lon="7.4023">
        <ele>191.6</ele>
        <time>2026-03-18T10:15:57Z</time>
      </trkpt>
      <trkpt lat="48.28222" lon="7.40227">
        <ele>191.6</ele>
        <time>2026-03-18T10:16:02Z</time>
      </trkpt>
      <trkpt lat="48.28215" lon="7.40226">
        <ele>191.5</ele>
        <time>2026-03-18T10:16:07Z</time>
      </trkpt>
      <trkpt lat="48.28208" lon="7.40224">
        <ele>191.5</ele>
        <time>2026-03-18T10:16:12Z</time>
      </trkpt>
      <trkpt lat="48.28201" lon="7.40222">
        <ele>191.5</ele>
        <time>2026-03-18T10:16:17Z</time>
      </trkpt>
      <trkpt lat="48.28195" lon="7.40218">
        <ele>191.5</ele>
        <time>2026-03-18T10:16:22Z</time>
      </trkpt>
      <trkpt lat="48.2819" lon="7.40217">
        <ele>191.5</ele>
        <time>2026-03-18T10:16:27Z</time>
      </trkpt>
      <trkpt lat="48.2819" lon="7.40217">
        <ele>191.5</ele>
        <time>2026-03-18T10:16:32Z</time>
      </trkpt>
      <trkpt lat="48.28182" lon="7.40215">
        <ele>191.4</ele>
        <time>2026-03-18T10:16:37Z</time>
      </trkpt>
      <trkpt lat="48.28175" lon="7.40214">
        <ele>191.4</ele>
        <time>2026-03-18T10:16:42Z</time>
      </trkpt>
      <trkpt lat="48.28168" lon="7.40214">
        <ele>191.4</ele>
        <time>2026-03-18T10:16:47Z</time>
      </trkpt>
      <trkpt lat="48.28162" lon="7.40216">
        <ele>191.4</ele>
        <time>2026-03-18T10:16:52Z</time>
      </trkpt>
      <trkpt lat="48.28154" lon="7.40215">
        <ele>191.3</ele>
        <time>2026-03-18T10:16:57Z</time>
      </trkpt>
      <trkpt lat="48.28149" lon="7.40213">
        <ele>191.3</ele>
        <time>2026-03-18T10:17:02Z</time>
      </trkpt>
      <trkpt lat="48.28147" lon="7.40212">
        <ele>191.2</ele>
        <time>2026-03-18T10:17:07Z</time>
      </trkpt>
      <trkpt lat="48.28147" lon="7.40212">
        <ele>191.2</ele>
        <time>2026-03-18T10:17:12Z</time>
      </trkpt>
      <trkpt lat="48.28138" lon="7.4021">
        <ele>191.1</ele>
        <time>2026-03-18T10:17:17Z</time>
      </trkpt>
      <trkpt lat="48.28131" lon="7.40209">
        <ele>191.1</ele>
        <time>2026-03-18T10:17:22Z</time>
      </trkpt>
      <trkpt lat="48.28123" lon="7.40208">
        <ele>191</ele>
        <time>2026-03-18T10:17:27Z</time>
      </trkpt>
      <trkpt lat="48.28117" lon="7.40209">
        <ele>190.9</ele>
        <time>2026-03-18T10:17:32Z</time>
      </trkpt>
      <trkpt lat="48.2811" lon="7.40208">
        <ele>190.8</ele>
        <time>2026-03-18T10:17:37Z</time>
      </trkpt>
      <trkpt lat="48.28104" lon="7.40208">
        <ele>190.7</ele>
        <time>2026-03-18T10:17:42Z</time>
      </trkpt>
      <trkpt lat="48.28097" lon="7.40206">
        <ele>190.6</ele>
        <time>2026-03-18T10:17:47Z</time>
      </trkpt>
      <trkpt lat="48.2809" lon="7.40206">
        <ele>190.6</ele>
        <time>2026-03-18T10:17:52Z</time>
      </trkpt>
      <trkpt lat="48.28082" lon="7.40205">
        <ele>190.5</ele>
        <time>2026-03-18T10:17:57Z</time>
      </trkpt>
      <trkpt lat="48.28074" lon="7.40205">
        <ele>190.6</ele>
        <time>2026-03-18T10:18:02Z</time>
      </trkpt>
      <trkpt lat="48.28068" lon="7.40202">
        <ele>190.6</ele>
        <time>2026-03-18T10:18:07Z</time>
      </trkpt>
      <trkpt lat="48.2806" lon="7.40202">
        <ele>190.7</ele>
        <time>2026-03-18T10:18:12Z</time>
      </trkpt>
      <trkpt lat="48.28052" lon="7.40201">
        <ele>190.8</ele>
        <time>2026-03-18T10:18:17Z</time>
      </trkpt>
      <trkpt lat="48.28045" lon="7.402">
        <ele>190.9</ele>
        <time>2026-03-18T10:18:22Z</time>
      </trkpt>
      <trkpt lat="48.28037" lon="7.40199">
        <ele>190.9</ele>
        <time>2026-03-18T10:18:27Z</time>
      </trkpt>
      <trkpt lat="48.28031" lon="7.40198">
        <ele>191</ele>
        <time>2026-03-18T10:18:32Z</time>
      </trkpt>
      <trkpt lat="48.28025" lon="7.40197">
        <ele>191.1</ele>
        <time>2026-03-18T10:18:37Z</time>
      </trkpt>
      <trkpt lat="48.28016" lon="7.40197">
        <ele>191.2</ele>
        <time>2026-03-18T10:18:42Z</time>
      </trkpt>
      <trkpt lat="48.28008" lon="7.40196">
        <ele>191.3</ele>
        <time>2026-03-18T10:18:47Z</time>
      </trkpt>
      <trkpt lat="48.28001" lon="7.40196">
        <ele>191.3</ele>
        <time>2026-03-18T10:18:52Z</time>
      </trkpt>
      <trkpt lat="48.27995" lon="7.40196">
        <ele>191.4</ele>
        <time>2026-03-18T10:18:57Z</time>
      </trkpt>
      <trkpt lat="48.27987" lon="7.40197">
        <ele>191.5</ele>
        <time>2026-03-18T10:19:02Z</time>
      </trkpt>
      <trkpt lat="48.27979" lon="7.40199">
        <ele>191.5</ele>
        <time>2026-03-18T10:19:07Z</time>
      </trkpt>
      <trkpt lat="48.27972" lon="7.40201">
        <ele>191.6</ele>
        <time>2026-03-18T10:19:12Z</time>
      </trkpt>
      <trkpt lat="48.27967" lon="7.40202">
        <ele>191.7</ele>
        <time>2026-03-18T10:19:17Z</time>
      </trkpt>
      <trkpt lat="48.27956" lon="7.40205">
        <ele>191.7</ele>
        <time>2026-03-18T10:19:22Z</time>
      </trkpt>
      <trkpt lat="48.27949" lon="7.40207">
        <ele>191.8</ele>
        <time>2026-03-18T10:19:27Z</time>
      </trkpt>
      <trkpt lat="48.27941" lon="7.4021">
        <ele>191.9</ele>
        <time>2026-03-18T10:19:32Z</time>
      </trkpt>
      <trkpt lat="48.27931" lon="7.40211">
        <ele>191.9</ele>
        <time>2026-03-18T10:19:37Z</time>
      </trkpt>
      <trkpt lat="48.27928" lon="7.40213">
        <ele>191.9</ele>
        <time>2026-03-18T10:19:42Z</time>
      </trkpt>
      <trkpt lat="48.2792" lon="7.40219">
        <ele>192</ele>
        <time>2026-03-18T10:19:47Z</time>
      </trkpt>
      <trkpt lat="48.27921" lon="7.40221">
        <ele>192</ele>
        <time>2026-03-18T10:19:52Z</time>
      </trkpt>
      <trkpt lat="48.27921" lon="7.40221">
        <ele>192</ele>
        <time>2026-03-18T10:19:57Z</time>
      </trkpt>
      <trkpt lat="48.27921" lon="7.40221">
        <ele>192</ele>
        <time>2026-03-18T10:20:02Z</time>
      </trkpt>
      <trkpt lat="48.27921" lon="7.40221">
        <ele>192</ele>
        <time>2026-03-18T10:20:07Z</time>
      </trkpt>
      <trkpt lat="48.27921" lon="7.40221">
        <ele>192</ele>
        <time>2026-03-18T10:20:12Z</time>
      </trkpt>
      <trkpt lat="48.27921" lon="7.40221">
        <ele>192</ele>
        <time>2026-03-18T10:20:17Z</time>
      </trkpt>
      <trkpt lat="48.27921" lon="7.40221">
        <ele>192</ele>
        <time>2026-03-18T10:20:17Z</time>
      </trkpt>
      <trkpt lat="48.27899" lon="7.40193">
        <ele>191.9</ele>
        <time>2026-03-18T11:54:12Z</time>
      </trkpt>
      <trkpt lat="48.27918" lon="7.40219">
        <ele>192</ele>
        <time>2026-03-18T11:54:18Z</time>
      </trkpt>
      <trkpt lat="48.27918" lon="7.40222">
        <ele>192</ele>
        <time>2026-03-18T11:54:23Z</time>
      </trkpt>
      <trkpt lat="48.27918" lon="7.40216">
        <ele>192</ele>
        <time>2026-03-18T11:54:28Z</time>
      </trkpt>
      <trkpt lat="48.27914" lon="7.40211">
        <ele>192</ele>
        <time>2026-03-18T11:54:33Z</time>
      </trkpt>
      <trkpt lat="48.27909" lon="7.40209">
        <ele>191.9</ele>
        <time>2026-03-18T11:54:38Z</time>
      </trkpt>
      <trkpt lat="48.27904" lon="7.40208">
        <ele>191.8</ele>
        <time>2026-03-18T11:54:43Z</time>
      </trkpt>
      <trkpt lat="48.27899" lon="7.40207">
        <ele>191.8</ele>
        <time>2026-03-18T11:54:48Z</time>
      </trkpt>
      <trkpt lat="48.27893" lon="7.40207">
        <ele>191.7</ele>
        <time>2026-03-18T11:54:53Z</time>
      </trkpt>
      <trkpt lat="48.27886" lon="7.40207">
        <ele>191.6</ele>
        <time>2026-03-18T11:54:58Z</time>
      </trkpt>
      <trkpt lat="48.2788" lon="7.40208">
        <ele>191.6</ele>
        <time>2026-03-18T11:55:03Z</time>
      </trkpt>
      <trkpt lat="48.27874" lon="7.40206">
        <ele>191.5</ele>
        <time>2026-03-18T11:55:08Z</time>
      </trkpt>
      <trkpt lat="48.27867" lon="7.40204">
        <ele>191.5</ele>
        <time>2026-03-18T11:55:13Z</time>
      </trkpt>
      <trkpt lat="48.27862" lon="7.40204">
        <ele>191.4</ele>
        <time>2026-03-18T11:55:18Z</time>
      </trkpt>
      <trkpt lat="48.27856" lon="7.40202">
        <ele>191.4</ele>
        <time>2026-03-18T11:55:23Z</time>
      </trkpt>
      <trkpt lat="48.27851" lon="7.40199">
        <ele>191.4</ele>
        <time>2026-03-18T11:55:28Z</time>
      </trkpt>
      <trkpt lat="48.27843" lon="7.40199">
        <ele>191.3</ele>
        <time>2026-03-18T11:55:33Z</time>
      </trkpt>
      <trkpt lat="48.27837" lon="7.40198">
        <ele>191.3</ele>
        <time>2026-03-18T11:55:38Z</time>
      </trkpt>
      <trkpt lat="48.27831" lon="7.40197">
        <ele>191.2</ele>
        <time>2026-03-18T11:55:43Z</time>
      </trkpt>
      <trkpt lat="48.27824" lon="7.40194">
        <ele>191.2</ele>
        <time>2026-03-18T11:55:48Z</time>
      </trkpt>
      <trkpt lat="48.27817" lon="7.40191">
        <ele>191.1</ele>
        <time>2026-03-18T11:55:53Z</time>
      </trkpt>
      <trkpt lat="48.27811" lon="7.4019">
        <ele>191</ele>
        <time>2026-03-18T11:55:58Z</time>
      </trkpt>
      <trkpt lat="48.27805" lon="7.40186">
        <ele>190.9</ele>
        <time>2026-03-18T11:56:03Z</time>
      </trkpt>
      <trkpt lat="48.27797" lon="7.40185">
        <ele>190.8</ele>
        <time>2026-03-18T11:56:08Z</time>
      </trkpt>
      <trkpt lat="48.2779" lon="7.40183">
        <ele>190.7</ele>
        <time>2026-03-18T11:56:13Z</time>
      </trkpt>
      <trkpt lat="48.27783" lon="7.40181">
        <ele>190.6</ele>
        <time>2026-03-18T11:56:18Z</time>
      </trkpt>
      <trkpt lat="48.27776" lon="7.40179">
        <ele>190.4</ele>
        <time>2026-03-18T11:56:23Z</time>
      </trkpt>
      <trkpt lat="48.27769" lon="7.40176">
        <ele>190.3</ele>
        <time>2026-03-18T11:56:28Z</time>
      </trkpt>
      <trkpt lat="48.27762" lon="7.40173">
        <ele>190.2</ele>
        <time>2026-03-18T11:56:33Z</time>
      </trkpt>
      <trkpt lat="48.27756" lon="7.40171">
        <ele>190.1</ele>
        <time>2026-03-18T11:56:38Z</time>
      </trkpt>
      <trkpt lat="48.2775" lon="7.40166">
        <ele>190</ele>
        <time>2026-03-18T11:56:43Z</time>
      </trkpt>
      <trkpt lat="48.27743" lon="7.40161">
        <ele>190.1</ele>
        <time>2026-03-18T11:56:48Z</time>
      </trkpt>
      <trkpt lat="48.27737" lon="7.40158">
        <ele>190.1</ele>
        <time>2026-03-18T11:56:53Z</time>
      </trkpt>
      <trkpt lat="48.27729" lon="7.40152">
        <ele>190.1</ele>
        <time>2026-03-18T11:56:58Z</time>
      </trkpt>
      <trkpt lat="48.27722" lon="7.40148">
        <ele>190.1</ele>
        <time>2026-03-18T11:57:03Z</time>
      </trkpt>
      <trkpt lat="48.27716" lon="7.40142">
        <ele>190.2</ele>
        <time>2026-03-18T11:57:08Z</time>
      </trkpt>
      <trkpt lat="48.27711" lon="7.4014">
        <ele>190.2</ele>
        <time>2026-03-18T11:57:13Z</time>
      </trkpt>
      <trkpt lat="48.27704" lon="7.40137">
        <ele>190.2</ele>
        <time>2026-03-18T11:57:18Z</time>
      </trkpt>
      <trkpt lat="48.27698" lon="7.40133">
        <ele>190.2</ele>
        <time>2026-03-18T11:57:23Z</time>
      </trkpt>
      <trkpt lat="48.27692" lon="7.4013">
        <ele>190.1</ele>
        <time>2026-03-18T11:57:28Z</time>
      </trkpt>
      <trkpt lat="48.27686" lon="7.40127">
        <ele>190.1</ele>
        <time>2026-03-18T11:57:33Z</time>
      </trkpt>
      <trkpt lat="48.27679" lon="7.40122">
        <ele>190.1</ele>
        <time>2026-03-18T11:57:38Z</time>
      </trkpt>
      <trkpt lat="48.27673" lon="7.40119">
        <ele>190</ele>
        <time>2026-03-18T11:57:43Z</time>
      </trkpt>
      <trkpt lat="48.27666" lon="7.40115">
        <ele>190</ele>
        <time>2026-03-18T11:57:48Z</time>
      </trkpt>
      <trkpt lat="48.27659" lon="7.40112">
        <ele>190</ele>
        <time>2026-03-18T11:57:53Z</time>
      </trkpt>
      <trkpt lat="48.27653" lon="7.40108">
        <ele>190</ele>
        <time>2026-03-18T11:57:58Z</time>
      </trkpt>
      <trkpt lat="48.27648" lon="7.40105">
        <ele>190</ele>
        <time>2026-03-18T11:58:03Z</time>
      </trkpt>
      <trkpt lat="48.2764" lon="7.40106">
        <ele>190</ele>
        <time>2026-03-18T11:58:08Z</time>
      </trkpt>
      <trkpt lat="48.27633" lon="7.40108">
        <ele>190</ele>
        <time>2026-03-18T11:58:13Z</time>
      </trkpt>
      <trkpt lat="48.27626" lon="7.40108">
        <ele>190</ele>
        <time>2026-03-18T11:58:18Z</time>
      </trkpt>
      <trkpt lat="48.27619" lon="7.40101">
        <ele>190</ele>
        <time>2026-03-18T11:58:23Z</time>
      </trkpt>
      <trkpt lat="48.27618" lon="7.40092">
        <ele>190</ele>
        <time>2026-03-18T11:58:28Z</time>
      </trkpt>
      <trkpt lat="48.27616" lon="7.40085">
        <ele>190</ele>
        <time>2026-03-18T11:58:33Z</time>
      </trkpt>
      <trkpt lat="48.27611" lon="7.40075">
        <ele>190</ele>
        <time>2026-03-18T11:58:38Z</time>
      </trkpt>
      <trkpt lat="48.27606" lon="7.40067">
        <ele>189.9</ele>
        <time>2026-03-18T11:58:43Z</time>
      </trkpt>
      <trkpt lat="48.27601" lon="7.40063">
        <ele>189.9</ele>
        <time>2026-03-18T11:58:48Z</time>
      </trkpt>
      <trkpt lat="48.27595" lon="7.40058">
        <ele>189.8</ele>
        <time>2026-03-18T11:58:53Z</time>
      </trkpt>
      <trkpt lat="48.2759" lon="7.40054">
        <ele>189.7</ele>
        <time>2026-03-18T11:58:58Z</time>
      </trkpt>
      <trkpt lat="48.27585" lon="7.40048">
        <ele>189.6</ele>
        <time>2026-03-18T11:59:03Z</time>
      </trkpt>
      <trkpt lat="48.2758" lon="7.40044">
        <ele>189.5</ele>
        <time>2026-03-18T11:59:08Z</time>
      </trkpt>
      <trkpt lat="48.27575" lon="7.4004">
        <ele>189.5</ele>
        <time>2026-03-18T11:59:13Z</time>
      </trkpt>
      <trkpt lat="48.2757" lon="7.40036">
        <ele>189.5</ele>
        <time>2026-03-18T11:59:18Z</time>
      </trkpt>
      <trkpt lat="48.27563" lon="7.40029">
        <ele>189.5</ele>
        <time>2026-03-18T11:59:23Z</time>
      </trkpt>
      <trkpt lat="48.27555" lon="7.40029">
        <ele>189.6</ele>
        <time>2026-03-18T11:59:28Z</time>
      </trkpt>
      <trkpt lat="48.27551" lon="7.40023">
        <ele>189.6</ele>
        <time>2026-03-18T11:59:33Z</time>
      </trkpt>
      <trkpt lat="48.27546" lon="7.40016">
        <ele>189.6</ele>
        <time>2026-03-18T11:59:38Z</time>
      </trkpt>
      <trkpt lat="48.27546" lon="7.40007">
        <ele>189.5</ele>
        <time>2026-03-18T11:59:43Z</time>
      </trkpt>
      <trkpt lat="48.27544" lon="7.39995">
        <ele>189.5</ele>
        <time>2026-03-18T11:59:48Z</time>
      </trkpt>
      <trkpt lat="48.27537" lon="7.39987">
        <ele>189.7</ele>
        <time>2026-03-18T11:59:53Z</time>
      </trkpt>
      <trkpt lat="48.27531" lon="7.39984">
        <ele>189.9</ele>
        <time>2026-03-18T11:59:58Z</time>
      </trkpt>
      <trkpt lat="48.27526" lon="7.39981">
        <ele>190</ele>
        <time>2026-03-18T12:00:03Z</time>
      </trkpt>
      <trkpt lat="48.2752" lon="7.39976">
        <ele>190.2</ele>
        <time>2026-03-18T12:00:08Z</time>
      </trkpt>
      <trkpt lat="48.27514" lon="7.39972">
        <ele>190.4</ele>
        <time>2026-03-18T12:00:13Z</time>
      </trkpt>
      <trkpt lat="48.27506" lon="7.3997">
        <ele>190.6</ele>
        <time>2026-03-18T12:00:18Z</time>
      </trkpt>
      <trkpt lat="48.275" lon="7.39969">
        <ele>190.7</ele>
        <time>2026-03-18T12:00:23Z</time>
      </trkpt>
      <trkpt lat="48.27492" lon="7.39969">
        <ele>190.8</ele>
        <time>2026-03-18T12:00:28Z</time>
      </trkpt>
      <trkpt lat="48.27484" lon="7.39964">
        <ele>191</ele>
        <time>2026-03-18T12:00:33Z</time>
      </trkpt>
      <trkpt lat="48.27478" lon="7.39964">
        <ele>191</ele>
        <time>2026-03-18T12:00:38Z</time>
      </trkpt>
      <trkpt lat="48.27472" lon="7.3996">
        <ele>191.1</ele>
        <time>2026-03-18T12:00:43Z</time>
      </trkpt>
      <trkpt lat="48.27465" lon="7.39956">
        <ele>191.3</ele>
        <time>2026-03-18T12:00:48Z</time>
      </trkpt>
      <trkpt lat="48.27459" lon="7.39951">
        <ele>191.4</ele>
        <time>2026-03-18T12:00:53Z</time>
      </trkpt>
      <trkpt lat="48.27453" lon="7.39951">
        <ele>191.4</ele>
        <time>2026-03-18T12:00:58Z</time>
      </trkpt>
      <trkpt lat="48.27446" lon="7.39949">
        <ele>191.5</ele>
        <time>2026-03-18T12:01:03Z</time>
      </trkpt>
      <trkpt lat="48.27439" lon="7.39948">
        <ele>191.5</ele>
        <time>2026-03-18T12:01:08Z</time>
      </trkpt>
      <trkpt lat="48.27432" lon="7.39948">
        <ele>191.6</ele>
        <time>2026-03-18T12:01:13Z</time>
      </trkpt>
      <trkpt lat="48.27425" lon="7.39946">
        <ele>191.6</ele>
        <time>2026-03-18T12:01:18Z</time>
      </trkpt>
      <trkpt lat="48.27419" lon="7.39943">
        <ele>191.7</ele>
        <time>2026-03-18T12:01:23Z</time>
      </trkpt>
      <trkpt lat="48.27413" lon="7.39938">
        <ele>191.8</ele>
        <time>2026-03-18T12:01:28Z</time>
      </trkpt>
      <trkpt lat="48.27405" lon="7.39936">
        <ele>191.8</ele>
        <time>2026-03-18T12:01:33Z</time>
      </trkpt>
      <trkpt lat="48.27399" lon="7.39934">
        <ele>191.8</ele>
        <time>2026-03-18T12:01:38Z</time>
      </trkpt>
      <trkpt lat="48.27393" lon="7.39932">
        <ele>191.9</ele>
        <time>2026-03-18T12:01:43Z</time>
      </trkpt>
      <trkpt lat="48.27386" lon="7.39933">
        <ele>191.9</ele>
        <time>2026-03-18T12:01:48Z</time>
      </trkpt>
      <trkpt lat="48.27381" lon="7.39931">
        <ele>191.9</ele>
        <time>2026-03-18T12:01:53Z</time>
      </trkpt>
      <trkpt lat="48.27374" lon="7.39928">
        <ele>191.9</ele>
        <time>2026-03-18T12:01:58Z</time>
      </trkpt>
      <trkpt lat="48.27369" lon="7.39929">
        <ele>191.9</ele>
        <time>2026-03-18T12:02:03Z</time>
      </trkpt>
      <trkpt lat="48.27366" lon="7.39928">
        <ele>191.9</ele>
        <time>2026-03-18T12:02:08Z</time>
      </trkpt>
      <trkpt lat="48.27364" lon="7.39928">
        <ele>191.9</ele>
        <time>2026-03-18T12:02:13Z</time>
      </trkpt>
      <trkpt lat="48.27358" lon="7.39926">
        <ele>192</ele>
        <time>2026-03-18T12:02:18Z</time>
      </trkpt>
      <trkpt lat="48.27351" lon="7.39924">
        <ele>192</ele>
        <time>2026-03-18T12:02:23Z</time>
      </trkpt>
      <trkpt lat="48.27345" lon="7.3992">
        <ele>192</ele>
        <time>2026-03-18T12:02:28Z</time>
      </trkpt>
      <trkpt lat="48.27339" lon="7.39917">
        <ele>192</ele>
        <time>2026-03-18T12:02:33Z</time>
      </trkpt>
      <trkpt lat="48.27332" lon="7.39917">
        <ele>192</ele>
        <time>2026-03-18T12:02:38Z</time>
      </trkpt>
      <trkpt lat="48.2733" lon="7.39914">
        <ele>191.9</ele>
        <time>2026-03-18T12:02:43Z</time>
      </trkpt>
      <trkpt lat="48.27327" lon="7.39909">
        <ele>191.8</ele>
        <time>2026-03-18T12:02:48Z</time>
      </trkpt>
      <trkpt lat="48.27322" lon="7.39906">
        <ele>191.8</ele>
        <time>2026-03-18T12:02:53Z</time>
      </trkpt>
      <trkpt lat="48.27317" lon="7.39902">
        <ele>191.7</ele>
        <time>2026-03-18T12:02:58Z</time>
      </trkpt>
      <trkpt lat="48.27312" lon="7.39901">
        <ele>191.7</ele>
        <time>2026-03-18T12:03:03Z</time>
      </trkpt>
      <trkpt lat="48.27306" lon="7.39903">
        <ele>191.6</ele>
        <time>2026-03-18T12:03:08Z</time>
      </trkpt>
      <trkpt lat="48.273" lon="7.39898">
        <ele>191.6</ele>
        <time>2026-03-18T12:03:13Z</time>
      </trkpt>
      <trkpt lat="48.27294" lon="7.39896">
        <ele>191.5</ele>
        <time>2026-03-18T12:03:18Z</time>
      </trkpt>
      <trkpt lat="48.27291" lon="7.39896">
        <ele>191.5</ele>
        <time>2026-03-18T12:03:23Z</time>
      </trkpt>
      <trkpt lat="48.27289" lon="7.39899">
        <ele>191.5</ele>
        <time>2026-03-18T12:03:28Z</time>
      </trkpt>
      <trkpt lat="48.27283" lon="7.39901">
        <ele>191.4</ele>
        <time>2026-03-18T12:03:33Z</time>
      </trkpt>
      <trkpt lat="48.27277" lon="7.39904">
        <ele>191.4</ele>
        <time>2026-03-18T12:03:38Z</time>
      </trkpt>
      <trkpt lat="48.27274" lon="7.39907">
        <ele>191.3</ele>
        <time>2026-03-18T12:03:43Z</time>
      </trkpt>
      <trkpt lat="48.27271" lon="7.39907">
        <ele>191.3</ele>
        <time>2026-03-18T12:03:48Z</time>
      </trkpt>
      <trkpt lat="48.27266" lon="7.39905">
        <ele>191.3</ele>
        <time>2026-03-18T12:03:53Z</time>
      </trkpt>
      <trkpt lat="48.2726" lon="7.39902">
        <ele>191.3</ele>
        <time>2026-03-18T12:03:58Z</time>
      </trkpt>
      <trkpt lat="48.27255" lon="7.39903">
        <ele>191.2</ele>
        <time>2026-03-18T12:04:03Z</time>
      </trkpt>
      <trkpt lat="48.27252" lon="7.39902">
        <ele>191.2</ele>
        <time>2026-03-18T12:04:08Z</time>
      </trkpt>
      <trkpt lat="48.27249" lon="7.39899">
        <ele>191.2</ele>
        <time>2026-03-18T12:04:13Z</time>
      </trkpt>
      <trkpt lat="48.27245" lon="7.39899">
        <ele>191.2</ele>
        <time>2026-03-18T12:04:18Z</time>
      </trkpt>
      <trkpt lat="48.27238" lon="7.39901">
        <ele>191.2</ele>
        <time>2026-03-18T12:04:23Z</time>
      </trkpt>
      <trkpt lat="48.27233" lon="7.39902">
        <ele>191.2</ele>
        <time>2026-03-18T12:04:28Z</time>
      </trkpt>
      <trkpt lat="48.27227" lon="7.39901">
        <ele>191.3</ele>
        <time>2026-03-18T12:04:33Z</time>
      </trkpt>
      <trkpt lat="48.2722" lon="7.39898">
        <ele>191.4</ele>
        <time>2026-03-18T12:04:38Z</time>
      </trkpt>
      <trkpt lat="48.27216" lon="7.39897">
        <ele>191.4</ele>
        <time>2026-03-18T12:04:43Z</time>
      </trkpt>
      <trkpt lat="48.27207" lon="7.39899">
        <ele>191.4</ele>
        <time>2026-03-18T12:04:48Z</time>
      </trkpt>
      <trkpt lat="48.27194" lon="7.39907">
        <ele>191.3</ele>
        <time>2026-03-18T12:04:53Z</time>
      </trkpt>
      <trkpt lat="48.27183" lon="7.39913">
        <ele>191.1</ele>
        <time>2026-03-18T12:04:58Z</time>
      </trkpt>
      <trkpt lat="48.27179" lon="7.39915">
        <ele>191.1</ele>
        <time>2026-03-18T12:05:03Z</time>
      </trkpt>
      <trkpt lat="48.27175" lon="7.39915">
        <ele>191.1</ele>
        <time>2026-03-18T12:05:08Z</time>
      </trkpt>
      <trkpt lat="48.2717" lon="7.39916">
        <ele>191</ele>
        <time>2026-03-18T12:05:13Z</time>
      </trkpt>
      <trkpt lat="48.27165" lon="7.39919">
        <ele>190.9</ele>
        <time>2026-03-18T12:05:18Z</time>
      </trkpt>
      <trkpt lat="48.27164" lon="7.3992">
        <ele>190.9</ele>
        <time>2026-03-18T12:05:23Z</time>
      </trkpt>
      <trkpt lat="48.27163" lon="7.39918">
        <ele>191</ele>
        <time>2026-03-18T12:05:28Z</time>
      </trkpt>
      <trkpt lat="48.27163" lon="7.39918">
        <ele>191</ele>
        <time>2026-03-18T12:05:33Z</time>
      </trkpt>
      <trkpt lat="48.27163" lon="7.39918">
        <ele>191</ele>
        <time>2026-03-18T12:05:38Z</time>
      </trkpt>
      <trkpt lat="48.27163" lon="7.39918">
        <ele>191</ele>
        <time>2026-03-18T12:05:43Z</time>
      </trkpt>
      <trkpt lat="48.27168" lon="7.39908">
        <ele>191.3</ele>
        <time>2026-03-18T12:05:48Z</time>
      </trkpt>
      <trkpt lat="48.2716" lon="7.39915">
        <ele>191.1</ele>
        <time>2026-03-18T12:05:53Z</time>
      </trkpt>
      <trkpt lat="48.27151" lon="7.39919">
        <ele>191</ele>
        <time>2026-03-18T12:05:58Z</time>
      </trkpt>
      <trkpt lat="48.27144" lon="7.39922">
        <ele>190.9</ele>
        <time>2026-03-18T12:06:03Z</time>
      </trkpt>
      <trkpt lat="48.27141" lon="7.39921">
        <ele>190.9</ele>
        <time>2026-03-18T12:06:08Z</time>
      </trkpt>
      <trkpt lat="48.2714" lon="7.3992">
        <ele>190.9</ele>
        <time>2026-03-18T12:06:13Z</time>
      </trkpt>
      <trkpt lat="48.27139" lon="7.3992">
        <ele>190.9</ele>
        <time>2026-03-18T12:06:18Z</time>
      </trkpt>
      <trkpt lat="48.27133" lon="7.39921">
        <ele>190.9</ele>
        <time>2026-03-18T12:06:23Z</time>
      </trkpt>
      <trkpt lat="48.27128" lon="7.39922">
        <ele>190.9</ele>
        <time>2026-03-18T12:06:28Z</time>
      </trkpt>
      <trkpt lat="48.27124" lon="7.39923">
        <ele>190.9</ele>
        <time>2026-03-18T12:06:33Z</time>
      </trkpt>
      <trkpt lat="48.27117" lon="7.39926">
        <ele>190.9</ele>
        <time>2026-03-18T12:06:38Z</time>
      </trkpt>
      <trkpt lat="48.27111" lon="7.39928">
        <ele>190.9</ele>
        <time>2026-03-18T12:06:43Z</time>
      </trkpt>
      <trkpt lat="48.27104" lon="7.3993">
        <ele>190.9</ele>
        <time>2026-03-18T12:06:48Z</time>
      </trkpt>
      <trkpt lat="48.27097" lon="7.39933">
        <ele>190.9</ele>
        <time>2026-03-18T12:06:53Z</time>
      </trkpt>
      <trkpt lat="48.27089" lon="7.39934">
        <ele>191</ele>
        <time>2026-03-18T12:06:58Z</time>
      </trkpt>
      <trkpt lat="48.27084" lon="7.3993">
        <ele>191</ele>
        <time>2026-03-18T12:07:03Z</time>
      </trkpt>
      <trkpt lat="48.27079" lon="7.3993">
        <ele>190.9</ele>
        <time>2026-03-18T12:07:08Z</time>
      </trkpt>
      <trkpt lat="48.27071" lon="7.39935">
        <ele>190.8</ele>
        <time>2026-03-18T12:07:13Z</time>
      </trkpt>
      <trkpt lat="48.27063" lon="7.39941">
        <ele>190.7</ele>
        <time>2026-03-18T12:07:18Z</time>
      </trkpt>
      <trkpt lat="48.27056" lon="7.39942">
        <ele>190.6</ele>
        <time>2026-03-18T12:07:23Z</time>
      </trkpt>
      <trkpt lat="48.27051" lon="7.39943">
        <ele>190.5</ele>
        <time>2026-03-18T12:07:28Z</time>
      </trkpt>
      <trkpt lat="48.27045" lon="7.39944">
        <ele>190.4</ele>
        <time>2026-03-18T12:07:33Z</time>
      </trkpt>
      <trkpt lat="48.27039" lon="7.39951">
        <ele>190.2</ele>
        <time>2026-03-18T12:07:38Z</time>
      </trkpt>
      <trkpt lat="48.27035" lon="7.39958">
        <ele>190.1</ele>
        <time>2026-03-18T12:07:43Z</time>
      </trkpt>
      <trkpt lat="48.27032" lon="7.3996">
        <ele>190.1</ele>
        <time>2026-03-18T12:07:48Z</time>
      </trkpt>
      <trkpt lat="48.27027" lon="7.39963">
        <ele>189.9</ele>
        <time>2026-03-18T12:07:53Z</time>
      </trkpt>
      <trkpt lat="48.27024" lon="7.39965">
        <ele>189.9</ele>
        <time>2026-03-18T12:07:58Z</time>
      </trkpt>
      <trkpt lat="48.2702" lon="7.39963">
        <ele>189.8</ele>
        <time>2026-03-18T12:08:03Z</time>
      </trkpt>
      <trkpt lat="48.27015" lon="7.39965">
        <ele>189.7</ele>
        <time>2026-03-18T12:08:08Z</time>
      </trkpt>
      <trkpt lat="48.27015" lon="7.39965">
        <ele>189.7</ele>
        <time>2026-03-18T12:08:13Z</time>
      </trkpt>
      <trkpt lat="48.27011" lon="7.39967">
        <ele>189.6</ele>
        <time>2026-03-18T12:08:18Z</time>
      </trkpt>
      <trkpt lat="48.27002" lon="7.39979">
        <ele>189.3</ele>
        <time>2026-03-18T12:08:23Z</time>
      </trkpt>
      <trkpt lat="48.26998" lon="7.39983">
        <ele>189.2</ele>
        <time>2026-03-18T12:08:28Z</time>
      </trkpt>
      <trkpt lat="48.26992" lon="7.39983">
        <ele>189.2</ele>
        <time>2026-03-18T12:08:33Z</time>
      </trkpt>
      <trkpt lat="48.26983" lon="7.39985">
        <ele>189.2</ele>
        <time>2026-03-18T12:08:38Z</time>
      </trkpt>
      <trkpt lat="48.26978" lon="7.39983">
        <ele>189.2</ele>
        <time>2026-03-18T12:08:43Z</time>
      </trkpt>
      <trkpt lat="48.26978" lon="7.39983">
        <ele>189.2</ele>
        <time>2026-03-18T12:08:48Z</time>
      </trkpt>
      <trkpt lat="48.26978" lon="7.39983">
        <ele>189.2</ele>
        <time>2026-03-18T12:08:53Z</time>
      </trkpt>
      <trkpt lat="48.26978" lon="7.39983">
        <ele>189.2</ele>
        <time>2026-03-18T12:08:58Z</time>
      </trkpt>
      <trkpt lat="48.26978" lon="7.39983">
        <ele>189.2</ele>
        <time>2026-03-18T12:09:03Z</time>
      </trkpt>
      <trkpt lat="48.26978" lon="7.39983">
        <ele>189.2</ele>
        <time>2026-03-18T12:09:08Z</time>
      </trkpt>
      <trkpt lat="48.26978" lon="7.39983">
        <ele>189.2</ele>
        <time>2026-03-18T12:09:13Z</time>
      </trkpt>
      <trkpt lat="48.26976" lon="7.39984">
        <ele>189.2</ele>
        <time>2026-03-18T12:09:18Z</time>
      </trkpt>
      <trkpt lat="48.26967" lon="7.39981">
        <ele>189.2</ele>
        <time>2026-03-18T12:09:23Z</time>
      </trkpt>
      <trkpt lat="48.26961" lon="7.39978">
        <ele>189.3</ele>
        <time>2026-03-18T12:09:28Z</time>
      </trkpt>
      <trkpt lat="48.26954" lon="7.39981">
        <ele>189.2</ele>
        <time>2026-03-18T12:09:33Z</time>
      </trkpt>
      <trkpt lat="48.26947" lon="7.39983">
        <ele>189.2</ele>
        <time>2026-03-18T12:09:38Z</time>
      </trkpt>
      <trkpt lat="48.26939" lon="7.39984">
        <ele>189.2</ele>
        <time>2026-03-18T12:09:43Z</time>
      </trkpt>
      <trkpt lat="48.26933" lon="7.39984">
        <ele>189.2</ele>
        <time>2026-03-18T12:09:48Z</time>
      </trkpt>
      <trkpt lat="48.26927" lon="7.39984">
        <ele>189.2</ele>
        <time>2026-03-18T12:09:53Z</time>
      </trkpt>
      <trkpt lat="48.26926" lon="7.39981">
        <ele>189.2</ele>
        <time>2026-03-18T12:09:58Z</time>
      </trkpt>
      <trkpt lat="48.26926" lon="7.39981">
        <ele>189.2</ele>
        <time>2026-03-18T12:10:03Z</time>
      </trkpt>
      <trkpt lat="48.26926" lon="7.39981">
        <ele>189.2</ele>
        <time>2026-03-18T12:10:08Z</time>
      </trkpt>
      <trkpt lat="48.26926" lon="7.39977">
        <ele>189.3</ele>
        <time>2026-03-18T12:10:13Z</time>
      </trkpt>
      <trkpt lat="48.26928" lon="7.39971">
        <ele>189.3</ele>
        <time>2026-03-18T12:10:18Z</time>
      </trkpt>
      <trkpt lat="48.26928" lon="7.39963">
        <ele>189.4</ele>
        <time>2026-03-18T12:10:23Z</time>
      </trkpt>
      <trkpt lat="48.26926" lon="7.39955">
        <ele>189.5</ele>
        <time>2026-03-18T12:10:28Z</time>
      </trkpt>
      <trkpt lat="48.26925" lon="7.39945">
        <ele>189.7</ele>
        <time>2026-03-18T12:10:33Z</time>
      </trkpt>
      <trkpt lat="48.26927" lon="7.3994">
        <ele>189.7</ele>
        <time>2026-03-18T12:10:38Z</time>
      </trkpt>
      <trkpt lat="48.26934" lon="7.39936">
        <ele>189.8</ele>
        <time>2026-03-18T12:10:43Z</time>
      </trkpt>
      <trkpt lat="48.26937" lon="7.39931">
        <ele>189.8</ele>
        <time>2026-03-18T12:10:48Z</time>
      </trkpt>
      <trkpt lat="48.26937" lon="7.39927">
        <ele>189.9</ele>
        <time>2026-03-18T12:10:53Z</time>
      </trkpt>
      <trkpt lat="48.26937" lon="7.39926">
        <ele>189.9</ele>
        <time>2026-03-18T12:10:58Z</time>
      </trkpt>
      <trkpt lat="48.26937" lon="7.39926">
        <ele>189.9</ele>
        <time>2026-03-18T12:11:03Z</time>
      </trkpt>
      <trkpt lat="48.26937" lon="7.39926">
        <ele>189.9</ele>
        <time>2026-03-18T12:11:08Z</time>
      </trkpt>
      <trkpt lat="48.2693" lon="7.39921">
        <ele>189.9</ele>
        <time>2026-03-18T12:11:13Z</time>
      </trkpt>
      <trkpt lat="48.26923" lon="7.39918">
        <ele>190</ele>
        <time>2026-03-18T12:11:18Z</time>
      </trkpt>
      <trkpt lat="48.26922" lon="7.39909">
        <ele>190.4</ele>
        <time>2026-03-18T12:11:23Z</time>
      </trkpt>
      <trkpt lat="48.26921" lon="7.39899">
        <ele>191</ele>
        <time>2026-03-18T12:11:28Z</time>
      </trkpt>
      <trkpt lat="48.26921" lon="7.39889">
        <ele>191.6</ele>
        <time>2026-03-18T12:11:33Z</time>
      </trkpt>
      <trkpt lat="48.26921" lon="7.3988">
        <ele>192.1</ele>
        <time>2026-03-18T12:11:38Z</time>
      </trkpt>
      <trkpt lat="48.26921" lon="7.39875">
        <ele>192.4</ele>
        <time>2026-03-18T12:11:43Z</time>
      </trkpt>
      <trkpt lat="48.26921" lon="7.39867">
        <ele>192.9</ele>
        <time>2026-03-18T12:11:48Z</time>
      </trkpt>
      <trkpt lat="48.26921" lon="7.3986">
        <ele>193.3</ele>
        <time>2026-03-18T12:11:53Z</time>
      </trkpt>
      <trkpt lat="48.2692" lon="7.39853">
        <ele>193.7</ele>
        <time>2026-03-18T12:11:58Z</time>
      </trkpt>
      <trkpt lat="48.2692" lon="7.39844">
        <ele>194.3</ele>
        <time>2026-03-18T12:12:03Z</time>
      </trkpt>
      <trkpt lat="48.2692" lon="7.39835">
        <ele>194.8</ele>
        <time>2026-03-18T12:12:08Z</time>
      </trkpt>
      <trkpt lat="48.2692" lon="7.39827">
        <ele>195.3</ele>
        <time>2026-03-18T12:12:13Z</time>
      </trkpt>
      <trkpt lat="48.2692" lon="7.39822">
        <ele>195.7</ele>
        <time>2026-03-18T12:12:18Z</time>
      </trkpt>
      <trkpt lat="48.26922" lon="7.39815">
        <ele>196.2</ele>
        <time>2026-03-18T12:12:23Z</time>
      </trkpt>
      <trkpt lat="48.26927" lon="7.3981">
        <ele>196.4</ele>
        <time>2026-03-18T12:12:28Z</time>
      </trkpt>
      <trkpt lat="48.26929" lon="7.39809">
        <ele>196.4</ele>
        <time>2026-03-18T12:12:33Z</time>
      </trkpt>
      <trkpt lat="48.26923" lon="7.39808">
        <ele>196.6</ele>
        <time>2026-03-18T12:12:38Z</time>
      </trkpt>
      <trkpt lat="48.26918" lon="7.39804">
        <ele>197.1</ele>
        <time>2026-03-18T12:12:43Z</time>
      </trkpt>
      <trkpt lat="48.26911" lon="7.39806">
        <ele>197.1</ele>
        <time>2026-03-18T12:12:48Z</time>
      </trkpt>
      <trkpt lat="48.26904" lon="7.39808">
        <ele>197.2</ele>
        <time>2026-03-18T12:12:53Z</time>
      </trkpt>
      <trkpt lat="48.26896" lon="7.39805">
        <ele>197.7</ele>
        <time>2026-03-18T12:12:58Z</time>
      </trkpt>
      <trkpt lat="48.26894" lon="7.39797">
        <ele>198.3</ele>
        <time>2026-03-18T12:13:03Z</time>
      </trkpt>
      <trkpt lat="48.26892" lon="7.39788">
        <ele>199</ele>
        <time>2026-03-18T12:13:08Z</time>
      </trkpt>
      <trkpt lat="48.26892" lon="7.39778">
        <ele>199.7</ele>
        <time>2026-03-18T12:13:13Z</time>
      </trkpt>
      <trkpt lat="48.2689" lon="7.39769">
        <ele>200.3</ele>
        <time>2026-03-18T12:13:18Z</time>
      </trkpt>
      <trkpt lat="48.26887" lon="7.3976">
        <ele>201</ele>
        <time>2026-03-18T12:13:23Z</time>
      </trkpt>
      <trkpt lat="48.26886" lon="7.39751">
        <ele>201.7</ele>
        <time>2026-03-18T12:13:28Z</time>
      </trkpt>
      <trkpt lat="48.26885" lon="7.39747">
        <ele>202</ele>
        <time>2026-03-18T12:13:33Z</time>
      </trkpt>
      <trkpt lat="48.26882" lon="7.3974">
        <ele>202.6</ele>
        <time>2026-03-18T12:13:38Z</time>
      </trkpt>
      <trkpt lat="48.26882" lon="7.3973">
        <ele>203.4</ele>
        <time>2026-03-18T12:13:43Z</time>
      </trkpt>
      <trkpt lat="48.26881" lon="7.3972">
        <ele>204.2</ele>
        <time>2026-03-18T12:13:48Z</time>
      </trkpt>
      <trkpt lat="48.26881" lon="7.39714">
        <ele>204.6</ele>
        <time>2026-03-18T12:13:53Z</time>
      </trkpt>
      <trkpt lat="48.26883" lon="7.39708">
        <ele>205</ele>
        <time>2026-03-18T12:13:58Z</time>
      </trkpt>
      <trkpt lat="48.26884" lon="7.39702">
        <ele>205.5</ele>
        <time>2026-03-18T12:14:03Z</time>
      </trkpt>
      <trkpt lat="48.26887" lon="7.39698">
        <ele>205.7</ele>
        <time>2026-03-18T12:14:08Z</time>
      </trkpt>
      <trkpt lat="48.26891" lon="7.39699">
        <ele>205.5</ele>
        <time>2026-03-18T12:14:13Z</time>
      </trkpt>
      <trkpt lat="48.26891" lon="7.39699">
        <ele>205.5</ele>
        <time>2026-03-18T12:14:18Z</time>
      </trkpt>
      <trkpt lat="48.26891" lon="7.39699">
        <ele>205.5</ele>
        <time>2026-03-18T12:14:23Z</time>
      </trkpt>
      <trkpt lat="48.26891" lon="7.39699">
        <ele>205.5</ele>
        <time>2026-03-18T12:14:28Z</time>
      </trkpt>
      <trkpt lat="48.26891" lon="7.39699">
        <ele>205.5</ele>
        <time>2026-03-18T12:14:33Z</time>
      </trkpt>
      <trkpt lat="48.26891" lon="7.39699">
        <ele>205.5</ele>
        <time>2026-03-18T12:14:38Z</time>
      </trkpt>
      <trkpt lat="48.26891" lon="7.39699">
        <ele>205.5</ele>
        <time>2026-03-18T12:14:43Z</time>
      </trkpt>
      <trkpt lat="48.26891" lon="7.39699">
        <ele>205.5</ele>
        <time>2026-03-18T12:14:48Z</time>
      </trkpt>
      <trkpt lat="48.26891" lon="7.39699">
        <ele>205.5</ele>
        <time>2026-03-18T12:14:53Z</time>
      </trkpt>
      <trkpt lat="48.26891" lon="7.39699">
        <ele>205.5</ele>
        <time>2026-03-18T12:14:58Z</time>
      </trkpt>
      <trkpt lat="48.26891" lon="7.39699">
        <ele>205.5</ele>
        <time>2026-03-18T12:15:03Z</time>
      </trkpt>
      <trkpt lat="48.26891" lon="7.39699">
        <ele>205.5</ele>
        <time>2026-03-18T12:15:08Z</time>
      </trkpt>
      <trkpt lat="48.26888" lon="7.39691">
        <ele>206.2</ele>
        <time>2026-03-18T12:15:13Z</time>
      </trkpt>
      <trkpt lat="48.26891" lon="7.39686">
        <ele>206.5</ele>
        <time>2026-03-18T12:15:18Z</time>
      </trkpt>
      <trkpt lat="48.26896" lon="7.3968">
        <ele>206.7</ele>
        <time>2026-03-18T12:15:23Z</time>
      </trkpt>
      <trkpt lat="48.26903" lon="7.39678">
        <ele>206.7</ele>
        <time>2026-03-18T12:15:28Z</time>
      </trkpt>
      <trkpt lat="48.2691" lon="7.39678">
        <ele>206.4</ele>
        <time>2026-03-18T12:15:33Z</time>
      </trkpt>
      <trkpt lat="48.26913" lon="7.3968">
        <ele>206.2</ele>
        <time>2026-03-18T12:15:38Z</time>
      </trkpt>
      <trkpt lat="48.26918" lon="7.39678">
        <ele>206.2</ele>
        <time>2026-03-18T12:15:43Z</time>
      </trkpt>
      <trkpt lat="48.26922" lon="7.3968">
        <ele>206</ele>
        <time>2026-03-18T12:15:48Z</time>
      </trkpt>
      <trkpt lat="48.26923" lon="7.39683">
        <ele>205.8</ele>
        <time>2026-03-18T12:15:53Z</time>
      </trkpt>
      <trkpt lat="48.26927" lon="7.39679">
        <ele>206.1</ele>
        <time>2026-03-18T12:15:58Z</time>
      </trkpt>
      <trkpt lat="48.26933" lon="7.39677">
        <ele>206.2</ele>
        <time>2026-03-18T12:16:03Z</time>
      </trkpt>
      <trkpt lat="48.2694" lon="7.39676">
        <ele>206.3</ele>
        <time>2026-03-18T12:16:08Z</time>
      </trkpt>
      <trkpt lat="48.26947" lon="7.39676">
        <ele>206.3</ele>
        <time>2026-03-18T12:16:13Z</time>
      </trkpt>
      <trkpt lat="48.26953" lon="7.39676">
        <ele>206.3</ele>
        <time>2026-03-18T12:16:18Z</time>
      </trkpt>
      <trkpt lat="48.26958" lon="7.39676">
        <ele>206.3</ele>
        <time>2026-03-18T12:16:23Z</time>
      </trkpt>
      <trkpt lat="48.26965" lon="7.39676">
        <ele>206.3</ele>
        <time>2026-03-18T12:16:28Z</time>
      </trkpt>
      <trkpt lat="48.26972" lon="7.39676">
        <ele>206.3</ele>
        <time>2026-03-18T12:16:33Z</time>
      </trkpt>
      <trkpt lat="48.26979" lon="7.39676">
        <ele>206.2</ele>
        <time>2026-03-18T12:16:38Z</time>
      </trkpt>
      <trkpt lat="48.26986" lon="7.39674">
        <ele>206.4</ele>
        <time>2026-03-18T12:16:43Z</time>
      </trkpt>
      <trkpt lat="48.26993" lon="7.39674">
        <ele>206.4</ele>
        <time>2026-03-18T12:16:48Z</time>
      </trkpt>
      <trkpt lat="48.26998" lon="7.39674">
        <ele>206.4</ele>
        <time>2026-03-18T12:16:53Z</time>
      </trkpt>
      <trkpt lat="48.27004" lon="7.39674">
        <ele>206.2</ele>
        <time>2026-03-18T12:16:58Z</time>
      </trkpt>
      <trkpt lat="48.27011" lon="7.39675">
        <ele>205.8</ele>
        <time>2026-03-18T12:17:03Z</time>
      </trkpt>
      <trkpt lat="48.27018" lon="7.39674">
        <ele>205.5</ele>
        <time>2026-03-18T12:17:08Z</time>
      </trkpt>
      <trkpt lat="48.27025" lon="7.39675">
        <ele>205.1</ele>
        <time>2026-03-18T12:17:13Z</time>
      </trkpt>
      <trkpt lat="48.27032" lon="7.39679">
        <ele>204.5</ele>
        <time>2026-03-18T12:17:18Z</time>
      </trkpt>
      <trkpt lat="48.27035" lon="7.39685">
        <ele>203.9</ele>
        <time>2026-03-18T12:17:23Z</time>
      </trkpt>
      <trkpt lat="48.27036" lon="7.39695">
        <ele>203</ele>
        <time>2026-03-18T12:17:28Z</time>
      </trkpt>
      <trkpt lat="48.27036" lon="7.39703">
        <ele>202.4</ele>
        <time>2026-03-18T12:17:33Z</time>
      </trkpt>
      <trkpt lat="48.27037" lon="7.39712">
        <ele>201.7</ele>
        <time>2026-03-18T12:17:38Z</time>
      </trkpt>
      <trkpt lat="48.27037" lon="7.39719">
        <ele>201.1</ele>
        <time>2026-03-18T12:17:43Z</time>
      </trkpt>
      <trkpt lat="48.27037" lon="7.39727">
        <ele>200.5</ele>
        <time>2026-03-18T12:17:48Z</time>
      </trkpt>
      <trkpt lat="48.27036" lon="7.39733">
        <ele>200</ele>
        <time>2026-03-18T12:17:53Z</time>
      </trkpt>
      <trkpt lat="48.27034" lon="7.39744">
        <ele>199.3</ele>
        <time>2026-03-18T12:17:58Z</time>
      </trkpt>
      <trkpt lat="48.27028" lon="7.39747">
        <ele>199.2</ele>
        <time>2026-03-18T12:18:03Z</time>
      </trkpt>
      <trkpt lat="48.27022" lon="7.39745">
        <ele>199.6</ele>
        <time>2026-03-18T12:18:08Z</time>
      </trkpt>
      <trkpt lat="48.27017" lon="7.39745">
        <ele>199.8</ele>
        <time>2026-03-18T12:18:13Z</time>
      </trkpt>
      <trkpt lat="48.27017" lon="7.39753">
        <ele>199.1</ele>
        <time>2026-03-18T12:18:18Z</time>
      </trkpt>
      <trkpt lat="48.27015" lon="7.39762">
        <ele>198.4</ele>
        <time>2026-03-18T12:18:23Z</time>
      </trkpt>
      <trkpt lat="48.27008" lon="7.39763">
        <ele>198.5</ele>
        <time>2026-03-18T12:18:28Z</time>
      </trkpt>
      <trkpt lat="48.27001" lon="7.39764">
        <ele>198.6</ele>
        <time>2026-03-18T12:18:33Z</time>
      </trkpt>
      <trkpt lat="48.26994" lon="7.39768">
        <ele>198.4</ele>
        <time>2026-03-18T12:18:38Z</time>
      </trkpt>
      <trkpt lat="48.2699" lon="7.39769">
        <ele>198.4</ele>
        <time>2026-03-18T12:18:43Z</time>
      </trkpt>
      <trkpt lat="48.26987" lon="7.3977">
        <ele>198.3</ele>
        <time>2026-03-18T12:18:48Z</time>
      </trkpt>
      <trkpt lat="48.26982" lon="7.39768">
        <ele>198.6</ele>
        <time>2026-03-18T12:18:53Z</time>
      </trkpt>
      <trkpt lat="48.26976" lon="7.3977">
        <ele>198.5</ele>
        <time>2026-03-18T12:18:58Z</time>
      </trkpt>
      <trkpt lat="48.26976" lon="7.39776">
        <ele>198</ele>
        <time>2026-03-18T12:19:03Z</time>
      </trkpt>
      <trkpt lat="48.26976" lon="7.39787">
        <ele>197</ele>
        <time>2026-03-18T12:19:08Z</time>
      </trkpt>
      <trkpt lat="48.26976" lon="7.39796">
        <ele>196.2</ele>
        <time>2026-03-18T12:19:13Z</time>
      </trkpt>
      <trkpt lat="48.26977" lon="7.39803">
        <ele>195.5</ele>
        <time>2026-03-18T12:19:18Z</time>
      </trkpt>
      <trkpt lat="48.26978" lon="7.39806">
        <ele>195.2</ele>
        <time>2026-03-18T12:19:23Z</time>
      </trkpt>
      <trkpt lat="48.26977" lon="7.3981">
        <ele>194.9</ele>
        <time>2026-03-18T12:19:28Z</time>
      </trkpt>
      <trkpt lat="48.26975" lon="7.39812">
        <ele>194.8</ele>
        <time>2026-03-18T12:19:33Z</time>
      </trkpt>
      <trkpt lat="48.26971" lon="7.39812">
        <ele>194.9</ele>
        <time>2026-03-18T12:19:38Z</time>
      </trkpt>
      <trkpt lat="48.26966" lon="7.39812">
        <ele>195.1</ele>
        <time>2026-03-18T12:19:43Z</time>
      </trkpt>
      <trkpt lat="48.26961" lon="7.3981">
        <ele>195.4</ele>
        <time>2026-03-18T12:19:48Z</time>
      </trkpt>
      <trkpt lat="48.26955" lon="7.39809">
        <ele>195.6</ele>
        <time>2026-03-18T12:19:53Z</time>
      </trkpt>
      <trkpt lat="48.26949" lon="7.39808">
        <ele>195.9</ele>
        <time>2026-03-18T12:19:58Z</time>
      </trkpt>
      <trkpt lat="48.26942" lon="7.39808">
        <ele>196.1</ele>
        <time>2026-03-18T12:20:03Z</time>
      </trkpt>
      <trkpt lat="48.26936" lon="7.39807">
        <ele>196.3</ele>
        <time>2026-03-18T12:20:08Z</time>
      </trkpt>
      <trkpt lat="48.2693" lon="7.39807">
        <ele>196.5</ele>
        <time>2026-03-18T12:20:13Z</time>
      </trkpt>
      <trkpt lat="48.26924" lon="7.39804">
        <ele>196.9</ele>
        <time>2026-03-18T12:20:18Z</time>
      </trkpt>
      <trkpt lat="48.26915" lon="7.39807">
        <ele>196.9</ele>
        <time>2026-03-18T12:20:23Z</time>
      </trkpt>
      <trkpt lat="48.26909" lon="7.39805">
        <ele>197.3</ele>
        <time>2026-03-18T12:20:28Z</time>
      </trkpt>
      <trkpt lat="48.26909" lon="7.39805">
        <ele>197.3</ele>
        <time>2026-03-18T12:20:33Z</time>
      </trkpt>
      <trkpt lat="48.26909" lon="7.39805">
        <ele>197.3</ele>
        <time>2026-03-18T12:20:38Z</time>
      </trkpt>
      <trkpt lat="48.26909" lon="7.39805">
        <ele>197.3</ele>
        <time>2026-03-18T12:20:43Z</time>
      </trkpt>
      <trkpt lat="48.26909" lon="7.39805">
        <ele>197.3</ele>
        <time>2026-03-18T12:20:48Z</time>
      </trkpt>
      <trkpt lat="48.26909" lon="7.39805">
        <ele>197.3</ele>
        <time>2026-03-18T12:20:53Z</time>
      </trkpt>
      <trkpt lat="48.26909" lon="7.39805">
        <ele>197.3</ele>
        <time>2026-03-18T12:20:58Z</time>
      </trkpt>
      <trkpt lat="48.26908" lon="7.39805">
        <ele>197.3</ele>
        <time>2026-03-18T12:21:03Z</time>
      </trkpt>
      <trkpt lat="48.269" lon="7.39807">
        <ele>197.4</ele>
        <time>2026-03-18T12:21:08Z</time>
      </trkpt>
      <trkpt lat="48.26896" lon="7.39803">
        <ele>197.8</ele>
        <time>2026-03-18T12:21:13Z</time>
      </trkpt>
      <trkpt lat="48.26894" lon="7.398">
        <ele>198.1</ele>
        <time>2026-03-18T12:21:18Z</time>
      </trkpt>
      <trkpt lat="48.26889" lon="7.39793">
        <ele>198.7</ele>
        <time>2026-03-18T12:21:23Z</time>
      </trkpt>
      <trkpt lat="48.26885" lon="7.39788">
        <ele>199.2</ele>
        <time>2026-03-18T12:21:28Z</time>
      </trkpt>
      <trkpt lat="48.26882" lon="7.39786">
        <ele>199.4</ele>
        <time>2026-03-18T12:21:33Z</time>
      </trkpt>
      <trkpt lat="48.26881" lon="7.39788">
        <ele>199.3</ele>
        <time>2026-03-18T12:21:38Z</time>
      </trkpt>
      <trkpt lat="48.26876" lon="7.39788">
        <ele>199.5</ele>
        <time>2026-03-18T12:21:43Z</time>
      </trkpt>
      <trkpt lat="48.26872" lon="7.39783">
        <ele>199.9</ele>
        <time>2026-03-18T12:21:48Z</time>
      </trkpt>
      <trkpt lat="48.2687" lon="7.39778">
        <ele>200.3</ele>
        <time>2026-03-18T12:21:53Z</time>
      </trkpt>
      <trkpt lat="48.26868" lon="7.39772">
        <ele>200.7</ele>
        <time>2026-03-18T12:21:58Z</time>
      </trkpt>
      <trkpt lat="48.26864" lon="7.39764">
        <ele>201.4</ele>
        <time>2026-03-18T12:22:03Z</time>
      </trkpt>
      <trkpt lat="48.26862" lon="7.39759">
        <ele>201.7</ele>
        <time>2026-03-18T12:22:08Z</time>
      </trkpt>
      <trkpt lat="48.2686" lon="7.3975">
        <ele>202.4</ele>
        <time>2026-03-18T12:22:13Z</time>
      </trkpt>
      <trkpt lat="48.26856" lon="7.39745">
        <ele>202.9</ele>
        <time>2026-03-18T12:22:18Z</time>
      </trkpt>
      <trkpt lat="48.26855" lon="7.39739">
        <ele>203.4</ele>
        <time>2026-03-18T12:22:23Z</time>
      </trkpt>
      <trkpt lat="48.26854" lon="7.39731">
        <ele>204</ele>
        <time>2026-03-18T12:22:28Z</time>
      </trkpt>
      <trkpt lat="48.26855" lon="7.39723">
        <ele>204.7</ele>
        <time>2026-03-18T12:22:33Z</time>
      </trkpt>
      <trkpt lat="48.26856" lon="7.39715">
        <ele>205.3</ele>
        <time>2026-03-18T12:22:38Z</time>
      </trkpt>
      <trkpt lat="48.26857" lon="7.39707">
        <ele>205.9</ele>
        <time>2026-03-18T12:22:43Z</time>
      </trkpt>
      <trkpt lat="48.26858" lon="7.397">
        <ele>206.4</ele>
        <time>2026-03-18T12:22:48Z</time>
      </trkpt>
      <trkpt lat="48.26858" lon="7.39692">
        <ele>207.1</ele>
        <time>2026-03-18T12:22:53Z</time>
      </trkpt>
      <trkpt lat="48.2686" lon="7.39684">
        <ele>207.7</ele>
        <time>2026-03-18T12:22:58Z</time>
      </trkpt>
      <trkpt lat="48.26861" lon="7.39676">
        <ele>208.3</ele>
        <time>2026-03-18T12:23:03Z</time>
      </trkpt>
      <trkpt lat="48.26861" lon="7.39668">
        <ele>208.9</ele>
        <time>2026-03-18T12:23:08Z</time>
      </trkpt>
      <trkpt lat="48.26861" lon="7.39665">
        <ele>209.2</ele>
        <time>2026-03-18T12:23:13Z</time>
      </trkpt>
      <trkpt lat="48.26862" lon="7.39657">
        <ele>209.9</ele>
        <time>2026-03-18T12:23:18Z</time>
      </trkpt>
      <trkpt lat="48.26862" lon="7.3965">
        <ele>210.6</ele>
        <time>2026-03-18T12:23:23Z</time>
      </trkpt>
      <trkpt lat="48.26865" lon="7.39643">
        <ele>211.3</ele>
        <time>2026-03-18T12:23:28Z</time>
      </trkpt>
      <trkpt lat="48.26871" lon="7.39639">
        <ele>211.6</ele>
        <time>2026-03-18T12:23:33Z</time>
      </trkpt>
      <trkpt lat="48.26876" lon="7.39635">
        <ele>211.9</ele>
        <time>2026-03-18T12:23:38Z</time>
      </trkpt>
      <trkpt lat="48.26881" lon="7.39632">
        <ele>212.1</ele>
        <time>2026-03-18T12:23:43Z</time>
      </trkpt>
      <trkpt lat="48.26888" lon="7.39631">
        <ele>212.2</ele>
        <time>2026-03-18T12:23:48Z</time>
      </trkpt>
      <trkpt lat="48.26894" lon="7.39632">
        <ele>211.9</ele>
        <time>2026-03-18T12:23:53Z</time>
      </trkpt>
      <trkpt lat="48.26901" lon="7.3963">
        <ele>212.1</ele>
        <time>2026-03-18T12:23:58Z</time>
      </trkpt>
      <trkpt lat="48.26908" lon="7.3963">
        <ele>212</ele>
        <time>2026-03-18T12:24:03Z</time>
      </trkpt>
      <trkpt lat="48.26915" lon="7.39631">
        <ele>211.7</ele>
        <time>2026-03-18T12:24:08Z</time>
      </trkpt>
      <trkpt lat="48.26922" lon="7.3963">
        <ele>211.7</ele>
        <time>2026-03-18T12:24:13Z</time>
      </trkpt>
      <trkpt lat="48.26928" lon="7.39629">
        <ele>211.7</ele>
        <time>2026-03-18T12:24:18Z</time>
      </trkpt>
      <trkpt lat="48.26934" lon="7.39631">
        <ele>211.4</ele>
        <time>2026-03-18T12:24:23Z</time>
      </trkpt>
      <trkpt lat="48.2694" lon="7.39632">
        <ele>211.1</ele>
        <time>2026-03-18T12:24:28Z</time>
      </trkpt>
      <trkpt lat="48.26948" lon="7.39633">
        <ele>210.8</ele>
        <time>2026-03-18T12:24:33Z</time>
      </trkpt>
      <trkpt lat="48.26955" lon="7.39632">
        <ele>210.8</ele>
        <time>2026-03-18T12:24:38Z</time>
      </trkpt>
      <trkpt lat="48.26963" lon="7.39632">
        <ele>210.7</ele>
        <time>2026-03-18T12:24:43Z</time>
      </trkpt>
      <trkpt lat="48.2697" lon="7.39633">
        <ele>210.4</ele>
        <time>2026-03-18T12:24:48Z</time>
      </trkpt>
      <trkpt lat="48.26976" lon="7.39634">
        <ele>210.2</ele>
        <time>2026-03-18T12:24:53Z</time>
      </trkpt>
      <trkpt lat="48.26983" lon="7.39633">
        <ele>210.2</ele>
        <time>2026-03-18T12:24:58Z</time>
      </trkpt>
      <trkpt lat="48.26991" lon="7.39633">
        <ele>210</ele>
        <time>2026-03-18T12:25:03Z</time>
      </trkpt>
      <trkpt lat="48.26996" lon="7.39631">
        <ele>210.1</ele>
        <time>2026-03-18T12:25:08Z</time>
      </trkpt>
      <trkpt lat="48.27" lon="7.3963">
        <ele>210.1</ele>
        <time>2026-03-18T12:25:13Z</time>
      </trkpt>
      <trkpt lat="48.27002" lon="7.3963">
        <ele>210</ele>
        <time>2026-03-18T12:25:18Z</time>
      </trkpt>
      <trkpt lat="48.27008" lon="7.39633">
        <ele>209.5</ele>
        <time>2026-03-18T12:25:23Z</time>
      </trkpt>
      <trkpt lat="48.27014" lon="7.39632">
        <ele>209.3</ele>
        <time>2026-03-18T12:25:28Z</time>
      </trkpt>
      <trkpt lat="48.27019" lon="7.39627">
        <ele>209.5</ele>
        <time>2026-03-18T12:25:33Z</time>
      </trkpt>
      <trkpt lat="48.27022" lon="7.39621">
        <ele>209.9</ele>
        <time>2026-03-18T12:25:38Z</time>
      </trkpt>
      <trkpt lat="48.27025" lon="7.39615">
        <ele>210.3</ele>
        <time>2026-03-18T12:25:43Z</time>
      </trkpt>
      <trkpt lat="48.27028" lon="7.3961">
        <ele>210.6</ele>
        <time>2026-03-18T12:25:48Z</time>
      </trkpt>
      <trkpt lat="48.27029" lon="7.39603">
        <ele>211.2</ele>
        <time>2026-03-18T12:25:53Z</time>
      </trkpt>
      <trkpt lat="48.27033" lon="7.39596">
        <ele>211.7</ele>
        <time>2026-03-18T12:25:58Z</time>
      </trkpt>
      <trkpt lat="48.2704" lon="7.3959">
        <ele>212</ele>
        <time>2026-03-18T12:26:03Z</time>
      </trkpt>
      <trkpt lat="48.27045" lon="7.39584">
        <ele>212.3</ele>
        <time>2026-03-18T12:26:08Z</time>
      </trkpt>
      <trkpt lat="48.27051" lon="7.39579">
        <ele>213</ele>
        <time>2026-03-18T12:26:13Z</time>
      </trkpt>
      <trkpt lat="48.27057" lon="7.39573">
        <ele>213.9</ele>
        <time>2026-03-18T12:26:18Z</time>
      </trkpt>
      <trkpt lat="48.27061" lon="7.3957">
        <ele>214.4</ele>
        <time>2026-03-18T12:26:23Z</time>
      </trkpt>
      <trkpt lat="48.27063" lon="7.3957">
        <ele>214.3</ele>
        <time>2026-03-18T12:26:28Z</time>
      </trkpt>
      <trkpt lat="48.27065" lon="7.39568">
        <ele>214.6</ele>
        <time>2026-03-18T12:26:33Z</time>
      </trkpt>
      <trkpt lat="48.27068" lon="7.39561">
        <ele>215.8</ele>
        <time>2026-03-18T12:26:38Z</time>
      </trkpt>
      <trkpt lat="48.27071" lon="7.39552">
        <ele>217.5</ele>
        <time>2026-03-18T12:26:43Z</time>
      </trkpt>
      <trkpt lat="48.27074" lon="7.39544">
        <ele>218.9</ele>
        <time>2026-03-18T12:26:48Z</time>
      </trkpt>
      <trkpt lat="48.27078" lon="7.39536">
        <ele>220.3</ele>
        <time>2026-03-18T12:26:53Z</time>
      </trkpt>
      <trkpt lat="48.2708" lon="7.39529">
        <ele>221.6</ele>
        <time>2026-03-18T12:26:58Z</time>
      </trkpt>
      <trkpt lat="48.27082" lon="7.39522">
        <ele>222.8</ele>
        <time>2026-03-18T12:27:03Z</time>
      </trkpt>
      <trkpt lat="48.27086" lon="7.39514">
        <ele>224</ele>
        <time>2026-03-18T12:27:08Z</time>
      </trkpt>
      <trkpt lat="48.2709" lon="7.39508">
        <ele>224.8</ele>
        <time>2026-03-18T12:27:13Z</time>
      </trkpt>
      <trkpt lat="48.27093" lon="7.39504">
        <ele>225.2</ele>
        <time>2026-03-18T12:27:18Z</time>
      </trkpt>
      <trkpt lat="48.27093" lon="7.39502">
        <ele>225.6</ele>
        <time>2026-03-18T12:27:23Z</time>
      </trkpt>
      <trkpt lat="48.27095" lon="7.395">
        <ele>225.7</ele>
        <time>2026-03-18T12:27:28Z</time>
      </trkpt>
      <trkpt lat="48.27098" lon="7.39499">
        <ele>225.6</ele>
        <time>2026-03-18T12:27:33Z</time>
      </trkpt>
      <trkpt lat="48.27099" lon="7.39499">
        <ele>225.5</ele>
        <time>2026-03-18T12:27:38Z</time>
      </trkpt>
      <trkpt lat="48.27099" lon="7.39498">
        <ele>225.7</ele>
        <time>2026-03-18T12:27:43Z</time>
      </trkpt>
      <trkpt lat="48.27099" lon="7.39498">
        <ele>225.7</ele>
        <time>2026-03-18T12:27:48Z</time>
      </trkpt>
      <trkpt lat="48.27099" lon="7.39498">
        <ele>225.7</ele>
        <time>2026-03-18T12:27:53Z</time>
      </trkpt>
      <trkpt lat="48.27099" lon="7.39498">
        <ele>225.7</ele>
        <time>2026-03-18T12:27:58Z</time>
      </trkpt>
      <trkpt lat="48.27099" lon="7.39498">
        <ele>225.7</ele>
        <time>2026-03-18T12:28:03Z</time>
      </trkpt>
      <trkpt lat="48.27099" lon="7.39498">
        <ele>225.7</ele>
        <time>2026-03-18T12:28:08Z</time>
      </trkpt>
      <trkpt lat="48.27099" lon="7.39498">
        <ele>225.7</ele>
        <time>2026-03-18T12:28:13Z</time>
      </trkpt>
      <trkpt lat="48.27099" lon="7.39498">
        <ele>225.7</ele>
        <time>2026-03-18T12:28:18Z</time>
      </trkpt>
      <trkpt lat="48.27099" lon="7.39498">
        <ele>225.7</ele>
        <time>2026-03-18T12:28:23Z</time>
      </trkpt>
      <trkpt lat="48.27099" lon="7.39498">
        <ele>225.7</ele>
        <time>2026-03-18T12:28:28Z</time>
      </trkpt>
      <trkpt lat="48.27099" lon="7.39498">
        <ele>225.7</ele>
        <time>2026-03-18T12:28:33Z</time>
      </trkpt>
      <trkpt lat="48.27099" lon="7.39498">
        <ele>225.7</ele>
        <time>2026-03-18T12:28:38Z</time>
      </trkpt>
      <trkpt lat="48.27099" lon="7.39498">
        <ele>225.7</ele>
        <time>2026-03-18T12:28:43Z</time>
      </trkpt>
      <trkpt lat="48.27099" lon="7.39498">
        <ele>225.7</ele>
        <time>2026-03-18T12:28:48Z</time>
      </trkpt>
      <trkpt lat="48.27102" lon="7.39498">
        <ele>225.3</ele>
        <time>2026-03-18T12:28:53Z</time>
      </trkpt>
      <trkpt lat="48.27106" lon="7.39496">
        <ele>225.3</ele>
        <time>2026-03-18T12:28:58Z</time>
      </trkpt>
      <trkpt lat="48.27111" lon="7.39492">
        <ele>225.5</ele>
        <time>2026-03-18T12:29:03Z</time>
      </trkpt>
      <trkpt lat="48.27116" lon="7.3949">
        <ele>225.3</ele>
        <time>2026-03-18T12:29:08Z</time>
      </trkpt>
      <trkpt lat="48.27121" lon="7.39487">
        <ele>225.3</ele>
        <time>2026-03-18T12:29:13Z</time>
      </trkpt>
      <trkpt lat="48.27126" lon="7.39485">
        <ele>225.1</ele>
        <time>2026-03-18T12:29:18Z</time>
      </trkpt>
      <trkpt lat="48.27131" lon="7.39484">
        <ele>224.7</ele>
        <time>2026-03-18T12:29:23Z</time>
      </trkpt>
      <trkpt lat="48.27136" lon="7.39483">
        <ele>224.4</ele>
        <time>2026-03-18T12:29:28Z</time>
      </trkpt>
      <trkpt lat="48.27139" lon="7.39482">
        <ele>224.2</ele>
        <time>2026-03-18T12:29:33Z</time>
      </trkpt>
      <trkpt lat="48.27143" lon="7.39482">
        <ele>223.8</ele>
        <time>2026-03-18T12:29:38Z</time>
      </trkpt>
      <trkpt lat="48.27146" lon="7.3948">
        <ele>223.8</ele>
        <time>2026-03-18T12:29:43Z</time>
      </trkpt>
      <trkpt lat="48.27151" lon="7.39478">
        <ele>223.7</ele>
        <time>2026-03-18T12:29:48Z</time>
      </trkpt>
      <trkpt lat="48.27155" lon="7.39478">
        <ele>223.2</ele>
        <time>2026-03-18T12:29:53Z</time>
      </trkpt>
      <trkpt lat="48.27159" lon="7.39477">
        <ele>223</ele>
        <time>2026-03-18T12:29:58Z</time>
      </trkpt>
      <trkpt lat="48.27163" lon="7.39474">
        <ele>223.1</ele>
        <time>2026-03-18T12:30:03Z</time>
      </trkpt>
      <trkpt lat="48.27167" lon="7.39472">
        <ele>223.1</ele>
        <time>2026-03-18T12:30:08Z</time>
      </trkpt>
      <trkpt lat="48.27172" lon="7.39469">
        <ele>223.9</ele>
        <time>2026-03-18T12:30:13Z</time>
      </trkpt>
      <trkpt lat="48.27177" lon="7.39466">
        <ele>224.7</ele>
        <time>2026-03-18T12:30:18Z</time>
      </trkpt>
      <trkpt lat="48.27182" lon="7.39465">
        <ele>225.2</ele>
        <time>2026-03-18T12:30:23Z</time>
      </trkpt>
      <trkpt lat="48.27188" lon="7.39464">
        <ele>225.8</ele>
        <time>2026-03-18T12:30:28Z</time>
      </trkpt>
      <trkpt lat="48.27194" lon="7.39463">
        <ele>226.3</ele>
        <time>2026-03-18T12:30:33Z</time>
      </trkpt>
      <trkpt lat="48.272" lon="7.39462">
        <ele>226.9</ele>
        <time>2026-03-18T12:30:38Z</time>
      </trkpt>
      <trkpt lat="48.27206" lon="7.39461">
        <ele>227.5</ele>
        <time>2026-03-18T12:30:43Z</time>
      </trkpt>
      <trkpt lat="48.27211" lon="7.39459">
        <ele>228.3</ele>
        <time>2026-03-18T12:30:48Z</time>
      </trkpt>
      <trkpt lat="48.27217" lon="7.39459">
        <ele>228.7</ele>
        <time>2026-03-18T12:30:53Z</time>
      </trkpt>
      <trkpt lat="48.27224" lon="7.39459">
        <ele>229.1</ele>
        <time>2026-03-18T12:30:58Z</time>
      </trkpt>
      <trkpt lat="48.2723" lon="7.39459">
        <ele>229.5</ele>
        <time>2026-03-18T12:31:03Z</time>
      </trkpt>
      <trkpt lat="48.27236" lon="7.39457">
        <ele>230.4</ele>
        <time>2026-03-18T12:31:08Z</time>
      </trkpt>
      <trkpt lat="48.27237" lon="7.39454">
        <ele>231.2</ele>
        <time>2026-03-18T12:31:13Z</time>
      </trkpt>
      <trkpt lat="48.2724" lon="7.39453">
        <ele>231.7</ele>
        <time>2026-03-18T12:31:18Z</time>
      </trkpt>
      <trkpt lat="48.27247" lon="7.39449">
        <ele>233.2</ele>
        <time>2026-03-18T12:31:23Z</time>
      </trkpt>
      <trkpt lat="48.27253" lon="7.39446">
        <ele>234.3</ele>
        <time>2026-03-18T12:31:28Z</time>
      </trkpt>
      <trkpt lat="48.27258" lon="7.39442">
        <ele>235.5</ele>
        <time>2026-03-18T12:31:33Z</time>
      </trkpt>
      <trkpt lat="48.27264" lon="7.39438">
        <ele>236.7</ele>
        <time>2026-03-18T12:31:38Z</time>
      </trkpt>
      <trkpt lat="48.27269" lon="7.39435">
        <ele>237.6</ele>
        <time>2026-03-18T12:31:43Z</time>
      </trkpt>
      <trkpt lat="48.27274" lon="7.39432">
        <ele>238.5</ele>
        <time>2026-03-18T12:31:48Z</time>
      </trkpt>
      <trkpt lat="48.2728" lon="7.3943">
        <ele>239.1</ele>
        <time>2026-03-18T12:31:53Z</time>
      </trkpt>
      <trkpt lat="48.27286" lon="7.39429">
        <ele>239.5</ele>
        <time>2026-03-18T12:31:58Z</time>
      </trkpt>
      <trkpt lat="48.27292" lon="7.39426">
        <ele>240.5</ele>
        <time>2026-03-18T12:32:03Z</time>
      </trkpt>
      <trkpt lat="48.27297" lon="7.39424">
        <ele>241.1</ele>
        <time>2026-03-18T12:32:08Z</time>
      </trkpt>
      <trkpt lat="48.27302" lon="7.39423">
        <ele>241.5</ele>
        <time>2026-03-18T12:32:13Z</time>
      </trkpt>
      <trkpt lat="48.27307" lon="7.3942">
        <ele>242.5</ele>
        <time>2026-03-18T12:32:18Z</time>
      </trkpt>
      <trkpt lat="48.27314" lon="7.39418">
        <ele>243.2</ele>
        <time>2026-03-18T12:32:23Z</time>
      </trkpt>
      <trkpt lat="48.2732" lon="7.39416">
        <ele>243.9</ele>
        <time>2026-03-18T12:32:28Z</time>
      </trkpt>
      <trkpt lat="48.27328" lon="7.39413">
        <ele>245.1</ele>
        <time>2026-03-18T12:32:33Z</time>
      </trkpt>
      <trkpt lat="48.27336" lon="7.39411">
        <ele>245.8</ele>
        <time>2026-03-18T12:32:38Z</time>
      </trkpt>
      <trkpt lat="48.27344" lon="7.39408">
        <ele>246.3</ele>
        <time>2026-03-18T12:32:43Z</time>
      </trkpt>
      <trkpt lat="48.27351" lon="7.39406">
        <ele>246.6</ele>
        <time>2026-03-18T12:32:48Z</time>
      </trkpt>
      <trkpt lat="48.27356" lon="7.39406">
        <ele>246.3</ele>
        <time>2026-03-18T12:32:53Z</time>
      </trkpt>
      <trkpt lat="48.27361" lon="7.39405">
        <ele>246.4</ele>
        <time>2026-03-18T12:32:58Z</time>
      </trkpt>
      <trkpt lat="48.27368" lon="7.39404">
        <ele>246.3</ele>
        <time>2026-03-18T12:33:03Z</time>
      </trkpt>
      <trkpt lat="48.27374" lon="7.39401">
        <ele>246.9</ele>
        <time>2026-03-18T12:33:08Z</time>
      </trkpt>
      <trkpt lat="48.27379" lon="7.39397">
        <ele>247.8</ele>
        <time>2026-03-18T12:33:13Z</time>
      </trkpt>
      <trkpt lat="48.27381" lon="7.39391">
        <ele>249.5</ele>
        <time>2026-03-18T12:33:18Z</time>
      </trkpt>
      <trkpt lat="48.27377" lon="7.39386">
        <ele>251.2</ele>
        <time>2026-03-18T12:33:23Z</time>
      </trkpt>
      <trkpt lat="48.2737" lon="7.39383">
        <ele>252.7</ele>
        <time>2026-03-18T12:33:28Z</time>
      </trkpt>
      <trkpt lat="48.27364" lon="7.39384">
        <ele>252.8</ele>
        <time>2026-03-18T12:33:33Z</time>
      </trkpt>
      <trkpt lat="48.27358" lon="7.39385">
        <ele>252.9</ele>
        <time>2026-03-18T12:33:38Z</time>
      </trkpt>
      <trkpt lat="48.27352" lon="7.39386">
        <ele>253</ele>
        <time>2026-03-18T12:33:43Z</time>
      </trkpt>
      <trkpt lat="48.27346" lon="7.39385">
        <ele>253.7</ele>
        <time>2026-03-18T12:33:48Z</time>
      </trkpt>
      <trkpt lat="48.2734" lon="7.39385">
        <ele>254.2</ele>
        <time>2026-03-18T12:33:53Z</time>
      </trkpt>
      <trkpt lat="48.27335" lon="7.39385">
        <ele>254.5</ele>
        <time>2026-03-18T12:33:58Z</time>
      </trkpt>
      <trkpt lat="48.2733" lon="7.39386">
        <ele>254.3</ele>
        <time>2026-03-18T12:34:03Z</time>
      </trkpt>
      <trkpt lat="48.27325" lon="7.39387">
        <ele>253.9</ele>
        <time>2026-03-18T12:34:08Z</time>
      </trkpt>
      <trkpt lat="48.2732" lon="7.39388">
        <ele>253.6</ele>
        <time>2026-03-18T12:34:13Z</time>
      </trkpt>
      <trkpt lat="48.27315" lon="7.39391">
        <ele>252.5</ele>
        <time>2026-03-18T12:34:18Z</time>
      </trkpt>
      <trkpt lat="48.27311" lon="7.39392">
        <ele>252.1</ele>
        <time>2026-03-18T12:34:23Z</time>
      </trkpt>
      <trkpt lat="48.27307" lon="7.39392">
        <ele>252.1</ele>
        <time>2026-03-18T12:34:28Z</time>
      </trkpt>
      <trkpt lat="48.27302" lon="7.39394">
        <ele>251.4</ele>
        <time>2026-03-18T12:34:33Z</time>
      </trkpt>
      <trkpt lat="48.27297" lon="7.39398">
        <ele>249.9</ele>
        <time>2026-03-18T12:34:38Z</time>
      </trkpt>
      <trkpt lat="48.27291" lon="7.394">
        <ele>249.1</ele>
        <time>2026-03-18T12:34:43Z</time>
      </trkpt>
      <trkpt lat="48.27286" lon="7.39397">
        <ele>250.1</ele>
        <time>2026-03-18T12:34:48Z</time>
      </trkpt>
      <trkpt lat="48.27284" lon="7.39394">
        <ele>251.2</ele>
        <time>2026-03-18T12:34:53Z</time>
      </trkpt>
      <trkpt lat="48.27283" lon="7.39393">
        <ele>251.6</ele>
        <time>2026-03-18T12:34:58Z</time>
      </trkpt>
      <trkpt lat="48.27284" lon="7.39386">
        <ele>254.2</ele>
        <time>2026-03-18T12:35:03Z</time>
      </trkpt>
      <trkpt lat="48.27288" lon="7.39381">
        <ele>256.1</ele>
        <time>2026-03-18T12:35:08Z</time>
      </trkpt>
      <trkpt lat="48.27293" lon="7.3938">
        <ele>256.4</ele>
        <time>2026-03-18T12:35:13Z</time>
      </trkpt>
      <trkpt lat="48.27298" lon="7.39378">
        <ele>257.1</ele>
        <time>2026-03-18T12:35:18Z</time>
      </trkpt>
      <trkpt lat="48.27303" lon="7.39375">
        <ele>258.2</ele>
        <time>2026-03-18T12:35:23Z</time>
      </trkpt>
      <trkpt lat="48.27307" lon="7.39371">
        <ele>259.6</ele>
        <time>2026-03-18T12:35:28Z</time>
      </trkpt>
      <trkpt lat="48.2731" lon="7.39368">
        <ele>260.6</ele>
        <time>2026-03-18T12:35:33Z</time>
      </trkpt>
      <trkpt lat="48.27315" lon="7.39364">
        <ele>262</ele>
        <time>2026-03-18T12:35:38Z</time>
      </trkpt>
      <trkpt lat="48.27321" lon="7.3936">
        <ele>263.2</ele>
        <time>2026-03-18T12:35:43Z</time>
      </trkpt>
      <trkpt lat="48.27326" lon="7.39357">
        <ele>264.2</ele>
        <time>2026-03-18T12:35:48Z</time>
      </trkpt>
      <trkpt lat="48.27329" lon="7.39353">
        <ele>265.5</ele>
        <time>2026-03-18T12:35:53Z</time>
      </trkpt>
      <trkpt lat="48.27333" lon="7.39348">
        <ele>267.1</ele>
        <time>2026-03-18T12:35:58Z</time>
      </trkpt>
      <trkpt lat="48.27336" lon="7.39344">
        <ele>268.1</ele>
        <time>2026-03-18T12:36:03Z</time>
      </trkpt>
      <trkpt lat="48.27339" lon="7.39341">
        <ele>268.8</ele>
        <time>2026-03-18T12:36:08Z</time>
      </trkpt>
      <trkpt lat="48.27343" lon="7.39337">
        <ele>269.7</ele>
        <time>2026-03-18T12:36:13Z</time>
      </trkpt>
      <trkpt lat="48.27346" lon="7.39334">
        <ele>270.4</ele>
        <time>2026-03-18T12:36:18Z</time>
      </trkpt>
      <trkpt lat="48.27349" lon="7.39331">
        <ele>271</ele>
        <time>2026-03-18T12:36:23Z</time>
      </trkpt>
      <trkpt lat="48.27354" lon="7.39328">
        <ele>271.4</ele>
        <time>2026-03-18T12:36:28Z</time>
      </trkpt>
      <trkpt lat="48.27358" lon="7.39326">
        <ele>271.6</ele>
        <time>2026-03-18T12:36:33Z</time>
      </trkpt>
      <trkpt lat="48.27364" lon="7.39324">
        <ele>271.7</ele>
        <time>2026-03-18T12:36:38Z</time>
      </trkpt>
      <trkpt lat="48.27369" lon="7.39322">
        <ele>271.8</ele>
        <time>2026-03-18T12:36:43Z</time>
      </trkpt>
      <trkpt lat="48.27374" lon="7.39321">
        <ele>271.6</ele>
        <time>2026-03-18T12:36:48Z</time>
      </trkpt>
      <trkpt lat="48.27379" lon="7.39321">
        <ele>271.1</ele>
        <time>2026-03-18T12:36:53Z</time>
      </trkpt>
      <trkpt lat="48.27384" lon="7.3932">
        <ele>270.9</ele>
        <time>2026-03-18T12:36:58Z</time>
      </trkpt>
      <trkpt lat="48.27389" lon="7.3932">
        <ele>270.4</ele>
        <time>2026-03-18T12:37:03Z</time>
      </trkpt>
      <trkpt lat="48.27393" lon="7.39319">
        <ele>270.3</ele>
        <time>2026-03-18T12:37:08Z</time>
      </trkpt>
      <trkpt lat="48.27398" lon="7.39318">
        <ele>270.2</ele>
        <time>2026-03-18T12:37:13Z</time>
      </trkpt>
      <trkpt lat="48.27403" lon="7.39314">
        <ele>271.1</ele>
        <time>2026-03-18T12:37:18Z</time>
      </trkpt>
      <trkpt lat="48.27409" lon="7.39313">
        <ele>270.8</ele>
        <time>2026-03-18T12:37:23Z</time>
      </trkpt>
      <trkpt lat="48.27414" lon="7.39311">
        <ele>271</ele>
        <time>2026-03-18T12:37:28Z</time>
      </trkpt>
      <trkpt lat="48.27418" lon="7.39309">
        <ele>271.4</ele>
        <time>2026-03-18T12:37:33Z</time>
      </trkpt>
      <trkpt lat="48.27423" lon="7.39308">
        <ele>271.7</ele>
        <time>2026-03-18T12:37:38Z</time>
      </trkpt>
      <trkpt lat="48.27428" lon="7.39308">
        <ele>271.5</ele>
        <time>2026-03-18T12:37:43Z</time>
      </trkpt>
      <trkpt lat="48.27433" lon="7.39306">
        <ele>272.1</ele>
        <time>2026-03-18T12:37:48Z</time>
      </trkpt>
      <trkpt lat="48.27438" lon="7.39304">
        <ele>272.7</ele>
        <time>2026-03-18T12:37:53Z</time>
      </trkpt>
      <trkpt lat="48.27442" lon="7.39303">
        <ele>273</ele>
        <time>2026-03-18T12:37:58Z</time>
      </trkpt>
      <trkpt lat="48.27447" lon="7.39304">
        <ele>272.5</ele>
        <time>2026-03-18T12:38:03Z</time>
      </trkpt>
      <trkpt lat="48.27452" lon="7.39305">
        <ele>272</ele>
        <time>2026-03-18T12:38:08Z</time>
      </trkpt>
      <trkpt lat="48.27457" lon="7.39304">
        <ele>272.3</ele>
        <time>2026-03-18T12:38:13Z</time>
      </trkpt>
      <trkpt lat="48.27462" lon="7.39305">
        <ele>271.8</ele>
        <time>2026-03-18T12:38:18Z</time>
      </trkpt>
      <trkpt lat="48.27467" lon="7.39305">
        <ele>271.7</ele>
        <time>2026-03-18T12:38:23Z</time>
      </trkpt>
      <trkpt lat="48.27472" lon="7.39304">
        <ele>271.9</ele>
        <time>2026-03-18T12:38:28Z</time>
      </trkpt>
      <trkpt lat="48.27477" lon="7.39305">
        <ele>271.4</ele>
        <time>2026-03-18T12:38:33Z</time>
      </trkpt>
      <trkpt lat="48.27481" lon="7.39309">
        <ele>269.8</ele>
        <time>2026-03-18T12:38:38Z</time>
      </trkpt>
      <trkpt lat="48.27485" lon="7.39309">
        <ele>269.7</ele>
        <time>2026-03-18T12:38:43Z</time>
      </trkpt>
      <trkpt lat="48.2749" lon="7.3931">
        <ele>269.2</ele>
        <time>2026-03-18T12:38:48Z</time>
      </trkpt>
      <trkpt lat="48.27495" lon="7.39312">
        <ele>268.3</ele>
        <time>2026-03-18T12:38:53Z</time>
      </trkpt>
      <trkpt lat="48.27502" lon="7.39314">
        <ele>267.5</ele>
        <time>2026-03-18T12:38:58Z</time>
      </trkpt>
      <trkpt lat="48.27508" lon="7.39315">
        <ele>267.5</ele>
        <time>2026-03-18T12:39:03Z</time>
      </trkpt>
      <trkpt lat="48.27513" lon="7.39317">
        <ele>267</ele>
        <time>2026-03-18T12:39:08Z</time>
      </trkpt>
      <trkpt lat="48.27519" lon="7.39319">
        <ele>266.6</ele>
        <time>2026-03-18T12:39:13Z</time>
      </trkpt>
      <trkpt lat="48.27526" lon="7.3932">
        <ele>266.6</ele>
        <time>2026-03-18T12:39:18Z</time>
      </trkpt>
      <trkpt lat="48.27533" lon="7.39323">
        <ele>265.9</ele>
        <time>2026-03-18T12:39:23Z</time>
      </trkpt>
      <trkpt lat="48.27539" lon="7.39324">
        <ele>265.9</ele>
        <time>2026-03-18T12:39:28Z</time>
      </trkpt>
      <trkpt lat="48.27544" lon="7.39325">
        <ele>265.8</ele>
        <time>2026-03-18T12:39:33Z</time>
      </trkpt>
      <trkpt lat="48.2755" lon="7.39327">
        <ele>265.4</ele>
        <time>2026-03-18T12:39:38Z</time>
      </trkpt>
      <trkpt lat="48.27557" lon="7.39326">
        <ele>266.2</ele>
        <time>2026-03-18T12:39:43Z</time>
      </trkpt>
      <trkpt lat="48.27564" lon="7.39327">
        <ele>266.2</ele>
        <time>2026-03-18T12:39:48Z</time>
      </trkpt>
      <trkpt lat="48.27571" lon="7.39329">
        <ele>265.9</ele>
        <time>2026-03-18T12:39:53Z</time>
      </trkpt>
      <trkpt lat="48.27578" lon="7.3933">
        <ele>265.9</ele>
        <time>2026-03-18T12:39:58Z</time>
      </trkpt>
      <trkpt lat="48.27583" lon="7.39332">
        <ele>265.5</ele>
        <time>2026-03-18T12:40:03Z</time>
      </trkpt>
      <trkpt lat="48.2759" lon="7.39335">
        <ele>265.5</ele>
        <time>2026-03-18T12:40:08Z</time>
      </trkpt>
      <trkpt lat="48.27597" lon="7.39336">
        <ele>266.3</ele>
        <time>2026-03-18T12:40:13Z</time>
      </trkpt>
      <trkpt lat="48.27604" lon="7.39337">
        <ele>267.1</ele>
        <time>2026-03-18T12:40:18Z</time>
      </trkpt>
      <trkpt lat="48.2761" lon="7.39337">
        <ele>268</ele>
        <time>2026-03-18T12:40:23Z</time>
      </trkpt>
      <trkpt lat="48.27616" lon="7.39337">
        <ele>268.9</ele>
        <time>2026-03-18T12:40:28Z</time>
      </trkpt>
      <trkpt lat="48.27623" lon="7.39338">
        <ele>269.7</ele>
        <time>2026-03-18T12:40:33Z</time>
      </trkpt>
      <trkpt lat="48.27628" lon="7.3934">
        <ele>269.8</ele>
        <time>2026-03-18T12:40:38Z</time>
      </trkpt>
      <trkpt lat="48.27634" lon="7.39342">
        <ele>270.1</ele>
        <time>2026-03-18T12:40:43Z</time>
      </trkpt>
      <trkpt lat="48.2764" lon="7.39342">
        <ele>271</ele>
        <time>2026-03-18T12:40:48Z</time>
      </trkpt>
      <trkpt lat="48.27646" lon="7.39344">
        <ele>271.2</ele>
        <time>2026-03-18T12:40:53Z</time>
      </trkpt>
      <trkpt lat="48.27653" lon="7.39345">
        <ele>271.9</ele>
        <time>2026-03-18T12:40:58Z</time>
      </trkpt>
      <trkpt lat="48.27658" lon="7.39346">
        <ele>272.3</ele>
        <time>2026-03-18T12:41:03Z</time>
      </trkpt>
      <trkpt lat="48.27664" lon="7.39349">
        <ele>272.2</ele>
        <time>2026-03-18T12:41:08Z</time>
      </trkpt>
      <trkpt lat="48.27669" lon="7.39348">
        <ele>273</ele>
        <time>2026-03-18T12:41:13Z</time>
      </trkpt>
      <trkpt lat="48.27675" lon="7.3935">
        <ele>272.5</ele>
        <time>2026-03-18T12:41:18Z</time>
      </trkpt>
      <trkpt lat="48.27681" lon="7.39349">
        <ele>273.1</ele>
        <time>2026-03-18T12:41:23Z</time>
      </trkpt>
      <trkpt lat="48.27688" lon="7.39348">
        <ele>273.7</ele>
        <time>2026-03-18T12:41:28Z</time>
      </trkpt>
      <trkpt lat="48.27694" lon="7.39347">
        <ele>274.3</ele>
        <time>2026-03-18T12:41:33Z</time>
      </trkpt>
      <trkpt lat="48.27699" lon="7.39343">
        <ele>275.8</ele>
        <time>2026-03-18T12:41:38Z</time>
      </trkpt>
      <trkpt lat="48.27702" lon="7.39336">
        <ele>278.4</ele>
        <time>2026-03-18T12:41:43Z</time>
      </trkpt>
      <trkpt lat="48.27704" lon="7.39328">
        <ele>281</ele>
        <time>2026-03-18T12:41:48Z</time>
      </trkpt>
      <trkpt lat="48.27705" lon="7.39319">
        <ele>283.7</ele>
        <time>2026-03-18T12:41:53Z</time>
      </trkpt>
      <trkpt lat="48.27707" lon="7.39311">
        <ele>286.2</ele>
        <time>2026-03-18T12:41:58Z</time>
      </trkpt>
      <trkpt lat="48.27707" lon="7.39303">
        <ele>288.6</ele>
        <time>2026-03-18T12:42:03Z</time>
      </trkpt>
      <trkpt lat="48.27708" lon="7.39296">
        <ele>290.7</ele>
        <time>2026-03-18T12:42:08Z</time>
      </trkpt>
      <trkpt lat="48.2771" lon="7.39288">
        <ele>293.1</ele>
        <time>2026-03-18T12:42:13Z</time>
      </trkpt>
      <trkpt lat="48.27711" lon="7.39278">
        <ele>296</ele>
        <time>2026-03-18T12:42:18Z</time>
      </trkpt>
      <trkpt lat="48.27712" lon="7.39268">
        <ele>298.9</ele>
        <time>2026-03-18T12:42:23Z</time>
      </trkpt>
      <trkpt lat="48.27711" lon="7.39261">
        <ele>301</ele>
        <time>2026-03-18T12:42:28Z</time>
      </trkpt>
      <trkpt lat="48.2771" lon="7.39252">
        <ele>303.8</ele>
        <time>2026-03-18T12:42:33Z</time>
      </trkpt>
      <trkpt lat="48.27709" lon="7.39242">
        <ele>305.9</ele>
        <time>2026-03-18T12:42:38Z</time>
      </trkpt>
      <trkpt lat="48.2771" lon="7.39233">
        <ele>307.4</ele>
        <time>2026-03-18T12:42:43Z</time>
      </trkpt>
      <trkpt lat="48.27709" lon="7.39224">
        <ele>309.2</ele>
        <time>2026-03-18T12:42:48Z</time>
      </trkpt>
      <trkpt lat="48.27709" lon="7.39223">
        <ele>309.4</ele>
        <time>2026-03-18T12:42:53Z</time>
      </trkpt>
      <trkpt lat="48.27709" lon="7.39223">
        <ele>309.4</ele>
        <time>2026-03-18T12:42:58Z</time>
      </trkpt>
      <trkpt lat="48.27709" lon="7.39223">
        <ele>309.4</ele>
        <time>2026-03-18T12:43:03Z</time>
      </trkpt>
      <trkpt lat="48.27713" lon="7.39218">
        <ele>309.6</ele>
        <time>2026-03-18T12:43:08Z</time>
      </trkpt>
      <trkpt lat="48.27713" lon="7.3921">
        <ele>311</ele>
        <time>2026-03-18T12:43:13Z</time>
      </trkpt>
      <trkpt lat="48.27714" lon="7.39203">
        <ele>312</ele>
        <time>2026-03-18T12:43:18Z</time>
      </trkpt>
      <trkpt lat="48.27713" lon="7.39195">
        <ele>313.6</ele>
        <time>2026-03-18T12:43:23Z</time>
      </trkpt>
      <trkpt lat="48.27712" lon="7.39187">
        <ele>315.2</ele>
        <time>2026-03-18T12:43:28Z</time>
      </trkpt>
      <trkpt lat="48.27709" lon="7.39184">
        <ele>316.6</ele>
        <time>2026-03-18T12:43:33Z</time>
      </trkpt>
      <trkpt lat="48.27707" lon="7.39181">
        <ele>317.7</ele>
        <time>2026-03-18T12:43:38Z</time>
      </trkpt>
      <trkpt lat="48.27707" lon="7.39179">
        <ele>318.1</ele>
        <time>2026-03-18T12:43:43Z</time>
      </trkpt>
      <trkpt lat="48.27707" lon="7.39179">
        <ele>318.1</ele>
        <time>2026-03-18T12:43:48Z</time>
      </trkpt>
      <trkpt lat="48.27705" lon="7.39172">
        <ele>320.1</ele>
        <time>2026-03-18T12:43:53Z</time>
      </trkpt>
      <trkpt lat="48.27703" lon="7.39165">
        <ele>321.8</ele>
        <time>2026-03-18T12:43:58Z</time>
      </trkpt>
      <trkpt lat="48.27701" lon="7.3916">
        <ele>322.7</ele>
        <time>2026-03-18T12:44:03Z</time>
      </trkpt>
      <trkpt lat="48.27699" lon="7.39153">
        <ele>323.6</ele>
        <time>2026-03-18T12:44:08Z</time>
      </trkpt>
      <trkpt lat="48.27697" lon="7.39148">
        <ele>324.5</ele>
        <time>2026-03-18T12:44:13Z</time>
      </trkpt>
      <trkpt lat="48.27695" lon="7.39143">
        <ele>325.4</ele>
        <time>2026-03-18T12:44:18Z</time>
      </trkpt>
      <trkpt lat="48.27694" lon="7.39132">
        <ele>326.2</ele>
        <time>2026-03-18T12:44:23Z</time>
      </trkpt>
      <trkpt lat="48.27691" lon="7.39122">
        <ele>327.9</ele>
        <time>2026-03-18T12:44:28Z</time>
      </trkpt>
      <trkpt lat="48.27689" lon="7.39116">
        <ele>329</ele>
        <time>2026-03-18T12:44:33Z</time>
      </trkpt>
      <trkpt lat="48.27688" lon="7.3911">
        <ele>329.7</ele>
        <time>2026-03-18T12:44:38Z</time>
      </trkpt>
      <trkpt lat="48.27686" lon="7.39103">
        <ele>330.9</ele>
        <time>2026-03-18T12:44:43Z</time>
      </trkpt>
      <trkpt lat="48.27683" lon="7.39097">
        <ele>332.6</ele>
        <time>2026-03-18T12:44:48Z</time>
      </trkpt>
      <trkpt lat="48.27682" lon="7.3909">
        <ele>333.4</ele>
        <time>2026-03-18T12:44:53Z</time>
      </trkpt>
      <trkpt lat="48.2768" lon="7.39081">
        <ele>334.5</ele>
        <time>2026-03-18T12:44:58Z</time>
      </trkpt>
      <trkpt lat="48.27677" lon="7.39075">
        <ele>335.2</ele>
        <time>2026-03-18T12:45:03Z</time>
      </trkpt>
      <trkpt lat="48.27675" lon="7.39068">
        <ele>335.3</ele>
        <time>2026-03-18T12:45:08Z</time>
      </trkpt>
      <trkpt lat="48.27673" lon="7.39061">
        <ele>335.4</ele>
        <time>2026-03-18T12:45:13Z</time>
      </trkpt>
      <trkpt lat="48.27672" lon="7.39053">
        <ele>334.9</ele>
        <time>2026-03-18T12:45:18Z</time>
      </trkpt>
      <trkpt lat="48.2767" lon="7.39046">
        <ele>335</ele>
        <time>2026-03-18T12:45:23Z</time>
      </trkpt>
      <trkpt lat="48.27669" lon="7.39039">
        <ele>334.6</ele>
        <time>2026-03-18T12:45:28Z</time>
      </trkpt>
      <trkpt lat="48.27666" lon="7.39032">
        <ele>335</ele>
        <time>2026-03-18T12:45:33Z</time>
      </trkpt>
      <trkpt lat="48.27664" lon="7.39025">
        <ele>334.8</ele>
        <time>2026-03-18T12:45:38Z</time>
      </trkpt>
      <trkpt lat="48.27661" lon="7.39017">
        <ele>334.8</ele>
        <time>2026-03-18T12:45:43Z</time>
      </trkpt>
      <trkpt lat="48.27658" lon="7.39011">
        <ele>335.2</ele>
        <time>2026-03-18T12:45:48Z</time>
      </trkpt>
      <trkpt lat="48.27654" lon="7.39004">
        <ele>335.8</ele>
        <time>2026-03-18T12:45:53Z</time>
      </trkpt>
      <trkpt lat="48.27651" lon="7.38998">
        <ele>336.1</ele>
        <time>2026-03-18T12:45:58Z</time>
      </trkpt>
      <trkpt lat="48.27648" lon="7.38992">
        <ele>336.2</ele>
        <time>2026-03-18T12:46:03Z</time>
      </trkpt>
      <trkpt lat="48.27644" lon="7.38987">
        <ele>336.8</ele>
        <time>2026-03-18T12:46:08Z</time>
      </trkpt>
      <trkpt lat="48.27641" lon="7.3898">
        <ele>336.8</ele>
        <time>2026-03-18T12:46:13Z</time>
      </trkpt>
      <trkpt lat="48.27637" lon="7.38975">
        <ele>337.5</ele>
        <time>2026-03-18T12:46:18Z</time>
      </trkpt>
      <trkpt lat="48.27633" lon="7.38969">
        <ele>338</ele>
        <time>2026-03-18T12:46:23Z</time>
      </trkpt>
      <trkpt lat="48.2763" lon="7.38963">
        <ele>338.3</ele>
        <time>2026-03-18T12:46:28Z</time>
      </trkpt>
      <trkpt lat="48.27626" lon="7.38957">
        <ele>338.9</ele>
        <time>2026-03-18T12:46:33Z</time>
      </trkpt>
      <trkpt lat="48.27623" lon="7.38953">
        <ele>339.5</ele>
        <time>2026-03-18T12:46:38Z</time>
      </trkpt>
      <trkpt lat="48.27619" lon="7.38948">
        <ele>340.4</ele>
        <time>2026-03-18T12:46:43Z</time>
      </trkpt>
      <trkpt lat="48.27615" lon="7.38943">
        <ele>341.3</ele>
        <time>2026-03-18T12:46:48Z</time>
      </trkpt>
      <trkpt lat="48.27612" lon="7.38938">
        <ele>341.8</ele>
        <time>2026-03-18T12:46:53Z</time>
      </trkpt>
      <trkpt lat="48.27608" lon="7.38932">
        <ele>342.6</ele>
        <time>2026-03-18T12:46:58Z</time>
      </trkpt>
      <trkpt lat="48.27604" lon="7.38925">
        <ele>343.4</ele>
        <time>2026-03-18T12:47:03Z</time>
      </trkpt>
      <trkpt lat="48.276" lon="7.38919">
        <ele>344.3</ele>
        <time>2026-03-18T12:47:08Z</time>
      </trkpt>
      <trkpt lat="48.27597" lon="7.38914">
        <ele>344.7</ele>
        <time>2026-03-18T12:47:13Z</time>
      </trkpt>
      <trkpt lat="48.27595" lon="7.38908">
        <ele>344.2</ele>
        <time>2026-03-18T12:47:18Z</time>
      </trkpt>
      <trkpt lat="48.27593" lon="7.38901">
        <ele>343.5</ele>
        <time>2026-03-18T12:47:23Z</time>
      </trkpt>
      <trkpt lat="48.27591" lon="7.38894">
        <ele>342.9</ele>
        <time>2026-03-18T12:47:28Z</time>
      </trkpt>
      <trkpt lat="48.27588" lon="7.38889">
        <ele>343</ele>
        <time>2026-03-18T12:47:33Z</time>
      </trkpt>
      <trkpt lat="48.27585" lon="7.38883">
        <ele>343</ele>
        <time>2026-03-18T12:47:38Z</time>
      </trkpt>
      <trkpt lat="48.27582" lon="7.38876">
        <ele>342.7</ele>
        <time>2026-03-18T12:47:43Z</time>
      </trkpt>
      <trkpt lat="48.27577" lon="7.38871">
        <ele>343.5</ele>
        <time>2026-03-18T12:47:48Z</time>
      </trkpt>
      <trkpt lat="48.27574" lon="7.38865">
        <ele>343.3</ele>
        <time>2026-03-18T12:47:53Z</time>
      </trkpt>
      <trkpt lat="48.2757" lon="7.38859">
        <ele>343.6</ele>
        <time>2026-03-18T12:47:58Z</time>
      </trkpt>
      <trkpt lat="48.27567" lon="7.38854">
        <ele>343.7</ele>
        <time>2026-03-18T12:48:03Z</time>
      </trkpt>
      <trkpt lat="48.27563" lon="7.3885">
        <ele>344.4</ele>
        <time>2026-03-18T12:48:08Z</time>
      </trkpt>
      <trkpt lat="48.27558" lon="7.38846">
        <ele>345.5</ele>
        <time>2026-03-18T12:48:13Z</time>
      </trkpt>
      <trkpt lat="48.27554" lon="7.38841">
        <ele>346.1</ele>
        <time>2026-03-18T12:48:18Z</time>
      </trkpt>
      <trkpt lat="48.2755" lon="7.38834">
        <ele>346.3</ele>
        <time>2026-03-18T12:48:23Z</time>
      </trkpt>
      <trkpt lat="48.27545" lon="7.3883">
        <ele>347.3</ele>
        <time>2026-03-18T12:48:28Z</time>
      </trkpt>
      <trkpt lat="48.2754" lon="7.38826">
        <ele>348.3</ele>
        <time>2026-03-18T12:48:33Z</time>
      </trkpt>
      <trkpt lat="48.27535" lon="7.3882">
        <ele>348.7</ele>
        <time>2026-03-18T12:48:38Z</time>
      </trkpt>
      <trkpt lat="48.2753" lon="7.38816">
        <ele>349.7</ele>
        <time>2026-03-18T12:48:43Z</time>
      </trkpt>
      <trkpt lat="48.27527" lon="7.38811">
        <ele>349.6</ele>
        <time>2026-03-18T12:48:48Z</time>
      </trkpt>
      <trkpt lat="48.27522" lon="7.38808">
        <ele>350.8</ele>
        <time>2026-03-18T12:48:53Z</time>
      </trkpt>
      <trkpt lat="48.27518" lon="7.38804">
        <ele>351.4</ele>
        <time>2026-03-18T12:48:58Z</time>
      </trkpt>
      <trkpt lat="48.27515" lon="7.38799">
        <ele>351.3</ele>
        <time>2026-03-18T12:49:03Z</time>
      </trkpt>
      <trkpt lat="48.27511" lon="7.38793">
        <ele>351.4</ele>
        <time>2026-03-18T12:49:08Z</time>
      </trkpt>
      <trkpt lat="48.27507" lon="7.38788">
        <ele>351.8</ele>
        <time>2026-03-18T12:49:13Z</time>
      </trkpt>
      <trkpt lat="48.27503" lon="7.38782">
        <ele>351.9</ele>
        <time>2026-03-18T12:49:18Z</time>
      </trkpt>
      <trkpt lat="48.27499" lon="7.38777">
        <ele>352.2</ele>
        <time>2026-03-18T12:49:23Z</time>
      </trkpt>
      <trkpt lat="48.27495" lon="7.38773">
        <ele>352.7</ele>
        <time>2026-03-18T12:49:28Z</time>
      </trkpt>
      <trkpt lat="48.27491" lon="7.38767">
        <ele>352.8</ele>
        <time>2026-03-18T12:49:33Z</time>
      </trkpt>
      <trkpt lat="48.27487" lon="7.38762">
        <ele>353.3</ele>
        <time>2026-03-18T12:49:38Z</time>
      </trkpt>
      <trkpt lat="48.27483" lon="7.38758">
        <ele>354</ele>
        <time>2026-03-18T12:49:43Z</time>
      </trkpt>
      <trkpt lat="48.27478" lon="7.38754">
        <ele>355.1</ele>
        <time>2026-03-18T12:49:48Z</time>
      </trkpt>
      <trkpt lat="48.27475" lon="7.38751">
        <ele>355.7</ele>
        <time>2026-03-18T12:49:53Z</time>
      </trkpt>
      <trkpt lat="48.27471" lon="7.38745">
        <ele>356.1</ele>
        <time>2026-03-18T12:49:58Z</time>
      </trkpt>
      <trkpt lat="48.27468" lon="7.3874">
        <ele>356.3</ele>
        <time>2026-03-18T12:50:03Z</time>
      </trkpt>
      <trkpt lat="48.27464" lon="7.38734">
        <ele>356.6</ele>
        <time>2026-03-18T12:50:08Z</time>
      </trkpt>
      <trkpt lat="48.2746" lon="7.38727">
        <ele>356.8</ele>
        <time>2026-03-18T12:50:13Z</time>
      </trkpt>
      <trkpt lat="48.27457" lon="7.38723">
        <ele>357.2</ele>
        <time>2026-03-18T12:50:18Z</time>
      </trkpt>
      <trkpt lat="48.27455" lon="7.38721">
        <ele>357.7</ele>
        <time>2026-03-18T12:50:23Z</time>
      </trkpt>
      <trkpt lat="48.27452" lon="7.38717">
        <ele>358.1</ele>
        <time>2026-03-18T12:50:28Z</time>
      </trkpt>
      <trkpt lat="48.27448" lon="7.38711">
        <ele>358.5</ele>
        <time>2026-03-18T12:50:33Z</time>
      </trkpt>
      <trkpt lat="48.27443" lon="7.38707">
        <ele>359.8</ele>
        <time>2026-03-18T12:50:38Z</time>
      </trkpt>
      <trkpt lat="48.27439" lon="7.38703">
        <ele>360.7</ele>
        <time>2026-03-18T12:50:43Z</time>
      </trkpt>
      <trkpt lat="48.27435" lon="7.38698">
        <ele>361.4</ele>
        <time>2026-03-18T12:50:48Z</time>
      </trkpt>
      <trkpt lat="48.27432" lon="7.38694">
        <ele>361.9</ele>
        <time>2026-03-18T12:50:53Z</time>
      </trkpt>
      <trkpt lat="48.2743" lon="7.38692">
        <ele>362.3</ele>
        <time>2026-03-18T12:50:58Z</time>
      </trkpt>
      <trkpt lat="48.27427" lon="7.38687">
        <ele>362.6</ele>
        <time>2026-03-18T12:51:03Z</time>
      </trkpt>
      <trkpt lat="48.27425" lon="7.38686">
        <ele>363.3</ele>
        <time>2026-03-18T12:51:08Z</time>
      </trkpt>
      <trkpt lat="48.27425" lon="7.38686">
        <ele>363.3</ele>
        <time>2026-03-18T12:51:13Z</time>
      </trkpt>
      <trkpt lat="48.2742" lon="7.3868">
        <ele>364.3</ele>
        <time>2026-03-18T12:51:18Z</time>
      </trkpt>
      <trkpt lat="48.27416" lon="7.38674">
        <ele>364.8</ele>
        <time>2026-03-18T12:51:23Z</time>
      </trkpt>
      <trkpt lat="48.27413" lon="7.3867">
        <ele>365.3</ele>
        <time>2026-03-18T12:51:28Z</time>
      </trkpt>
      <trkpt lat="48.27409" lon="7.38665">
        <ele>366.1</ele>
        <time>2026-03-18T12:51:33Z</time>
      </trkpt>
      <trkpt lat="48.27405" lon="7.3866">
        <ele>367.2</ele>
        <time>2026-03-18T12:51:38Z</time>
      </trkpt>
      <trkpt lat="48.27401" lon="7.38654">
        <ele>368</ele>
        <time>2026-03-18T12:51:43Z</time>
      </trkpt>
      <trkpt lat="48.27398" lon="7.38649">
        <ele>368.6</ele>
        <time>2026-03-18T12:51:48Z</time>
      </trkpt>
      <trkpt lat="48.27395" lon="7.38644">
        <ele>369.2</ele>
        <time>2026-03-18T12:51:53Z</time>
      </trkpt>
      <trkpt lat="48.2739" lon="7.3864">
        <ele>370.9</ele>
        <time>2026-03-18T12:51:58Z</time>
      </trkpt>
      <trkpt lat="48.27386" lon="7.38635">
        <ele>372</ele>
        <time>2026-03-18T12:52:03Z</time>
      </trkpt>
      <trkpt lat="48.27384" lon="7.38631">
        <ele>372.3</ele>
        <time>2026-03-18T12:52:08Z</time>
      </trkpt>
      <trkpt lat="48.27381" lon="7.38625">
        <ele>372.8</ele>
        <time>2026-03-18T12:52:13Z</time>
      </trkpt>
      <trkpt lat="48.27377" lon="7.38619">
        <ele>373.7</ele>
        <time>2026-03-18T12:52:18Z</time>
      </trkpt>
      <trkpt lat="48.27374" lon="7.38612">
        <ele>374.1</ele>
        <time>2026-03-18T12:52:23Z</time>
      </trkpt>
      <trkpt lat="48.27372" lon="7.38606">
        <ele>374.1</ele>
        <time>2026-03-18T12:52:28Z</time>
      </trkpt>
      <trkpt lat="48.27367" lon="7.38603">
        <ele>376</ele>
        <time>2026-03-18T12:52:33Z</time>
      </trkpt>
      <trkpt lat="48.27364" lon="7.38601">
        <ele>377.1</ele>
        <time>2026-03-18T12:52:38Z</time>
      </trkpt>
      <trkpt lat="48.27365" lon="7.38597">
        <ele>376.1</ele>
        <time>2026-03-18T12:52:43Z</time>
      </trkpt>
      <trkpt lat="48.27362" lon="7.3859">
        <ele>376.5</ele>
        <time>2026-03-18T12:52:48Z</time>
      </trkpt>
      <trkpt lat="48.27358" lon="7.38585">
        <ele>377.7</ele>
        <time>2026-03-18T12:52:53Z</time>
      </trkpt>
      <trkpt lat="48.27354" lon="7.38578">
        <ele>379.3</ele>
        <time>2026-03-18T12:52:58Z</time>
      </trkpt>
      <trkpt lat="48.27352" lon="7.38572">
        <ele>380.2</ele>
        <time>2026-03-18T12:53:03Z</time>
      </trkpt>
      <trkpt lat="48.27349" lon="7.38568">
        <ele>381.6</ele>
        <time>2026-03-18T12:53:08Z</time>
      </trkpt>
      <trkpt lat="48.27346" lon="7.38562">
        <ele>383</ele>
        <time>2026-03-18T12:53:13Z</time>
      </trkpt>
      <trkpt lat="48.27342" lon="7.38556">
        <ele>384.8</ele>
        <time>2026-03-18T12:53:18Z</time>
      </trkpt>
      <trkpt lat="48.27339" lon="7.38548">
        <ele>386</ele>
        <time>2026-03-18T12:53:23Z</time>
      </trkpt>
      <trkpt lat="48.27341" lon="7.3854">
        <ele>385.1</ele>
        <time>2026-03-18T12:53:28Z</time>
      </trkpt>
      <trkpt lat="48.27341" lon="7.38534">
        <ele>385</ele>
        <time>2026-03-18T12:53:33Z</time>
      </trkpt>
      <trkpt lat="48.2734" lon="7.38529">
        <ele>385.4</ele>
        <time>2026-03-18T12:53:38Z</time>
      </trkpt>
      <trkpt lat="48.27337" lon="7.38523">
        <ele>386.7</ele>
        <time>2026-03-18T12:53:43Z</time>
      </trkpt>
      <trkpt lat="48.27334" lon="7.38518">
        <ele>387.9</ele>
        <time>2026-03-18T12:53:48Z</time>
      </trkpt>
      <trkpt lat="48.27333" lon="7.38513">
        <ele>388.3</ele>
        <time>2026-03-18T12:53:53Z</time>
      </trkpt>
      <trkpt lat="48.27332" lon="7.38512">
        <ele>388.7</ele>
        <time>2026-03-18T12:53:58Z</time>
      </trkpt>
      <trkpt lat="48.27332" lon="7.38512">
        <ele>388.7</ele>
        <time>2026-03-18T12:54:03Z</time>
      </trkpt>
      <trkpt lat="48.27332" lon="7.38512">
        <ele>388.7</ele>
        <time>2026-03-18T12:54:08Z</time>
      </trkpt>
      <trkpt lat="48.27332" lon="7.38512">
        <ele>388.7</ele>
        <time>2026-03-18T12:54:13Z</time>
      </trkpt>
      <trkpt lat="48.27332" lon="7.38512">
        <ele>388.7</ele>
        <time>2026-03-18T12:54:18Z</time>
      </trkpt>
      <trkpt lat="48.27332" lon="7.38512">
        <ele>388.7</ele>
        <time>2026-03-18T12:54:23Z</time>
      </trkpt>
      <trkpt lat="48.27332" lon="7.38512">
        <ele>388.7</ele>
        <time>2026-03-18T12:54:28Z</time>
      </trkpt>
      <trkpt lat="48.27329" lon="7.3851">
        <ele>389.9</ele>
        <time>2026-03-18T12:54:33Z</time>
      </trkpt>
      <trkpt lat="48.27327" lon="7.38502">
        <ele>390.6</ele>
        <time>2026-03-18T12:54:38Z</time>
      </trkpt>
      <trkpt lat="48.27325" lon="7.38495">
        <ele>391.5</ele>
        <time>2026-03-18T12:54:43Z</time>
      </trkpt>
      <trkpt lat="48.27323" lon="7.38489">
        <ele>392.4</ele>
        <time>2026-03-18T12:54:48Z</time>
      </trkpt>
      <trkpt lat="48.2732" lon="7.38482">
        <ele>393.7</ele>
        <time>2026-03-18T12:54:53Z</time>
      </trkpt>
      <trkpt lat="48.27318" lon="7.38476">
        <ele>394.6</ele>
        <time>2026-03-18T12:54:58Z</time>
      </trkpt>
      <trkpt lat="48.27316" lon="7.3847">
        <ele>395.5</ele>
        <time>2026-03-18T12:55:03Z</time>
      </trkpt>
      <trkpt lat="48.27316" lon="7.38464">
        <ele>395.6</ele>
        <time>2026-03-18T12:55:08Z</time>
      </trkpt>
      <trkpt lat="48.27316" lon="7.38456">
        <ele>395.7</ele>
        <time>2026-03-18T12:55:13Z</time>
      </trkpt>
      <trkpt lat="48.27317" lon="7.38449">
        <ele>395.4</ele>
        <time>2026-03-18T12:55:18Z</time>
      </trkpt>
      <trkpt lat="48.27315" lon="7.38442">
        <ele>396.3</ele>
        <time>2026-03-18T12:55:23Z</time>
      </trkpt>
      <trkpt lat="48.27316" lon="7.38434">
        <ele>396</ele>
        <time>2026-03-18T12:55:28Z</time>
      </trkpt>
      <trkpt lat="48.27316" lon="7.38428">
        <ele>396.1</ele>
        <time>2026-03-18T12:55:33Z</time>
      </trkpt>
      <trkpt lat="48.27318" lon="7.38419">
        <ele>395.5</ele>
        <time>2026-03-18T12:55:38Z</time>
      </trkpt>
      <trkpt lat="48.27319" lon="7.3841">
        <ele>395.1</ele>
        <time>2026-03-18T12:55:43Z</time>
      </trkpt>
      <trkpt lat="48.27323" lon="7.38403">
        <ele>393.6</ele>
        <time>2026-03-18T12:55:48Z</time>
      </trkpt>
      <trkpt lat="48.27328" lon="7.38397">
        <ele>391.9</ele>
        <time>2026-03-18T12:55:53Z</time>
      </trkpt>
      <trkpt lat="48.27333" lon="7.38392">
        <ele>390.1</ele>
        <time>2026-03-18T12:55:58Z</time>
      </trkpt>
      <trkpt lat="48.27338" lon="7.38388">
        <ele>388.4</ele>
        <time>2026-03-18T12:56:03Z</time>
      </trkpt>
      <trkpt lat="48.27343" lon="7.38386">
        <ele>386.6</ele>
        <time>2026-03-18T12:56:08Z</time>
      </trkpt>
      <trkpt lat="48.27346" lon="7.38382">
        <ele>385.6</ele>
        <time>2026-03-18T12:56:13Z</time>
      </trkpt>
      <trkpt lat="48.27351" lon="7.3838">
        <ele>383.8</ele>
        <time>2026-03-18T12:56:18Z</time>
      </trkpt>
      <trkpt lat="48.27357" lon="7.38377">
        <ele>381.8</ele>
        <time>2026-03-18T12:56:23Z</time>
      </trkpt>
      <trkpt lat="48.2736" lon="7.38369">
        <ele>380.8</ele>
        <time>2026-03-18T12:56:28Z</time>
      </trkpt>
      <trkpt lat="48.27362" lon="7.3836">
        <ele>380.1</ele>
        <time>2026-03-18T12:56:33Z</time>
      </trkpt>
      <trkpt lat="48.27363" lon="7.3835">
        <ele>379.9</ele>
        <time>2026-03-18T12:56:38Z</time>
      </trkpt>
      <trkpt lat="48.27362" lon="7.38342">
        <ele>380.3</ele>
        <time>2026-03-18T12:56:43Z</time>
      </trkpt>
      <trkpt lat="48.27361" lon="7.38334">
        <ele>380.7</ele>
        <time>2026-03-18T12:56:48Z</time>
      </trkpt>
      <trkpt lat="48.27357" lon="7.38325">
        <ele>381</ele>
        <time>2026-03-18T12:56:53Z</time>
      </trkpt>
      <trkpt lat="48.27354" lon="7.38315">
        <ele>380.7</ele>
        <time>2026-03-18T12:56:58Z</time>
      </trkpt>
      <trkpt lat="48.27351" lon="7.38307">
        <ele>380.6</ele>
        <time>2026-03-18T12:57:03Z</time>
      </trkpt>
      <trkpt lat="48.27346" lon="7.383">
        <ele>381.2</ele>
        <time>2026-03-18T12:57:08Z</time>
      </trkpt>
      <trkpt lat="48.27343" lon="7.38294">
        <ele>381.4</ele>
        <time>2026-03-18T12:57:13Z</time>
      </trkpt>
      <trkpt lat="48.27339" lon="7.38287">
        <ele>381.6</ele>
        <time>2026-03-18T12:57:18Z</time>
      </trkpt>
      <trkpt lat="48.27335" lon="7.38279">
        <ele>381.7</ele>
        <time>2026-03-18T12:57:23Z</time>
      </trkpt>
      <trkpt lat="48.27331" lon="7.38273">
        <ele>381.9</ele>
        <time>2026-03-18T12:57:28Z</time>
      </trkpt>
      <trkpt lat="48.27325" lon="7.38267">
        <ele>382.6</ele>
        <time>2026-03-18T12:57:33Z</time>
      </trkpt>
      <trkpt lat="48.27319" lon="7.38261">
        <ele>383.2</ele>
        <time>2026-03-18T12:57:38Z</time>
      </trkpt>
      <trkpt lat="48.27313" lon="7.38256">
        <ele>383.8</ele>
        <time>2026-03-18T12:57:43Z</time>
      </trkpt>
      <trkpt lat="48.27307" lon="7.38251">
        <ele>384.5</ele>
        <time>2026-03-18T12:57:48Z</time>
      </trkpt>
      <trkpt lat="48.273" lon="7.38246">
        <ele>384.9</ele>
        <time>2026-03-18T12:57:53Z</time>
      </trkpt>
      <trkpt lat="48.27295" lon="7.38241">
        <ele>384.6</ele>
        <time>2026-03-18T12:57:58Z</time>
      </trkpt>
      <trkpt lat="48.27289" lon="7.38233">
        <ele>383.7</ele>
        <time>2026-03-18T12:58:03Z</time>
      </trkpt>
      <trkpt lat="48.27285" lon="7.38226">
        <ele>382.6</ele>
        <time>2026-03-18T12:58:08Z</time>
      </trkpt>
      <trkpt lat="48.27279" lon="7.38221">
        <ele>382.6</ele>
        <time>2026-03-18T12:58:13Z</time>
      </trkpt>
      <trkpt lat="48.27274" lon="7.38217">
        <ele>382.6</ele>
        <time>2026-03-18T12:58:18Z</time>
      </trkpt>
      <trkpt lat="48.27269" lon="7.38213">
        <ele>382.5</ele>
        <time>2026-03-18T12:58:23Z</time>
      </trkpt>
      <trkpt lat="48.27264" lon="7.38208">
        <ele>382.2</ele>
        <time>2026-03-18T12:58:28Z</time>
      </trkpt>
      <trkpt lat="48.27259" lon="7.38204">
        <ele>382.2</ele>
        <time>2026-03-18T12:58:33Z</time>
      </trkpt>
      <trkpt lat="48.27254" lon="7.38202">
        <ele>382.7</ele>
        <time>2026-03-18T12:58:38Z</time>
      </trkpt>
      <trkpt lat="48.27249" lon="7.38198">
        <ele>382.5</ele>
        <time>2026-03-18T12:58:43Z</time>
      </trkpt>
      <trkpt lat="48.27244" lon="7.38194">
        <ele>381.8</ele>
        <time>2026-03-18T12:58:48Z</time>
      </trkpt>
      <trkpt lat="48.27239" lon="7.38189">
        <ele>380.7</ele>
        <time>2026-03-18T12:58:53Z</time>
      </trkpt>
      <trkpt lat="48.27233" lon="7.38186">
        <ele>380.3</ele>
        <time>2026-03-18T12:58:58Z</time>
      </trkpt>
      <trkpt lat="48.27227" lon="7.38181">
        <ele>379.3</ele>
        <time>2026-03-18T12:59:03Z</time>
      </trkpt>
      <trkpt lat="48.2722" lon="7.38178">
        <ele>379</ele>
        <time>2026-03-18T12:59:08Z</time>
      </trkpt>
      <trkpt lat="48.27214" lon="7.38174">
        <ele>378.3</ele>
        <time>2026-03-18T12:59:13Z</time>
      </trkpt>
      <trkpt lat="48.27209" lon="7.3817">
        <ele>377.5</ele>
        <time>2026-03-18T12:59:18Z</time>
      </trkpt>
      <trkpt lat="48.27204" lon="7.38168">
        <ele>377.3</ele>
        <time>2026-03-18T12:59:23Z</time>
      </trkpt>
      <trkpt lat="48.27199" lon="7.38163">
        <ele>376.1</ele>
        <time>2026-03-18T12:59:28Z</time>
      </trkpt>
      <trkpt lat="48.27195" lon="7.38161">
        <ele>375.7</ele>
        <time>2026-03-18T12:59:33Z</time>
      </trkpt>
      <trkpt lat="48.2719" lon="7.38156">
        <ele>374.5</ele>
        <time>2026-03-18T12:59:38Z</time>
      </trkpt>
      <trkpt lat="48.27183" lon="7.38152">
        <ele>373.7</ele>
        <time>2026-03-18T12:59:43Z</time>
      </trkpt>
      <trkpt lat="48.27177" lon="7.38148">
        <ele>372.7</ele>
        <time>2026-03-18T12:59:48Z</time>
      </trkpt>
      <trkpt lat="48.2717" lon="7.38147">
        <ele>372.9</ele>
        <time>2026-03-18T12:59:53Z</time>
      </trkpt>
      <trkpt lat="48.27163" lon="7.38144">
        <ele>372.7</ele>
        <time>2026-03-18T12:59:58Z</time>
      </trkpt>
      <trkpt lat="48.27157" lon="7.38144">
        <ele>373.6</ele>
        <time>2026-03-18T13:00:03Z</time>
      </trkpt>
      <trkpt lat="48.27152" lon="7.38144">
        <ele>374.4</ele>
        <time>2026-03-18T13:00:08Z</time>
      </trkpt>
      <trkpt lat="48.27149" lon="7.38141">
        <ele>373.9</ele>
        <time>2026-03-18T13:00:13Z</time>
      </trkpt>
      <trkpt lat="48.27149" lon="7.38137">
        <ele>372.5</ele>
        <time>2026-03-18T13:00:18Z</time>
      </trkpt>
      <trkpt lat="48.27147" lon="7.38136">
        <ele>372.5</ele>
        <time>2026-03-18T13:00:23Z</time>
      </trkpt>
      <trkpt lat="48.2714" lon="7.38138">
        <ele>374.3</ele>
        <time>2026-03-18T13:00:28Z</time>
      </trkpt>
      <trkpt lat="48.27135" lon="7.38138">
        <ele>375.1</ele>
        <time>2026-03-18T13:00:33Z</time>
      </trkpt>
      <trkpt lat="48.27128" lon="7.38137">
        <ele>375.9</ele>
        <time>2026-03-18T13:00:38Z</time>
      </trkpt>
      <trkpt lat="48.27118" lon="7.38134">
        <ele>376.6</ele>
        <time>2026-03-18T13:00:43Z</time>
      </trkpt>
      <trkpt lat="48.27109" lon="7.38133">
        <ele>377.7</ele>
        <time>2026-03-18T13:00:48Z</time>
      </trkpt>
      <trkpt lat="48.27103" lon="7.38132">
        <ele>378.4</ele>
        <time>2026-03-18T13:00:53Z</time>
      </trkpt>
      <trkpt lat="48.27098" lon="7.38133">
        <ele>379.5</ele>
        <time>2026-03-18T13:00:58Z</time>
      </trkpt>
      <trkpt lat="48.27091" lon="7.38134">
        <ele>381</ele>
        <time>2026-03-18T13:01:03Z</time>
      </trkpt>
      <trkpt lat="48.27085" lon="7.38135">
        <ele>382.2</ele>
        <time>2026-03-18T13:01:08Z</time>
      </trkpt>
      <trkpt lat="48.27078" lon="7.38136">
        <ele>383.9</ele>
        <time>2026-03-18T13:01:13Z</time>
      </trkpt>
      <trkpt lat="48.27072" lon="7.38135">
        <ele>384.7</ele>
        <time>2026-03-18T13:01:18Z</time>
      </trkpt>
      <trkpt lat="48.27064" lon="7.38135">
        <ele>386.3</ele>
        <time>2026-03-18T13:01:23Z</time>
      </trkpt>
      <trkpt lat="48.27058" lon="7.38134">
        <ele>387.2</ele>
        <time>2026-03-18T13:01:28Z</time>
      </trkpt>
      <trkpt lat="48.27052" lon="7.38134">
        <ele>388.4</ele>
        <time>2026-03-18T13:01:33Z</time>
      </trkpt>
      <trkpt lat="48.27046" lon="7.38133">
        <ele>389.3</ele>
        <time>2026-03-18T13:01:38Z</time>
      </trkpt>
      <trkpt lat="48.2704" lon="7.38135">
        <ele>391.1</ele>
        <time>2026-03-18T13:01:43Z</time>
      </trkpt>
      <trkpt lat="48.27034" lon="7.38137">
        <ele>392.8</ele>
        <time>2026-03-18T13:01:48Z</time>
      </trkpt>
      <trkpt lat="48.27029" lon="7.38136">
        <ele>393.5</ele>
        <time>2026-03-18T13:01:53Z</time>
      </trkpt>
      <trkpt lat="48.27021" lon="7.3813">
        <ele>393.5</ele>
        <time>2026-03-18T13:01:58Z</time>
      </trkpt>
      <trkpt lat="48.27013" lon="7.38126">
        <ele>394.1</ele>
        <time>2026-03-18T13:02:03Z</time>
      </trkpt>
      <trkpt lat="48.27006" lon="7.38118">
        <ele>393.5</ele>
        <time>2026-03-18T13:02:08Z</time>
      </trkpt>
      <trkpt lat="48.27" lon="7.38109">
        <ele>392.5</ele>
        <time>2026-03-18T13:02:13Z</time>
      </trkpt>
      <trkpt lat="48.26996" lon="7.38101">
        <ele>392.1</ele>
        <time>2026-03-18T13:02:18Z</time>
      </trkpt>
      <trkpt lat="48.26992" lon="7.38091">
        <ele>391.4</ele>
        <time>2026-03-18T13:02:23Z</time>
      </trkpt>
      <trkpt lat="48.26986" lon="7.38083">
        <ele>392.2</ele>
        <time>2026-03-18T13:02:28Z</time>
      </trkpt>
      <trkpt lat="48.26981" lon="7.38076">
        <ele>393.3</ele>
        <time>2026-03-18T13:02:33Z</time>
      </trkpt>
      <trkpt lat="48.26976" lon="7.38072">
        <ele>394.9</ele>
        <time>2026-03-18T13:02:38Z</time>
      </trkpt>
      <trkpt lat="48.26971" lon="7.38067">
        <ele>396.3</ele>
        <time>2026-03-18T13:02:43Z</time>
      </trkpt>
      <trkpt lat="48.26966" lon="7.38061">
        <ele>397.5</ele>
        <time>2026-03-18T13:02:48Z</time>
      </trkpt>
      <trkpt lat="48.26962" lon="7.38056">
        <ele>398.4</ele>
        <time>2026-03-18T13:02:53Z</time>
      </trkpt>
      <trkpt lat="48.26956" lon="7.38048">
        <ele>399.5</ele>
        <time>2026-03-18T13:02:58Z</time>
      </trkpt>
      <trkpt lat="48.26949" lon="7.38042">
        <ele>401.4</ele>
        <time>2026-03-18T13:03:03Z</time>
      </trkpt>
      <trkpt lat="48.26944" lon="7.38039">
        <ele>402.9</ele>
        <time>2026-03-18T13:03:08Z</time>
      </trkpt>
      <trkpt lat="48.26941" lon="7.3803">
        <ele>402.4</ele>
        <time>2026-03-18T13:03:13Z</time>
      </trkpt>
      <trkpt lat="48.2694" lon="7.38019">
        <ele>400.8</ele>
        <time>2026-03-18T13:03:18Z</time>
      </trkpt>
      <trkpt lat="48.26938" lon="7.38009">
        <ele>399.7</ele>
        <time>2026-03-18T13:03:23Z</time>
      </trkpt>
      <trkpt lat="48.26937" lon="7.38">
        <ele>398.4</ele>
        <time>2026-03-18T13:03:28Z</time>
      </trkpt>
      <trkpt lat="48.26934" lon="7.37993">
        <ele>398.3</ele>
        <time>2026-03-18T13:03:33Z</time>
      </trkpt>
      <trkpt lat="48.2693" lon="7.37987">
        <ele>398.7</ele>
        <time>2026-03-18T13:03:38Z</time>
      </trkpt>
      <trkpt lat="48.26924" lon="7.37978">
        <ele>399.3</ele>
        <time>2026-03-18T13:03:43Z</time>
      </trkpt>
      <trkpt lat="48.26918" lon="7.37974">
        <ele>400.8</ele>
        <time>2026-03-18T13:03:48Z</time>
      </trkpt>
      <trkpt lat="48.26911" lon="7.37968">
        <ele>402.5</ele>
        <time>2026-03-18T13:03:53Z</time>
      </trkpt>
      <trkpt lat="48.26906" lon="7.37964">
        <ele>403.7</ele>
        <time>2026-03-18T13:03:58Z</time>
      </trkpt>
      <trkpt lat="48.26899" lon="7.37961">
        <ele>406</ele>
        <time>2026-03-18T13:04:03Z</time>
      </trkpt>
      <trkpt lat="48.26893" lon="7.37956">
        <ele>407.6</ele>
        <time>2026-03-18T13:04:08Z</time>
      </trkpt>
      <trkpt lat="48.26888" lon="7.37951">
        <ele>408.9</ele>
        <time>2026-03-18T13:04:13Z</time>
      </trkpt>
      <trkpt lat="48.26881" lon="7.37946">
        <ele>411.1</ele>
        <time>2026-03-18T13:04:18Z</time>
      </trkpt>
      <trkpt lat="48.26874" lon="7.3794">
        <ele>413.1</ele>
        <time>2026-03-18T13:04:23Z</time>
      </trkpt>
      <trkpt lat="48.26867" lon="7.37933">
        <ele>415.2</ele>
        <time>2026-03-18T13:04:28Z</time>
      </trkpt>
      <trkpt lat="48.26863" lon="7.37928">
        <ele>416.3</ele>
        <time>2026-03-18T13:04:33Z</time>
      </trkpt>
      <trkpt lat="48.26857" lon="7.3792">
        <ele>417.9</ele>
        <time>2026-03-18T13:04:38Z</time>
      </trkpt>
      <trkpt lat="48.26854" lon="7.37911">
        <ele>418.5</ele>
        <time>2026-03-18T13:04:43Z</time>
      </trkpt>
      <trkpt lat="48.2685" lon="7.37902">
        <ele>419.8</ele>
        <time>2026-03-18T13:04:48Z</time>
      </trkpt>
      <trkpt lat="48.26847" lon="7.37894">
        <ele>420.7</ele>
        <time>2026-03-18T13:04:53Z</time>
      </trkpt>
      <trkpt lat="48.26846" lon="7.37883">
        <ele>420.5</ele>
        <time>2026-03-18T13:04:58Z</time>
      </trkpt>
      <trkpt lat="48.26844" lon="7.37876">
        <ele>421</ele>
        <time>2026-03-18T13:05:03Z</time>
      </trkpt>
      <trkpt lat="48.26842" lon="7.37866">
        <ele>421.3</ele>
        <time>2026-03-18T13:05:08Z</time>
      </trkpt>
      <trkpt lat="48.26842" lon="7.37855">
        <ele>420.7</ele>
        <time>2026-03-18T13:05:13Z</time>
      </trkpt>
      <trkpt lat="48.26843" lon="7.37844">
        <ele>419.7</ele>
        <time>2026-03-18T13:05:18Z</time>
      </trkpt>
      <trkpt lat="48.26844" lon="7.37833">
        <ele>418.7</ele>
        <time>2026-03-18T13:05:23Z</time>
      </trkpt>
      <trkpt lat="48.26845" lon="7.37821">
        <ele>418.4</ele>
        <time>2026-03-18T13:05:28Z</time>
      </trkpt>
      <trkpt lat="48.26847" lon="7.37813">
        <ele>417.8</ele>
        <time>2026-03-18T13:05:33Z</time>
      </trkpt>
      <trkpt lat="48.26851" lon="7.37805">
        <ele>416.5</ele>
        <time>2026-03-18T13:05:38Z</time>
      </trkpt>
      <trkpt lat="48.26856" lon="7.37799">
        <ele>415</ele>
        <time>2026-03-18T13:05:43Z</time>
      </trkpt>
      <trkpt lat="48.2686" lon="7.37791">
        <ele>414.1</ele>
        <time>2026-03-18T13:05:48Z</time>
      </trkpt>
      <trkpt lat="48.26865" lon="7.37787">
        <ele>412.7</ele>
        <time>2026-03-18T13:05:53Z</time>
      </trkpt>
      <trkpt lat="48.26868" lon="7.37786">
        <ele>411.8</ele>
        <time>2026-03-18T13:05:58Z</time>
      </trkpt>
      <trkpt lat="48.26872" lon="7.37783">
        <ele>410.8</ele>
        <time>2026-03-18T13:06:03Z</time>
      </trkpt>
      <trkpt lat="48.26877" lon="7.37779">
        <ele>409.7</ele>
        <time>2026-03-18T13:06:08Z</time>
      </trkpt>
      <trkpt lat="48.26884" lon="7.37774">
        <ele>408.1</ele>
        <time>2026-03-18T13:06:13Z</time>
      </trkpt>
      <trkpt lat="48.2689" lon="7.37769">
        <ele>407</ele>
        <time>2026-03-18T13:06:18Z</time>
      </trkpt>
      <trkpt lat="48.26897" lon="7.37764">
        <ele>405.7</ele>
        <time>2026-03-18T13:06:23Z</time>
      </trkpt>
      <trkpt lat="48.26901" lon="7.37765">
        <ele>404.6</ele>
        <time>2026-03-18T13:06:28Z</time>
      </trkpt>
      <trkpt lat="48.26901" lon="7.37765">
        <ele>404.6</ele>
        <time>2026-03-18T13:06:33Z</time>
      </trkpt>
      <trkpt lat="48.26901" lon="7.37765">
        <ele>404.6</ele>
        <time>2026-03-18T13:06:38Z</time>
      </trkpt>
      <trkpt lat="48.26901" lon="7.37765">
        <ele>404.6</ele>
        <time>2026-03-18T13:06:43Z</time>
      </trkpt>
      <trkpt lat="48.26901" lon="7.37765">
        <ele>404.6</ele>
        <time>2026-03-18T13:06:48Z</time>
      </trkpt>
      <trkpt lat="48.26908" lon="7.37763">
        <ele>403</ele>
        <time>2026-03-18T13:06:53Z</time>
      </trkpt>
      <trkpt lat="48.26915" lon="7.37754">
        <ele>402.7</ele>
        <time>2026-03-18T13:06:58Z</time>
      </trkpt>
      <trkpt lat="48.26922" lon="7.37748">
        <ele>401.5</ele>
        <time>2026-03-18T13:07:03Z</time>
      </trkpt>
      <trkpt lat="48.26929" lon="7.37743">
        <ele>399.5</ele>
        <time>2026-03-18T13:07:08Z</time>
      </trkpt>
      <trkpt lat="48.26933" lon="7.37737">
        <ele>398.5</ele>
        <time>2026-03-18T13:07:13Z</time>
      </trkpt>
      <trkpt lat="48.26936" lon="7.37729">
        <ele>397.9</ele>
        <time>2026-03-18T13:07:18Z</time>
      </trkpt>
      <trkpt lat="48.26937" lon="7.37719">
        <ele>397.9</ele>
        <time>2026-03-18T13:07:23Z</time>
      </trkpt>
      <trkpt lat="48.26934" lon="7.37708">
        <ele>399.2</ele>
        <time>2026-03-18T13:07:28Z</time>
      </trkpt>
      <trkpt lat="48.26933" lon="7.37698">
        <ele>399.8</ele>
        <time>2026-03-18T13:07:33Z</time>
      </trkpt>
      <trkpt lat="48.26931" lon="7.3769">
        <ele>400.7</ele>
        <time>2026-03-18T13:07:38Z</time>
      </trkpt>
      <trkpt lat="48.26929" lon="7.3768">
        <ele>401.7</ele>
        <time>2026-03-18T13:07:43Z</time>
      </trkpt>
      <trkpt lat="48.26927" lon="7.3767">
        <ele>402.7</ele>
        <time>2026-03-18T13:07:48Z</time>
      </trkpt>
      <trkpt lat="48.26926" lon="7.37661">
        <ele>402.3</ele>
        <time>2026-03-18T13:07:53Z</time>
      </trkpt>
      <trkpt lat="48.26924" lon="7.37651">
        <ele>401.5</ele>
        <time>2026-03-18T13:07:58Z</time>
      </trkpt>
      <trkpt lat="48.26921" lon="7.37642">
        <ele>401</ele>
        <time>2026-03-18T13:08:03Z</time>
      </trkpt>
      <trkpt lat="48.26918" lon="7.37634">
        <ele>400.6</ele>
        <time>2026-03-18T13:08:08Z</time>
      </trkpt>
      <trkpt lat="48.26915" lon="7.37624">
        <ele>399.5</ele>
        <time>2026-03-18T13:08:13Z</time>
      </trkpt>
      <trkpt lat="48.26911" lon="7.37613">
        <ele>398.3</ele>
        <time>2026-03-18T13:08:18Z</time>
      </trkpt>
      <trkpt lat="48.26907" lon="7.37604">
        <ele>397.3</ele>
        <time>2026-03-18T13:08:23Z</time>
      </trkpt>
      <trkpt lat="48.26904" lon="7.37596">
        <ele>396.4</ele>
        <time>2026-03-18T13:08:28Z</time>
      </trkpt>
      <trkpt lat="48.26901" lon="7.37588">
        <ele>395.4</ele>
        <time>2026-03-18T13:08:33Z</time>
      </trkpt>
      <trkpt lat="48.26897" lon="7.37583">
        <ele>395.1</ele>
        <time>2026-03-18T13:08:38Z</time>
      </trkpt>
      <trkpt lat="48.26894" lon="7.37575">
        <ele>394.1</ele>
        <time>2026-03-18T13:08:43Z</time>
      </trkpt>
      <trkpt lat="48.26891" lon="7.37564">
        <ele>392.6</ele>
        <time>2026-03-18T13:08:48Z</time>
      </trkpt>
      <trkpt lat="48.26889" lon="7.37552">
        <ele>390.9</ele>
        <time>2026-03-18T13:08:53Z</time>
      </trkpt>
      <trkpt lat="48.26887" lon="7.37544">
        <ele>389.7</ele>
        <time>2026-03-18T13:08:58Z</time>
      </trkpt>
      <trkpt lat="48.26886" lon="7.37532">
        <ele>387.8</ele>
        <time>2026-03-18T13:09:03Z</time>
      </trkpt>
      <trkpt lat="48.26885" lon="7.37517">
        <ele>385.4</ele>
        <time>2026-03-18T13:09:08Z</time>
      </trkpt>
      <trkpt lat="48.26884" lon="7.37505">
        <ele>383.4</ele>
        <time>2026-03-18T13:09:13Z</time>
      </trkpt>
      <trkpt lat="48.26883" lon="7.37495">
        <ele>382</ele>
        <time>2026-03-18T13:09:18Z</time>
      </trkpt>
      <trkpt lat="48.26881" lon="7.37486">
        <ele>381.1</ele>
        <time>2026-03-18T13:09:23Z</time>
      </trkpt>
      <trkpt lat="48.26878" lon="7.3748">
        <ele>380.4</ele>
        <time>2026-03-18T13:09:28Z</time>
      </trkpt>
      <trkpt lat="48.26873" lon="7.37474">
        <ele>379.8</ele>
        <time>2026-03-18T13:09:33Z</time>
      </trkpt>
      <trkpt lat="48.26867" lon="7.37468">
        <ele>379</ele>
        <time>2026-03-18T13:09:38Z</time>
      </trkpt>
      <trkpt lat="48.26861" lon="7.37462">
        <ele>378.2</ele>
        <time>2026-03-18T13:09:43Z</time>
      </trkpt>
      <trkpt lat="48.26855" lon="7.37458">
        <ele>377.6</ele>
        <time>2026-03-18T13:09:48Z</time>
      </trkpt>
      <trkpt lat="48.26847" lon="7.37453">
        <ele>376.7</ele>
        <time>2026-03-18T13:09:53Z</time>
      </trkpt>
      <trkpt lat="48.2684" lon="7.37448">
        <ele>375.8</ele>
        <time>2026-03-18T13:09:58Z</time>
      </trkpt>
      <trkpt lat="48.26832" lon="7.37449">
        <ele>375.8</ele>
        <time>2026-03-18T13:10:03Z</time>
      </trkpt>
      <trkpt lat="48.26825" lon="7.37455">
        <ele>377.1</ele>
        <time>2026-03-18T13:10:08Z</time>
      </trkpt>
      <trkpt lat="48.26819" lon="7.37459">
        <ele>378</ele>
        <time>2026-03-18T13:10:13Z</time>
      </trkpt>
      <trkpt lat="48.26813" lon="7.37463">
        <ele>378.9</ele>
        <time>2026-03-18T13:10:18Z</time>
      </trkpt>
      <trkpt lat="48.26806" lon="7.37466">
        <ele>379.7</ele>
        <time>2026-03-18T13:10:23Z</time>
      </trkpt>
      <trkpt lat="48.26799" lon="7.37467">
        <ele>380.1</ele>
        <time>2026-03-18T13:10:28Z</time>
      </trkpt>
      <trkpt lat="48.26793" lon="7.3747">
        <ele>381</ele>
        <time>2026-03-18T13:10:33Z</time>
      </trkpt>
      <trkpt lat="48.26788" lon="7.37474">
        <ele>382</ele>
        <time>2026-03-18T13:10:38Z</time>
      </trkpt>
      <trkpt lat="48.26782" lon="7.37476">
        <ele>382.7</ele>
        <time>2026-03-18T13:10:43Z</time>
      </trkpt>
      <trkpt lat="48.26773" lon="7.37479">
        <ele>383.7</ele>
        <time>2026-03-18T13:10:48Z</time>
      </trkpt>
      <trkpt lat="48.26764" lon="7.3748">
        <ele>384.4</ele>
        <time>2026-03-18T13:10:53Z</time>
      </trkpt>
      <trkpt lat="48.26759" lon="7.3748">
        <ele>384.6</ele>
        <time>2026-03-18T13:10:58Z</time>
      </trkpt>
      <trkpt lat="48.26752" lon="7.3748">
        <ele>384.9</ele>
        <time>2026-03-18T13:11:03Z</time>
      </trkpt>
      <trkpt lat="48.26743" lon="7.37479">
        <ele>384.5</ele>
        <time>2026-03-18T13:11:08Z</time>
      </trkpt>
      <trkpt lat="48.26737" lon="7.3748">
        <ele>384.5</ele>
        <time>2026-03-18T13:11:13Z</time>
      </trkpt>
      <trkpt lat="48.26729" lon="7.3748">
        <ele>384.2</ele>
        <time>2026-03-18T13:11:18Z</time>
      </trkpt>
      <trkpt lat="48.2672" lon="7.37481">
        <ele>384.1</ele>
        <time>2026-03-18T13:11:23Z</time>
      </trkpt>
      <trkpt lat="48.26713" lon="7.37482">
        <ele>384</ele>
        <time>2026-03-18T13:11:28Z</time>
      </trkpt>
      <trkpt lat="48.26707" lon="7.37483">
        <ele>384</ele>
        <time>2026-03-18T13:11:33Z</time>
      </trkpt>
      <trkpt lat="48.26699" lon="7.37482">
        <ele>383.5</ele>
        <time>2026-03-18T13:11:38Z</time>
      </trkpt>
      <trkpt lat="48.26691" lon="7.3748">
        <ele>382.8</ele>
        <time>2026-03-18T13:11:43Z</time>
      </trkpt>
      <trkpt lat="48.26686" lon="7.37478">
        <ele>382.2</ele>
        <time>2026-03-18T13:11:48Z</time>
      </trkpt>
      <trkpt lat="48.26681" lon="7.37477">
        <ele>381.9</ele>
        <time>2026-03-18T13:11:53Z</time>
      </trkpt>
      <trkpt lat="48.26674" lon="7.37475">
        <ele>381.3</ele>
        <time>2026-03-18T13:11:58Z</time>
      </trkpt>
      <trkpt lat="48.26665" lon="7.37473">
        <ele>380.8</ele>
        <time>2026-03-18T13:12:03Z</time>
      </trkpt>
      <trkpt lat="48.26658" lon="7.37471">
        <ele>380.5</ele>
        <time>2026-03-18T13:12:08Z</time>
      </trkpt>
      <trkpt lat="48.26651" lon="7.37469">
        <ele>380.3</ele>
        <time>2026-03-18T13:12:13Z</time>
      </trkpt>
      <trkpt lat="48.26646" lon="7.37467">
        <ele>380</ele>
        <time>2026-03-18T13:12:18Z</time>
      </trkpt>
      <trkpt lat="48.26639" lon="7.37465">
        <ele>379.8</ele>
        <time>2026-03-18T13:12:23Z</time>
      </trkpt>
      <trkpt lat="48.26632" lon="7.37465">
        <ele>379.9</ele>
        <time>2026-03-18T13:12:28Z</time>
      </trkpt>
      <trkpt lat="48.26625" lon="7.37463">
        <ele>379.7</ele>
        <time>2026-03-18T13:12:33Z</time>
      </trkpt>
      <trkpt lat="48.26617" lon="7.37464">
        <ele>379.9</ele>
        <time>2026-03-18T13:12:38Z</time>
      </trkpt>
      <trkpt lat="48.26609" lon="7.37462">
        <ele>379.7</ele>
        <time>2026-03-18T13:12:43Z</time>
      </trkpt>
      <trkpt lat="48.26603" lon="7.37461">
        <ele>379.6</ele>
        <time>2026-03-18T13:12:48Z</time>
      </trkpt>
      <trkpt lat="48.26595" lon="7.37457">
        <ele>379.2</ele>
        <time>2026-03-18T13:12:53Z</time>
      </trkpt>
      <trkpt lat="48.26587" lon="7.37458">
        <ele>379.4</ele>
        <time>2026-03-18T13:12:58Z</time>
      </trkpt>
      <trkpt lat="48.26581" lon="7.3746">
        <ele>379.9</ele>
        <time>2026-03-18T13:13:03Z</time>
      </trkpt>
      <trkpt lat="48.26579" lon="7.37459">
        <ele>379.9</ele>
        <time>2026-03-18T13:13:08Z</time>
      </trkpt>
      <trkpt lat="48.26573" lon="7.3746">
        <ele>380.5</ele>
        <time>2026-03-18T13:13:13Z</time>
      </trkpt>
      <trkpt lat="48.26567" lon="7.37462">
        <ele>381.2</ele>
        <time>2026-03-18T13:13:18Z</time>
      </trkpt>
      <trkpt lat="48.26562" lon="7.37469">
        <ele>382.4</ele>
        <time>2026-03-18T13:13:23Z</time>
      </trkpt>
      <trkpt lat="48.26558" lon="7.37474">
        <ele>383.4</ele>
        <time>2026-03-18T13:13:28Z</time>
      </trkpt>
      <trkpt lat="48.26553" lon="7.3748">
        <ele>384.5</ele>
        <time>2026-03-18T13:13:33Z</time>
      </trkpt>
      <trkpt lat="48.26544" lon="7.37488">
        <ele>386.2</ele>
        <time>2026-03-18T13:13:38Z</time>
      </trkpt>
      <trkpt lat="48.26538" lon="7.37489">
        <ele>386.8</ele>
        <time>2026-03-18T13:13:43Z</time>
      </trkpt>
      <trkpt lat="48.26532" lon="7.37484">
        <ele>386.6</ele>
        <time>2026-03-18T13:13:48Z</time>
      </trkpt>
      <trkpt lat="48.26529" lon="7.37476">
        <ele>385.7</ele>
        <time>2026-03-18T13:13:53Z</time>
      </trkpt>
      <trkpt lat="48.26523" lon="7.37466">
        <ele>384.9</ele>
        <time>2026-03-18T13:13:58Z</time>
      </trkpt>
      <trkpt lat="48.2652" lon="7.37458">
        <ele>384</ele>
        <time>2026-03-18T13:14:03Z</time>
      </trkpt>
      <trkpt lat="48.26514" lon="7.37451">
        <ele>383.5</ele>
        <time>2026-03-18T13:14:08Z</time>
      </trkpt>
      <trkpt lat="48.26509" lon="7.37444">
        <ele>383</ele>
        <time>2026-03-18T13:14:13Z</time>
      </trkpt>
      <trkpt lat="48.26502" lon="7.37438">
        <ele>382.7</ele>
        <time>2026-03-18T13:14:18Z</time>
      </trkpt>
      <trkpt lat="48.26495" lon="7.37436">
        <ele>383.3</ele>
        <time>2026-03-18T13:14:23Z</time>
      </trkpt>
      <trkpt lat="48.26488" lon="7.37431">
        <ele>383.8</ele>
        <time>2026-03-18T13:14:28Z</time>
      </trkpt>
      <trkpt lat="48.26482" lon="7.37428">
        <ele>384.4</ele>
        <time>2026-03-18T13:14:33Z</time>
      </trkpt>
      <trkpt lat="48.26476" lon="7.37426">
        <ele>385.1</ele>
        <time>2026-03-18T13:14:38Z</time>
      </trkpt>
      <trkpt lat="48.2647" lon="7.37423">
        <ele>385.8</ele>
        <time>2026-03-18T13:14:43Z</time>
      </trkpt>
      <trkpt lat="48.26465" lon="7.37422">
        <ele>386.5</ele>
        <time>2026-03-18T13:14:48Z</time>
      </trkpt>
      <trkpt lat="48.26465" lon="7.37422">
        <ele>386.5</ele>
        <time>2026-03-18T13:14:53Z</time>
      </trkpt>
      <trkpt lat="48.2646" lon="7.37419">
        <ele>387</ele>
        <time>2026-03-18T13:14:58Z</time>
      </trkpt>
      <trkpt lat="48.26453" lon="7.37417">
        <ele>387.9</ele>
        <time>2026-03-18T13:15:03Z</time>
      </trkpt>
      <trkpt lat="48.26443" lon="7.37421">
        <ele>390</ele>
        <time>2026-03-18T13:15:08Z</time>
      </trkpt>
      <trkpt lat="48.26436" lon="7.37428">
        <ele>391.8</ele>
        <time>2026-03-18T13:15:13Z</time>
      </trkpt>
      <trkpt lat="48.2643" lon="7.37437">
        <ele>393.6</ele>
        <time>2026-03-18T13:15:18Z</time>
      </trkpt>
      <trkpt lat="48.26425" lon="7.37445">
        <ele>395.1</ele>
        <time>2026-03-18T13:15:23Z</time>
      </trkpt>
      <trkpt lat="48.2642" lon="7.3745">
        <ele>396.3</ele>
        <time>2026-03-18T13:15:28Z</time>
      </trkpt>
      <trkpt lat="48.26413" lon="7.3745">
        <ele>396.9</ele>
        <time>2026-03-18T13:15:33Z</time>
      </trkpt>
      <trkpt lat="48.26408" lon="7.37445">
        <ele>396.7</ele>
        <time>2026-03-18T13:15:38Z</time>
      </trkpt>
      <trkpt lat="48.26405" lon="7.37437">
        <ele>396.1</ele>
        <time>2026-03-18T13:15:43Z</time>
      </trkpt>
      <trkpt lat="48.26404" lon="7.37426">
        <ele>395.2</ele>
        <time>2026-03-18T13:15:48Z</time>
      </trkpt>
      <trkpt lat="48.26403" lon="7.37416">
        <ele>394.4</ele>
        <time>2026-03-18T13:15:53Z</time>
      </trkpt>
      <trkpt lat="48.26402" lon="7.37407">
        <ele>393.3</ele>
        <time>2026-03-18T13:15:58Z</time>
      </trkpt>
      <trkpt lat="48.264" lon="7.37399">
        <ele>392.4</ele>
        <time>2026-03-18T13:16:03Z</time>
      </trkpt>
      <trkpt lat="48.26397" lon="7.37392">
        <ele>391.6</ele>
        <time>2026-03-18T13:16:08Z</time>
      </trkpt>
      <trkpt lat="48.26393" lon="7.37388">
        <ele>391.2</ele>
        <time>2026-03-18T13:16:13Z</time>
      </trkpt>
      <trkpt lat="48.2639" lon="7.37381">
        <ele>390.4</ele>
        <time>2026-03-18T13:16:18Z</time>
      </trkpt>
      <trkpt lat="48.26386" lon="7.37371">
        <ele>389.2</ele>
        <time>2026-03-18T13:16:23Z</time>
      </trkpt>
      <trkpt lat="48.26383" lon="7.37361">
        <ele>388</ele>
        <time>2026-03-18T13:16:28Z</time>
      </trkpt>
      <trkpt lat="48.26378" lon="7.37345">
        <ele>386</ele>
        <time>2026-03-18T13:16:33Z</time>
      </trkpt>
      <trkpt lat="48.26374" lon="7.3734">
        <ele>385.4</ele>
        <time>2026-03-18T13:16:38Z</time>
      </trkpt>
      <trkpt lat="48.26367" lon="7.37335">
        <ele>384.8</ele>
        <time>2026-03-18T13:16:43Z</time>
      </trkpt>
      <trkpt lat="48.26359" lon="7.3733">
        <ele>384.2</ele>
        <time>2026-03-18T13:16:48Z</time>
      </trkpt>
      <trkpt lat="48.26354" lon="7.37329">
        <ele>384.1</ele>
        <time>2026-03-18T13:16:53Z</time>
      </trkpt>
      <trkpt lat="48.26349" lon="7.37328">
        <ele>384</ele>
        <time>2026-03-18T13:16:58Z</time>
      </trkpt>
      <trkpt lat="48.26344" lon="7.37325">
        <ele>383.7</ele>
        <time>2026-03-18T13:17:03Z</time>
      </trkpt>
      <trkpt lat="48.26336" lon="7.37319">
        <ele>382.9</ele>
        <time>2026-03-18T13:17:08Z</time>
      </trkpt>
      <trkpt lat="48.26328" lon="7.37314">
        <ele>382.4</ele>
        <time>2026-03-18T13:17:13Z</time>
      </trkpt>
      <trkpt lat="48.26322" lon="7.37311">
        <ele>382.2</ele>
        <time>2026-03-18T13:17:18Z</time>
      </trkpt>
      <trkpt lat="48.2632" lon="7.3731">
        <ele>382.1</ele>
        <time>2026-03-18T13:17:23Z</time>
      </trkpt>
      <trkpt lat="48.26318" lon="7.37314">
        <ele>382.8</ele>
        <time>2026-03-18T13:17:28Z</time>
      </trkpt>
      <trkpt lat="48.26317" lon="7.37315">
        <ele>382.9</ele>
        <time>2026-03-18T13:17:33Z</time>
      </trkpt>
      <trkpt lat="48.26317" lon="7.37315">
        <ele>382.9</ele>
        <time>2026-03-18T13:17:38Z</time>
      </trkpt>
      <trkpt lat="48.26317" lon="7.37315">
        <ele>382.9</ele>
        <time>2026-03-18T13:17:43Z</time>
      </trkpt>
      <trkpt lat="48.26317" lon="7.37315">
        <ele>382.9</ele>
        <time>2026-03-18T13:17:48Z</time>
      </trkpt>
      <trkpt lat="48.26317" lon="7.37315">
        <ele>382.9</ele>
        <time>2026-03-18T13:17:53Z</time>
      </trkpt>
      <trkpt lat="48.26308" lon="7.37318">
        <ele>383.7</ele>
        <time>2026-03-18T13:17:58Z</time>
      </trkpt>
      <trkpt lat="48.26307" lon="7.37319">
        <ele>383.9</ele>
        <time>2026-03-18T13:18:03Z</time>
      </trkpt>
      <trkpt lat="48.26307" lon="7.37319">
        <ele>383.9</ele>
        <time>2026-03-18T13:18:08Z</time>
      </trkpt>
      <trkpt lat="48.26307" lon="7.37319">
        <ele>383.9</ele>
        <time>2026-03-18T13:18:13Z</time>
      </trkpt>
      <trkpt lat="48.26307" lon="7.37319">
        <ele>383.9</ele>
        <time>2026-03-18T13:18:18Z</time>
      </trkpt>
      <trkpt lat="48.26307" lon="7.37319">
        <ele>383.9</ele>
        <time>2026-03-18T13:18:23Z</time>
      </trkpt>
      <trkpt lat="48.26307" lon="7.37319">
        <ele>383.9</ele>
        <time>2026-03-18T13:18:28Z</time>
      </trkpt>
      <trkpt lat="48.26307" lon="7.37319">
        <ele>383.9</ele>
        <time>2026-03-18T13:18:33Z</time>
      </trkpt>
      <trkpt lat="48.26307" lon="7.37319">
        <ele>383.9</ele>
        <time>2026-03-18T13:18:38Z</time>
      </trkpt>
      <trkpt lat="48.26307" lon="7.37319">
        <ele>383.9</ele>
        <time>2026-03-18T13:18:43Z</time>
      </trkpt>
      <trkpt lat="48.26307" lon="7.37319">
        <ele>383.9</ele>
        <time>2026-03-18T13:18:48Z</time>
      </trkpt>
      <trkpt lat="48.26307" lon="7.37319">
        <ele>383.9</ele>
        <time>2026-03-18T13:18:53Z</time>
      </trkpt>
      <trkpt lat="48.26307" lon="7.37319">
        <ele>383.9</ele>
        <time>2026-03-18T13:18:58Z</time>
      </trkpt>
      <trkpt lat="48.26307" lon="7.37319">
        <ele>383.9</ele>
        <time>2026-03-18T13:19:03Z</time>
      </trkpt>
      <trkpt lat="48.26307" lon="7.37319">
        <ele>383.9</ele>
        <time>2026-03-18T13:19:08Z</time>
      </trkpt>
      <trkpt lat="48.26307" lon="7.37301">
        <ele>381.3</ele>
        <time>2026-03-18T13:19:13Z</time>
      </trkpt>
      <trkpt lat="48.26304" lon="7.37298">
        <ele>381</ele>
        <time>2026-03-18T13:19:18Z</time>
      </trkpt>
      <trkpt lat="48.26299" lon="7.37295">
        <ele>380.7</ele>
        <time>2026-03-18T13:19:23Z</time>
      </trkpt>
      <trkpt lat="48.26294" lon="7.37295">
        <ele>380.9</ele>
        <time>2026-03-18T13:19:28Z</time>
      </trkpt>
      <trkpt lat="48.26288" lon="7.37301">
        <ele>382</ele>
        <time>2026-03-18T13:19:33Z</time>
      </trkpt>
      <trkpt lat="48.26281" lon="7.37301">
        <ele>382.2</ele>
        <time>2026-03-18T13:19:38Z</time>
      </trkpt>
      <trkpt lat="48.26274" lon="7.373">
        <ele>382.3</ele>
        <time>2026-03-18T13:19:43Z</time>
      </trkpt>
      <trkpt lat="48.26267" lon="7.37304">
        <ele>383.2</ele>
        <time>2026-03-18T13:19:48Z</time>
      </trkpt>
      <trkpt lat="48.2626" lon="7.37309">
        <ele>384.1</ele>
        <time>2026-03-18T13:19:53Z</time>
      </trkpt>
      <trkpt lat="48.26253" lon="7.37314">
        <ele>385.1</ele>
        <time>2026-03-18T13:19:58Z</time>
      </trkpt>
      <trkpt lat="48.26247" lon="7.37319">
        <ele>386.2</ele>
        <time>2026-03-18T13:20:03Z</time>
      </trkpt>
      <trkpt lat="48.26242" lon="7.37326">
        <ele>387.6</ele>
        <time>2026-03-18T13:20:08Z</time>
      </trkpt>
      <trkpt lat="48.26238" lon="7.37333">
        <ele>388.8</ele>
        <time>2026-03-18T13:20:13Z</time>
      </trkpt>
      <trkpt lat="48.26233" lon="7.37339">
        <ele>389.9</ele>
        <time>2026-03-18T13:20:18Z</time>
      </trkpt>
      <trkpt lat="48.26226" lon="7.37341">
        <ele>390.5</ele>
        <time>2026-03-18T13:20:23Z</time>
      </trkpt>
      <trkpt lat="48.26222" lon="7.3734">
        <ele>390.7</ele>
        <time>2026-03-18T13:20:28Z</time>
      </trkpt>
      <trkpt lat="48.26217" lon="7.3734">
        <ele>391</ele>
        <time>2026-03-18T13:20:33Z</time>
      </trkpt>
      <trkpt lat="48.26213" lon="7.37338">
        <ele>391.1</ele>
        <time>2026-03-18T13:20:38Z</time>
      </trkpt>
      <trkpt lat="48.26207" lon="7.37336">
        <ele>391.3</ele>
        <time>2026-03-18T13:20:43Z</time>
      </trkpt>
      <trkpt lat="48.262" lon="7.37336">
        <ele>391.8</ele>
        <time>2026-03-18T13:20:48Z</time>
      </trkpt>
      <trkpt lat="48.26193" lon="7.37332">
        <ele>392</ele>
        <time>2026-03-18T13:20:53Z</time>
      </trkpt>
      <trkpt lat="48.26187" lon="7.37326">
        <ele>391.9</ele>
        <time>2026-03-18T13:20:58Z</time>
      </trkpt>
      <trkpt lat="48.26183" lon="7.37321">
        <ele>391.9</ele>
        <time>2026-03-18T13:21:03Z</time>
      </trkpt>
      <trkpt lat="48.26179" lon="7.37315">
        <ele>391.8</ele>
        <time>2026-03-18T13:21:08Z</time>
      </trkpt>
      <trkpt lat="48.26173" lon="7.37312">
        <ele>392.1</ele>
        <time>2026-03-18T13:21:13Z</time>
      </trkpt>
      <trkpt lat="48.26168" lon="7.37308">
        <ele>392.3</ele>
        <time>2026-03-18T13:21:18Z</time>
      </trkpt>
      <trkpt lat="48.26161" lon="7.37306">
        <ele>392.6</ele>
        <time>2026-03-18T13:21:23Z</time>
      </trkpt>
      <trkpt lat="48.26155" lon="7.37304">
        <ele>392.7</ele>
        <time>2026-03-18T13:21:28Z</time>
      </trkpt>
      <trkpt lat="48.26149" lon="7.37303">
        <ele>392.8</ele>
        <time>2026-03-18T13:21:33Z</time>
      </trkpt>
      <trkpt lat="48.26142" lon="7.37303">
        <ele>393.1</ele>
        <time>2026-03-18T13:21:38Z</time>
      </trkpt>
      <trkpt lat="48.26133" lon="7.37297">
        <ele>393.2</ele>
        <time>2026-03-18T13:21:43Z</time>
      </trkpt>
      <trkpt lat="48.26125" lon="7.37291">
        <ele>393.2</ele>
        <time>2026-03-18T13:21:48Z</time>
      </trkpt>
      <trkpt lat="48.26118" lon="7.37289">
        <ele>393.4</ele>
        <time>2026-03-18T13:21:53Z</time>
      </trkpt>
      <trkpt lat="48.26114" lon="7.37286">
        <ele>393.5</ele>
        <time>2026-03-18T13:21:58Z</time>
      </trkpt>
      <trkpt lat="48.26109" lon="7.37277">
        <ele>393.4</ele>
        <time>2026-03-18T13:22:03Z</time>
      </trkpt>
      <trkpt lat="48.26104" lon="7.37269">
        <ele>393.4</ele>
        <time>2026-03-18T13:22:08Z</time>
      </trkpt>
      <trkpt lat="48.261" lon="7.3726">
        <ele>393.3</ele>
        <time>2026-03-18T13:22:13Z</time>
      </trkpt>
      <trkpt lat="48.26096" lon="7.3725">
        <ele>393.2</ele>
        <time>2026-03-18T13:22:18Z</time>
      </trkpt>
      <trkpt lat="48.26093" lon="7.37241">
        <ele>392.8</ele>
        <time>2026-03-18T13:22:23Z</time>
      </trkpt>
      <trkpt lat="48.26091" lon="7.37234">
        <ele>392.5</ele>
        <time>2026-03-18T13:22:28Z</time>
      </trkpt>
      <trkpt lat="48.26088" lon="7.37231">
        <ele>392.5</ele>
        <time>2026-03-18T13:22:33Z</time>
      </trkpt>
      <trkpt lat="48.26086" lon="7.37231">
        <ele>392.7</ele>
        <time>2026-03-18T13:22:38Z</time>
      </trkpt>
      <trkpt lat="48.26086" lon="7.37231">
        <ele>392.7</ele>
        <time>2026-03-18T13:22:43Z</time>
      </trkpt>
      <trkpt lat="48.26086" lon="7.37231">
        <ele>392.7</ele>
        <time>2026-03-18T13:22:48Z</time>
      </trkpt>
      <trkpt lat="48.26086" lon="7.37231">
        <ele>392.7</ele>
        <time>2026-03-18T13:22:53Z</time>
      </trkpt>
      <trkpt lat="48.26086" lon="7.37225">
        <ele>392.3</ele>
        <time>2026-03-18T13:22:58Z</time>
      </trkpt>
      <trkpt lat="48.26082" lon="7.37213">
        <ele>391.8</ele>
        <time>2026-03-18T13:23:03Z</time>
      </trkpt>
      <trkpt lat="48.26078" lon="7.37204">
        <ele>391.5</ele>
        <time>2026-03-18T13:23:08Z</time>
      </trkpt>
      <trkpt lat="48.26074" lon="7.37196">
        <ele>391.2</ele>
        <time>2026-03-18T13:23:13Z</time>
      </trkpt>
      <trkpt lat="48.26072" lon="7.37185">
        <ele>390.7</ele>
        <time>2026-03-18T13:23:18Z</time>
      </trkpt>
      <trkpt lat="48.26069" lon="7.37177">
        <ele>390.4</ele>
        <time>2026-03-18T13:23:23Z</time>
      </trkpt>
      <trkpt lat="48.26065" lon="7.37169">
        <ele>390.2</ele>
        <time>2026-03-18T13:23:28Z</time>
      </trkpt>
      <trkpt lat="48.26062" lon="7.3716">
        <ele>390.2</ele>
        <time>2026-03-18T13:23:33Z</time>
      </trkpt>
      <trkpt lat="48.26059" lon="7.3715">
        <ele>390.1</ele>
        <time>2026-03-18T13:23:38Z</time>
      </trkpt>
      <trkpt lat="48.26057" lon="7.3714">
        <ele>390.1</ele>
        <time>2026-03-18T13:23:43Z</time>
      </trkpt>
      <trkpt lat="48.26055" lon="7.37131">
        <ele>390</ele>
        <time>2026-03-18T13:23:48Z</time>
      </trkpt>
      <trkpt lat="48.26053" lon="7.37124">
        <ele>389.9</ele>
        <time>2026-03-18T13:23:53Z</time>
      </trkpt>
      <trkpt lat="48.26051" lon="7.3712">
        <ele>389.9</ele>
        <time>2026-03-18T13:23:58Z</time>
      </trkpt>
      <trkpt lat="48.26049" lon="7.37112">
        <ele>389.9</ele>
        <time>2026-03-18T13:24:03Z</time>
      </trkpt>
      <trkpt lat="48.26046" lon="7.37102">
        <ele>389.8</ele>
        <time>2026-03-18T13:24:08Z</time>
      </trkpt>
      <trkpt lat="48.26043" lon="7.37092">
        <ele>389.7</ele>
        <time>2026-03-18T13:24:13Z</time>
      </trkpt>
      <trkpt lat="48.26039" lon="7.37082">
        <ele>389.6</ele>
        <time>2026-03-18T13:24:18Z</time>
      </trkpt>
      <trkpt lat="48.26037" lon="7.37074">
        <ele>389.6</ele>
        <time>2026-03-18T13:24:23Z</time>
      </trkpt>
      <trkpt lat="48.26034" lon="7.37067">
        <ele>389.7</ele>
        <time>2026-03-18T13:24:28Z</time>
      </trkpt>
      <trkpt lat="48.26032" lon="7.37058">
        <ele>389.7</ele>
        <time>2026-03-18T13:24:33Z</time>
      </trkpt>
      <trkpt lat="48.26032" lon="7.3705">
        <ele>389.6</ele>
        <time>2026-03-18T13:24:38Z</time>
      </trkpt>
      <trkpt lat="48.26033" lon="7.37039">
        <ele>389.5</ele>
        <time>2026-03-18T13:24:43Z</time>
      </trkpt>
      <trkpt lat="48.26034" lon="7.37024">
        <ele>389.4</ele>
        <time>2026-03-18T13:24:48Z</time>
      </trkpt>
      <trkpt lat="48.26035" lon="7.37012">
        <ele>389.2</ele>
        <time>2026-03-18T13:24:53Z</time>
      </trkpt>
      <trkpt lat="48.26033" lon="7.37004">
        <ele>389.2</ele>
        <time>2026-03-18T13:24:58Z</time>
      </trkpt>
      <trkpt lat="48.26033" lon="7.36994">
        <ele>388.8</ele>
        <time>2026-03-18T13:25:03Z</time>
      </trkpt>
      <trkpt lat="48.26032" lon="7.36984">
        <ele>388.3</ele>
        <time>2026-03-18T13:25:08Z</time>
      </trkpt>
      <trkpt lat="48.2603" lon="7.36978">
        <ele>388</ele>
        <time>2026-03-18T13:25:13Z</time>
      </trkpt>
      <trkpt lat="48.26029" lon="7.36971">
        <ele>387.7</ele>
        <time>2026-03-18T13:25:18Z</time>
      </trkpt>
      <trkpt lat="48.26026" lon="7.36966">
        <ele>387.5</ele>
        <time>2026-03-18T13:25:23Z</time>
      </trkpt>
      <trkpt lat="48.26019" lon="7.36962">
        <ele>387.7</ele>
        <time>2026-03-18T13:25:28Z</time>
      </trkpt>
      <trkpt lat="48.26014" lon="7.36964">
        <ele>388</ele>
        <time>2026-03-18T13:25:33Z</time>
      </trkpt>
      <trkpt lat="48.26009" lon="7.36965">
        <ele>388.3</ele>
        <time>2026-03-18T13:25:38Z</time>
      </trkpt>
      <trkpt lat="48.26007" lon="7.36965">
        <ele>388.4</ele>
        <time>2026-03-18T13:25:43Z</time>
      </trkpt>
      <trkpt lat="48.26003" lon="7.36966">
        <ele>388.6</ele>
        <time>2026-03-18T13:25:48Z</time>
      </trkpt>
      <trkpt lat="48.25999" lon="7.36968">
        <ele>388.9</ele>
        <time>2026-03-18T13:25:53Z</time>
      </trkpt>
      <trkpt lat="48.25992" lon="7.3697">
        <ele>389.3</ele>
        <time>2026-03-18T13:25:58Z</time>
      </trkpt>
      <trkpt lat="48.25986" lon="7.36972">
        <ele>389.7</ele>
        <time>2026-03-18T13:26:03Z</time>
      </trkpt>
      <trkpt lat="48.25981" lon="7.36973">
        <ele>389.9</ele>
        <time>2026-03-18T13:26:08Z</time>
      </trkpt>
      <trkpt lat="48.25976" lon="7.36973">
        <ele>390.2</ele>
        <time>2026-03-18T13:26:13Z</time>
      </trkpt>
      <trkpt lat="48.25971" lon="7.36973">
        <ele>390.4</ele>
        <time>2026-03-18T13:26:18Z</time>
      </trkpt>
      <trkpt lat="48.25965" lon="7.36973">
        <ele>390.7</ele>
        <time>2026-03-18T13:26:23Z</time>
      </trkpt>
      <trkpt lat="48.2596" lon="7.3697">
        <ele>390.9</ele>
        <time>2026-03-18T13:26:28Z</time>
      </trkpt>
      <trkpt lat="48.25956" lon="7.36967">
        <ele>391</ele>
        <time>2026-03-18T13:26:33Z</time>
      </trkpt>
      <trkpt lat="48.25951" lon="7.36966">
        <ele>391.3</ele>
        <time>2026-03-18T13:26:38Z</time>
      </trkpt>
      <trkpt lat="48.25945" lon="7.36965">
        <ele>391.6</ele>
        <time>2026-03-18T13:26:43Z</time>
      </trkpt>
      <trkpt lat="48.25939" lon="7.36964">
        <ele>391.8</ele>
        <time>2026-03-18T13:26:48Z</time>
      </trkpt>
      <trkpt lat="48.25934" lon="7.36965">
        <ele>392.1</ele>
        <time>2026-03-18T13:26:53Z</time>
      </trkpt>
      <trkpt lat="48.25928" lon="7.36965">
        <ele>392.4</ele>
        <time>2026-03-18T13:26:58Z</time>
      </trkpt>
      <trkpt lat="48.25922" lon="7.36963">
        <ele>392.7</ele>
        <time>2026-03-18T13:27:03Z</time>
      </trkpt>
      <trkpt lat="48.25917" lon="7.36963">
        <ele>393</ele>
        <time>2026-03-18T13:27:08Z</time>
      </trkpt>
      <trkpt lat="48.2591" lon="7.36963">
        <ele>392.9</ele>
        <time>2026-03-18T13:27:13Z</time>
      </trkpt>
      <trkpt lat="48.25903" lon="7.36962">
        <ele>392.8</ele>
        <time>2026-03-18T13:27:18Z</time>
      </trkpt>
      <trkpt lat="48.25898" lon="7.36963">
        <ele>392.7</ele>
        <time>2026-03-18T13:27:23Z</time>
      </trkpt>
      <trkpt lat="48.25892" lon="7.36964">
        <ele>392.6</ele>
        <time>2026-03-18T13:27:28Z</time>
      </trkpt>
      <trkpt lat="48.25886" lon="7.36965">
        <ele>392.5</ele>
        <time>2026-03-18T13:27:33Z</time>
      </trkpt>
      <trkpt lat="48.25879" lon="7.36966">
        <ele>392.4</ele>
        <time>2026-03-18T13:27:38Z</time>
      </trkpt>
      <trkpt lat="48.25873" lon="7.3697">
        <ele>392.2</ele>
        <time>2026-03-18T13:27:43Z</time>
      </trkpt>
      <trkpt lat="48.25867" lon="7.36971">
        <ele>392</ele>
        <time>2026-03-18T13:27:48Z</time>
      </trkpt>
      <trkpt lat="48.2586" lon="7.36971">
        <ele>391.9</ele>
        <time>2026-03-18T13:27:53Z</time>
      </trkpt>
      <trkpt lat="48.25852" lon="7.36974">
        <ele>391.6</ele>
        <time>2026-03-18T13:27:58Z</time>
      </trkpt>
      <trkpt lat="48.25845" lon="7.36976">
        <ele>391.4</ele>
        <time>2026-03-18T13:28:03Z</time>
      </trkpt>
      <trkpt lat="48.25838" lon="7.36977">
        <ele>391.2</ele>
        <time>2026-03-18T13:28:08Z</time>
      </trkpt>
      <trkpt lat="48.25831" lon="7.36978">
        <ele>391.1</ele>
        <time>2026-03-18T13:28:13Z</time>
      </trkpt>
      <trkpt lat="48.25826" lon="7.3698">
        <ele>391</ele>
        <time>2026-03-18T13:28:18Z</time>
      </trkpt>
      <trkpt lat="48.25818" lon="7.36982">
        <ele>390.9</ele>
        <time>2026-03-18T13:28:23Z</time>
      </trkpt>
      <trkpt lat="48.25813" lon="7.36983">
        <ele>390.8</ele>
        <time>2026-03-18T13:28:28Z</time>
      </trkpt>
      <trkpt lat="48.25807" lon="7.36988">
        <ele>390.6</ele>
        <time>2026-03-18T13:28:33Z</time>
      </trkpt>
      <trkpt lat="48.25802" lon="7.36992">
        <ele>390.4</ele>
        <time>2026-03-18T13:28:38Z</time>
      </trkpt>
      <trkpt lat="48.25795" lon="7.36995">
        <ele>390.2</ele>
        <time>2026-03-18T13:28:43Z</time>
      </trkpt>
      <trkpt lat="48.25788" lon="7.36997">
        <ele>390.1</ele>
        <time>2026-03-18T13:28:48Z</time>
      </trkpt>
      <trkpt lat="48.25783" lon="7.36996">
        <ele>390.2</ele>
        <time>2026-03-18T13:28:53Z</time>
      </trkpt>
      <trkpt lat="48.25775" lon="7.36991">
        <ele>390.4</ele>
        <time>2026-03-18T13:28:58Z</time>
      </trkpt>
      <trkpt lat="48.2577" lon="7.36981">
        <ele>390.9</ele>
        <time>2026-03-18T13:29:03Z</time>
      </trkpt>
      <trkpt lat="48.25765" lon="7.36973">
        <ele>391.3</ele>
        <time>2026-03-18T13:29:08Z</time>
      </trkpt>
      <trkpt lat="48.25759" lon="7.36969">
        <ele>391.5</ele>
        <time>2026-03-18T13:29:13Z</time>
      </trkpt>
      <trkpt lat="48.25756" lon="7.36965">
        <ele>391.7</ele>
        <time>2026-03-18T13:29:18Z</time>
      </trkpt>
      <trkpt lat="48.25753" lon="7.36959">
        <ele>392</ele>
        <time>2026-03-18T13:29:23Z</time>
      </trkpt>
      <trkpt lat="48.25747" lon="7.36953">
        <ele>392.2</ele>
        <time>2026-03-18T13:29:28Z</time>
      </trkpt>
      <trkpt lat="48.25742" lon="7.36944">
        <ele>392.6</ele>
        <time>2026-03-18T13:29:33Z</time>
      </trkpt>
      <trkpt lat="48.25736" lon="7.36937">
        <ele>392.9</ele>
        <time>2026-03-18T13:29:38Z</time>
      </trkpt>
      <trkpt lat="48.2573" lon="7.3693">
        <ele>393.3</ele>
        <time>2026-03-18T13:29:43Z</time>
      </trkpt>
      <trkpt lat="48.25726" lon="7.3692">
        <ele>393.8</ele>
        <time>2026-03-18T13:29:48Z</time>
      </trkpt>
      <trkpt lat="48.25722" lon="7.36916">
        <ele>394</ele>
        <time>2026-03-18T13:29:53Z</time>
      </trkpt>
      <trkpt lat="48.25718" lon="7.3691">
        <ele>394.2</ele>
        <time>2026-03-18T13:29:58Z</time>
      </trkpt>
      <trkpt lat="48.25712" lon="7.36901">
        <ele>394.4</ele>
        <time>2026-03-18T13:30:03Z</time>
      </trkpt>
      <trkpt lat="48.25705" lon="7.36895">
        <ele>394.7</ele>
        <time>2026-03-18T13:30:08Z</time>
      </trkpt>
      <trkpt lat="48.257" lon="7.36888">
        <ele>395</ele>
        <time>2026-03-18T13:30:13Z</time>
      </trkpt>
      <trkpt lat="48.25699" lon="7.36882">
        <ele>395.2</ele>
        <time>2026-03-18T13:30:18Z</time>
      </trkpt>
      <trkpt lat="48.25696" lon="7.36875">
        <ele>395.5</ele>
        <time>2026-03-18T13:30:23Z</time>
      </trkpt>
      <trkpt lat="48.25693" lon="7.36868">
        <ele>395.8</ele>
        <time>2026-03-18T13:30:28Z</time>
      </trkpt>
      <trkpt lat="48.25687" lon="7.36861">
        <ele>396.2</ele>
        <time>2026-03-18T13:30:33Z</time>
      </trkpt>
      <trkpt lat="48.25681" lon="7.36854">
        <ele>396.6</ele>
        <time>2026-03-18T13:30:38Z</time>
      </trkpt>
      <trkpt lat="48.25677" lon="7.3685">
        <ele>396.9</ele>
        <time>2026-03-18T13:30:43Z</time>
      </trkpt>
      <trkpt lat="48.25672" lon="7.36843">
        <ele>397.4</ele>
        <time>2026-03-18T13:30:48Z</time>
      </trkpt>
      <trkpt lat="48.25669" lon="7.36835">
        <ele>397.8</ele>
        <time>2026-03-18T13:30:53Z</time>
      </trkpt>
      <trkpt lat="48.25666" lon="7.36826">
        <ele>398.3</ele>
        <time>2026-03-18T13:30:58Z</time>
      </trkpt>
      <trkpt lat="48.25663" lon="7.36817">
        <ele>398.7</ele>
        <time>2026-03-18T13:31:03Z</time>
      </trkpt>
      <trkpt lat="48.25661" lon="7.36808">
        <ele>399.1</ele>
        <time>2026-03-18T13:31:08Z</time>
      </trkpt>
      <trkpt lat="48.25658" lon="7.36801">
        <ele>399.5</ele>
        <time>2026-03-18T13:31:13Z</time>
      </trkpt>
      <trkpt lat="48.25654" lon="7.36796">
        <ele>399.8</ele>
        <time>2026-03-18T13:31:18Z</time>
      </trkpt>
      <trkpt lat="48.25652" lon="7.36791">
        <ele>400.1</ele>
        <time>2026-03-18T13:31:23Z</time>
      </trkpt>
      <trkpt lat="48.25647" lon="7.36784">
        <ele>400.5</ele>
        <time>2026-03-18T13:31:28Z</time>
      </trkpt>
      <trkpt lat="48.25645" lon="7.36777">
        <ele>400.8</ele>
        <time>2026-03-18T13:31:33Z</time>
      </trkpt>
      <trkpt lat="48.2564" lon="7.36768">
        <ele>401.3</ele>
        <time>2026-03-18T13:31:38Z</time>
      </trkpt>
      <trkpt lat="48.25635" lon="7.36761">
        <ele>401.7</ele>
        <time>2026-03-18T13:31:43Z</time>
      </trkpt>
      <trkpt lat="48.2563" lon="7.36755">
        <ele>402.1</ele>
        <time>2026-03-18T13:31:48Z</time>
      </trkpt>
      <trkpt lat="48.25627" lon="7.3675">
        <ele>402.4</ele>
        <time>2026-03-18T13:31:53Z</time>
      </trkpt>
      <trkpt lat="48.25623" lon="7.36743">
        <ele>402.8</ele>
        <time>2026-03-18T13:31:58Z</time>
      </trkpt>
      <trkpt lat="48.2562" lon="7.36737">
        <ele>403.2</ele>
        <time>2026-03-18T13:32:03Z</time>
      </trkpt>
      <trkpt lat="48.25617" lon="7.36731">
        <ele>403.5</ele>
        <time>2026-03-18T13:32:08Z</time>
      </trkpt>
      <trkpt lat="48.25614" lon="7.36726">
        <ele>403.8</ele>
        <time>2026-03-18T13:32:13Z</time>
      </trkpt>
      <trkpt lat="48.2561" lon="7.36719">
        <ele>404.3</ele>
        <time>2026-03-18T13:32:18Z</time>
      </trkpt>
      <trkpt lat="48.25607" lon="7.36711">
        <ele>404.8</ele>
        <time>2026-03-18T13:32:23Z</time>
      </trkpt>
      <trkpt lat="48.25602" lon="7.36706">
        <ele>405.2</ele>
        <time>2026-03-18T13:32:28Z</time>
      </trkpt>
      <trkpt lat="48.25598" lon="7.36702">
        <ele>405.6</ele>
        <time>2026-03-18T13:32:33Z</time>
      </trkpt>
      <trkpt lat="48.25593" lon="7.367">
        <ele>405.9</ele>
        <time>2026-03-18T13:32:38Z</time>
      </trkpt>
      <trkpt lat="48.25587" lon="7.36697">
        <ele>406.4</ele>
        <time>2026-03-18T13:32:43Z</time>
      </trkpt>
      <trkpt lat="48.25581" lon="7.36693">
        <ele>407</ele>
        <time>2026-03-18T13:32:48Z</time>
      </trkpt>
      <trkpt lat="48.25575" lon="7.36691">
        <ele>407.9</ele>
        <time>2026-03-18T13:32:53Z</time>
      </trkpt>
      <trkpt lat="48.2557" lon="7.36687">
        <ele>408.7</ele>
        <time>2026-03-18T13:32:58Z</time>
      </trkpt>
      <trkpt lat="48.25565" lon="7.36685">
        <ele>409.4</ele>
        <time>2026-03-18T13:33:03Z</time>
      </trkpt>
      <trkpt lat="48.25559" lon="7.36678">
        <ele>410.6</ele>
        <time>2026-03-18T13:33:08Z</time>
      </trkpt>
      <trkpt lat="48.25554" lon="7.36674">
        <ele>411.5</ele>
        <time>2026-03-18T13:33:13Z</time>
      </trkpt>
      <trkpt lat="48.25548" lon="7.3667">
        <ele>412.5</ele>
        <time>2026-03-18T13:33:18Z</time>
      </trkpt>
      <trkpt lat="48.25542" lon="7.36665">
        <ele>413.5</ele>
        <time>2026-03-18T13:33:23Z</time>
      </trkpt>
      <trkpt lat="48.25535" lon="7.36661">
        <ele>414.5</ele>
        <time>2026-03-18T13:33:28Z</time>
      </trkpt>
      <trkpt lat="48.2553" lon="7.36655">
        <ele>415.3</ele>
        <time>2026-03-18T13:33:33Z</time>
      </trkpt>
      <trkpt lat="48.25526" lon="7.36651">
        <ele>415.9</ele>
        <time>2026-03-18T13:33:38Z</time>
      </trkpt>
      <trkpt lat="48.2552" lon="7.36646">
        <ele>416.8</ele>
        <time>2026-03-18T13:33:43Z</time>
      </trkpt>
      <trkpt lat="48.25514" lon="7.36637">
        <ele>417.8</ele>
        <time>2026-03-18T13:33:48Z</time>
      </trkpt>
      <trkpt lat="48.25508" lon="7.36632">
        <ele>418.7</ele>
        <time>2026-03-18T13:33:53Z</time>
      </trkpt>
      <trkpt lat="48.25504" lon="7.36625">
        <ele>419.4</ele>
        <time>2026-03-18T13:33:58Z</time>
      </trkpt>
      <trkpt lat="48.25502" lon="7.36619">
        <ele>419.9</ele>
        <time>2026-03-18T13:34:03Z</time>
      </trkpt>
      <trkpt lat="48.25498" lon="7.36611">
        <ele>420.6</ele>
        <time>2026-03-18T13:34:08Z</time>
      </trkpt>
      <trkpt lat="48.25495" lon="7.36604">
        <ele>421.2</ele>
        <time>2026-03-18T13:34:13Z</time>
      </trkpt>
      <trkpt lat="48.25491" lon="7.36596">
        <ele>421.9</ele>
        <time>2026-03-18T13:34:18Z</time>
      </trkpt>
      <trkpt lat="48.25487" lon="7.36588">
        <ele>422.6</ele>
        <time>2026-03-18T13:34:23Z</time>
      </trkpt>
      <trkpt lat="48.25484" lon="7.3658">
        <ele>423.2</ele>
        <time>2026-03-18T13:34:28Z</time>
      </trkpt>
      <trkpt lat="48.25481" lon="7.36572">
        <ele>423.8</ele>
        <time>2026-03-18T13:34:33Z</time>
      </trkpt>
      <trkpt lat="48.25478" lon="7.36564">
        <ele>424.5</ele>
        <time>2026-03-18T13:34:38Z</time>
      </trkpt>
      <trkpt lat="48.25475" lon="7.36557">
        <ele>425.1</ele>
        <time>2026-03-18T13:34:43Z</time>
      </trkpt>
      <trkpt lat="48.25472" lon="7.36549">
        <ele>425.8</ele>
        <time>2026-03-18T13:34:48Z</time>
      </trkpt>
      <trkpt lat="48.2547" lon="7.3654">
        <ele>426.4</ele>
        <time>2026-03-18T13:34:53Z</time>
      </trkpt>
      <trkpt lat="48.25469" lon="7.3654">
        <ele>426.5</ele>
        <time>2026-03-18T13:34:58Z</time>
      </trkpt>
      <trkpt lat="48.2547" lon="7.36539">
        <ele>426.4</ele>
        <time>2026-03-18T13:35:03Z</time>
      </trkpt>
      <trkpt lat="48.25468" lon="7.36535">
        <ele>426.8</ele>
        <time>2026-03-18T13:35:08Z</time>
      </trkpt>
      <trkpt lat="48.25466" lon="7.36528">
        <ele>427.4</ele>
        <time>2026-03-18T13:35:13Z</time>
      </trkpt>
      <trkpt lat="48.25463" lon="7.36521">
        <ele>428</ele>
        <time>2026-03-18T13:35:18Z</time>
      </trkpt>
      <trkpt lat="48.25462" lon="7.36517">
        <ele>428.3</ele>
        <time>2026-03-18T13:35:23Z</time>
      </trkpt>
      <trkpt lat="48.25462" lon="7.36516">
        <ele>428.4</ele>
        <time>2026-03-18T13:35:28Z</time>
      </trkpt>
      <trkpt lat="48.25462" lon="7.36516">
        <ele>428.4</ele>
        <time>2026-03-18T13:35:33Z</time>
      </trkpt>
      <trkpt lat="48.25462" lon="7.3651">
        <ele>428.6</ele>
        <time>2026-03-18T13:35:38Z</time>
      </trkpt>
      <trkpt lat="48.25459" lon="7.36505">
        <ele>429.2</ele>
        <time>2026-03-18T13:35:43Z</time>
      </trkpt>
      <trkpt lat="48.25457" lon="7.36505">
        <ele>429.5</ele>
        <time>2026-03-18T13:35:48Z</time>
      </trkpt>
      <trkpt lat="48.25457" lon="7.36505">
        <ele>429.5</ele>
        <time>2026-03-18T13:35:53Z</time>
      </trkpt>
      <trkpt lat="48.25456" lon="7.365">
        <ele>429.9</ele>
        <time>2026-03-18T13:35:58Z</time>
      </trkpt>
      <trkpt lat="48.25454" lon="7.36492">
        <ele>430.2</ele>
        <time>2026-03-18T13:36:03Z</time>
      </trkpt>
      <trkpt lat="48.25452" lon="7.36484">
        <ele>430.5</ele>
        <time>2026-03-18T13:36:08Z</time>
      </trkpt>
      <trkpt lat="48.2545" lon="7.36476">
        <ele>430.8</ele>
        <time>2026-03-18T13:36:13Z</time>
      </trkpt>
      <trkpt lat="48.25447" lon="7.36464">
        <ele>431.3</ele>
        <time>2026-03-18T13:36:18Z</time>
      </trkpt>
      <trkpt lat="48.25444" lon="7.36456">
        <ele>431.7</ele>
        <time>2026-03-18T13:36:23Z</time>
      </trkpt>
      <trkpt lat="48.25442" lon="7.36448">
        <ele>432</ele>
        <time>2026-03-18T13:36:28Z</time>
      </trkpt>
      <trkpt lat="48.25438" lon="7.3644">
        <ele>432.7</ele>
        <time>2026-03-18T13:36:33Z</time>
      </trkpt>
      <trkpt lat="48.25434" lon="7.36433">
        <ele>433.3</ele>
        <time>2026-03-18T13:36:38Z</time>
      </trkpt>
      <trkpt lat="48.25432" lon="7.36423">
        <ele>433.6</ele>
        <time>2026-03-18T13:36:43Z</time>
      </trkpt>
      <trkpt lat="48.25429" lon="7.36416">
        <ele>434.1</ele>
        <time>2026-03-18T13:36:48Z</time>
      </trkpt>
      <trkpt lat="48.25427" lon="7.36406">
        <ele>434.1</ele>
        <time>2026-03-18T13:36:53Z</time>
      </trkpt>
      <trkpt lat="48.25425" lon="7.36397">
        <ele>434.1</ele>
        <time>2026-03-18T13:36:58Z</time>
      </trkpt>
      <trkpt lat="48.25423" lon="7.3639">
        <ele>434.2</ele>
        <time>2026-03-18T13:37:03Z</time>
      </trkpt>
      <trkpt lat="48.25421" lon="7.36383">
        <ele>434.2</ele>
        <time>2026-03-18T13:37:08Z</time>
      </trkpt>
      <trkpt lat="48.25415" lon="7.36377">
        <ele>434.7</ele>
        <time>2026-03-18T13:37:13Z</time>
      </trkpt>
      <trkpt lat="48.25411" lon="7.36369">
        <ele>434.7</ele>
        <time>2026-03-18T13:37:18Z</time>
      </trkpt>
      <trkpt lat="48.25406" lon="7.36361">
        <ele>434.8</ele>
        <time>2026-03-18T13:37:23Z</time>
      </trkpt>
      <trkpt lat="48.25402" lon="7.36352">
        <ele>434.8</ele>
        <time>2026-03-18T13:37:28Z</time>
      </trkpt>
      <trkpt lat="48.25399" lon="7.36345">
        <ele>434.8</ele>
        <time>2026-03-18T13:37:33Z</time>
      </trkpt>
      <trkpt lat="48.25395" lon="7.3634">
        <ele>435</ele>
        <time>2026-03-18T13:37:38Z</time>
      </trkpt>
      <trkpt lat="48.25393" lon="7.36335">
        <ele>435</ele>
        <time>2026-03-18T13:37:43Z</time>
      </trkpt>
      <trkpt lat="48.25389" lon="7.36327">
        <ele>435.3</ele>
        <time>2026-03-18T13:37:48Z</time>
      </trkpt>
      <trkpt lat="48.25385" lon="7.36321">
        <ele>435.6</ele>
        <time>2026-03-18T13:37:53Z</time>
      </trkpt>
      <trkpt lat="48.25382" lon="7.36314">
        <ele>435.8</ele>
        <time>2026-03-18T13:37:58Z</time>
      </trkpt>
      <trkpt lat="48.25379" lon="7.36307">
        <ele>436</ele>
        <time>2026-03-18T13:38:03Z</time>
      </trkpt>
      <trkpt lat="48.25376" lon="7.36301">
        <ele>436.2</ele>
        <time>2026-03-18T13:38:08Z</time>
      </trkpt>
      <trkpt lat="48.25372" lon="7.36294">
        <ele>436.5</ele>
        <time>2026-03-18T13:38:13Z</time>
      </trkpt>
      <trkpt lat="48.25368" lon="7.36285">
        <ele>436.8</ele>
        <time>2026-03-18T13:38:18Z</time>
      </trkpt>
      <trkpt lat="48.25365" lon="7.36276">
        <ele>437.1</ele>
        <time>2026-03-18T13:38:23Z</time>
      </trkpt>
      <trkpt lat="48.2536" lon="7.36268">
        <ele>437.5</ele>
        <time>2026-03-18T13:38:28Z</time>
      </trkpt>
      <trkpt lat="48.25357" lon="7.36259">
        <ele>437.8</ele>
        <time>2026-03-18T13:38:33Z</time>
      </trkpt>
      <trkpt lat="48.25356" lon="7.36251">
        <ele>437.8</ele>
        <time>2026-03-18T13:38:38Z</time>
      </trkpt>
      <trkpt lat="48.25353" lon="7.36245">
        <ele>438.1</ele>
        <time>2026-03-18T13:38:43Z</time>
      </trkpt>
      <trkpt lat="48.2535" lon="7.36236">
        <ele>438.4</ele>
        <time>2026-03-18T13:38:48Z</time>
      </trkpt>
      <trkpt lat="48.25346" lon="7.36225">
        <ele>438.7</ele>
        <time>2026-03-18T13:38:53Z</time>
      </trkpt>
      <trkpt lat="48.25345" lon="7.36219">
        <ele>438.8</ele>
        <time>2026-03-18T13:38:58Z</time>
      </trkpt>
      <trkpt lat="48.25342" lon="7.36209">
        <ele>439.1</ele>
        <time>2026-03-18T13:39:03Z</time>
      </trkpt>
      <trkpt lat="48.25339" lon="7.36199">
        <ele>439.4</ele>
        <time>2026-03-18T13:39:08Z</time>
      </trkpt>
      <trkpt lat="48.25335" lon="7.36191">
        <ele>439.8</ele>
        <time>2026-03-18T13:39:13Z</time>
      </trkpt>
      <trkpt lat="48.25332" lon="7.36185">
        <ele>440</ele>
        <time>2026-03-18T13:39:18Z</time>
      </trkpt>
      <trkpt lat="48.25329" lon="7.36177">
        <ele>440</ele>
        <time>2026-03-18T13:39:23Z</time>
      </trkpt>
      <trkpt lat="48.25327" lon="7.36171">
        <ele>440</ele>
        <time>2026-03-18T13:39:28Z</time>
      </trkpt>
      <trkpt lat="48.25326" lon="7.36165">
        <ele>440</ele>
        <time>2026-03-18T13:39:33Z</time>
      </trkpt>
      <trkpt lat="48.25323" lon="7.36157">
        <ele>440</ele>
        <time>2026-03-18T13:39:38Z</time>
      </trkpt>
      <trkpt lat="48.25319" lon="7.3615">
        <ele>440.1</ele>
        <time>2026-03-18T13:39:43Z</time>
      </trkpt>
      <trkpt lat="48.25314" lon="7.36141">
        <ele>440.2</ele>
        <time>2026-03-18T13:39:48Z</time>
      </trkpt>
      <trkpt lat="48.2531" lon="7.36133">
        <ele>440.3</ele>
        <time>2026-03-18T13:39:53Z</time>
      </trkpt>
      <trkpt lat="48.25306" lon="7.36124">
        <ele>440.5</ele>
        <time>2026-03-18T13:39:58Z</time>
      </trkpt>
      <trkpt lat="48.25304" lon="7.36116">
        <ele>440.6</ele>
        <time>2026-03-18T13:40:03Z</time>
      </trkpt>
      <trkpt lat="48.253" lon="7.36109">
        <ele>440.8</ele>
        <time>2026-03-18T13:40:08Z</time>
      </trkpt>
      <trkpt lat="48.25297" lon="7.36101">
        <ele>441</ele>
        <time>2026-03-18T13:40:13Z</time>
      </trkpt>
      <trkpt lat="48.25293" lon="7.36095">
        <ele>441.2</ele>
        <time>2026-03-18T13:40:18Z</time>
      </trkpt>
      <trkpt lat="48.25289" lon="7.36087">
        <ele>441.5</ele>
        <time>2026-03-18T13:40:23Z</time>
      </trkpt>
      <trkpt lat="48.25284" lon="7.36079">
        <ele>441.8</ele>
        <time>2026-03-18T13:40:28Z</time>
      </trkpt>
      <trkpt lat="48.2528" lon="7.36073">
        <ele>442.1</ele>
        <time>2026-03-18T13:40:33Z</time>
      </trkpt>
      <trkpt lat="48.25277" lon="7.36067">
        <ele>442.3</ele>
        <time>2026-03-18T13:40:38Z</time>
      </trkpt>
      <trkpt lat="48.25273" lon="7.36061">
        <ele>442.6</ele>
        <time>2026-03-18T13:40:43Z</time>
      </trkpt>
      <trkpt lat="48.2527" lon="7.36056">
        <ele>442.8</ele>
        <time>2026-03-18T13:40:48Z</time>
      </trkpt>
      <trkpt lat="48.25265" lon="7.36049">
        <ele>443.1</ele>
        <time>2026-03-18T13:40:53Z</time>
      </trkpt>
      <trkpt lat="48.25261" lon="7.3604">
        <ele>443.5</ele>
        <time>2026-03-18T13:40:58Z</time>
      </trkpt>
      <trkpt lat="48.25257" lon="7.36032">
        <ele>443.9</ele>
        <time>2026-03-18T13:41:03Z</time>
      </trkpt>
      <trkpt lat="48.25255" lon="7.36023">
        <ele>444.2</ele>
        <time>2026-03-18T13:41:08Z</time>
      </trkpt>
      <trkpt lat="48.25251" lon="7.36016">
        <ele>444.6</ele>
        <time>2026-03-18T13:41:13Z</time>
      </trkpt>
      <trkpt lat="48.25248" lon="7.36005">
        <ele>444.6</ele>
        <time>2026-03-18T13:41:18Z</time>
      </trkpt>
      <trkpt lat="48.25244" lon="7.35998">
        <ele>444.2</ele>
        <time>2026-03-18T13:41:23Z</time>
      </trkpt>
      <trkpt lat="48.2524" lon="7.3599">
        <ele>443.7</ele>
        <time>2026-03-18T13:41:28Z</time>
      </trkpt>
      <trkpt lat="48.25235" lon="7.35984">
        <ele>443.2</ele>
        <time>2026-03-18T13:41:33Z</time>
      </trkpt>
      <trkpt lat="48.2523" lon="7.35976">
        <ele>442.7</ele>
        <time>2026-03-18T13:41:38Z</time>
      </trkpt>
      <trkpt lat="48.25225" lon="7.35971">
        <ele>442.2</ele>
        <time>2026-03-18T13:41:43Z</time>
      </trkpt>
      <trkpt lat="48.25222" lon="7.35965">
        <ele>442</ele>
        <time>2026-03-18T13:41:48Z</time>
      </trkpt>
      <trkpt lat="48.25218" lon="7.35958">
        <ele>441.7</ele>
        <time>2026-03-18T13:41:53Z</time>
      </trkpt>
      <trkpt lat="48.25213" lon="7.35952">
        <ele>441.3</ele>
        <time>2026-03-18T13:41:58Z</time>
      </trkpt>
      <trkpt lat="48.25209" lon="7.35944">
        <ele>441.1</ele>
        <time>2026-03-18T13:42:03Z</time>
      </trkpt>
      <trkpt lat="48.25205" lon="7.35938">
        <ele>440.9</ele>
        <time>2026-03-18T13:42:08Z</time>
      </trkpt>
      <trkpt lat="48.25201" lon="7.35933">
        <ele>440.6</ele>
        <time>2026-03-18T13:42:13Z</time>
      </trkpt>
      <trkpt lat="48.25197" lon="7.35927">
        <ele>440.5</ele>
        <time>2026-03-18T13:42:18Z</time>
      </trkpt>
      <trkpt lat="48.25192" lon="7.35916">
        <ele>440.5</ele>
        <time>2026-03-18T13:42:23Z</time>
      </trkpt>
      <trkpt lat="48.25185" lon="7.35904">
        <ele>440.2</ele>
        <time>2026-03-18T13:42:28Z</time>
      </trkpt>
      <trkpt lat="48.25182" lon="7.35903">
        <ele>440</ele>
        <time>2026-03-18T13:42:33Z</time>
      </trkpt>
      <trkpt lat="48.25182" lon="7.35903">
        <ele>440</ele>
        <time>2026-03-18T13:42:38Z</time>
      </trkpt>
      <trkpt lat="48.25182" lon="7.35903">
        <ele>440</ele>
        <time>2026-03-18T13:42:43Z</time>
      </trkpt>
      <trkpt lat="48.25182" lon="7.35903">
        <ele>440</ele>
        <time>2026-03-18T13:42:48Z</time>
      </trkpt>
      <trkpt lat="48.25182" lon="7.35903">
        <ele>440</ele>
        <time>2026-03-18T13:42:53Z</time>
      </trkpt>
      <trkpt lat="48.25182" lon="7.35903">
        <ele>440</ele>
        <time>2026-03-18T13:42:58Z</time>
      </trkpt>
      <trkpt lat="48.25182" lon="7.35903">
        <ele>440</ele>
        <time>2026-03-18T13:43:03Z</time>
      </trkpt>
      <trkpt lat="48.25182" lon="7.35903">
        <ele>440</ele>
        <time>2026-03-18T13:43:08Z</time>
      </trkpt>
      <trkpt lat="48.25182" lon="7.35903">
        <ele>440</ele>
        <time>2026-03-18T13:43:13Z</time>
      </trkpt>
      <trkpt lat="48.25182" lon="7.35903">
        <ele>440</ele>
        <time>2026-03-18T13:43:18Z</time>
      </trkpt>
      <trkpt lat="48.25182" lon="7.35903">
        <ele>440</ele>
        <time>2026-03-18T13:43:23Z</time>
      </trkpt>
      <trkpt lat="48.25182" lon="7.35903">
        <ele>440</ele>
        <time>2026-03-18T13:43:28Z</time>
      </trkpt>
      <trkpt lat="48.25183" lon="7.35896">
        <ele>440.4</ele>
        <time>2026-03-18T13:43:33Z</time>
      </trkpt>
      <trkpt lat="48.25182" lon="7.35895">
        <ele>440.3</ele>
        <time>2026-03-18T13:43:38Z</time>
      </trkpt>
      <trkpt lat="48.25182" lon="7.35895">
        <ele>440.3</ele>
        <time>2026-03-18T13:43:43Z</time>
      </trkpt>
      <trkpt lat="48.25182" lon="7.35895">
        <ele>440.3</ele>
        <time>2026-03-18T13:43:48Z</time>
      </trkpt>
      <trkpt lat="48.25182" lon="7.35895">
        <ele>440.3</ele>
        <time>2026-03-18T13:43:53Z</time>
      </trkpt>
      <trkpt lat="48.25182" lon="7.35895">
        <ele>440.3</ele>
        <time>2026-03-18T13:43:58Z</time>
      </trkpt>
      <trkpt lat="48.25182" lon="7.35895">
        <ele>440.3</ele>
        <time>2026-03-18T13:44:03Z</time>
      </trkpt>
      <trkpt lat="48.25182" lon="7.35895">
        <ele>440.3</ele>
        <time>2026-03-18T13:44:08Z</time>
      </trkpt>
      <trkpt lat="48.25182" lon="7.35895">
        <ele>440.3</ele>
        <time>2026-03-18T13:44:13Z</time>
      </trkpt>
      <trkpt lat="48.25179" lon="7.35889">
        <ele>440.4</ele>
        <time>2026-03-18T13:44:18Z</time>
      </trkpt>
      <trkpt lat="48.25174" lon="7.35881">
        <ele>440.5</ele>
        <time>2026-03-18T13:44:23Z</time>
      </trkpt>
      <trkpt lat="48.25171" lon="7.35872">
        <ele>440.8</ele>
        <time>2026-03-18T13:44:28Z</time>
      </trkpt>
      <trkpt lat="48.25168" lon="7.35865">
        <ele>441.1</ele>
        <time>2026-03-18T13:44:33Z</time>
      </trkpt>
      <trkpt lat="48.25166" lon="7.35858">
        <ele>441.5</ele>
        <time>2026-03-18T13:44:38Z</time>
      </trkpt>
      <trkpt lat="48.25162" lon="7.3585">
        <ele>441.5</ele>
        <time>2026-03-18T13:44:43Z</time>
      </trkpt>
      <trkpt lat="48.25159" lon="7.35842">
        <ele>441.7</ele>
        <time>2026-03-18T13:44:48Z</time>
      </trkpt>
      <trkpt lat="48.25156" lon="7.35835">
        <ele>441.9</ele>
        <time>2026-03-18T13:44:53Z</time>
      </trkpt>
      <trkpt lat="48.25153" lon="7.35829">
        <ele>442</ele>
        <time>2026-03-18T13:44:58Z</time>
      </trkpt>
      <trkpt lat="48.25149" lon="7.35822">
        <ele>442.2</ele>
        <time>2026-03-18T13:45:03Z</time>
      </trkpt>
      <trkpt lat="48.25145" lon="7.35815">
        <ele>442.4</ele>
        <time>2026-03-18T13:45:08Z</time>
      </trkpt>
      <trkpt lat="48.25141" lon="7.35809">
        <ele>442.5</ele>
        <time>2026-03-18T13:45:13Z</time>
      </trkpt>
      <trkpt lat="48.25137" lon="7.35805">
        <ele>442.6</ele>
        <time>2026-03-18T13:45:18Z</time>
      </trkpt>
      <trkpt lat="48.25133" lon="7.35799">
        <ele>442.8</ele>
        <time>2026-03-18T13:45:23Z</time>
      </trkpt>
      <trkpt lat="48.25129" lon="7.35791">
        <ele>443.3</ele>
        <time>2026-03-18T13:45:28Z</time>
      </trkpt>
      <trkpt lat="48.25124" lon="7.35784">
        <ele>443.7</ele>
        <time>2026-03-18T13:45:33Z</time>
      </trkpt>
      <trkpt lat="48.25119" lon="7.35779">
        <ele>443.9</ele>
        <time>2026-03-18T13:45:38Z</time>
      </trkpt>
      <trkpt lat="48.25115" lon="7.35772">
        <ele>444.5</ele>
        <time>2026-03-18T13:45:43Z</time>
      </trkpt>
      <trkpt lat="48.2511" lon="7.35767">
        <ele>444.8</ele>
        <time>2026-03-18T13:45:48Z</time>
      </trkpt>
      <trkpt lat="48.25104" lon="7.35759">
        <ele>445.5</ele>
        <time>2026-03-18T13:45:53Z</time>
      </trkpt>
      <trkpt lat="48.25098" lon="7.35755">
        <ele>445.8</ele>
        <time>2026-03-18T13:45:58Z</time>
      </trkpt>
      <trkpt lat="48.25094" lon="7.35747">
        <ele>446.5</ele>
        <time>2026-03-18T13:46:03Z</time>
      </trkpt>
      <trkpt lat="48.25088" lon="7.35741">
        <ele>446.8</ele>
        <time>2026-03-18T13:46:08Z</time>
      </trkpt>
      <trkpt lat="48.25083" lon="7.35732">
        <ele>447.6</ele>
        <time>2026-03-18T13:46:13Z</time>
      </trkpt>
      <trkpt lat="48.25079" lon="7.35725">
        <ele>449</ele>
        <time>2026-03-18T13:46:18Z</time>
      </trkpt>
      <trkpt lat="48.25075" lon="7.35719">
        <ele>450.2</ele>
        <time>2026-03-18T13:46:23Z</time>
      </trkpt>
      <trkpt lat="48.25071" lon="7.35712">
        <ele>451.6</ele>
        <time>2026-03-18T13:46:28Z</time>
      </trkpt>
      <trkpt lat="48.25067" lon="7.35704">
        <ele>453</ele>
        <time>2026-03-18T13:46:33Z</time>
      </trkpt>
      <trkpt lat="48.25063" lon="7.35696">
        <ele>454.4</ele>
        <time>2026-03-18T13:46:38Z</time>
      </trkpt>
      <trkpt lat="48.25058" lon="7.35689">
        <ele>455.8</ele>
        <time>2026-03-18T13:46:43Z</time>
      </trkpt>
      <trkpt lat="48.25054" lon="7.35682">
        <ele>457.1</ele>
        <time>2026-03-18T13:46:48Z</time>
      </trkpt>
      <trkpt lat="48.25048" lon="7.35676">
        <ele>458.7</ele>
        <time>2026-03-18T13:46:53Z</time>
      </trkpt>
      <trkpt lat="48.25043" lon="7.35668">
        <ele>460.2</ele>
        <time>2026-03-18T13:46:58Z</time>
      </trkpt>
      <trkpt lat="48.2504" lon="7.3566">
        <ele>461.1</ele>
        <time>2026-03-18T13:47:03Z</time>
      </trkpt>
      <trkpt lat="48.25038" lon="7.35653">
        <ele>461.8</ele>
        <time>2026-03-18T13:47:08Z</time>
      </trkpt>
      <trkpt lat="48.25037" lon="7.35646">
        <ele>462.3</ele>
        <time>2026-03-18T13:47:13Z</time>
      </trkpt>
      <trkpt lat="48.25035" lon="7.3564">
        <ele>462.9</ele>
        <time>2026-03-18T13:47:18Z</time>
      </trkpt>
      <trkpt lat="48.25032" lon="7.35632">
        <ele>463.9</ele>
        <time>2026-03-18T13:47:23Z</time>
      </trkpt>
      <trkpt lat="48.25029" lon="7.35625">
        <ele>464.9</ele>
        <time>2026-03-18T13:47:28Z</time>
      </trkpt>
      <trkpt lat="48.25025" lon="7.3562">
        <ele>466</ele>
        <time>2026-03-18T13:47:33Z</time>
      </trkpt>
      <trkpt lat="48.25022" lon="7.35613">
        <ele>467.1</ele>
        <time>2026-03-18T13:47:38Z</time>
      </trkpt>
      <trkpt lat="48.25018" lon="7.35606">
        <ele>468.3</ele>
        <time>2026-03-18T13:47:43Z</time>
      </trkpt>
      <trkpt lat="48.25015" lon="7.35599">
        <ele>469.4</ele>
        <time>2026-03-18T13:47:48Z</time>
      </trkpt>
      <trkpt lat="48.2501" lon="7.35592">
        <ele>471</ele>
        <time>2026-03-18T13:47:53Z</time>
      </trkpt>
      <trkpt lat="48.25006" lon="7.35584">
        <ele>472.5</ele>
        <time>2026-03-18T13:47:58Z</time>
      </trkpt>
      <trkpt lat="48.25002" lon="7.35576">
        <ele>473.7</ele>
        <time>2026-03-18T13:48:03Z</time>
      </trkpt>
      <trkpt lat="48.24999" lon="7.35568">
        <ele>474.5</ele>
        <time>2026-03-18T13:48:08Z</time>
      </trkpt>
      <trkpt lat="48.24997" lon="7.3556">
        <ele>474.9</ele>
        <time>2026-03-18T13:48:13Z</time>
      </trkpt>
      <trkpt lat="48.24992" lon="7.35551">
        <ele>475.7</ele>
        <time>2026-03-18T13:48:18Z</time>
      </trkpt>
      <trkpt lat="48.24988" lon="7.35543">
        <ele>476.3</ele>
        <time>2026-03-18T13:48:23Z</time>
      </trkpt>
      <trkpt lat="48.24985" lon="7.35537">
        <ele>476.8</ele>
        <time>2026-03-18T13:48:28Z</time>
      </trkpt>
      <trkpt lat="48.24983" lon="7.35531">
        <ele>477.1</ele>
        <time>2026-03-18T13:48:33Z</time>
      </trkpt>
      <trkpt lat="48.2498" lon="7.35524">
        <ele>477.4</ele>
        <time>2026-03-18T13:48:38Z</time>
      </trkpt>
      <trkpt lat="48.24976" lon="7.35516">
        <ele>477.9</ele>
        <time>2026-03-18T13:48:43Z</time>
      </trkpt>
      <trkpt lat="48.24972" lon="7.35507">
        <ele>478.3</ele>
        <time>2026-03-18T13:48:48Z</time>
      </trkpt>
      <trkpt lat="48.24969" lon="7.35501">
        <ele>478.6</ele>
        <time>2026-03-18T13:48:53Z</time>
      </trkpt>
      <trkpt lat="48.24967" lon="7.35493">
        <ele>479.2</ele>
        <time>2026-03-18T13:48:58Z</time>
      </trkpt>
      <trkpt lat="48.24965" lon="7.35484">
        <ele>480</ele>
        <time>2026-03-18T13:49:03Z</time>
      </trkpt>
      <trkpt lat="48.24963" lon="7.35474">
        <ele>480.8</ele>
        <time>2026-03-18T13:49:08Z</time>
      </trkpt>
      <trkpt lat="48.24962" lon="7.35466">
        <ele>481.5</ele>
        <time>2026-03-18T13:49:13Z</time>
      </trkpt>
      <trkpt lat="48.2496" lon="7.3546">
        <ele>482</ele>
        <time>2026-03-18T13:49:18Z</time>
      </trkpt>
      <trkpt lat="48.24957" lon="7.3545">
        <ele>482.9</ele>
        <time>2026-03-18T13:49:23Z</time>
      </trkpt>
      <trkpt lat="48.24953" lon="7.35439">
        <ele>483.9</ele>
        <time>2026-03-18T13:49:28Z</time>
      </trkpt>
      <trkpt lat="48.2495" lon="7.35429">
        <ele>484.8</ele>
        <time>2026-03-18T13:49:33Z</time>
      </trkpt>
      <trkpt lat="48.24947" lon="7.35421">
        <ele>485.5</ele>
        <time>2026-03-18T13:49:38Z</time>
      </trkpt>
      <trkpt lat="48.24944" lon="7.35414">
        <ele>486.3</ele>
        <time>2026-03-18T13:49:43Z</time>
      </trkpt>
      <trkpt lat="48.24941" lon="7.35406">
        <ele>487.2</ele>
        <time>2026-03-18T13:49:48Z</time>
      </trkpt>
      <trkpt lat="48.2494" lon="7.35397">
        <ele>488.2</ele>
        <time>2026-03-18T13:49:53Z</time>
      </trkpt>
      <trkpt lat="48.24937" lon="7.35389">
        <ele>489.2</ele>
        <time>2026-03-18T13:49:58Z</time>
      </trkpt>
      <trkpt lat="48.24934" lon="7.3538">
        <ele>490.4</ele>
        <time>2026-03-18T13:50:03Z</time>
      </trkpt>
      <trkpt lat="48.24932" lon="7.35371">
        <ele>491.6</ele>
        <time>2026-03-18T13:50:08Z</time>
      </trkpt>
      <trkpt lat="48.24926" lon="7.35366">
        <ele>492.9</ele>
        <time>2026-03-18T13:50:13Z</time>
      </trkpt>
      <trkpt lat="48.24921" lon="7.35362">
        <ele>494</ele>
        <time>2026-03-18T13:50:18Z</time>
      </trkpt>
      <trkpt lat="48.24918" lon="7.35355">
        <ele>495.2</ele>
        <time>2026-03-18T13:50:23Z</time>
      </trkpt>
      <trkpt lat="48.24915" lon="7.35349">
        <ele>496</ele>
        <time>2026-03-18T13:50:28Z</time>
      </trkpt>
      <trkpt lat="48.24913" lon="7.35341">
        <ele>496.7</ele>
        <time>2026-03-18T13:50:33Z</time>
      </trkpt>
      <trkpt lat="48.24912" lon="7.35335">
        <ele>497.3</ele>
        <time>2026-03-18T13:50:38Z</time>
      </trkpt>
      <trkpt lat="48.24911" lon="7.35329">
        <ele>497.8</ele>
        <time>2026-03-18T13:50:43Z</time>
      </trkpt>
      <trkpt lat="48.24912" lon="7.35321">
        <ele>498.6</ele>
        <time>2026-03-18T13:50:48Z</time>
      </trkpt>
      <trkpt lat="48.24911" lon="7.35315">
        <ele>499</ele>
        <time>2026-03-18T13:50:53Z</time>
      </trkpt>
      <trkpt lat="48.2491" lon="7.35309">
        <ele>499.4</ele>
        <time>2026-03-18T13:50:58Z</time>
      </trkpt>
      <trkpt lat="48.2491" lon="7.35303">
        <ele>499.9</ele>
        <time>2026-03-18T13:51:03Z</time>
      </trkpt>
      <trkpt lat="48.24909" lon="7.35297">
        <ele>500.4</ele>
        <time>2026-03-18T13:51:08Z</time>
      </trkpt>
      <trkpt lat="48.24908" lon="7.3529">
        <ele>500.9</ele>
        <time>2026-03-18T13:51:13Z</time>
      </trkpt>
      <trkpt lat="48.24909" lon="7.35286">
        <ele>501.3</ele>
        <time>2026-03-18T13:51:18Z</time>
      </trkpt>
      <trkpt lat="48.24909" lon="7.35283">
        <ele>501.5</ele>
        <time>2026-03-18T13:51:23Z</time>
      </trkpt>
      <trkpt lat="48.24909" lon="7.35274">
        <ele>502.3</ele>
        <time>2026-03-18T13:51:28Z</time>
      </trkpt>
      <trkpt lat="48.24907" lon="7.35269">
        <ele>502.6</ele>
        <time>2026-03-18T13:51:33Z</time>
      </trkpt>
      <trkpt lat="48.24908" lon="7.35261">
        <ele>503.3</ele>
        <time>2026-03-18T13:51:38Z</time>
      </trkpt>
      <trkpt lat="48.24908" lon="7.35254">
        <ele>503.9</ele>
        <time>2026-03-18T13:51:43Z</time>
      </trkpt>
      <trkpt lat="48.24907" lon="7.35248">
        <ele>504.4</ele>
        <time>2026-03-18T13:51:48Z</time>
      </trkpt>
      <trkpt lat="48.24907" lon="7.35244">
        <ele>504.8</ele>
        <time>2026-03-18T13:51:53Z</time>
      </trkpt>
      <trkpt lat="48.24908" lon="7.35238">
        <ele>505.4</ele>
        <time>2026-03-18T13:51:58Z</time>
      </trkpt>
      <trkpt lat="48.24909" lon="7.3523">
        <ele>506.3</ele>
        <time>2026-03-18T13:52:03Z</time>
      </trkpt>
      <trkpt lat="48.24911" lon="7.35226">
        <ele>506.8</ele>
        <time>2026-03-18T13:52:08Z</time>
      </trkpt>
      <trkpt lat="48.24916" lon="7.35226">
        <ele>507.2</ele>
        <time>2026-03-18T13:52:13Z</time>
      </trkpt>
      <trkpt lat="48.24922" lon="7.35228">
        <ele>506.2</ele>
        <time>2026-03-18T13:52:18Z</time>
      </trkpt>
      <trkpt lat="48.24928" lon="7.35232">
        <ele>504.8</ele>
        <time>2026-03-18T13:52:23Z</time>
      </trkpt>
      <trkpt lat="48.2493" lon="7.35238">
        <ele>503.9</ele>
        <time>2026-03-18T13:52:28Z</time>
      </trkpt>
      <trkpt lat="48.24933" lon="7.35243">
        <ele>502.8</ele>
        <time>2026-03-18T13:52:33Z</time>
      </trkpt>
      <trkpt lat="48.24938" lon="7.35249">
        <ele>501.3</ele>
        <time>2026-03-18T13:52:38Z</time>
      </trkpt>
      <trkpt lat="48.2494" lon="7.35256">
        <ele>500.3</ele>
        <time>2026-03-18T13:52:43Z</time>
      </trkpt>
      <trkpt lat="48.24943" lon="7.35263">
        <ele>499.2</ele>
        <time>2026-03-18T13:52:48Z</time>
      </trkpt>
      <trkpt lat="48.24946" lon="7.35266">
        <ele>498.4</ele>
        <time>2026-03-18T13:52:53Z</time>
      </trkpt>
      <trkpt lat="48.24951" lon="7.3527">
        <ele>497.2</ele>
        <time>2026-03-18T13:52:58Z</time>
      </trkpt>
      <trkpt lat="48.24956" lon="7.35271">
        <ele>496.3</ele>
        <time>2026-03-18T13:53:03Z</time>
      </trkpt>
      <trkpt lat="48.24962" lon="7.35271">
        <ele>495.2</ele>
        <time>2026-03-18T13:53:08Z</time>
      </trkpt>
      <trkpt lat="48.24967" lon="7.35272">
        <ele>494.3</ele>
        <time>2026-03-18T13:53:13Z</time>
      </trkpt>
      <trkpt lat="48.24972" lon="7.35274">
        <ele>493.2</ele>
        <time>2026-03-18T13:53:18Z</time>
      </trkpt>
      <trkpt lat="48.24977" lon="7.35276">
        <ele>492.2</ele>
        <time>2026-03-18T13:53:23Z</time>
      </trkpt>
      <trkpt lat="48.24982" lon="7.35279">
        <ele>491.1</ele>
        <time>2026-03-18T13:53:28Z</time>
      </trkpt>
      <trkpt lat="48.24988" lon="7.35282">
        <ele>489.8</ele>
        <time>2026-03-18T13:53:33Z</time>
      </trkpt>
      <trkpt lat="48.24992" lon="7.35285">
        <ele>488.9</ele>
        <time>2026-03-18T13:53:38Z</time>
      </trkpt>
      <trkpt lat="48.24996" lon="7.35288">
        <ele>488</ele>
        <time>2026-03-18T13:53:43Z</time>
      </trkpt>
      <trkpt lat="48.25002" lon="7.3529">
        <ele>487.1</ele>
        <time>2026-03-18T13:53:48Z</time>
      </trkpt>
      <trkpt lat="48.25006" lon="7.3529">
        <ele>487</ele>
        <time>2026-03-18T13:53:53Z</time>
      </trkpt>
      <trkpt lat="48.25014" lon="7.3529">
        <ele>486.8</ele>
        <time>2026-03-18T13:53:58Z</time>
      </trkpt>
      <trkpt lat="48.2502" lon="7.35289">
        <ele>486.8</ele>
        <time>2026-03-18T13:54:03Z</time>
      </trkpt>
      <trkpt lat="48.25024" lon="7.35284">
        <ele>487.3</ele>
        <time>2026-03-18T13:54:08Z</time>
      </trkpt>
      <trkpt lat="48.25027" lon="7.35279">
        <ele>487.9</ele>
        <time>2026-03-18T13:54:13Z</time>
      </trkpt>
      <trkpt lat="48.25031" lon="7.35272">
        <ele>488.7</ele>
        <time>2026-03-18T13:54:18Z</time>
      </trkpt>
      <trkpt lat="48.25037" lon="7.35265">
        <ele>489.7</ele>
        <time>2026-03-18T13:54:23Z</time>
      </trkpt>
      <trkpt lat="48.25042" lon="7.35256">
        <ele>491.1</ele>
        <time>2026-03-18T13:54:28Z</time>
      </trkpt>
      <trkpt lat="48.25047" lon="7.35248">
        <ele>492.6</ele>
        <time>2026-03-18T13:54:33Z</time>
      </trkpt>
      <trkpt lat="48.2505" lon="7.35241">
        <ele>493.9</ele>
        <time>2026-03-18T13:54:38Z</time>
      </trkpt>
      <trkpt lat="48.25053" lon="7.35233">
        <ele>495.3</ele>
        <time>2026-03-18T13:54:43Z</time>
      </trkpt>
      <trkpt lat="48.25054" lon="7.35226">
        <ele>496.5</ele>
        <time>2026-03-18T13:54:48Z</time>
      </trkpt>
      <trkpt lat="48.25055" lon="7.35218">
        <ele>497.9</ele>
        <time>2026-03-18T13:54:53Z</time>
      </trkpt>
      <trkpt lat="48.25055" lon="7.35211">
        <ele>499</ele>
        <time>2026-03-18T13:54:58Z</time>
      </trkpt>
      <trkpt lat="48.25055" lon="7.35206">
        <ele>499.9</ele>
        <time>2026-03-18T13:55:03Z</time>
      </trkpt>
      <trkpt lat="48.25049" lon="7.35202">
        <ele>500.2</ele>
        <time>2026-03-18T13:55:08Z</time>
      </trkpt>
      <trkpt lat="48.25044" lon="7.352">
        <ele>500.2</ele>
        <time>2026-03-18T13:55:13Z</time>
      </trkpt>
      <trkpt lat="48.25039" lon="7.35199">
        <ele>500.1</ele>
        <time>2026-03-18T13:55:18Z</time>
      </trkpt>
      <trkpt lat="48.25036" lon="7.35199">
        <ele>499.9</ele>
        <time>2026-03-18T13:55:23Z</time>
      </trkpt>
      <trkpt lat="48.25035" lon="7.35196">
        <ele>500.4</ele>
        <time>2026-03-18T13:55:28Z</time>
      </trkpt>
      <trkpt lat="48.25033" lon="7.35197">
        <ele>500.1</ele>
        <time>2026-03-18T13:55:33Z</time>
      </trkpt>
      <trkpt lat="48.25027" lon="7.35194">
        <ele>500.2</ele>
        <time>2026-03-18T13:55:38Z</time>
      </trkpt>
      <trkpt lat="48.25024" lon="7.35191">
        <ele>500.6</ele>
        <time>2026-03-18T13:55:43Z</time>
      </trkpt>
      <trkpt lat="48.25022" lon="7.35187">
        <ele>501.1</ele>
        <time>2026-03-18T13:55:48Z</time>
      </trkpt>
      <trkpt lat="48.25021" lon="7.35187">
        <ele>501</ele>
        <time>2026-03-18T13:55:53Z</time>
      </trkpt>
      <trkpt lat="48.25021" lon="7.35187">
        <ele>501</ele>
        <time>2026-03-18T13:55:58Z</time>
      </trkpt>
      <trkpt lat="48.25021" lon="7.35187">
        <ele>501</ele>
        <time>2026-03-18T13:56:03Z</time>
      </trkpt>
      <trkpt lat="48.25021" lon="7.35187">
        <ele>501</ele>
        <time>2026-03-18T13:56:08Z</time>
      </trkpt>
      <trkpt lat="48.25021" lon="7.35187">
        <ele>501</ele>
        <time>2026-03-18T13:56:13Z</time>
      </trkpt>
      <trkpt lat="48.25021" lon="7.35187">
        <ele>501</ele>
        <time>2026-03-18T13:56:18Z</time>
      </trkpt>
      <trkpt lat="48.25021" lon="7.35187">
        <ele>501</ele>
        <time>2026-03-18T13:56:23Z</time>
      </trkpt>
      <trkpt lat="48.25021" lon="7.35187">
        <ele>501</ele>
        <time>2026-03-18T13:56:28Z</time>
      </trkpt>
      <trkpt lat="48.25013" lon="7.35176">
        <ele>502.3</ele>
        <time>2026-03-18T13:56:33Z</time>
      </trkpt>
      <trkpt lat="48.25013" lon="7.35175">
        <ele>502.5</ele>
        <time>2026-03-18T13:56:38Z</time>
      </trkpt>
      <trkpt lat="48.25013" lon="7.35175">
        <ele>502.5</ele>
        <time>2026-03-18T13:56:43Z</time>
      </trkpt>
      <trkpt lat="48.25013" lon="7.35175">
        <ele>502.5</ele>
        <time>2026-03-18T13:56:48Z</time>
      </trkpt>
      <trkpt lat="48.25007" lon="7.35163">
        <ele>504.3</ele>
        <time>2026-03-18T13:56:53Z</time>
      </trkpt>
      <trkpt lat="48.25007" lon="7.35163">
        <ele>504.3</ele>
        <time>2026-03-18T13:56:58Z</time>
      </trkpt>
      <trkpt lat="48.25007" lon="7.35163">
        <ele>504.3</ele>
        <time>2026-03-18T13:57:03Z</time>
      </trkpt>
      <trkpt lat="48.25001" lon="7.35156">
        <ele>505.7</ele>
        <time>2026-03-18T13:57:08Z</time>
      </trkpt>
      <trkpt lat="48.24997" lon="7.35154">
        <ele>506.5</ele>
        <time>2026-03-18T13:57:13Z</time>
      </trkpt>
      <trkpt lat="48.24994" lon="7.35152">
        <ele>507.3</ele>
        <time>2026-03-18T13:57:18Z</time>
      </trkpt>
      <trkpt lat="48.24991" lon="7.35151">
        <ele>507.9</ele>
        <time>2026-03-18T13:57:23Z</time>
      </trkpt>
      <trkpt lat="48.24987" lon="7.35151">
        <ele>508.3</ele>
        <time>2026-03-18T13:57:28Z</time>
      </trkpt>
      <trkpt lat="48.24983" lon="7.35151">
        <ele>508.7</ele>
        <time>2026-03-18T13:57:33Z</time>
      </trkpt>
      <trkpt lat="48.24979" lon="7.35151">
        <ele>509.1</ele>
        <time>2026-03-18T13:57:38Z</time>
      </trkpt>
      <trkpt lat="48.24976" lon="7.3515">
        <ele>509.7</ele>
        <time>2026-03-18T13:57:43Z</time>
      </trkpt>
      <trkpt lat="48.24972" lon="7.35148">
        <ele>510.5</ele>
        <time>2026-03-18T13:57:48Z</time>
      </trkpt>
      <trkpt lat="48.24966" lon="7.35145">
        <ele>511.8</ele>
        <time>2026-03-18T13:57:53Z</time>
      </trkpt>
      <trkpt lat="48.24963" lon="7.35139">
        <ele>513.4</ele>
        <time>2026-03-18T13:57:58Z</time>
      </trkpt>
      <trkpt lat="48.2496" lon="7.35132">
        <ele>515.1</ele>
        <time>2026-03-18T13:58:03Z</time>
      </trkpt>
      <trkpt lat="48.24959" lon="7.35125">
        <ele>516.7</ele>
        <time>2026-03-18T13:58:08Z</time>
      </trkpt>
      <trkpt lat="48.24957" lon="7.35119">
        <ele>518.1</ele>
        <time>2026-03-18T13:58:13Z</time>
      </trkpt>
      <trkpt lat="48.24956" lon="7.35115">
        <ele>519</ele>
        <time>2026-03-18T13:58:18Z</time>
      </trkpt>
      <trkpt lat="48.24955" lon="7.3511">
        <ele>520.1</ele>
        <time>2026-03-18T13:58:23Z</time>
      </trkpt>
      <trkpt lat="48.24953" lon="7.35104">
        <ele>521.5</ele>
        <time>2026-03-18T13:58:28Z</time>
      </trkpt>
      <trkpt lat="48.24952" lon="7.35098">
        <ele>522.7</ele>
        <time>2026-03-18T13:58:33Z</time>
      </trkpt>
      <trkpt lat="48.24948" lon="7.35092">
        <ele>524.1</ele>
        <time>2026-03-18T13:58:38Z</time>
      </trkpt>
      <trkpt lat="48.24943" lon="7.35091">
        <ele>524.6</ele>
        <time>2026-03-18T13:58:43Z</time>
      </trkpt>
      <trkpt lat="48.24937" lon="7.3509">
        <ele>525</ele>
        <time>2026-03-18T13:58:48Z</time>
      </trkpt>
      <trkpt lat="48.24933" lon="7.3509">
        <ele>525.2</ele>
        <time>2026-03-18T13:58:53Z</time>
      </trkpt>
      <trkpt lat="48.24929" lon="7.3509">
        <ele>525.4</ele>
        <time>2026-03-18T13:58:58Z</time>
      </trkpt>
      <trkpt lat="48.24928" lon="7.3509">
        <ele>525.4</ele>
        <time>2026-03-18T13:59:03Z</time>
      </trkpt>
      <trkpt lat="48.24928" lon="7.3509">
        <ele>525.4</ele>
        <time>2026-03-18T13:59:08Z</time>
      </trkpt>
      <trkpt lat="48.24928" lon="7.3509">
        <ele>525.4</ele>
        <time>2026-03-18T13:59:13Z</time>
      </trkpt>
      <trkpt lat="48.24928" lon="7.3509">
        <ele>525.4</ele>
        <time>2026-03-18T13:59:18Z</time>
      </trkpt>
      <trkpt lat="48.24919" lon="7.35086">
        <ele>526.5</ele>
        <time>2026-03-18T13:59:23Z</time>
      </trkpt>
      <trkpt lat="48.24916" lon="7.35084">
        <ele>526.8</ele>
        <time>2026-03-18T13:59:28Z</time>
      </trkpt>
      <trkpt lat="48.24912" lon="7.35082">
        <ele>526.6</ele>
        <time>2026-03-18T13:59:33Z</time>
      </trkpt>
      <trkpt lat="48.24909" lon="7.35081">
        <ele>526.3</ele>
        <time>2026-03-18T13:59:38Z</time>
      </trkpt>
      <trkpt lat="48.24907" lon="7.3508">
        <ele>526.3</ele>
        <time>2026-03-18T13:59:43Z</time>
      </trkpt>
      <trkpt lat="48.24907" lon="7.3508">
        <ele>526.3</ele>
        <time>2026-03-18T13:59:48Z</time>
      </trkpt>
      <trkpt lat="48.24907" lon="7.3508">
        <ele>526.3</ele>
        <time>2026-03-18T13:59:53Z</time>
      </trkpt>
      <trkpt lat="48.24914" lon="7.35075">
        <ele>528.6</ele>
        <time>2026-03-18T13:59:58Z</time>
      </trkpt>
      <trkpt lat="48.24919" lon="7.35075">
        <ele>529</ele>
        <time>2026-03-18T14:00:03Z</time>
      </trkpt>
      <trkpt lat="48.24924" lon="7.35073">
        <ele>529.4</ele>
        <time>2026-03-18T14:00:08Z</time>
      </trkpt>
      <trkpt lat="48.24928" lon="7.3507">
        <ele>530.1</ele>
        <time>2026-03-18T14:00:13Z</time>
      </trkpt>
      <trkpt lat="48.24933" lon="7.35068">
        <ele>530.6</ele>
        <time>2026-03-18T14:00:18Z</time>
      </trkpt>
      <trkpt lat="48.24938" lon="7.35066">
        <ele>531.1</ele>
        <time>2026-03-18T14:00:23Z</time>
      </trkpt>
      <trkpt lat="48.24941" lon="7.35064">
        <ele>531.6</ele>
        <time>2026-03-18T14:00:28Z</time>
      </trkpt>
      <trkpt lat="48.24945" lon="7.35061">
        <ele>532.5</ele>
        <time>2026-03-18T14:00:33Z</time>
      </trkpt>
      <trkpt lat="48.24949" lon="7.35059">
        <ele>533.1</ele>
        <time>2026-03-18T14:00:38Z</time>
      </trkpt>
      <trkpt lat="48.24953" lon="7.35059">
        <ele>533.2</ele>
        <time>2026-03-18T14:00:43Z</time>
      </trkpt>
      <trkpt lat="48.24958" lon="7.35059">
        <ele>533.2</ele>
        <time>2026-03-18T14:00:48Z</time>
      </trkpt>
      <trkpt lat="48.24962" lon="7.3506">
        <ele>532.9</ele>
        <time>2026-03-18T14:00:53Z</time>
      </trkpt>
      <trkpt lat="48.24966" lon="7.35062">
        <ele>532.3</ele>
        <time>2026-03-18T14:00:58Z</time>
      </trkpt>
      <trkpt lat="48.2497" lon="7.35061">
        <ele>532.7</ele>
        <time>2026-03-18T14:01:03Z</time>
      </trkpt>
      <trkpt lat="48.24973" lon="7.35057">
        <ele>534.1</ele>
        <time>2026-03-18T14:01:08Z</time>
      </trkpt>
      <trkpt lat="48.24975" lon="7.35052">
        <ele>535.8</ele>
        <time>2026-03-18T14:01:13Z</time>
      </trkpt>
      <trkpt lat="48.24972" lon="7.35047">
        <ele>537.5</ele>
        <time>2026-03-18T14:01:18Z</time>
      </trkpt>
      <trkpt lat="48.24968" lon="7.35043">
        <ele>538.7</ele>
        <time>2026-03-18T14:01:23Z</time>
      </trkpt>
      <trkpt lat="48.24962" lon="7.35041">
        <ele>539.1</ele>
        <time>2026-03-18T14:01:28Z</time>
      </trkpt>
      <trkpt lat="48.24958" lon="7.35037">
        <ele>540.2</ele>
        <time>2026-03-18T14:01:33Z</time>
      </trkpt>
      <trkpt lat="48.24956" lon="7.35034">
        <ele>541.1</ele>
        <time>2026-03-18T14:01:38Z</time>
      </trkpt>
      <trkpt lat="48.24952" lon="7.3503">
        <ele>542.1</ele>
        <time>2026-03-18T14:01:43Z</time>
      </trkpt>
      <trkpt lat="48.24948" lon="7.35029">
        <ele>542.1</ele>
        <time>2026-03-18T14:01:48Z</time>
      </trkpt>
      <trkpt lat="48.24943" lon="7.3503">
        <ele>541.5</ele>
        <time>2026-03-18T14:01:53Z</time>
      </trkpt>
      <trkpt lat="48.24939" lon="7.3503">
        <ele>541.2</ele>
        <time>2026-03-18T14:01:58Z</time>
      </trkpt>
      <trkpt lat="48.24937" lon="7.35029">
        <ele>541.4</ele>
        <time>2026-03-18T14:02:03Z</time>
      </trkpt>
      <trkpt lat="48.24935" lon="7.35029">
        <ele>541.2</ele>
        <time>2026-03-18T14:02:08Z</time>
      </trkpt>
      <trkpt lat="48.24935" lon="7.35029">
        <ele>541.2</ele>
        <time>2026-03-18T14:02:13Z</time>
      </trkpt>
      <trkpt lat="48.24935" lon="7.35029">
        <ele>541.2</ele>
        <time>2026-03-18T14:02:18Z</time>
      </trkpt>
      <trkpt lat="48.24926" lon="7.35025">
        <ele>541.7</ele>
        <time>2026-03-18T14:02:23Z</time>
      </trkpt>
      <trkpt lat="48.24922" lon="7.35027">
        <ele>540.9</ele>
        <time>2026-03-18T14:02:28Z</time>
      </trkpt>
      <trkpt lat="48.24919" lon="7.35029">
        <ele>540.2</ele>
        <time>2026-03-18T14:02:33Z</time>
      </trkpt>
      <trkpt lat="48.24914" lon="7.35032">
        <ele>538.7</ele>
        <time>2026-03-18T14:02:38Z</time>
      </trkpt>
      <trkpt lat="48.2491" lon="7.35032">
        <ele>537.9</ele>
        <time>2026-03-18T14:02:43Z</time>
      </trkpt>
      <trkpt lat="48.24906" lon="7.35032">
        <ele>537</ele>
        <time>2026-03-18T14:02:48Z</time>
      </trkpt>
      <trkpt lat="48.24903" lon="7.35031">
        <ele>536.6</ele>
        <time>2026-03-18T14:02:53Z</time>
      </trkpt>
      <trkpt lat="48.249" lon="7.35031">
        <ele>536</ele>
        <time>2026-03-18T14:02:58Z</time>
      </trkpt>
      <trkpt lat="48.24899" lon="7.3503">
        <ele>536</ele>
        <time>2026-03-18T14:03:03Z</time>
      </trkpt>
      <trkpt lat="48.24894" lon="7.35023">
        <ele>536.4</ele>
        <time>2026-03-18T14:03:08Z</time>
      </trkpt>
      <trkpt lat="48.24891" lon="7.3502">
        <ele>536.3</ele>
        <time>2026-03-18T14:03:13Z</time>
      </trkpt>
      <trkpt lat="48.24888" lon="7.35017">
        <ele>536.3</ele>
        <time>2026-03-18T14:03:18Z</time>
      </trkpt>
      <trkpt lat="48.24885" lon="7.35013">
        <ele>536.4</ele>
        <time>2026-03-18T14:03:23Z</time>
      </trkpt>
      <trkpt lat="48.24882" lon="7.35009">
        <ele>536.5</ele>
        <time>2026-03-18T14:03:28Z</time>
      </trkpt>
      <trkpt lat="48.24881" lon="7.35004">
        <ele>537.2</ele>
        <time>2026-03-18T14:03:33Z</time>
      </trkpt>
      <trkpt lat="48.24879" lon="7.34997">
        <ele>538.4</ele>
        <time>2026-03-18T14:03:38Z</time>
      </trkpt>
      <trkpt lat="48.24876" lon="7.34992">
        <ele>539</ele>
        <time>2026-03-18T14:03:43Z</time>
      </trkpt>
      <trkpt lat="48.24873" lon="7.34986">
        <ele>539.8</ele>
        <time>2026-03-18T14:03:48Z</time>
      </trkpt>
      <trkpt lat="48.2487" lon="7.3498">
        <ele>540.6</ele>
        <time>2026-03-18T14:03:53Z</time>
      </trkpt>
      <trkpt lat="48.24866" lon="7.34977">
        <ele>540.3</ele>
        <time>2026-03-18T14:03:58Z</time>
      </trkpt>
      <trkpt lat="48.24865" lon="7.34975">
        <ele>540.5</ele>
        <time>2026-03-18T14:04:03Z</time>
      </trkpt>
      <trkpt lat="48.24865" lon="7.34975">
        <ele>540.5</ele>
        <time>2026-03-18T14:04:08Z</time>
      </trkpt>
      <trkpt lat="48.24865" lon="7.34975">
        <ele>540.5</ele>
        <time>2026-03-18T14:04:13Z</time>
      </trkpt>
      <trkpt lat="48.24865" lon="7.34975">
        <ele>540.5</ele>
        <time>2026-03-18T14:04:18Z</time>
      </trkpt>
      <trkpt lat="48.24851" lon="7.34972">
        <ele>537.2</ele>
        <time>2026-03-18T14:04:23Z</time>
      </trkpt>
      <trkpt lat="48.24846" lon="7.34972">
        <ele>535.8</ele>
        <time>2026-03-18T14:04:28Z</time>
      </trkpt>
      <trkpt lat="48.24843" lon="7.34971">
        <ele>535.1</ele>
        <time>2026-03-18T14:04:33Z</time>
      </trkpt>
      <trkpt lat="48.24839" lon="7.34969">
        <ele>534.4</ele>
        <time>2026-03-18T14:04:38Z</time>
      </trkpt>
      <trkpt lat="48.24836" lon="7.34965">
        <ele>534.4</ele>
        <time>2026-03-18T14:04:43Z</time>
      </trkpt>
      <trkpt lat="48.24833" lon="7.34962">
        <ele>534.2</ele>
        <time>2026-03-18T14:04:48Z</time>
      </trkpt>
      <trkpt lat="48.24831" lon="7.34958">
        <ele>534.8</ele>
        <time>2026-03-18T14:04:53Z</time>
      </trkpt>
      <trkpt lat="48.24828" lon="7.34953">
        <ele>535.6</ele>
        <time>2026-03-18T14:04:58Z</time>
      </trkpt>
      <trkpt lat="48.24825" lon="7.34948">
        <ele>536.4</ele>
        <time>2026-03-18T14:05:03Z</time>
      </trkpt>
      <trkpt lat="48.24822" lon="7.34944">
        <ele>536.9</ele>
        <time>2026-03-18T14:05:08Z</time>
      </trkpt>
      <trkpt lat="48.24821" lon="7.34939">
        <ele>537.9</ele>
        <time>2026-03-18T14:05:13Z</time>
      </trkpt>
      <trkpt lat="48.24819" lon="7.34933">
        <ele>539</ele>
        <time>2026-03-18T14:05:18Z</time>
      </trkpt>
      <trkpt lat="48.24817" lon="7.34928">
        <ele>539.9</ele>
        <time>2026-03-18T14:05:23Z</time>
      </trkpt>
      <trkpt lat="48.24815" lon="7.34923">
        <ele>540.8</ele>
        <time>2026-03-18T14:05:28Z</time>
      </trkpt>
      <trkpt lat="48.24813" lon="7.34918">
        <ele>541.8</ele>
        <time>2026-03-18T14:05:33Z</time>
      </trkpt>
      <trkpt lat="48.2481" lon="7.34914">
        <ele>542.3</ele>
        <time>2026-03-18T14:05:38Z</time>
      </trkpt>
      <trkpt lat="48.24807" lon="7.34909">
        <ele>543.1</ele>
        <time>2026-03-18T14:05:43Z</time>
      </trkpt>
      <trkpt lat="48.24805" lon="7.34907">
        <ele>543.3</ele>
        <time>2026-03-18T14:05:48Z</time>
      </trkpt>
      <trkpt lat="48.24804" lon="7.34903">
        <ele>544</ele>
        <time>2026-03-18T14:05:53Z</time>
      </trkpt>
      <trkpt lat="48.24803" lon="7.349">
        <ele>544.5</ele>
        <time>2026-03-18T14:05:58Z</time>
      </trkpt>
      <trkpt lat="48.24801" lon="7.34894">
        <ele>545.5</ele>
        <time>2026-03-18T14:06:03Z</time>
      </trkpt>
      <trkpt lat="48.248" lon="7.34887">
        <ele>546.8</ele>
        <time>2026-03-18T14:06:08Z</time>
      </trkpt>
      <trkpt lat="48.248" lon="7.34882">
        <ele>547.8</ele>
        <time>2026-03-18T14:06:13Z</time>
      </trkpt>
      <trkpt lat="48.24799" lon="7.34878">
        <ele>548.5</ele>
        <time>2026-03-18T14:06:18Z</time>
      </trkpt>
      <trkpt lat="48.24796" lon="7.34874">
        <ele>548.8</ele>
        <time>2026-03-18T14:06:23Z</time>
      </trkpt>
      <trkpt lat="48.24795" lon="7.34873">
        <ele>548.9</ele>
        <time>2026-03-18T14:06:28Z</time>
      </trkpt>
      <trkpt lat="48.24791" lon="7.34867">
        <ele>549.4</ele>
        <time>2026-03-18T14:06:33Z</time>
      </trkpt>
      <trkpt lat="48.24789" lon="7.34861">
        <ele>550.3</ele>
        <time>2026-03-18T14:06:38Z</time>
      </trkpt>
      <trkpt lat="48.24788" lon="7.34856">
        <ele>551</ele>
        <time>2026-03-18T14:06:43Z</time>
      </trkpt>
      <trkpt lat="48.24787" lon="7.3485">
        <ele>552</ele>
        <time>2026-03-18T14:06:48Z</time>
      </trkpt>
      <trkpt lat="48.24785" lon="7.34844">
        <ele>552.8</ele>
        <time>2026-03-18T14:06:53Z</time>
      </trkpt>
      <trkpt lat="48.24783" lon="7.34839">
        <ele>553.3</ele>
        <time>2026-03-18T14:06:58Z</time>
      </trkpt>
      <trkpt lat="48.24782" lon="7.34834">
        <ele>554</ele>
        <time>2026-03-18T14:07:03Z</time>
      </trkpt>
      <trkpt lat="48.2478" lon="7.34829">
        <ele>554.2</ele>
        <time>2026-03-18T14:07:08Z</time>
      </trkpt>
      <trkpt lat="48.2478" lon="7.34824">
        <ele>554.8</ele>
        <time>2026-03-18T14:07:13Z</time>
      </trkpt>
      <trkpt lat="48.24777" lon="7.34819">
        <ele>554.7</ele>
        <time>2026-03-18T14:07:18Z</time>
      </trkpt>
      <trkpt lat="48.24775" lon="7.34813">
        <ele>554.8</ele>
        <time>2026-03-18T14:07:23Z</time>
      </trkpt>
      <trkpt lat="48.24774" lon="7.34807">
        <ele>555.2</ele>
        <time>2026-03-18T14:07:28Z</time>
      </trkpt>
      <trkpt lat="48.24773" lon="7.348">
        <ele>555.6</ele>
        <time>2026-03-18T14:07:33Z</time>
      </trkpt>
      <trkpt lat="48.24772" lon="7.34796">
        <ele>555.8</ele>
        <time>2026-03-18T14:07:38Z</time>
      </trkpt>
      <trkpt lat="48.24769" lon="7.34791">
        <ele>555.5</ele>
        <time>2026-03-18T14:07:43Z</time>
      </trkpt>
      <trkpt lat="48.24767" lon="7.34784">
        <ele>555.6</ele>
        <time>2026-03-18T14:07:48Z</time>
      </trkpt>
      <trkpt lat="48.24764" lon="7.34778">
        <ele>555.2</ele>
        <time>2026-03-18T14:07:53Z</time>
      </trkpt>
      <trkpt lat="48.24762" lon="7.34772">
        <ele>555.1</ele>
        <time>2026-03-18T14:07:58Z</time>
      </trkpt>
      <trkpt lat="48.24759" lon="7.34766">
        <ele>554.7</ele>
        <time>2026-03-18T14:08:03Z</time>
      </trkpt>
      <trkpt lat="48.24757" lon="7.34764">
        <ele>554.3</ele>
        <time>2026-03-18T14:08:08Z</time>
      </trkpt>
      <trkpt lat="48.24756" lon="7.34759">
        <ele>554.3</ele>
        <time>2026-03-18T14:08:13Z</time>
      </trkpt>
      <trkpt lat="48.24756" lon="7.34753">
        <ele>554.7</ele>
        <time>2026-03-18T14:08:18Z</time>
      </trkpt>
      <trkpt lat="48.24755" lon="7.34748">
        <ele>554.8</ele>
        <time>2026-03-18T14:08:23Z</time>
      </trkpt>
      <trkpt lat="48.24754" lon="7.34744">
        <ele>554.9</ele>
        <time>2026-03-18T14:08:28Z</time>
      </trkpt>
      <trkpt lat="48.24752" lon="7.3474">
        <ele>554.6</ele>
        <time>2026-03-18T14:08:33Z</time>
      </trkpt>
      <trkpt lat="48.24752" lon="7.34734">
        <ele>555.2</ele>
        <time>2026-03-18T14:08:38Z</time>
      </trkpt>
      <trkpt lat="48.24751" lon="7.34727">
        <ele>555.6</ele>
        <time>2026-03-18T14:08:43Z</time>
      </trkpt>
      <trkpt lat="48.2475" lon="7.34721">
        <ele>555.8</ele>
        <time>2026-03-18T14:08:48Z</time>
      </trkpt>
      <trkpt lat="48.24749" lon="7.34716">
        <ele>556</ele>
        <time>2026-03-18T14:08:53Z</time>
      </trkpt>
      <trkpt lat="48.24749" lon="7.34711">
        <ele>556.5</ele>
        <time>2026-03-18T14:08:58Z</time>
      </trkpt>
      <trkpt lat="48.24748" lon="7.34703">
        <ele>557</ele>
        <time>2026-03-18T14:09:03Z</time>
      </trkpt>
      <trkpt lat="48.24747" lon="7.34697">
        <ele>557.3</ele>
        <time>2026-03-18T14:09:08Z</time>
      </trkpt>
      <trkpt lat="48.24746" lon="7.34691">
        <ele>557.6</ele>
        <time>2026-03-18T14:09:13Z</time>
      </trkpt>
      <trkpt lat="48.24744" lon="7.34687">
        <ele>557.4</ele>
        <time>2026-03-18T14:09:18Z</time>
      </trkpt>
      <trkpt lat="48.24743" lon="7.34683">
        <ele>557.4</ele>
        <time>2026-03-18T14:09:23Z</time>
      </trkpt>
      <trkpt lat="48.24743" lon="7.34678">
        <ele>557.9</ele>
        <time>2026-03-18T14:09:28Z</time>
      </trkpt>
      <trkpt lat="48.24743" lon="7.34678">
        <ele>557.9</ele>
        <time>2026-03-18T14:09:33Z</time>
      </trkpt>
      <trkpt lat="48.24743" lon="7.34678">
        <ele>557.9</ele>
        <time>2026-03-18T14:09:38Z</time>
      </trkpt>
      <trkpt lat="48.24743" lon="7.34678">
        <ele>557.9</ele>
        <time>2026-03-18T14:09:43Z</time>
      </trkpt>
      <trkpt lat="48.24743" lon="7.34678">
        <ele>557.9</ele>
        <time>2026-03-18T14:09:48Z</time>
      </trkpt>
      <trkpt lat="48.24743" lon="7.34678">
        <ele>557.9</ele>
        <time>2026-03-18T14:09:53Z</time>
      </trkpt>
      <trkpt lat="48.24738" lon="7.34666">
        <ele>557.5</ele>
        <time>2026-03-18T14:09:58Z</time>
      </trkpt>
      <trkpt lat="48.24737" lon="7.34659">
        <ele>557.8</ele>
        <time>2026-03-18T14:10:03Z</time>
      </trkpt>
      <trkpt lat="48.24737" lon="7.34654">
        <ele>558.2</ele>
        <time>2026-03-18T14:10:08Z</time>
      </trkpt>
      <trkpt lat="48.24737" lon="7.34648">
        <ele>558.8</ele>
        <time>2026-03-18T14:10:13Z</time>
      </trkpt>
      <trkpt lat="48.24736" lon="7.34641">
        <ele>559.1</ele>
        <time>2026-03-18T14:10:18Z</time>
      </trkpt>
      <trkpt lat="48.24736" lon="7.34634">
        <ele>559.7</ele>
        <time>2026-03-18T14:10:23Z</time>
      </trkpt>
      <trkpt lat="48.24736" lon="7.34628">
        <ele>560.2</ele>
        <time>2026-03-18T14:10:28Z</time>
      </trkpt>
      <trkpt lat="48.24736" lon="7.34622">
        <ele>560.7</ele>
        <time>2026-03-18T14:10:33Z</time>
      </trkpt>
      <trkpt lat="48.24735" lon="7.34617">
        <ele>560.8</ele>
        <time>2026-03-18T14:10:38Z</time>
      </trkpt>
      <trkpt lat="48.24735" lon="7.34612">
        <ele>561.3</ele>
        <time>2026-03-18T14:10:43Z</time>
      </trkpt>
      <trkpt lat="48.24734" lon="7.34607">
        <ele>561.4</ele>
        <time>2026-03-18T14:10:48Z</time>
      </trkpt>
      <trkpt lat="48.24733" lon="7.34602">
        <ele>561.5</ele>
        <time>2026-03-18T14:10:53Z</time>
      </trkpt>
      <trkpt lat="48.24732" lon="7.346">
        <ele>561.3</ele>
        <time>2026-03-18T14:10:58Z</time>
      </trkpt>
      <trkpt lat="48.24732" lon="7.346">
        <ele>561.3</ele>
        <time>2026-03-18T14:11:03Z</time>
      </trkpt>
      <trkpt lat="48.24732" lon="7.346">
        <ele>561.3</ele>
        <time>2026-03-18T14:11:08Z</time>
      </trkpt>
      <trkpt lat="48.24732" lon="7.346">
        <ele>561.3</ele>
        <time>2026-03-18T14:11:13Z</time>
      </trkpt>
      <trkpt lat="48.24734" lon="7.34587">
        <ele>563.1</ele>
        <time>2026-03-18T14:11:18Z</time>
      </trkpt>
      <trkpt lat="48.24734" lon="7.34586">
        <ele>563.2</ele>
        <time>2026-03-18T14:11:23Z</time>
      </trkpt>
      <trkpt lat="48.24734" lon="7.34586">
        <ele>563.2</ele>
        <time>2026-03-18T14:11:28Z</time>
      </trkpt>
      <trkpt lat="48.24734" lon="7.34586">
        <ele>563.2</ele>
        <time>2026-03-18T14:11:33Z</time>
      </trkpt>
      <trkpt lat="48.24736" lon="7.34575">
        <ele>564.9</ele>
        <time>2026-03-18T14:11:38Z</time>
      </trkpt>
      <trkpt lat="48.24735" lon="7.34573">
        <ele>564.7</ele>
        <time>2026-03-18T14:11:43Z</time>
      </trkpt>
      <trkpt lat="48.24735" lon="7.34573">
        <ele>564.7</ele>
        <time>2026-03-18T14:11:48Z</time>
      </trkpt>
      <trkpt lat="48.24735" lon="7.34573">
        <ele>564.7</ele>
        <time>2026-03-18T14:11:53Z</time>
      </trkpt>
      <trkpt lat="48.24733" lon="7.34559">
        <ele>565.3</ele>
        <time>2026-03-18T14:11:58Z</time>
      </trkpt>
      <trkpt lat="48.24736" lon="7.34555">
        <ele>566.7</ele>
        <time>2026-03-18T14:12:03Z</time>
      </trkpt>
      <trkpt lat="48.24737" lon="7.34548">
        <ele>567.7</ele>
        <time>2026-03-18T14:12:08Z</time>
      </trkpt>
      <trkpt lat="48.24738" lon="7.34543">
        <ele>568.6</ele>
        <time>2026-03-18T14:12:13Z</time>
      </trkpt>
      <trkpt lat="48.24737" lon="7.34538">
        <ele>568.7</ele>
        <time>2026-03-18T14:12:18Z</time>
      </trkpt>
      <trkpt lat="48.24736" lon="7.34533">
        <ele>568.8</ele>
        <time>2026-03-18T14:12:23Z</time>
      </trkpt>
      <trkpt lat="48.24734" lon="7.34529">
        <ele>568.4</ele>
        <time>2026-03-18T14:12:28Z</time>
      </trkpt>
      <trkpt lat="48.24733" lon="7.34522">
        <ele>568.7</ele>
        <time>2026-03-18T14:12:33Z</time>
      </trkpt>
      <trkpt lat="48.24732" lon="7.34515">
        <ele>568.9</ele>
        <time>2026-03-18T14:12:38Z</time>
      </trkpt>
      <trkpt lat="48.24731" lon="7.34509">
        <ele>569.1</ele>
        <time>2026-03-18T14:12:43Z</time>
      </trkpt>
      <trkpt lat="48.2473" lon="7.34504">
        <ele>569.2</ele>
        <time>2026-03-18T14:12:48Z</time>
      </trkpt>
      <trkpt lat="48.24731" lon="7.34497">
        <ele>570.2</ele>
        <time>2026-03-18T14:12:53Z</time>
      </trkpt>
      <trkpt lat="48.24731" lon="7.3449">
        <ele>570.9</ele>
        <time>2026-03-18T14:12:58Z</time>
      </trkpt>
      <trkpt lat="48.24731" lon="7.34484">
        <ele>571.6</ele>
        <time>2026-03-18T14:13:03Z</time>
      </trkpt>
      <trkpt lat="48.24731" lon="7.34481">
        <ele>571.9</ele>
        <time>2026-03-18T14:13:08Z</time>
      </trkpt>
      <trkpt lat="48.24731" lon="7.34478">
        <ele>572.2</ele>
        <time>2026-03-18T14:13:13Z</time>
      </trkpt>
      <trkpt lat="48.2473" lon="7.34476">
        <ele>572</ele>
        <time>2026-03-18T14:13:18Z</time>
      </trkpt>
      <trkpt lat="48.24729" lon="7.34476">
        <ele>571.6</ele>
        <time>2026-03-18T14:13:23Z</time>
      </trkpt>
      <trkpt lat="48.24729" lon="7.34475">
        <ele>571.7</ele>
        <time>2026-03-18T14:13:28Z</time>
      </trkpt>
      <trkpt lat="48.24729" lon="7.34475">
        <ele>571.7</ele>
        <time>2026-03-18T14:13:33Z</time>
      </trkpt>
      <trkpt lat="48.24726" lon="7.34465">
        <ele>571.7</ele>
        <time>2026-03-18T14:13:38Z</time>
      </trkpt>
      <trkpt lat="48.24726" lon="7.3446">
        <ele>572.2</ele>
        <time>2026-03-18T14:13:43Z</time>
      </trkpt>
      <trkpt lat="48.24726" lon="7.34452">
        <ele>573</ele>
        <time>2026-03-18T14:13:48Z</time>
      </trkpt>
      <trkpt lat="48.24727" lon="7.34445">
        <ele>574.1</ele>
        <time>2026-03-18T14:13:53Z</time>
      </trkpt>
      <trkpt lat="48.24727" lon="7.34438">
        <ele>574.8</ele>
        <time>2026-03-18T14:13:58Z</time>
      </trkpt>
      <trkpt lat="48.24728" lon="7.34432">
        <ele>575.8</ele>
        <time>2026-03-18T14:14:03Z</time>
      </trkpt>
      <trkpt lat="48.24729" lon="7.34427">
        <ele>576.6</ele>
        <time>2026-03-18T14:14:08Z</time>
      </trkpt>
      <trkpt lat="48.2473" lon="7.34422">
        <ele>577.5</ele>
        <time>2026-03-18T14:14:13Z</time>
      </trkpt>
      <trkpt lat="48.24731" lon="7.34418">
        <ele>578.3</ele>
        <time>2026-03-18T14:14:18Z</time>
      </trkpt>
      <trkpt lat="48.24731" lon="7.34411">
        <ele>578.8</ele>
        <time>2026-03-18T14:14:23Z</time>
      </trkpt>
      <trkpt lat="48.24731" lon="7.34404">
        <ele>579.4</ele>
        <time>2026-03-18T14:14:28Z</time>
      </trkpt>
      <trkpt lat="48.24731" lon="7.34397">
        <ele>579.9</ele>
        <time>2026-03-18T14:14:33Z</time>
      </trkpt>
      <trkpt lat="48.24729" lon="7.34389">
        <ele>579.9</ele>
        <time>2026-03-18T14:14:38Z</time>
      </trkpt>
      <trkpt lat="48.2473" lon="7.34382">
        <ele>580.7</ele>
        <time>2026-03-18T14:14:43Z</time>
      </trkpt>
      <trkpt lat="48.2473" lon="7.34377">
        <ele>581.1</ele>
        <time>2026-03-18T14:14:48Z</time>
      </trkpt>
      <trkpt lat="48.24729" lon="7.34372">
        <ele>581.2</ele>
        <time>2026-03-18T14:14:53Z</time>
      </trkpt>
      <trkpt lat="48.2473" lon="7.34366">
        <ele>582</ele>
        <time>2026-03-18T14:14:58Z</time>
      </trkpt>
      <trkpt lat="48.2473" lon="7.34362">
        <ele>582.3</ele>
        <time>2026-03-18T14:15:03Z</time>
      </trkpt>
      <trkpt lat="48.24731" lon="7.34359">
        <ele>582.9</ele>
        <time>2026-03-18T14:15:08Z</time>
      </trkpt>
      <trkpt lat="48.24731" lon="7.34358">
        <ele>582.9</ele>
        <time>2026-03-18T14:15:13Z</time>
      </trkpt>
      <trkpt lat="48.24731" lon="7.34347">
        <ele>583.8</ele>
        <time>2026-03-18T14:15:18Z</time>
      </trkpt>
      <trkpt lat="48.24731" lon="7.34342">
        <ele>584.2</ele>
        <time>2026-03-18T14:15:23Z</time>
      </trkpt>
      <trkpt lat="48.24732" lon="7.34338">
        <ele>584.8</ele>
        <time>2026-03-18T14:15:28Z</time>
      </trkpt>
      <trkpt lat="48.24733" lon="7.34331">
        <ele>585.6</ele>
        <time>2026-03-18T14:15:33Z</time>
      </trkpt>
      <trkpt lat="48.24734" lon="7.34324">
        <ele>586.1</ele>
        <time>2026-03-18T14:15:38Z</time>
      </trkpt>
      <trkpt lat="48.24735" lon="7.34316">
        <ele>586.7</ele>
        <time>2026-03-18T14:15:43Z</time>
      </trkpt>
      <trkpt lat="48.24734" lon="7.34309">
        <ele>586.6</ele>
        <time>2026-03-18T14:15:48Z</time>
      </trkpt>
      <trkpt lat="48.24733" lon="7.34301">
        <ele>586.6</ele>
        <time>2026-03-18T14:15:53Z</time>
      </trkpt>
      <trkpt lat="48.24733" lon="7.34293">
        <ele>586.8</ele>
        <time>2026-03-18T14:15:58Z</time>
      </trkpt>
      <trkpt lat="48.24732" lon="7.34285">
        <ele>586.8</ele>
        <time>2026-03-18T14:16:03Z</time>
      </trkpt>
      <trkpt lat="48.24732" lon="7.34278">
        <ele>587</ele>
        <time>2026-03-18T14:16:08Z</time>
      </trkpt>
      <trkpt lat="48.24731" lon="7.34269">
        <ele>587</ele>
        <time>2026-03-18T14:16:13Z</time>
      </trkpt>
      <trkpt lat="48.24729" lon="7.3426">
        <ele>586.6</ele>
        <time>2026-03-18T14:16:18Z</time>
      </trkpt>
      <trkpt lat="48.24729" lon="7.34253">
        <ele>586.8</ele>
        <time>2026-03-18T14:16:23Z</time>
      </trkpt>
      <trkpt lat="48.24731" lon="7.34247">
        <ele>587.7</ele>
        <time>2026-03-18T14:16:28Z</time>
      </trkpt>
      <trkpt lat="48.24735" lon="7.34241">
        <ele>589.4</ele>
        <time>2026-03-18T14:16:33Z</time>
      </trkpt>
      <trkpt lat="48.24737" lon="7.34237">
        <ele>590.3</ele>
        <time>2026-03-18T14:16:38Z</time>
      </trkpt>
      <trkpt lat="48.2474" lon="7.34231">
        <ele>591.6</ele>
        <time>2026-03-18T14:16:43Z</time>
      </trkpt>
      <trkpt lat="48.24742" lon="7.34226">
        <ele>592.6</ele>
        <time>2026-03-18T14:16:48Z</time>
      </trkpt>
      <trkpt lat="48.24741" lon="7.34222">
        <ele>592.4</ele>
        <time>2026-03-18T14:16:53Z</time>
      </trkpt>
      <trkpt lat="48.24742" lon="7.34216">
        <ele>593.1</ele>
        <time>2026-03-18T14:16:58Z</time>
      </trkpt>
      <trkpt lat="48.24745" lon="7.3421">
        <ele>594.5</ele>
        <time>2026-03-18T14:17:03Z</time>
      </trkpt>
      <trkpt lat="48.24746" lon="7.34203">
        <ele>595.3</ele>
        <time>2026-03-18T14:17:08Z</time>
      </trkpt>
      <trkpt lat="48.24746" lon="7.34197">
        <ele>595.7</ele>
        <time>2026-03-18T14:17:13Z</time>
      </trkpt>
      <trkpt lat="48.24748" lon="7.34192">
        <ele>596.7</ele>
        <time>2026-03-18T14:17:18Z</time>
      </trkpt>
      <trkpt lat="48.24749" lon="7.34186">
        <ele>597.4</ele>
        <time>2026-03-18T14:17:23Z</time>
      </trkpt>
      <trkpt lat="48.2475" lon="7.34179">
        <ele>598.3</ele>
        <time>2026-03-18T14:17:28Z</time>
      </trkpt>
      <trkpt lat="48.24751" lon="7.34173">
        <ele>599.1</ele>
        <time>2026-03-18T14:17:33Z</time>
      </trkpt>
      <trkpt lat="48.24752" lon="7.34171">
        <ele>599.7</ele>
        <time>2026-03-18T14:17:38Z</time>
      </trkpt>
      <trkpt lat="48.24754" lon="7.34169">
        <ele>600.9</ele>
        <time>2026-03-18T14:17:43Z</time>
      </trkpt>
      <trkpt lat="48.24754" lon="7.34169">
        <ele>600.9</ele>
        <time>2026-03-18T14:17:48Z</time>
      </trkpt>
      <trkpt lat="48.24754" lon="7.34169">
        <ele>600.9</ele>
        <time>2026-03-18T14:17:53Z</time>
      </trkpt>
      <trkpt lat="48.24754" lon="7.34169">
        <ele>600.9</ele>
        <time>2026-03-18T14:17:58Z</time>
      </trkpt>
      <trkpt lat="48.24757" lon="7.3415">
        <ele>602.7</ele>
        <time>2026-03-18T14:18:03Z</time>
      </trkpt>
      <trkpt lat="48.24758" lon="7.34143">
        <ele>603.3</ele>
        <time>2026-03-18T14:18:08Z</time>
      </trkpt>
      <trkpt lat="48.24759" lon="7.34137">
        <ele>603.9</ele>
        <time>2026-03-18T14:18:13Z</time>
      </trkpt>
      <trkpt lat="48.24762" lon="7.34129">
        <ele>605.4</ele>
        <time>2026-03-18T14:18:18Z</time>
      </trkpt>
      <trkpt lat="48.24764" lon="7.3413">
        <ele>606.4</ele>
        <time>2026-03-18T14:18:23Z</time>
      </trkpt>
      <trkpt lat="48.24763" lon="7.34135">
        <ele>605.9</ele>
        <time>2026-03-18T14:18:28Z</time>
      </trkpt>
      <trkpt lat="48.24763" lon="7.34135">
        <ele>605.9</ele>
        <time>2026-03-18T14:18:33Z</time>
      </trkpt>
      <trkpt lat="48.24766" lon="7.34146">
        <ele>607.3</ele>
        <time>2026-03-18T14:18:38Z</time>
      </trkpt>
      <trkpt lat="48.24765" lon="7.34155">
        <ele>606.7</ele>
        <time>2026-03-18T14:18:43Z</time>
      </trkpt>
      <trkpt lat="48.24765" lon="7.34164">
        <ele>606.6</ele>
        <time>2026-03-18T14:18:48Z</time>
      </trkpt>
      <trkpt lat="48.24762" lon="7.34172">
        <ele>604.7</ele>
        <time>2026-03-18T14:18:53Z</time>
      </trkpt>
      <trkpt lat="48.24761" lon="7.34181">
        <ele>603.6</ele>
        <time>2026-03-18T14:18:58Z</time>
      </trkpt>
      <trkpt lat="48.24761" lon="7.34188">
        <ele>603.2</ele>
        <time>2026-03-18T14:19:03Z</time>
      </trkpt>
      <trkpt lat="48.24763" lon="7.34195">
        <ele>603.7</ele>
        <time>2026-03-18T14:19:08Z</time>
      </trkpt>
      <trkpt lat="48.24763" lon="7.34201">
        <ele>603.4</ele>
        <time>2026-03-18T14:19:13Z</time>
      </trkpt>
      <trkpt lat="48.24765" lon="7.34209">
        <ele>603.8</ele>
        <time>2026-03-18T14:19:18Z</time>
      </trkpt>
      <trkpt lat="48.24767" lon="7.34216">
        <ele>604.4</ele>
        <time>2026-03-18T14:19:23Z</time>
      </trkpt>
      <trkpt lat="48.24769" lon="7.34224">
        <ele>604.8</ele>
        <time>2026-03-18T14:19:28Z</time>
      </trkpt>
      <trkpt lat="48.24771" lon="7.34229">
        <ele>605.5</ele>
        <time>2026-03-18T14:19:33Z</time>
      </trkpt>
      <trkpt lat="48.24772" lon="7.34234">
        <ele>605.6</ele>
        <time>2026-03-18T14:19:38Z</time>
      </trkpt>
      <trkpt lat="48.24773" lon="7.34239">
        <ele>605.8</ele>
        <time>2026-03-18T14:19:43Z</time>
      </trkpt>
      <trkpt lat="48.24773" lon="7.34246">
        <ele>605.3</ele>
        <time>2026-03-18T14:19:48Z</time>
      </trkpt>
      <trkpt lat="48.24775" lon="7.34253">
        <ele>605.9</ele>
        <time>2026-03-18T14:19:53Z</time>
      </trkpt>
      <trkpt lat="48.24776" lon="7.3426">
        <ele>606</ele>
        <time>2026-03-18T14:19:58Z</time>
      </trkpt>
      <trkpt lat="48.24777" lon="7.3427">
        <ele>606.1</ele>
        <time>2026-03-18T14:20:03Z</time>
      </trkpt>
      <trkpt lat="48.24779" lon="7.3428">
        <ele>606.6</ele>
        <time>2026-03-18T14:20:08Z</time>
      </trkpt>
      <trkpt lat="48.24781" lon="7.34287">
        <ele>607.2</ele>
        <time>2026-03-18T14:20:13Z</time>
      </trkpt>
      <trkpt lat="48.24783" lon="7.34294">
        <ele>607.8</ele>
        <time>2026-03-18T14:20:18Z</time>
      </trkpt>
      <trkpt lat="48.24785" lon="7.34299">
        <ele>608.5</ele>
        <time>2026-03-18T14:20:23Z</time>
      </trkpt>
      <trkpt lat="48.24788" lon="7.34307">
        <ele>609.6</ele>
        <time>2026-03-18T14:20:28Z</time>
      </trkpt>
      <trkpt lat="48.24789" lon="7.34314">
        <ele>609.7</ele>
        <time>2026-03-18T14:20:33Z</time>
      </trkpt>
      <trkpt lat="48.24789" lon="7.34323">
        <ele>609.3</ele>
        <time>2026-03-18T14:20:38Z</time>
      </trkpt>
      <trkpt lat="48.24791" lon="7.3433">
        <ele>609.9</ele>
        <time>2026-03-18T14:20:43Z</time>
      </trkpt>
      <trkpt lat="48.24792" lon="7.34338">
        <ele>609.9</ele>
        <time>2026-03-18T14:20:48Z</time>
      </trkpt>
      <trkpt lat="48.24793" lon="7.34346">
        <ele>609.9</ele>
        <time>2026-03-18T14:20:53Z</time>
      </trkpt>
      <trkpt lat="48.24795" lon="7.34354">
        <ele>610.3</ele>
        <time>2026-03-18T14:20:58Z</time>
      </trkpt>
      <trkpt lat="48.24798" lon="7.3436">
        <ele>611.3</ele>
        <time>2026-03-18T14:21:03Z</time>
      </trkpt>
      <trkpt lat="48.248" lon="7.3437">
        <ele>611.7</ele>
        <time>2026-03-18T14:21:08Z</time>
      </trkpt>
      <trkpt lat="48.24801" lon="7.34379">
        <ele>611.6</ele>
        <time>2026-03-18T14:21:13Z</time>
      </trkpt>
      <trkpt lat="48.24802" lon="7.34389">
        <ele>611.5</ele>
        <time>2026-03-18T14:21:18Z</time>
      </trkpt>
      <trkpt lat="48.24803" lon="7.34399">
        <ele>611.4</ele>
        <time>2026-03-18T14:21:23Z</time>
      </trkpt>
      <trkpt lat="48.24805" lon="7.34407">
        <ele>611.9</ele>
        <time>2026-03-18T14:21:28Z</time>
      </trkpt>
      <trkpt lat="48.24806" lon="7.34418">
        <ele>611.8</ele>
        <time>2026-03-18T14:21:33Z</time>
      </trkpt>
      <trkpt lat="48.24809" lon="7.34426">
        <ele>612.5</ele>
        <time>2026-03-18T14:21:38Z</time>
      </trkpt>
      <trkpt lat="48.2481" lon="7.34436">
        <ele>612.1</ele>
        <time>2026-03-18T14:21:43Z</time>
      </trkpt>
      <trkpt lat="48.24811" lon="7.34446">
        <ele>611.7</ele>
        <time>2026-03-18T14:21:48Z</time>
      </trkpt>
      <trkpt lat="48.24812" lon="7.34456">
        <ele>611.3</ele>
        <time>2026-03-18T14:21:53Z</time>
      </trkpt>
      <trkpt lat="48.24814" lon="7.34465">
        <ele>611.5</ele>
        <time>2026-03-18T14:21:58Z</time>
      </trkpt>
      <trkpt lat="48.24815" lon="7.34474">
        <ele>611.2</ele>
        <time>2026-03-18T14:22:03Z</time>
      </trkpt>
      <trkpt lat="48.24817" lon="7.34481">
        <ele>611.6</ele>
        <time>2026-03-18T14:22:08Z</time>
      </trkpt>
      <trkpt lat="48.2482" lon="7.34489">
        <ele>612.4</ele>
        <time>2026-03-18T14:22:13Z</time>
      </trkpt>
      <trkpt lat="48.24822" lon="7.34495">
        <ele>612.9</ele>
        <time>2026-03-18T14:22:18Z</time>
      </trkpt>
      <trkpt lat="48.24823" lon="7.34506">
        <ele>612.3</ele>
        <time>2026-03-18T14:22:23Z</time>
      </trkpt>
      <trkpt lat="48.24823" lon="7.34515">
        <ele>611.3</ele>
        <time>2026-03-18T14:22:28Z</time>
      </trkpt>
      <trkpt lat="48.24825" lon="7.34521">
        <ele>611.7</ele>
        <time>2026-03-18T14:22:33Z</time>
      </trkpt>
      <trkpt lat="48.24828" lon="7.3453">
        <ele>612.2</ele>
        <time>2026-03-18T14:22:38Z</time>
      </trkpt>
      <trkpt lat="48.2483" lon="7.34538">
        <ele>612.3</ele>
        <time>2026-03-18T14:22:43Z</time>
      </trkpt>
      <trkpt lat="48.24832" lon="7.34546">
        <ele>612.4</ele>
        <time>2026-03-18T14:22:48Z</time>
      </trkpt>
      <trkpt lat="48.24834" lon="7.34555">
        <ele>612.5</ele>
        <time>2026-03-18T14:22:53Z</time>
      </trkpt>
      <trkpt lat="48.24836" lon="7.34563">
        <ele>612.8</ele>
        <time>2026-03-18T14:22:58Z</time>
      </trkpt>
      <trkpt lat="48.24839" lon="7.34572">
        <ele>613.7</ele>
        <time>2026-03-18T14:23:03Z</time>
      </trkpt>
      <trkpt lat="48.24841" lon="7.3458">
        <ele>614</ele>
        <time>2026-03-18T14:23:08Z</time>
      </trkpt>
      <trkpt lat="48.24844" lon="7.34588">
        <ele>614.8</ele>
        <time>2026-03-18T14:23:13Z</time>
      </trkpt>
      <trkpt lat="48.24848" lon="7.34595">
        <ele>616.1</ele>
        <time>2026-03-18T14:23:18Z</time>
      </trkpt>
      <trkpt lat="48.24851" lon="7.34602">
        <ele>616.8</ele>
        <time>2026-03-18T14:23:23Z</time>
      </trkpt>
      <trkpt lat="48.24854" lon="7.34611">
        <ele>617.2</ele>
        <time>2026-03-18T14:23:28Z</time>
      </trkpt>
      <trkpt lat="48.24857" lon="7.34619">
        <ele>617.7</ele>
        <time>2026-03-18T14:23:33Z</time>
      </trkpt>
      <trkpt lat="48.2486" lon="7.34628">
        <ele>618</ele>
        <time>2026-03-18T14:23:38Z</time>
      </trkpt>
      <trkpt lat="48.24863" lon="7.34634">
        <ele>618.8</ele>
        <time>2026-03-18T14:23:43Z</time>
      </trkpt>
      <trkpt lat="48.24868" lon="7.34641">
        <ele>620.6</ele>
        <time>2026-03-18T14:23:48Z</time>
      </trkpt>
      <trkpt lat="48.24872" lon="7.34646">
        <ele>622.2</ele>
        <time>2026-03-18T14:23:53Z</time>
      </trkpt>
      <trkpt lat="48.24876" lon="7.34652">
        <ele>623.6</ele>
        <time>2026-03-18T14:23:58Z</time>
      </trkpt>
      <trkpt lat="48.24879" lon="7.34658">
        <ele>624.3</ele>
        <time>2026-03-18T14:24:03Z</time>
      </trkpt>
      <trkpt lat="48.24882" lon="7.34665">
        <ele>624.9</ele>
        <time>2026-03-18T14:24:08Z</time>
      </trkpt>
      <trkpt lat="48.24885" lon="7.34672">
        <ele>625.1</ele>
        <time>2026-03-18T14:24:13Z</time>
      </trkpt>
      <trkpt lat="48.24889" lon="7.34679">
        <ele>625.8</ele>
        <time>2026-03-18T14:24:18Z</time>
      </trkpt>
      <trkpt lat="48.24894" lon="7.34684">
        <ele>627.4</ele>
        <time>2026-03-18T14:24:23Z</time>
      </trkpt>
      <trkpt lat="48.24899" lon="7.34689">
        <ele>629.1</ele>
        <time>2026-03-18T14:24:28Z</time>
      </trkpt>
      <trkpt lat="48.24903" lon="7.34695">
        <ele>629.8</ele>
        <time>2026-03-18T14:24:33Z</time>
      </trkpt>
      <trkpt lat="48.24904" lon="7.34695">
        <ele>630.4</ele>
        <time>2026-03-18T14:24:38Z</time>
      </trkpt>
      <trkpt lat="48.24904" lon="7.34695">
        <ele>630.4</ele>
        <time>2026-03-18T14:24:43Z</time>
      </trkpt>
      <trkpt lat="48.24906" lon="7.34697">
        <ele>631</ele>
        <time>2026-03-18T14:24:48Z</time>
      </trkpt>
      <trkpt lat="48.24908" lon="7.34699">
        <ele>631.6</ele>
        <time>2026-03-18T14:24:53Z</time>
      </trkpt>
      <trkpt lat="48.24908" lon="7.347">
        <ele>631.4</ele>
        <time>2026-03-18T14:24:58Z</time>
      </trkpt>
      <trkpt lat="48.24911" lon="7.34702">
        <ele>632.5</ele>
        <time>2026-03-18T14:25:03Z</time>
      </trkpt>
      <trkpt lat="48.24916" lon="7.3471">
        <ele>633.2</ele>
        <time>2026-03-18T14:25:08Z</time>
      </trkpt>
      <trkpt lat="48.24921" lon="7.34722">
        <ele>632</ele>
        <time>2026-03-18T14:25:13Z</time>
      </trkpt>
      <trkpt lat="48.24927" lon="7.34727">
        <ele>632.8</ele>
        <time>2026-03-18T14:25:18Z</time>
      </trkpt>
      <trkpt lat="48.24932" lon="7.34729">
        <ele>634</ele>
        <time>2026-03-18T14:25:23Z</time>
      </trkpt>
      <trkpt lat="48.24936" lon="7.34731">
        <ele>634.9</ele>
        <time>2026-03-18T14:25:28Z</time>
      </trkpt>
      <trkpt lat="48.24941" lon="7.34732">
        <ele>636.4</ele>
        <time>2026-03-18T14:25:33Z</time>
      </trkpt>
      <trkpt lat="48.24946" lon="7.34733">
        <ele>637.8</ele>
        <time>2026-03-18T14:25:38Z</time>
      </trkpt>
      <trkpt lat="48.2495" lon="7.34734">
        <ele>639</ele>
        <time>2026-03-18T14:25:43Z</time>
      </trkpt>
      <trkpt lat="48.24957" lon="7.34732">
        <ele>642</ele>
        <time>2026-03-18T14:25:48Z</time>
      </trkpt>
      <trkpt lat="48.24961" lon="7.34728">
        <ele>644.7</ele>
        <time>2026-03-18T14:25:53Z</time>
      </trkpt>
      <trkpt lat="48.24964" lon="7.34722">
        <ele>647.6</ele>
        <time>2026-03-18T14:25:58Z</time>
      </trkpt>
      <trkpt lat="48.24966" lon="7.34716">
        <ele>650.2</ele>
        <time>2026-03-18T14:26:03Z</time>
      </trkpt>
      <trkpt lat="48.24969" lon="7.34711">
        <ele>652.9</ele>
        <time>2026-03-18T14:26:08Z</time>
      </trkpt>
      <trkpt lat="48.24971" lon="7.34706">
        <ele>655.3</ele>
        <time>2026-03-18T14:26:13Z</time>
      </trkpt>
      <trkpt lat="48.24974" lon="7.347">
        <ele>658.4</ele>
        <time>2026-03-18T14:26:18Z</time>
      </trkpt>
      <trkpt lat="48.24978" lon="7.34695">
        <ele>661.5</ele>
        <time>2026-03-18T14:26:23Z</time>
      </trkpt>
      <trkpt lat="48.24981" lon="7.34689">
        <ele>664.7</ele>
        <time>2026-03-18T14:26:28Z</time>
      </trkpt>
      <trkpt lat="48.24984" lon="7.34686">
        <ele>666.9</ele>
        <time>2026-03-18T14:26:33Z</time>
      </trkpt>
      <trkpt lat="48.24986" lon="7.34686">
        <ele>667.7</ele>
        <time>2026-03-18T14:26:38Z</time>
      </trkpt>
      <trkpt lat="48.24987" lon="7.34685">
        <ele>668.4</ele>
        <time>2026-03-18T14:26:43Z</time>
      </trkpt>
      <trkpt lat="48.24991" lon="7.34677">
        <ele>672.7</ele>
        <time>2026-03-18T14:26:48Z</time>
      </trkpt>
      <trkpt lat="48.24992" lon="7.34673">
        <ele>674.5</ele>
        <time>2026-03-18T14:26:53Z</time>
      </trkpt>
      <trkpt lat="48.24995" lon="7.3467">
        <ele>676.8</ele>
        <time>2026-03-18T14:26:58Z</time>
      </trkpt>
      <trkpt lat="48.24995" lon="7.34668">
        <ele>677.4</ele>
        <time>2026-03-18T14:27:03Z</time>
      </trkpt>
      <trkpt lat="48.24997" lon="7.34661">
        <ele>679.9</ele>
        <time>2026-03-18T14:27:08Z</time>
      </trkpt>
      <trkpt lat="48.24999" lon="7.34658">
        <ele>681.3</ele>
        <time>2026-03-18T14:27:13Z</time>
      </trkpt>
      <trkpt lat="48.24999" lon="7.34655">
        <ele>682</ele>
        <time>2026-03-18T14:27:18Z</time>
      </trkpt>
      <trkpt lat="48.25" lon="7.3465">
        <ele>683.4</ele>
        <time>2026-03-18T14:27:23Z</time>
      </trkpt>
      <trkpt lat="48.25002" lon="7.34645">
        <ele>684.6</ele>
        <time>2026-03-18T14:27:28Z</time>
      </trkpt>
      <trkpt lat="48.25003" lon="7.34639">
        <ele>685.9</ele>
        <time>2026-03-18T14:27:33Z</time>
      </trkpt>
      <trkpt lat="48.25004" lon="7.34635">
        <ele>686.7</ele>
        <time>2026-03-18T14:27:38Z</time>
      </trkpt>
      <trkpt lat="48.25006" lon="7.3463">
        <ele>687.9</ele>
        <time>2026-03-18T14:27:43Z</time>
      </trkpt>
      <trkpt lat="48.25007" lon="7.34625">
        <ele>689</ele>
        <time>2026-03-18T14:27:48Z</time>
      </trkpt>
      <trkpt lat="48.25008" lon="7.34618">
        <ele>690.5</ele>
        <time>2026-03-18T14:27:53Z</time>
      </trkpt>
      <trkpt lat="48.25011" lon="7.34612">
        <ele>691.9</ele>
        <time>2026-03-18T14:27:58Z</time>
      </trkpt>
      <trkpt lat="48.25014" lon="7.34607">
        <ele>693.2</ele>
        <time>2026-03-18T14:28:03Z</time>
      </trkpt>
      <trkpt lat="48.25013" lon="7.34606">
        <ele>693.3</ele>
        <time>2026-03-18T14:28:08Z</time>
      </trkpt>
      <trkpt lat="48.25008" lon="7.34611">
        <ele>691.9</ele>
        <time>2026-03-18T14:28:13Z</time>
      </trkpt>
      <trkpt lat="48.25002" lon="7.34619">
        <ele>689.9</ele>
        <time>2026-03-18T14:28:18Z</time>
      </trkpt>
      <trkpt lat="48.24998" lon="7.34624">
        <ele>687.8</ele>
        <time>2026-03-18T14:28:23Z</time>
      </trkpt>
      <trkpt lat="48.24995" lon="7.34628">
        <ele>685.7</ele>
        <time>2026-03-18T14:28:28Z</time>
      </trkpt>
      <trkpt lat="48.24993" lon="7.34632">
        <ele>684.1</ele>
        <time>2026-03-18T14:28:33Z</time>
      </trkpt>
      <trkpt lat="48.24991" lon="7.34635">
        <ele>682.6</ele>
        <time>2026-03-18T14:28:38Z</time>
      </trkpt>
      <trkpt lat="48.24988" lon="7.34642">
        <ele>679.9</ele>
        <time>2026-03-18T14:28:43Z</time>
      </trkpt>
      <trkpt lat="48.24985" lon="7.34647">
        <ele>677.6</ele>
        <time>2026-03-18T14:28:48Z</time>
      </trkpt>
      <trkpt lat="48.24982" lon="7.34651">
        <ele>675.6</ele>
        <time>2026-03-18T14:28:53Z</time>
      </trkpt>
      <trkpt lat="48.24979" lon="7.34655">
        <ele>673.5</ele>
        <time>2026-03-18T14:28:58Z</time>
      </trkpt>
      <trkpt lat="48.24976" lon="7.34659">
        <ele>671.4</ele>
        <time>2026-03-18T14:29:03Z</time>
      </trkpt>
      <trkpt lat="48.2497" lon="7.34664">
        <ele>667.9</ele>
        <time>2026-03-18T14:29:08Z</time>
      </trkpt>
      <trkpt lat="48.24966" lon="7.34668">
        <ele>665.3</ele>
        <time>2026-03-18T14:29:13Z</time>
      </trkpt>
      <trkpt lat="48.24962" lon="7.34671">
        <ele>662.7</ele>
        <time>2026-03-18T14:29:18Z</time>
      </trkpt>
      <trkpt lat="48.24959" lon="7.34672">
        <ele>661.1</ele>
        <time>2026-03-18T14:29:23Z</time>
      </trkpt>
      <trkpt lat="48.24954" lon="7.34668">
        <ele>660.3</ele>
        <time>2026-03-18T14:29:28Z</time>
      </trkpt>
      <trkpt lat="48.24949" lon="7.34664">
        <ele>659.1</ele>
        <time>2026-03-18T14:29:33Z</time>
      </trkpt>
      <trkpt lat="48.24946" lon="7.34658">
        <ele>659</ele>
        <time>2026-03-18T14:29:38Z</time>
      </trkpt>
      <trkpt lat="48.24944" lon="7.34654">
        <ele>658.9</ele>
        <time>2026-03-18T14:29:43Z</time>
      </trkpt>
      <trkpt lat="48.24941" lon="7.3465">
        <ele>658.3</ele>
        <time>2026-03-18T14:29:48Z</time>
      </trkpt>
      <trkpt lat="48.24938" lon="7.34646">
        <ele>657.8</ele>
        <time>2026-03-18T14:29:53Z</time>
      </trkpt>
      <trkpt lat="48.24938" lon="7.34642">
        <ele>658.6</ele>
        <time>2026-03-18T14:29:58Z</time>
      </trkpt>
      <trkpt lat="48.24938" lon="7.34641">
        <ele>658.7</ele>
        <time>2026-03-18T14:30:03Z</time>
      </trkpt>
      <trkpt lat="48.24938" lon="7.34641">
        <ele>658.7</ele>
        <time>2026-03-18T14:30:08Z</time>
      </trkpt>
      <trkpt lat="48.24941" lon="7.34642">
        <ele>659.8</ele>
        <time>2026-03-18T14:30:13Z</time>
      </trkpt>
      <trkpt lat="48.24944" lon="7.34647">
        <ele>660.2</ele>
        <time>2026-03-18T14:30:18Z</time>
      </trkpt>
      <trkpt lat="48.24947" lon="7.34649">
        <ele>661.1</ele>
        <time>2026-03-18T14:30:23Z</time>
      </trkpt>
      <trkpt lat="48.24949" lon="7.3465">
        <ele>661.7</ele>
        <time>2026-03-18T14:30:28Z</time>
      </trkpt>
      <trkpt lat="48.24952" lon="7.34651">
        <ele>662.8</ele>
        <time>2026-03-18T14:30:33Z</time>
      </trkpt>
      <trkpt lat="48.24956" lon="7.34652">
        <ele>664.3</ele>
        <time>2026-03-18T14:30:38Z</time>
      </trkpt>
      <trkpt lat="48.2496" lon="7.34652">
        <ele>666</ele>
        <time>2026-03-18T14:30:43Z</time>
      </trkpt>
      <trkpt lat="48.24963" lon="7.34653">
        <ele>667.1</ele>
        <time>2026-03-18T14:30:48Z</time>
      </trkpt>
      <trkpt lat="48.24963" lon="7.34652">
        <ele>667.3</ele>
        <time>2026-03-18T14:30:53Z</time>
      </trkpt>
      <trkpt lat="48.24963" lon="7.34652">
        <ele>667.3</ele>
        <time>2026-03-18T14:30:58Z</time>
      </trkpt>
      <trkpt lat="48.24963" lon="7.34652">
        <ele>667.3</ele>
        <time>2026-03-18T14:31:03Z</time>
      </trkpt>
      <trkpt lat="48.24963" lon="7.34652">
        <ele>667.3</ele>
        <time>2026-03-18T14:31:08Z</time>
      </trkpt>
      <trkpt lat="48.24961" lon="7.34639">
        <ele>669</ele>
        <time>2026-03-18T14:31:13Z</time>
      </trkpt>
      <trkpt lat="48.24957" lon="7.34633">
        <ele>668.4</ele>
        <time>2026-03-18T14:31:18Z</time>
      </trkpt>
      <trkpt lat="48.24954" lon="7.34635">
        <ele>666.7</ele>
        <time>2026-03-18T14:31:23Z</time>
      </trkpt>
      <trkpt lat="48.24954" lon="7.34638">
        <ele>666.1</ele>
        <time>2026-03-18T14:31:28Z</time>
      </trkpt>
      <trkpt lat="48.24954" lon="7.34638">
        <ele>666.1</ele>
        <time>2026-03-18T14:31:33Z</time>
      </trkpt>
      <trkpt lat="48.24954" lon="7.34638">
        <ele>666.1</ele>
        <time>2026-03-18T14:31:38Z</time>
      </trkpt>
      <trkpt lat="48.24954" lon="7.34638">
        <ele>666.1</ele>
        <time>2026-03-18T14:31:43Z</time>
      </trkpt>
      <trkpt lat="48.24954" lon="7.34638">
        <ele>666.1</ele>
        <time>2026-03-18T14:31:48Z</time>
      </trkpt>
      <trkpt lat="48.24954" lon="7.34638">
        <ele>666.1</ele>
        <time>2026-03-18T14:31:53Z</time>
      </trkpt>
      <trkpt lat="48.24954" lon="7.34638">
        <ele>666.1</ele>
        <time>2026-03-18T14:31:58Z</time>
      </trkpt>
      <trkpt lat="48.24947" lon="7.34629">
        <ele>664.8</ele>
        <time>2026-03-18T14:32:03Z</time>
      </trkpt>
      <trkpt lat="48.24947" lon="7.34621">
        <ele>666.4</ele>
        <time>2026-03-18T14:32:08Z</time>
      </trkpt>
      <trkpt lat="48.24945" lon="7.34616">
        <ele>666.4</ele>
        <time>2026-03-18T14:32:13Z</time>
      </trkpt>
      <trkpt lat="48.2494" lon="7.34611">
        <ele>665.2</ele>
        <time>2026-03-18T14:32:18Z</time>
      </trkpt>
      <trkpt lat="48.2494" lon="7.34607">
        <ele>665.9</ele>
        <time>2026-03-18T14:32:23Z</time>
      </trkpt>
      <trkpt lat="48.24938" lon="7.34606">
        <ele>665.3</ele>
        <time>2026-03-18T14:32:28Z</time>
      </trkpt>
      <trkpt lat="48.24938" lon="7.34606">
        <ele>665.3</ele>
        <time>2026-03-18T14:32:33Z</time>
      </trkpt>
      <trkpt lat="48.24938" lon="7.34606">
        <ele>665.3</ele>
        <time>2026-03-18T14:32:38Z</time>
      </trkpt>
      <trkpt lat="48.24938" lon="7.34606">
        <ele>665.3</ele>
        <time>2026-03-18T14:32:43Z</time>
      </trkpt>
      <trkpt lat="48.24938" lon="7.34606">
        <ele>665.3</ele>
        <time>2026-03-18T14:32:48Z</time>
      </trkpt>
      <trkpt lat="48.24938" lon="7.34606">
        <ele>665.3</ele>
        <time>2026-03-18T14:32:53Z</time>
      </trkpt>
      <trkpt lat="48.24938" lon="7.34606">
        <ele>665.3</ele>
        <time>2026-03-18T14:32:58Z</time>
      </trkpt>
      <trkpt lat="48.24938" lon="7.34606">
        <ele>665.3</ele>
        <time>2026-03-18T14:33:03Z</time>
      </trkpt>
      <trkpt lat="48.24938" lon="7.34606">
        <ele>665.3</ele>
        <time>2026-03-18T14:33:08Z</time>
      </trkpt>
      <trkpt lat="48.24938" lon="7.34606">
        <ele>665.3</ele>
        <time>2026-03-18T14:33:13Z</time>
      </trkpt>
      <trkpt lat="48.24938" lon="7.34606">
        <ele>665.3</ele>
        <time>2026-03-18T14:33:18Z</time>
      </trkpt>
      <trkpt lat="48.24938" lon="7.34606">
        <ele>665.3</ele>
        <time>2026-03-18T14:33:23Z</time>
      </trkpt>
      <trkpt lat="48.24938" lon="7.34606">
        <ele>665.3</ele>
        <time>2026-03-18T14:33:28Z</time>
      </trkpt>
      <trkpt lat="48.24938" lon="7.34606">
        <ele>665.3</ele>
        <time>2026-03-18T14:33:33Z</time>
      </trkpt>
      <trkpt lat="48.24938" lon="7.34606">
        <ele>665.3</ele>
        <time>2026-03-18T14:33:38Z</time>
      </trkpt>
      <trkpt lat="48.24938" lon="7.34606">
        <ele>665.3</ele>
        <time>2026-03-18T14:33:43Z</time>
      </trkpt>
      <trkpt lat="48.24938" lon="7.34606">
        <ele>665.3</ele>
        <time>2026-03-18T14:33:48Z</time>
      </trkpt>
      <trkpt lat="48.24938" lon="7.34606">
        <ele>665.3</ele>
        <time>2026-03-18T14:33:53Z</time>
      </trkpt>
      <trkpt lat="48.24938" lon="7.34612">
        <ele>664.1</ele>
        <time>2026-03-18T14:33:58Z</time>
      </trkpt>
      <trkpt lat="48.24939" lon="7.34614">
        <ele>664.2</ele>
        <time>2026-03-18T14:34:03Z</time>
      </trkpt>
      <trkpt lat="48.24941" lon="7.34617">
        <ele>664.5</ele>
        <time>2026-03-18T14:34:08Z</time>
      </trkpt>
      <trkpt lat="48.24944" lon="7.34621">
        <ele>665.1</ele>
        <time>2026-03-18T14:34:13Z</time>
      </trkpt>
      <trkpt lat="48.24947" lon="7.34624">
        <ele>665.8</ele>
        <time>2026-03-18T14:34:18Z</time>
      </trkpt>
      <trkpt lat="48.24945" lon="7.34629">
        <ele>664</ele>
        <time>2026-03-18T14:34:23Z</time>
      </trkpt>
      <trkpt lat="48.24941" lon="7.34632">
        <ele>661.7</ele>
        <time>2026-03-18T14:34:28Z</time>
      </trkpt>
      <trkpt lat="48.2494" lon="7.34634">
        <ele>660.9</ele>
        <time>2026-03-18T14:34:33Z</time>
      </trkpt>
      <trkpt lat="48.2494" lon="7.34634">
        <ele>660.9</ele>
        <time>2026-03-18T14:34:38Z</time>
      </trkpt>
      <trkpt lat="48.2494" lon="7.34634">
        <ele>660.9</ele>
        <time>2026-03-18T14:34:43Z</time>
      </trkpt>
      <trkpt lat="48.2494" lon="7.34634">
        <ele>660.9</ele>
        <time>2026-03-18T14:34:48Z</time>
      </trkpt>
      <trkpt lat="48.2494" lon="7.34634">
        <ele>660.9</ele>
        <time>2026-03-18T14:34:53Z</time>
      </trkpt>
      <trkpt lat="48.2494" lon="7.34634">
        <ele>660.9</ele>
        <time>2026-03-18T14:34:58Z</time>
      </trkpt>
      <trkpt lat="48.2494" lon="7.34634">
        <ele>660.9</ele>
        <time>2026-03-18T14:35:03Z</time>
      </trkpt>
      <trkpt lat="48.2494" lon="7.34634">
        <ele>660.9</ele>
        <time>2026-03-18T14:35:08Z</time>
      </trkpt>
      <trkpt lat="48.2494" lon="7.34634">
        <ele>660.9</ele>
        <time>2026-03-18T14:35:13Z</time>
      </trkpt>
      <trkpt lat="48.2494" lon="7.34634">
        <ele>660.9</ele>
        <time>2026-03-18T14:35:18Z</time>
      </trkpt>
      <trkpt lat="48.2494" lon="7.34634">
        <ele>660.9</ele>
        <time>2026-03-18T14:35:23Z</time>
      </trkpt>
      <trkpt lat="48.2494" lon="7.34634">
        <ele>660.9</ele>
        <time>2026-03-18T14:35:28Z</time>
      </trkpt>
      <trkpt lat="48.2494" lon="7.34634">
        <ele>660.9</ele>
        <time>2026-03-18T14:35:33Z</time>
      </trkpt>
      <trkpt lat="48.24946" lon="7.34624">
        <ele>665.4</ele>
        <time>2026-03-18T14:35:38Z</time>
      </trkpt>
      <trkpt lat="48.24944" lon="7.34621">
        <ele>665.1</ele>
        <time>2026-03-18T14:35:43Z</time>
      </trkpt>
      <trkpt lat="48.2494" lon="7.34613">
        <ele>664.8</ele>
        <time>2026-03-18T14:35:48Z</time>
      </trkpt>
      <trkpt lat="48.24937" lon="7.34606">
        <ele>664.8</ele>
        <time>2026-03-18T14:35:53Z</time>
      </trkpt>
      <trkpt lat="48.24936" lon="7.34601">
        <ele>665.3</ele>
        <time>2026-03-18T14:35:58Z</time>
      </trkpt>
      <trkpt lat="48.24932" lon="7.34595">
        <ele>664.7</ele>
        <time>2026-03-18T14:36:03Z</time>
      </trkpt>
      <trkpt lat="48.2493" lon="7.34588">
        <ele>665.1</ele>
        <time>2026-03-18T14:36:08Z</time>
      </trkpt>
      <trkpt lat="48.24928" lon="7.34582">
        <ele>665.2</ele>
        <time>2026-03-18T14:36:13Z</time>
      </trkpt>
      <trkpt lat="48.24926" lon="7.34575">
        <ele>664.9</ele>
        <time>2026-03-18T14:36:18Z</time>
      </trkpt>
      <trkpt lat="48.24925" lon="7.34568">
        <ele>665.1</ele>
        <time>2026-03-18T14:36:23Z</time>
      </trkpt>
      <trkpt lat="48.24924" lon="7.34563">
        <ele>665.1</ele>
        <time>2026-03-18T14:36:28Z</time>
      </trkpt>
      <trkpt lat="48.24923" lon="7.34562">
        <ele>664.7</ele>
        <time>2026-03-18T14:36:33Z</time>
      </trkpt>
      <trkpt lat="48.24923" lon="7.34562">
        <ele>664.7</ele>
        <time>2026-03-18T14:36:38Z</time>
      </trkpt>
      <trkpt lat="48.24923" lon="7.34562">
        <ele>664.7</ele>
        <time>2026-03-18T14:36:43Z</time>
      </trkpt>
      <trkpt lat="48.24921" lon="7.34552">
        <ele>664.7</ele>
        <time>2026-03-18T14:36:48Z</time>
      </trkpt>
      <trkpt lat="48.24919" lon="7.34545">
        <ele>664.3</ele>
        <time>2026-03-18T14:36:53Z</time>
      </trkpt>
      <trkpt lat="48.24918" lon="7.34544">
        <ele>663.9</ele>
        <time>2026-03-18T14:36:58Z</time>
      </trkpt>
      <trkpt lat="48.24918" lon="7.34544">
        <ele>663.9</ele>
        <time>2026-03-18T14:37:03Z</time>
      </trkpt>
      <trkpt lat="48.24919" lon="7.3454">
        <ele>664.8</ele>
        <time>2026-03-18T14:37:08Z</time>
      </trkpt>
      <trkpt lat="48.24915" lon="7.34532">
        <ele>663.3</ele>
        <time>2026-03-18T14:37:13Z</time>
      </trkpt>
      <trkpt lat="48.24912" lon="7.34524">
        <ele>662.2</ele>
        <time>2026-03-18T14:37:18Z</time>
      </trkpt>
      <trkpt lat="48.24912" lon="7.34517">
        <ele>662.8</ele>
        <time>2026-03-18T14:37:23Z</time>
      </trkpt>
      <trkpt lat="48.24912" lon="7.34508">
        <ele>663.6</ele>
        <time>2026-03-18T14:37:28Z</time>
      </trkpt>
      <trkpt lat="48.24914" lon="7.34504">
        <ele>665.1</ele>
        <time>2026-03-18T14:37:33Z</time>
      </trkpt>
      <trkpt lat="48.24913" lon="7.34503">
        <ele>664.6</ele>
        <time>2026-03-18T14:37:38Z</time>
      </trkpt>
      <trkpt lat="48.24913" lon="7.34503">
        <ele>664.6</ele>
        <time>2026-03-18T14:37:43Z</time>
      </trkpt>
      <trkpt lat="48.24913" lon="7.34503">
        <ele>664.6</ele>
        <time>2026-03-18T14:37:48Z</time>
      </trkpt>
      <trkpt lat="48.24911" lon="7.34494">
        <ele>663.9</ele>
        <time>2026-03-18T14:37:53Z</time>
      </trkpt>
      <trkpt lat="48.24911" lon="7.34485">
        <ele>664.3</ele>
        <time>2026-03-18T14:37:58Z</time>
      </trkpt>
      <trkpt lat="48.24911" lon="7.34475">
        <ele>664.6</ele>
        <time>2026-03-18T14:38:03Z</time>
      </trkpt>
      <trkpt lat="48.24911" lon="7.34466">
        <ele>665</ele>
        <time>2026-03-18T14:38:08Z</time>
      </trkpt>
      <trkpt lat="48.24909" lon="7.34459">
        <ele>664.1</ele>
        <time>2026-03-18T14:38:13Z</time>
      </trkpt>
      <trkpt lat="48.24909" lon="7.3445">
        <ele>664.5</ele>
        <time>2026-03-18T14:38:18Z</time>
      </trkpt>
      <trkpt lat="48.24909" lon="7.34441">
        <ele>664.9</ele>
        <time>2026-03-18T14:38:23Z</time>
      </trkpt>
      <trkpt lat="48.24909" lon="7.34432">
        <ele>665.2</ele>
        <time>2026-03-18T14:38:28Z</time>
      </trkpt>
      <trkpt lat="48.24908" lon="7.34423">
        <ele>665.1</ele>
        <time>2026-03-18T14:38:33Z</time>
      </trkpt>
      <trkpt lat="48.24906" lon="7.34415">
        <ele>664.4</ele>
        <time>2026-03-18T14:38:38Z</time>
      </trkpt>
      <trkpt lat="48.24905" lon="7.34405">
        <ele>664.6</ele>
        <time>2026-03-18T14:38:43Z</time>
      </trkpt>
      <trkpt lat="48.24904" lon="7.344">
        <ele>664.5</ele>
        <time>2026-03-18T14:38:48Z</time>
      </trkpt>
      <trkpt lat="48.24904" lon="7.34397">
        <ele>664.7</ele>
        <time>2026-03-18T14:38:53Z</time>
      </trkpt>
      <trkpt lat="48.24904" lon="7.34397">
        <ele>664.7</ele>
        <time>2026-03-18T14:38:58Z</time>
      </trkpt>
      <trkpt lat="48.24904" lon="7.34384">
        <ele>665.7</ele>
        <time>2026-03-18T14:39:03Z</time>
      </trkpt>
      <trkpt lat="48.24903" lon="7.34374">
        <ele>666</ele>
        <time>2026-03-18T14:39:08Z</time>
      </trkpt>
      <trkpt lat="48.24902" lon="7.34366">
        <ele>666</ele>
        <time>2026-03-18T14:39:13Z</time>
      </trkpt>
      <trkpt lat="48.24901" lon="7.34356">
        <ele>666.2</ele>
        <time>2026-03-18T14:39:18Z</time>
      </trkpt>
      <trkpt lat="48.249" lon="7.34344">
        <ele>666.6</ele>
        <time>2026-03-18T14:39:23Z</time>
      </trkpt>
      <trkpt lat="48.24898" lon="7.34335">
        <ele>666.1</ele>
        <time>2026-03-18T14:39:28Z</time>
      </trkpt>
      <trkpt lat="48.24896" lon="7.34326">
        <ele>665.9</ele>
        <time>2026-03-18T14:39:33Z</time>
      </trkpt>
      <trkpt lat="48.24894" lon="7.34319">
        <ele>665.6</ele>
        <time>2026-03-18T14:39:38Z</time>
      </trkpt>
      <trkpt lat="48.24894" lon="7.34319">
        <ele>665.6</ele>
        <time>2026-03-18T14:39:43Z</time>
      </trkpt>
      <trkpt lat="48.24894" lon="7.34319">
        <ele>665.6</ele>
        <time>2026-03-18T14:39:48Z</time>
      </trkpt>
      <trkpt lat="48.24894" lon="7.34319">
        <ele>665.6</ele>
        <time>2026-03-18T14:39:53Z</time>
      </trkpt>
      <trkpt lat="48.24894" lon="7.34319">
        <ele>665.6</ele>
        <time>2026-03-18T14:39:58Z</time>
      </trkpt>
      <trkpt lat="48.24894" lon="7.34319">
        <ele>665.6</ele>
        <time>2026-03-18T14:40:03Z</time>
      </trkpt>
      <trkpt lat="48.24894" lon="7.34319">
        <ele>665.6</ele>
        <time>2026-03-18T14:40:08Z</time>
      </trkpt>
      <trkpt lat="48.24894" lon="7.34319">
        <ele>665.6</ele>
        <time>2026-03-18T14:40:13Z</time>
      </trkpt>
      <trkpt lat="48.24894" lon="7.34319">
        <ele>665.6</ele>
        <time>2026-03-18T14:40:18Z</time>
      </trkpt>
      <trkpt lat="48.24895" lon="7.34313">
        <ele>666.8</ele>
        <time>2026-03-18T14:40:23Z</time>
      </trkpt>
      <trkpt lat="48.24893" lon="7.34303">
        <ele>666.8</ele>
        <time>2026-03-18T14:40:28Z</time>
      </trkpt>
      <trkpt lat="48.24891" lon="7.34292">
        <ele>666.8</ele>
        <time>2026-03-18T14:40:33Z</time>
      </trkpt>
      <trkpt lat="48.24889" lon="7.34281">
        <ele>666.7</ele>
        <time>2026-03-18T14:40:38Z</time>
      </trkpt>
      <trkpt lat="48.24889" lon="7.34271">
        <ele>667.8</ele>
        <time>2026-03-18T14:40:43Z</time>
      </trkpt>
      <trkpt lat="48.2489" lon="7.3426">
        <ele>669.6</ele>
        <time>2026-03-18T14:40:48Z</time>
      </trkpt>
      <trkpt lat="48.24889" lon="7.34253">
        <ele>669.7</ele>
        <time>2026-03-18T14:40:53Z</time>
      </trkpt>
      <trkpt lat="48.24889" lon="7.34253">
        <ele>669.7</ele>
        <time>2026-03-18T14:40:58Z</time>
      </trkpt>
      <trkpt lat="48.24889" lon="7.34253">
        <ele>669.7</ele>
        <time>2026-03-18T14:41:03Z</time>
      </trkpt>
      <trkpt lat="48.2489" lon="7.34251">
        <ele>670.6</ele>
        <time>2026-03-18T14:41:08Z</time>
      </trkpt>
      <trkpt lat="48.24888" lon="7.34248">
        <ele>669.5</ele>
        <time>2026-03-18T14:41:13Z</time>
      </trkpt>
      <trkpt lat="48.24886" lon="7.34241">
        <ele>668.5</ele>
        <time>2026-03-18T14:41:18Z</time>
      </trkpt>
      <trkpt lat="48.24886" lon="7.3423">
        <ele>669</ele>
        <time>2026-03-18T14:41:23Z</time>
      </trkpt>
      <trkpt lat="48.24886" lon="7.34221">
        <ele>669.5</ele>
        <time>2026-03-18T14:41:28Z</time>
      </trkpt>
      <trkpt lat="48.24886" lon="7.34212">
        <ele>669.9</ele>
        <time>2026-03-18T14:41:33Z</time>
      </trkpt>
      <trkpt lat="48.24885" lon="7.34202">
        <ele>669.7</ele>
        <time>2026-03-18T14:41:38Z</time>
      </trkpt>
      <trkpt lat="48.24885" lon="7.34193">
        <ele>670.1</ele>
        <time>2026-03-18T14:41:43Z</time>
      </trkpt>
      <trkpt lat="48.24885" lon="7.34183">
        <ele>670.6</ele>
        <time>2026-03-18T14:41:48Z</time>
      </trkpt>
      <trkpt lat="48.24885" lon="7.34172">
        <ele>671.1</ele>
        <time>2026-03-18T14:41:53Z</time>
      </trkpt>
      <trkpt lat="48.24886" lon="7.34162">
        <ele>671.9</ele>
        <time>2026-03-18T14:41:58Z</time>
      </trkpt>
      <trkpt lat="48.24885" lon="7.34151">
        <ele>671.3</ele>
        <time>2026-03-18T14:42:03Z</time>
      </trkpt>
      <trkpt lat="48.24885" lon="7.34143">
        <ele>671.2</ele>
        <time>2026-03-18T14:42:08Z</time>
      </trkpt>
      <trkpt lat="48.24885" lon="7.34134">
        <ele>671.1</ele>
        <time>2026-03-18T14:42:13Z</time>
      </trkpt>
      <trkpt lat="48.24885" lon="7.34126">
        <ele>671.1</ele>
        <time>2026-03-18T14:42:18Z</time>
      </trkpt>
      <trkpt lat="48.24884" lon="7.34121">
        <ele>670.5</ele>
        <time>2026-03-18T14:42:23Z</time>
      </trkpt>
      <trkpt lat="48.24883" lon="7.34119">
        <ele>669.9</ele>
        <time>2026-03-18T14:42:28Z</time>
      </trkpt>
      <trkpt lat="48.24887" lon="7.34114">
        <ele>672.1</ele>
        <time>2026-03-18T14:42:33Z</time>
      </trkpt>
      <trkpt lat="48.24888" lon="7.34106">
        <ele>672.7</ele>
        <time>2026-03-18T14:42:38Z</time>
      </trkpt>
      <trkpt lat="48.24887" lon="7.34099">
        <ele>672</ele>
        <time>2026-03-18T14:42:43Z</time>
      </trkpt>
      <trkpt lat="48.24886" lon="7.34089">
        <ele>671.4</ele>
        <time>2026-03-18T14:42:48Z</time>
      </trkpt>
      <trkpt lat="48.24884" lon="7.3408">
        <ele>670.4</ele>
        <time>2026-03-18T14:42:53Z</time>
      </trkpt>
      <trkpt lat="48.24884" lon="7.3407">
        <ele>670.9</ele>
        <time>2026-03-18T14:42:58Z</time>
      </trkpt>
      <trkpt lat="48.24884" lon="7.34058">
        <ele>671.5</ele>
        <time>2026-03-18T14:43:03Z</time>
      </trkpt>
      <trkpt lat="48.24883" lon="7.34046">
        <ele>671.6</ele>
        <time>2026-03-18T14:43:08Z</time>
      </trkpt>
      <trkpt lat="48.24884" lon="7.34039">
        <ele>672.5</ele>
        <time>2026-03-18T14:43:13Z</time>
      </trkpt>
      <trkpt lat="48.24885" lon="7.34029">
        <ele>673.7</ele>
        <time>2026-03-18T14:43:18Z</time>
      </trkpt>
      <trkpt lat="48.24887" lon="7.3402">
        <ele>675.4</ele>
        <time>2026-03-18T14:43:23Z</time>
      </trkpt>
      <trkpt lat="48.24886" lon="7.34014">
        <ele>675.1</ele>
        <time>2026-03-18T14:43:28Z</time>
      </trkpt>
      <trkpt lat="48.24886" lon="7.3401">
        <ele>675.3</ele>
        <time>2026-03-18T14:43:33Z</time>
      </trkpt>
      <trkpt lat="48.24885" lon="7.34006">
        <ele>674.9</ele>
        <time>2026-03-18T14:43:38Z</time>
      </trkpt>
      <trkpt lat="48.24885" lon="7.34006">
        <ele>674.9</ele>
        <time>2026-03-18T14:43:43Z</time>
      </trkpt>
      <trkpt lat="48.24885" lon="7.34006">
        <ele>674.9</ele>
        <time>2026-03-18T14:43:48Z</time>
      </trkpt>
      <trkpt lat="48.24891" lon="7.33995">
        <ele>679</ele>
        <time>2026-03-18T14:43:53Z</time>
      </trkpt>
      <trkpt lat="48.24893" lon="7.33994">
        <ele>680.2</ele>
        <time>2026-03-18T14:43:58Z</time>
      </trkpt>
      <trkpt lat="48.24893" lon="7.33994">
        <ele>680.2</ele>
        <time>2026-03-18T14:44:03Z</time>
      </trkpt>
      <trkpt lat="48.24893" lon="7.33994">
        <ele>680.2</ele>
        <time>2026-03-18T14:44:08Z</time>
      </trkpt>
      <trkpt lat="48.24893" lon="7.33994">
        <ele>680.2</ele>
        <time>2026-03-18T14:44:13Z</time>
      </trkpt>
      <trkpt lat="48.24893" lon="7.33994">
        <ele>680.2</ele>
        <time>2026-03-18T14:44:18Z</time>
      </trkpt>
      <trkpt lat="48.24893" lon="7.33994">
        <ele>680.2</ele>
        <time>2026-03-18T14:44:23Z</time>
      </trkpt>
      <trkpt lat="48.24895" lon="7.33997">
        <ele>681.5</ele>
        <time>2026-03-18T14:44:28Z</time>
      </trkpt>
      <trkpt lat="48.2489" lon="7.34004">
        <ele>678.1</ele>
        <time>2026-03-18T14:44:33Z</time>
      </trkpt>
      <trkpt lat="48.24886" lon="7.34005">
        <ele>675.6</ele>
        <time>2026-03-18T14:44:38Z</time>
      </trkpt>
      <trkpt lat="48.24882" lon="7.34005">
        <ele>673.1</ele>
        <time>2026-03-18T14:44:43Z</time>
      </trkpt>
      <trkpt lat="48.24882" lon="7.34005">
        <ele>673.1</ele>
        <time>2026-03-18T14:44:48Z</time>
      </trkpt>
      <trkpt lat="48.2488" lon="7.34019">
        <ele>671.2</ele>
        <time>2026-03-18T14:44:53Z</time>
      </trkpt>
      <trkpt lat="48.24882" lon="7.34023">
        <ele>672.2</ele>
        <time>2026-03-18T14:44:58Z</time>
      </trkpt>
      <trkpt lat="48.24884" lon="7.34021">
        <ele>673.5</ele>
        <time>2026-03-18T14:45:03Z</time>
      </trkpt>
      <trkpt lat="48.24884" lon="7.3402">
        <ele>673.6</ele>
        <time>2026-03-18T14:45:08Z</time>
      </trkpt>
      <trkpt lat="48.24881" lon="7.34013">
        <ele>672.1</ele>
        <time>2026-03-18T14:45:13Z</time>
      </trkpt>
      <trkpt lat="48.2488" lon="7.34004">
        <ele>671.9</ele>
        <time>2026-03-18T14:45:18Z</time>
      </trkpt>
      <trkpt lat="48.24879" lon="7.33998">
        <ele>671.5</ele>
        <time>2026-03-18T14:45:23Z</time>
      </trkpt>
      <trkpt lat="48.24878" lon="7.33997">
        <ele>670.9</ele>
        <time>2026-03-18T14:45:28Z</time>
      </trkpt>
      <trkpt lat="48.24878" lon="7.33999">
        <ele>670.9</ele>
        <time>2026-03-18T14:45:33Z</time>
      </trkpt>
      <trkpt lat="48.24879" lon="7.34004">
        <ele>671.3</ele>
        <time>2026-03-18T14:45:38Z</time>
      </trkpt>
      <trkpt lat="48.24882" lon="7.34012">
        <ele>672.7</ele>
        <time>2026-03-18T14:45:43Z</time>
      </trkpt>
      <trkpt lat="48.24883" lon="7.34022">
        <ele>672.8</ele>
        <time>2026-03-18T14:45:48Z</time>
      </trkpt>
      <trkpt lat="48.24883" lon="7.34033">
        <ele>672.3</ele>
        <time>2026-03-18T14:45:53Z</time>
      </trkpt>
      <trkpt lat="48.24881" lon="7.34043">
        <ele>670.5</ele>
        <time>2026-03-18T14:45:58Z</time>
      </trkpt>
      <trkpt lat="48.24881" lon="7.34055">
        <ele>669.9</ele>
        <time>2026-03-18T14:46:03Z</time>
      </trkpt>
      <trkpt lat="48.24882" lon="7.34067">
        <ele>669.9</ele>
        <time>2026-03-18T14:46:08Z</time>
      </trkpt>
      <trkpt lat="48.24881" lon="7.34079">
        <ele>668.7</ele>
        <time>2026-03-18T14:46:13Z</time>
      </trkpt>
      <trkpt lat="48.24881" lon="7.3409">
        <ele>668.5</ele>
        <time>2026-03-18T14:46:18Z</time>
      </trkpt>
      <trkpt lat="48.24883" lon="7.34099">
        <ele>669.7</ele>
        <time>2026-03-18T14:46:23Z</time>
      </trkpt>
      <trkpt lat="48.24883" lon="7.34107">
        <ele>669.8</ele>
        <time>2026-03-18T14:46:28Z</time>
      </trkpt>
      <trkpt lat="48.24884" lon="7.34116">
        <ele>670.4</ele>
        <time>2026-03-18T14:46:33Z</time>
      </trkpt>
      <trkpt lat="48.24885" lon="7.34128">
        <ele>671.1</ele>
        <time>2026-03-18T14:46:38Z</time>
      </trkpt>
      <trkpt lat="48.24885" lon="7.34139">
        <ele>671.2</ele>
        <time>2026-03-18T14:46:43Z</time>
      </trkpt>
      <trkpt lat="48.24884" lon="7.34151">
        <ele>670.7</ele>
        <time>2026-03-18T14:46:48Z</time>
      </trkpt>
      <trkpt lat="48.24884" lon="7.34162">
        <ele>670.8</ele>
        <time>2026-03-18T14:46:53Z</time>
      </trkpt>
      <trkpt lat="48.24884" lon="7.34175">
        <ele>670.4</ele>
        <time>2026-03-18T14:46:58Z</time>
      </trkpt>
      <trkpt lat="48.24885" lon="7.34187">
        <ele>670.4</ele>
        <time>2026-03-18T14:47:03Z</time>
      </trkpt>
      <trkpt lat="48.24885" lon="7.34199">
        <ele>669.9</ele>
        <time>2026-03-18T14:47:08Z</time>
      </trkpt>
      <trkpt lat="48.24885" lon="7.34212">
        <ele>669.3</ele>
        <time>2026-03-18T14:47:13Z</time>
      </trkpt>
      <trkpt lat="48.24886" lon="7.34221">
        <ele>669.5</ele>
        <time>2026-03-18T14:47:18Z</time>
      </trkpt>
      <trkpt lat="48.24887" lon="7.34227">
        <ele>669.8</ele>
        <time>2026-03-18T14:47:23Z</time>
      </trkpt>
      <trkpt lat="48.24889" lon="7.34232">
        <ele>670.9</ele>
        <time>2026-03-18T14:47:28Z</time>
      </trkpt>
      <trkpt lat="48.24888" lon="7.3424">
        <ele>669.9</ele>
        <time>2026-03-18T14:47:33Z</time>
      </trkpt>
      <trkpt lat="48.24887" lon="7.34248">
        <ele>668.9</ele>
        <time>2026-03-18T14:47:38Z</time>
      </trkpt>
      <trkpt lat="48.24886" lon="7.34254">
        <ele>667.7</ele>
        <time>2026-03-18T14:47:43Z</time>
      </trkpt>
      <trkpt lat="48.24884" lon="7.34258">
        <ele>666</ele>
        <time>2026-03-18T14:47:48Z</time>
      </trkpt>
      <trkpt lat="48.24882" lon="7.34249">
        <ele>665.6</ele>
        <time>2026-03-18T14:47:53Z</time>
      </trkpt>
      <trkpt lat="48.24883" lon="7.34238">
        <ele>666.8</ele>
        <time>2026-03-18T14:47:58Z</time>
      </trkpt>
      <trkpt lat="48.24884" lon="7.34228">
        <ele>667.9</ele>
        <time>2026-03-18T14:48:03Z</time>
      </trkpt>
      <trkpt lat="48.24883" lon="7.34218">
        <ele>667.7</ele>
        <time>2026-03-18T14:48:08Z</time>
      </trkpt>
      <trkpt lat="48.24883" lon="7.34207">
        <ele>668.3</ele>
        <time>2026-03-18T14:48:13Z</time>
      </trkpt>
      <trkpt lat="48.24881" lon="7.34197">
        <ele>667.5</ele>
        <time>2026-03-18T14:48:18Z</time>
      </trkpt>
      <trkpt lat="48.2488" lon="7.34187">
        <ele>667.4</ele>
        <time>2026-03-18T14:48:23Z</time>
      </trkpt>
      <trkpt lat="48.24879" lon="7.34176">
        <ele>667.4</ele>
        <time>2026-03-18T14:48:28Z</time>
      </trkpt>
      <trkpt lat="48.24879" lon="7.34166">
        <ele>667.8</ele>
        <time>2026-03-18T14:48:33Z</time>
      </trkpt>
      <trkpt lat="48.24878" lon="7.34155">
        <ele>667.2</ele>
        <time>2026-03-18T14:48:38Z</time>
      </trkpt>
      <trkpt lat="48.24877" lon="7.34146">
        <ele>666.5</ele>
        <time>2026-03-18T14:48:43Z</time>
      </trkpt>
      <trkpt lat="48.24877" lon="7.34137">
        <ele>666.5</ele>
        <time>2026-03-18T14:48:48Z</time>
      </trkpt>
      <trkpt lat="48.24876" lon="7.34127">
        <ele>665.8</ele>
        <time>2026-03-18T14:48:53Z</time>
      </trkpt>
      <trkpt lat="48.24875" lon="7.34117">
        <ele>665.2</ele>
        <time>2026-03-18T14:48:58Z</time>
      </trkpt>
      <trkpt lat="48.24876" lon="7.34108">
        <ele>665.7</ele>
        <time>2026-03-18T14:49:03Z</time>
      </trkpt>
      <trkpt lat="48.24873" lon="7.34095">
        <ele>663.9</ele>
        <time>2026-03-18T14:49:08Z</time>
      </trkpt>
      <trkpt lat="48.24872" lon="7.34082">
        <ele>663.3</ele>
        <time>2026-03-18T14:49:13Z</time>
      </trkpt>
      <trkpt lat="48.24872" lon="7.34071">
        <ele>663.8</ele>
        <time>2026-03-18T14:49:18Z</time>
      </trkpt>
      <trkpt lat="48.2487" lon="7.34061">
        <ele>663.1</ele>
        <time>2026-03-18T14:49:23Z</time>
      </trkpt>
      <trkpt lat="48.24869" lon="7.34051">
        <ele>663</ele>
        <time>2026-03-18T14:49:28Z</time>
      </trkpt>
      <trkpt lat="48.24869" lon="7.3404">
        <ele>663.5</ele>
        <time>2026-03-18T14:49:33Z</time>
      </trkpt>
      <trkpt lat="48.24867" lon="7.34029">
        <ele>662.7</ele>
        <time>2026-03-18T14:49:38Z</time>
      </trkpt>
      <trkpt lat="48.24866" lon="7.34018">
        <ele>662.6</ele>
        <time>2026-03-18T14:49:43Z</time>
      </trkpt>
      <trkpt lat="48.24864" lon="7.34007">
        <ele>661.8</ele>
        <time>2026-03-18T14:49:48Z</time>
      </trkpt>
      <trkpt lat="48.24861" lon="7.33999">
        <ele>660.3</ele>
        <time>2026-03-18T14:49:53Z</time>
      </trkpt>
      <trkpt lat="48.24859" lon="7.33991">
        <ele>659.2</ele>
        <time>2026-03-18T14:49:58Z</time>
      </trkpt>
      <trkpt lat="48.24858" lon="7.33984">
        <ele>658.7</ele>
        <time>2026-03-18T14:50:03Z</time>
      </trkpt>
      <trkpt lat="48.24858" lon="7.33974">
        <ele>659</ele>
        <time>2026-03-18T14:50:08Z</time>
      </trkpt>
      <trkpt lat="48.24859" lon="7.33965">
        <ele>659.8</ele>
        <time>2026-03-18T14:50:13Z</time>
      </trkpt>
      <trkpt lat="48.24858" lon="7.33954">
        <ele>659.4</ele>
        <time>2026-03-18T14:50:18Z</time>
      </trkpt>
      <trkpt lat="48.24857" lon="7.33944">
        <ele>659</ele>
        <time>2026-03-18T14:50:23Z</time>
      </trkpt>
      <trkpt lat="48.24855" lon="7.33934">
        <ele>658.1</ele>
        <time>2026-03-18T14:50:28Z</time>
      </trkpt>
      <trkpt lat="48.24853" lon="7.33925">
        <ele>657.1</ele>
        <time>2026-03-18T14:50:33Z</time>
      </trkpt>
      <trkpt lat="48.24852" lon="7.33915">
        <ele>656.8</ele>
        <time>2026-03-18T14:50:38Z</time>
      </trkpt>
      <trkpt lat="48.24851" lon="7.33906">
        <ele>656.7</ele>
        <time>2026-03-18T14:50:43Z</time>
      </trkpt>
      <trkpt lat="48.24849" lon="7.33899">
        <ele>655.9</ele>
        <time>2026-03-18T14:50:48Z</time>
      </trkpt>
      <trkpt lat="48.24846" lon="7.33891">
        <ele>654.6</ele>
        <time>2026-03-18T14:50:53Z</time>
      </trkpt>
      <trkpt lat="48.24844" lon="7.3388">
        <ele>654.1</ele>
        <time>2026-03-18T14:50:58Z</time>
      </trkpt>
      <trkpt lat="48.24842" lon="7.33872">
        <ele>653.4</ele>
        <time>2026-03-18T14:51:03Z</time>
      </trkpt>
      <trkpt lat="48.24841" lon="7.33864">
        <ele>653.3</ele>
        <time>2026-03-18T14:51:08Z</time>
      </trkpt>
      <trkpt lat="48.24839" lon="7.33852">
        <ele>652.9</ele>
        <time>2026-03-18T14:51:13Z</time>
      </trkpt>
      <trkpt lat="48.24838" lon="7.33843">
        <ele>652.9</ele>
        <time>2026-03-18T14:51:18Z</time>
      </trkpt>
      <trkpt lat="48.24836" lon="7.33834">
        <ele>652.4</ele>
        <time>2026-03-18T14:51:23Z</time>
      </trkpt>
      <trkpt lat="48.24833" lon="7.33825">
        <ele>651.2</ele>
        <time>2026-03-18T14:51:28Z</time>
      </trkpt>
      <trkpt lat="48.2483" lon="7.33816">
        <ele>650</ele>
        <time>2026-03-18T14:51:33Z</time>
      </trkpt>
      <trkpt lat="48.24829" lon="7.3381">
        <ele>649.8</ele>
        <time>2026-03-18T14:51:38Z</time>
      </trkpt>
      <trkpt lat="48.24827" lon="7.33802">
        <ele>649.1</ele>
        <time>2026-03-18T14:51:43Z</time>
      </trkpt>
      <trkpt lat="48.24821" lon="7.33796">
        <ele>646.3</ele>
        <time>2026-03-18T14:51:48Z</time>
      </trkpt>
      <trkpt lat="48.24816" lon="7.3379">
        <ele>643.9</ele>
        <time>2026-03-18T14:51:53Z</time>
      </trkpt>
      <trkpt lat="48.24814" lon="7.33783">
        <ele>643.3</ele>
        <time>2026-03-18T14:51:58Z</time>
      </trkpt>
      <trkpt lat="48.24811" lon="7.33777">
        <ele>642</ele>
        <time>2026-03-18T14:52:03Z</time>
      </trkpt>
      <trkpt lat="48.24809" lon="7.33772">
        <ele>641.2</ele>
        <time>2026-03-18T14:52:08Z</time>
      </trkpt>
      <trkpt lat="48.24808" lon="7.33766">
        <ele>641</ele>
        <time>2026-03-18T14:52:13Z</time>
      </trkpt>
      <trkpt lat="48.24806" lon="7.33757">
        <ele>640.5</ele>
        <time>2026-03-18T14:52:18Z</time>
      </trkpt>
      <trkpt lat="48.24803" lon="7.33749">
        <ele>639.4</ele>
        <time>2026-03-18T14:52:23Z</time>
      </trkpt>
      <trkpt lat="48.248" lon="7.33742">
        <ele>637.9</ele>
        <time>2026-03-18T14:52:28Z</time>
      </trkpt>
      <trkpt lat="48.24799" lon="7.33733">
        <ele>637.5</ele>
        <time>2026-03-18T14:52:33Z</time>
      </trkpt>
      <trkpt lat="48.24799" lon="7.33723">
        <ele>637.7</ele>
        <time>2026-03-18T14:52:38Z</time>
      </trkpt>
      <trkpt lat="48.24798" lon="7.33714">
        <ele>637.3</ele>
        <time>2026-03-18T14:52:43Z</time>
      </trkpt>
      <trkpt lat="48.24798" lon="7.33706">
        <ele>637.4</ele>
        <time>2026-03-18T14:52:48Z</time>
      </trkpt>
      <trkpt lat="48.24796" lon="7.33697">
        <ele>636.6</ele>
        <time>2026-03-18T14:52:53Z</time>
      </trkpt>
      <trkpt lat="48.24793" lon="7.3369">
        <ele>635.2</ele>
        <time>2026-03-18T14:52:58Z</time>
      </trkpt>
      <trkpt lat="48.24792" lon="7.3368">
        <ele>634.9</ele>
        <time>2026-03-18T14:53:03Z</time>
      </trkpt>
      <trkpt lat="48.24791" lon="7.33674">
        <ele>634.5</ele>
        <time>2026-03-18T14:53:08Z</time>
      </trkpt>
      <trkpt lat="48.24791" lon="7.33674">
        <ele>634.5</ele>
        <time>2026-03-18T14:53:13Z</time>
      </trkpt>
      <trkpt lat="48.24791" lon="7.33674">
        <ele>634.5</ele>
        <time>2026-03-18T14:53:18Z</time>
      </trkpt>
      <trkpt lat="48.24791" lon="7.33674">
        <ele>634.5</ele>
        <time>2026-03-18T14:53:23Z</time>
      </trkpt>
      <trkpt lat="48.24789" lon="7.33664">
        <ele>633.7</ele>
        <time>2026-03-18T14:53:28Z</time>
      </trkpt>
      <trkpt lat="48.24787" lon="7.33649">
        <ele>632.6</ele>
        <time>2026-03-18T14:53:33Z</time>
      </trkpt>
      <trkpt lat="48.24785" lon="7.33638">
        <ele>631.5</ele>
        <time>2026-03-18T14:53:38Z</time>
      </trkpt>
      <trkpt lat="48.24783" lon="7.33632">
        <ele>630.5</ele>
        <time>2026-03-18T14:53:43Z</time>
      </trkpt>
      <trkpt lat="48.24783" lon="7.33624">
        <ele>630.4</ele>
        <time>2026-03-18T14:53:48Z</time>
      </trkpt>
      <trkpt lat="48.24783" lon="7.33615">
        <ele>630.3</ele>
        <time>2026-03-18T14:53:53Z</time>
      </trkpt>
      <trkpt lat="48.24783" lon="7.33607">
        <ele>630.3</ele>
        <time>2026-03-18T14:53:58Z</time>
      </trkpt>
      <trkpt lat="48.24782" lon="7.33599">
        <ele>629.7</ele>
        <time>2026-03-18T14:54:03Z</time>
      </trkpt>
      <trkpt lat="48.2478" lon="7.33588">
        <ele>628.7</ele>
        <time>2026-03-18T14:54:08Z</time>
      </trkpt>
      <trkpt lat="48.24775" lon="7.33581">
        <ele>626.4</ele>
        <time>2026-03-18T14:54:13Z</time>
      </trkpt>
      <trkpt lat="48.24771" lon="7.33573">
        <ele>624.5</ele>
        <time>2026-03-18T14:54:18Z</time>
      </trkpt>
      <trkpt lat="48.24764" lon="7.33565">
        <ele>621.2</ele>
        <time>2026-03-18T14:54:23Z</time>
      </trkpt>
      <trkpt lat="48.24759" lon="7.33556">
        <ele>619</ele>
        <time>2026-03-18T14:54:28Z</time>
      </trkpt>
      <trkpt lat="48.24756" lon="7.33548">
        <ele>617.6</ele>
        <time>2026-03-18T14:54:33Z</time>
      </trkpt>
      <trkpt lat="48.24754" lon="7.33545">
        <ele>616.7</ele>
        <time>2026-03-18T14:54:38Z</time>
      </trkpt>
      <trkpt lat="48.24751" lon="7.3354">
        <ele>615.4</ele>
        <time>2026-03-18T14:54:43Z</time>
      </trkpt>
      <trkpt lat="48.24748" lon="7.33536">
        <ele>614.2</ele>
        <time>2026-03-18T14:54:48Z</time>
      </trkpt>
      <trkpt lat="48.24745" lon="7.33532">
        <ele>613</ele>
        <time>2026-03-18T14:54:53Z</time>
      </trkpt>
      <trkpt lat="48.2474" lon="7.33525">
        <ele>611</ele>
        <time>2026-03-18T14:54:58Z</time>
      </trkpt>
      <trkpt lat="48.24737" lon="7.33517">
        <ele>609.8</ele>
        <time>2026-03-18T14:55:03Z</time>
      </trkpt>
      <trkpt lat="48.24735" lon="7.33509">
        <ele>609</ele>
        <time>2026-03-18T14:55:08Z</time>
      </trkpt>
      <trkpt lat="48.24733" lon="7.33501">
        <ele>608.3</ele>
        <time>2026-03-18T14:55:13Z</time>
      </trkpt>
      <trkpt lat="48.24731" lon="7.33494">
        <ele>607.8</ele>
        <time>2026-03-18T14:55:18Z</time>
      </trkpt>
      <trkpt lat="48.2473" lon="7.33487">
        <ele>607.8</ele>
        <time>2026-03-18T14:55:23Z</time>
      </trkpt>
      <trkpt lat="48.24729" lon="7.33478">
        <ele>607.9</ele>
        <time>2026-03-18T14:55:28Z</time>
      </trkpt>
      <trkpt lat="48.24729" lon="7.33467">
        <ele>608.6</ele>
        <time>2026-03-18T14:55:33Z</time>
      </trkpt>
      <trkpt lat="48.24728" lon="7.33456">
        <ele>608.8</ele>
        <time>2026-03-18T14:55:38Z</time>
      </trkpt>
      <trkpt lat="48.24726" lon="7.33449">
        <ele>608.4</ele>
        <time>2026-03-18T14:55:43Z</time>
      </trkpt>
      <trkpt lat="48.24725" lon="7.33444">
        <ele>608.3</ele>
        <time>2026-03-18T14:55:48Z</time>
      </trkpt>
      <trkpt lat="48.24722" lon="7.33435">
        <ele>607.5</ele>
        <time>2026-03-18T14:55:53Z</time>
      </trkpt>
      <trkpt lat="48.2472" lon="7.33422">
        <ele>607.5</ele>
        <time>2026-03-18T14:55:58Z</time>
      </trkpt>
      <trkpt lat="48.24718" lon="7.33413">
        <ele>607.1</ele>
        <time>2026-03-18T14:56:03Z</time>
      </trkpt>
      <trkpt lat="48.24717" lon="7.33405">
        <ele>606.9</ele>
        <time>2026-03-18T14:56:08Z</time>
      </trkpt>
      <trkpt lat="48.24717" lon="7.33397">
        <ele>607.1</ele>
        <time>2026-03-18T14:56:13Z</time>
      </trkpt>
      <trkpt lat="48.24716" lon="7.3339">
        <ele>607</ele>
        <time>2026-03-18T14:56:18Z</time>
      </trkpt>
      <trkpt lat="48.24713" lon="7.33381">
        <ele>606.1</ele>
        <time>2026-03-18T14:56:23Z</time>
      </trkpt>
      <trkpt lat="48.24712" lon="7.33375">
        <ele>605.9</ele>
        <time>2026-03-18T14:56:28Z</time>
      </trkpt>
      <trkpt lat="48.24713" lon="7.33365">
        <ele>606.6</ele>
        <time>2026-03-18T14:56:33Z</time>
      </trkpt>
      <trkpt lat="48.24712" lon="7.33359">
        <ele>606.5</ele>
        <time>2026-03-18T14:56:38Z</time>
      </trkpt>
      <trkpt lat="48.24711" lon="7.33349">
        <ele>606.4</ele>
        <time>2026-03-18T14:56:43Z</time>
      </trkpt>
      <trkpt lat="48.24709" lon="7.33338">
        <ele>606.1</ele>
        <time>2026-03-18T14:56:48Z</time>
      </trkpt>
      <trkpt lat="48.2471" lon="7.33331">
        <ele>606.7</ele>
        <time>2026-03-18T14:56:53Z</time>
      </trkpt>
      <trkpt lat="48.24711" lon="7.33326">
        <ele>607.3</ele>
        <time>2026-03-18T14:56:58Z</time>
      </trkpt>
      <trkpt lat="48.24714" lon="7.3332">
        <ele>608.5</ele>
        <time>2026-03-18T14:57:03Z</time>
      </trkpt>
      <trkpt lat="48.24717" lon="7.33315">
        <ele>609.8</ele>
        <time>2026-03-18T14:57:08Z</time>
      </trkpt>
      <trkpt lat="48.2472" lon="7.33308">
        <ele>611.1</ele>
        <time>2026-03-18T14:57:13Z</time>
      </trkpt>
      <trkpt lat="48.24721" lon="7.33302">
        <ele>611.6</ele>
        <time>2026-03-18T14:57:18Z</time>
      </trkpt>
      <trkpt lat="48.24721" lon="7.33294">
        <ele>611.9</ele>
        <time>2026-03-18T14:57:23Z</time>
      </trkpt>
      <trkpt lat="48.24721" lon="7.33289">
        <ele>612</ele>
        <time>2026-03-18T14:57:28Z</time>
      </trkpt>
      <trkpt lat="48.24716" lon="7.33285">
        <ele>610.5</ele>
        <time>2026-03-18T14:57:33Z</time>
      </trkpt>
      <trkpt lat="48.24711" lon="7.33282">
        <ele>609</ele>
        <time>2026-03-18T14:57:38Z</time>
      </trkpt>
      <trkpt lat="48.24707" lon="7.33278">
        <ele>607.9</ele>
        <time>2026-03-18T14:57:43Z</time>
      </trkpt>
      <trkpt lat="48.24702" lon="7.33274">
        <ele>606.5</ele>
        <time>2026-03-18T14:57:48Z</time>
      </trkpt>
      <trkpt lat="48.24697" lon="7.33268">
        <ele>605.2</ele>
        <time>2026-03-18T14:57:53Z</time>
      </trkpt>
      <trkpt lat="48.24692" lon="7.33265">
        <ele>603.8</ele>
        <time>2026-03-18T14:57:58Z</time>
      </trkpt>
      <trkpt lat="48.24689" lon="7.33261">
        <ele>603.1</ele>
        <time>2026-03-18T14:58:03Z</time>
      </trkpt>
      <trkpt lat="48.24685" lon="7.33255">
        <ele>602.2</ele>
        <time>2026-03-18T14:58:08Z</time>
      </trkpt>
      <trkpt lat="48.24684" lon="7.33247">
        <ele>602.2</ele>
        <time>2026-03-18T14:58:13Z</time>
      </trkpt>
      <trkpt lat="48.24683" lon="7.33238">
        <ele>601.8</ele>
        <time>2026-03-18T14:58:18Z</time>
      </trkpt>
      <trkpt lat="48.24683" lon="7.33227">
        <ele>601.7</ele>
        <time>2026-03-18T14:58:23Z</time>
      </trkpt>
      <trkpt lat="48.24683" lon="7.33218">
        <ele>601.7</ele>
        <time>2026-03-18T14:58:28Z</time>
      </trkpt>
      <trkpt lat="48.2468" lon="7.3321">
        <ele>600.9</ele>
        <time>2026-03-18T14:58:33Z</time>
      </trkpt>
      <trkpt lat="48.24674" lon="7.33201">
        <ele>599.4</ele>
        <time>2026-03-18T14:58:38Z</time>
      </trkpt>
      <trkpt lat="48.24668" lon="7.33194">
        <ele>598</ele>
        <time>2026-03-18T14:58:43Z</time>
      </trkpt>
      <trkpt lat="48.24665" lon="7.33188">
        <ele>597</ele>
        <time>2026-03-18T14:58:48Z</time>
      </trkpt>
      <trkpt lat="48.2466" lon="7.33181">
        <ele>595</ele>
        <time>2026-03-18T14:58:53Z</time>
      </trkpt>
      <trkpt lat="48.24656" lon="7.33173">
        <ele>593.5</ele>
        <time>2026-03-18T14:58:58Z</time>
      </trkpt>
      <trkpt lat="48.24653" lon="7.33165">
        <ele>592.2</ele>
        <time>2026-03-18T14:59:03Z</time>
      </trkpt>
      <trkpt lat="48.24649" lon="7.33155">
        <ele>590.4</ele>
        <time>2026-03-18T14:59:08Z</time>
      </trkpt>
      <trkpt lat="48.24647" lon="7.33144">
        <ele>589.4</ele>
        <time>2026-03-18T14:59:13Z</time>
      </trkpt>
      <trkpt lat="48.24646" lon="7.33134">
        <ele>588.8</ele>
        <time>2026-03-18T14:59:18Z</time>
      </trkpt>
      <trkpt lat="48.24645" lon="7.33123">
        <ele>588.3</ele>
        <time>2026-03-18T14:59:23Z</time>
      </trkpt>
      <trkpt lat="48.24644" lon="7.33112">
        <ele>587.7</ele>
        <time>2026-03-18T14:59:28Z</time>
      </trkpt>
      <trkpt lat="48.24642" lon="7.33102">
        <ele>586.8</ele>
        <time>2026-03-18T14:59:33Z</time>
      </trkpt>
      <trkpt lat="48.24639" lon="7.33094">
        <ele>585.5</ele>
        <time>2026-03-18T14:59:38Z</time>
      </trkpt>
      <trkpt lat="48.24638" lon="7.33087">
        <ele>585</ele>
        <time>2026-03-18T14:59:43Z</time>
      </trkpt>
      <trkpt lat="48.24637" lon="7.33079">
        <ele>584.5</ele>
        <time>2026-03-18T14:59:48Z</time>
      </trkpt>
      <trkpt lat="48.24634" lon="7.3307">
        <ele>583.2</ele>
        <time>2026-03-18T14:59:53Z</time>
      </trkpt>
      <trkpt lat="48.24633" lon="7.33059">
        <ele>582.6</ele>
        <time>2026-03-18T14:59:58Z</time>
      </trkpt>
      <trkpt lat="48.2463" lon="7.3305">
        <ele>581.5</ele>
        <time>2026-03-18T15:00:03Z</time>
      </trkpt>
      <trkpt lat="48.24626" lon="7.33042">
        <ele>580.1</ele>
        <time>2026-03-18T15:00:08Z</time>
      </trkpt>
      <trkpt lat="48.24622" lon="7.33033">
        <ele>578.8</ele>
        <time>2026-03-18T15:00:13Z</time>
      </trkpt>
      <trkpt lat="48.24618" lon="7.33025">
        <ele>577.6</ele>
        <time>2026-03-18T15:00:18Z</time>
      </trkpt>
      <trkpt lat="48.24613" lon="7.33017">
        <ele>576.3</ele>
        <time>2026-03-18T15:00:23Z</time>
      </trkpt>
      <trkpt lat="48.24608" lon="7.33009">
        <ele>575</ele>
        <time>2026-03-18T15:00:28Z</time>
      </trkpt>
      <trkpt lat="48.24603" lon="7.33001">
        <ele>573.9</ele>
        <time>2026-03-18T15:00:33Z</time>
      </trkpt>
      <trkpt lat="48.246" lon="7.32993">
        <ele>573.7</ele>
        <time>2026-03-18T15:00:38Z</time>
      </trkpt>
      <trkpt lat="48.24596" lon="7.32983">
        <ele>573.6</ele>
        <time>2026-03-18T15:00:43Z</time>
      </trkpt>
      <trkpt lat="48.24591" lon="7.32976">
        <ele>573.3</ele>
        <time>2026-03-18T15:00:48Z</time>
      </trkpt>
      <trkpt lat="48.24586" lon="7.3297">
        <ele>573</ele>
        <time>2026-03-18T15:00:53Z</time>
      </trkpt>
      <trkpt lat="48.24579" lon="7.32962">
        <ele>571.9</ele>
        <time>2026-03-18T15:00:58Z</time>
      </trkpt>
      <trkpt lat="48.24573" lon="7.32956">
        <ele>570.3</ele>
        <time>2026-03-18T15:01:03Z</time>
      </trkpt>
      <trkpt lat="48.24569" lon="7.32951">
        <ele>569.4</ele>
        <time>2026-03-18T15:01:08Z</time>
      </trkpt>
      <trkpt lat="48.24569" lon="7.32941">
        <ele>570.7</ele>
        <time>2026-03-18T15:01:13Z</time>
      </trkpt>
      <trkpt lat="48.24565" lon="7.32932">
        <ele>570.5</ele>
        <time>2026-03-18T15:01:18Z</time>
      </trkpt>
      <trkpt lat="48.24563" lon="7.32924">
        <ele>570.9</ele>
        <time>2026-03-18T15:01:23Z</time>
      </trkpt>
      <trkpt lat="48.24563" lon="7.32914">
        <ele>572.2</ele>
        <time>2026-03-18T15:01:28Z</time>
      </trkpt>
      <trkpt lat="48.24561" lon="7.32902">
        <ele>573</ele>
        <time>2026-03-18T15:01:33Z</time>
      </trkpt>
      <trkpt lat="48.24558" lon="7.32891">
        <ele>573.5</ele>
        <time>2026-03-18T15:01:38Z</time>
      </trkpt>
      <trkpt lat="48.24555" lon="7.3288">
        <ele>574.2</ele>
        <time>2026-03-18T15:01:43Z</time>
      </trkpt>
      <trkpt lat="48.24553" lon="7.32872">
        <ele>574.8</ele>
        <time>2026-03-18T15:01:48Z</time>
      </trkpt>
      <trkpt lat="48.2455" lon="7.32866">
        <ele>574.9</ele>
        <time>2026-03-18T15:01:53Z</time>
      </trkpt>
      <trkpt lat="48.24545" lon="7.32857">
        <ele>575.2</ele>
        <time>2026-03-18T15:01:58Z</time>
      </trkpt>
      <trkpt lat="48.24539" lon="7.3285">
        <ele>575.2</ele>
        <time>2026-03-18T15:02:03Z</time>
      </trkpt>
      <trkpt lat="48.24532" lon="7.32843">
        <ele>575.2</ele>
        <time>2026-03-18T15:02:08Z</time>
      </trkpt>
      <trkpt lat="48.24525" lon="7.32835">
        <ele>575.6</ele>
        <time>2026-03-18T15:02:13Z</time>
      </trkpt>
      <trkpt lat="48.2452" lon="7.32827">
        <ele>575.4</ele>
        <time>2026-03-18T15:02:18Z</time>
      </trkpt>
      <trkpt lat="48.24515" lon="7.32822">
        <ele>575</ele>
        <time>2026-03-18T15:02:23Z</time>
      </trkpt>
      <trkpt lat="48.2451" lon="7.32815">
        <ele>574.8</ele>
        <time>2026-03-18T15:02:28Z</time>
      </trkpt>
      <trkpt lat="48.24504" lon="7.32806">
        <ele>574.7</ele>
        <time>2026-03-18T15:02:33Z</time>
      </trkpt>
      <trkpt lat="48.24499" lon="7.32799">
        <ele>574.7</ele>
        <time>2026-03-18T15:02:38Z</time>
      </trkpt>
      <trkpt lat="48.24495" lon="7.32791">
        <ele>574.4</ele>
        <time>2026-03-18T15:02:43Z</time>
      </trkpt>
      <trkpt lat="48.24489" lon="7.32784">
        <ele>573.8</ele>
        <time>2026-03-18T15:02:48Z</time>
      </trkpt>
      <trkpt lat="48.24485" lon="7.32778">
        <ele>573.5</ele>
        <time>2026-03-18T15:02:53Z</time>
      </trkpt>
      <trkpt lat="48.24479" lon="7.32772">
        <ele>572.9</ele>
        <time>2026-03-18T15:02:58Z</time>
      </trkpt>
      <trkpt lat="48.2447" lon="7.3277">
        <ele>571.3</ele>
        <time>2026-03-18T15:03:03Z</time>
      </trkpt>
      <trkpt lat="48.24463" lon="7.32774">
        <ele>569.4</ele>
        <time>2026-03-18T15:03:08Z</time>
      </trkpt>
      <trkpt lat="48.24462" lon="7.32777">
        <ele>568.9</ele>
        <time>2026-03-18T15:03:13Z</time>
      </trkpt>
      <trkpt lat="48.24463" lon="7.3278">
        <ele>568.7</ele>
        <time>2026-03-18T15:03:18Z</time>
      </trkpt>
      <trkpt lat="48.24463" lon="7.32782">
        <ele>568.5</ele>
        <time>2026-03-18T15:03:23Z</time>
      </trkpt>
    </trkseg>
  </trk>
</gpx>